<?xml version="1.0" encoding="UTF-8" standalone="no" ?>
<gpx xmlns="http://www.topografix.com/GPX/1/1" xmlns:xsi="http://www.w3.org/2001/XMLSchema-instance" xsi:schemaLocation="http://www.topografix.com/GPX/1/1 http://www.topografix.com/GPX/1/1/gpx.xsd" version="1.1" creator="VisuGPX - https://www.visugpx.com">
  <metadata>
    <name>13317704-René Fontaine</name>
  </metadata>
  <trk>
    <name><![CDATA[13317704-René Fontaine]]></name>
    <extensions>
      <line xmlns="http://www.topografix.com/GPX/gpx_style/0/2">
        <color>0000FF</color>
        <width>4</width>
      </line>
    </extensions>
    <trkseg>
      <trkpt lat="44.3857" lon="6.65023">
        <ele>1138</ele>
        <time>2021-08-04T14:26:53Z</time>
      </trkpt>
      <trkpt lat="44.38582" lon="6.65061">
        <ele>1138</ele>
        <time>2021-08-04T14:26:58Z</time>
      </trkpt>
      <trkpt lat="44.38591" lon="6.65107">
        <ele>1139</ele>
        <time>2021-08-04T14:27:04Z</time>
      </trkpt>
      <trkpt lat="44.38597" lon="6.65104">
        <ele>1140</ele>
        <time>2021-08-04T14:27:05Z</time>
      </trkpt>
      <trkpt lat="44.38615" lon="6.65097">
        <ele>1140</ele>
        <time>2021-08-04T14:27:09Z</time>
      </trkpt>
      <trkpt lat="44.38622" lon="6.65095">
        <ele>1141</ele>
        <time>2021-08-04T14:27:10Z</time>
      </trkpt>
      <trkpt lat="44.38625" lon="6.65111">
        <ele>1141</ele>
        <time>2021-08-04T14:27:12Z</time>
      </trkpt>
      <trkpt lat="44.38635" lon="6.65165">
        <ele>1140</ele>
        <time>2021-08-04T14:27:19Z</time>
      </trkpt>
      <trkpt lat="44.38643" lon="6.65207">
        <ele>1140</ele>
        <time>2021-08-04T14:27:25Z</time>
      </trkpt>
      <trkpt lat="44.38651" lon="6.65248">
        <ele>1141</ele>
        <time>2021-08-04T14:27:30Z</time>
      </trkpt>
      <trkpt lat="44.38655" lon="6.65268">
        <ele>1140</ele>
        <time>2021-08-04T14:27:33Z</time>
      </trkpt>
      <trkpt lat="44.38664" lon="6.65314">
        <ele>1139</ele>
        <time>2021-08-04T14:27:39Z</time>
      </trkpt>
      <trkpt lat="44.38695" lon="6.653">
        <ele>1140</ele>
        <time>2021-08-04T14:27:45Z</time>
      </trkpt>
      <trkpt lat="44.38709" lon="6.65372">
        <ele>1140</ele>
        <time>2021-08-04T14:27:54Z</time>
      </trkpt>
      <trkpt lat="44.38741" lon="6.65362">
        <ele>1141</ele>
        <time>2021-08-04T14:28:00Z</time>
      </trkpt>
      <trkpt lat="44.38745" lon="6.6536">
        <ele>1141</ele>
        <time>2021-08-04T14:28:01Z</time>
      </trkpt>
      <trkpt lat="44.38759" lon="6.6546">
        <ele>1141</ele>
        <time>2021-08-04T14:28:14Z</time>
      </trkpt>
      <trkpt lat="44.38778" lon="6.65611">
        <ele>1143</ele>
        <time>2021-08-04T14:28:33Z</time>
      </trkpt>
      <trkpt lat="44.38787" lon="6.65699">
        <ele>1143</ele>
        <time>2021-08-04T14:28:45Z</time>
      </trkpt>
      <trkpt lat="44.38784" lon="6.65709">
        <ele>1143</ele>
        <time>2021-08-04T14:28:46Z</time>
      </trkpt>
      <trkpt lat="44.38778" lon="6.65722">
        <ele>1142</ele>
        <time>2021-08-04T14:28:48Z</time>
      </trkpt>
      <trkpt lat="44.38784" lon="6.65729">
        <ele>1143</ele>
        <time>2021-08-04T14:28:49Z</time>
      </trkpt>
      <trkpt lat="44.38791" lon="6.65743">
        <ele>1143</ele>
        <time>2021-08-04T14:28:51Z</time>
      </trkpt>
      <trkpt lat="44.38805" lon="6.65856">
        <ele>1142</ele>
        <time>2021-08-04T14:29:06Z</time>
      </trkpt>
      <trkpt lat="44.38823" lon="6.66034">
        <ele>1147</ele>
        <time>2021-08-04T14:29:29Z</time>
      </trkpt>
      <trkpt lat="44.38852" lon="6.66246">
        <ele>1146</ele>
        <time>2021-08-04T14:29:56Z</time>
      </trkpt>
      <trkpt lat="44.38905" lon="6.66407">
        <ele>1146</ele>
        <time>2021-08-04T14:30:19Z</time>
      </trkpt>
      <trkpt lat="44.38926" lon="6.66447">
        <ele>1147</ele>
        <time>2021-08-04T14:30:25Z</time>
      </trkpt>
      <trkpt lat="44.38961" lon="6.665">
        <ele>1150</ele>
        <time>2021-08-04T14:30:34Z</time>
      </trkpt>
      <trkpt lat="44.38969" lon="6.66527">
        <ele>1150</ele>
        <time>2021-08-04T14:30:38Z</time>
      </trkpt>
      <trkpt lat="44.38974" lon="6.66552">
        <ele>1150</ele>
        <time>2021-08-04T14:30:41Z</time>
      </trkpt>
      <trkpt lat="44.39001" lon="6.66611">
        <ele>1151</ele>
        <time>2021-08-04T14:30:50Z</time>
      </trkpt>
      <trkpt lat="44.39011" lon="6.66644">
        <ele>1152</ele>
        <time>2021-08-04T14:30:55Z</time>
      </trkpt>
      <trkpt lat="44.39013" lon="6.66663">
        <ele>1152</ele>
        <time>2021-08-04T14:30:57Z</time>
      </trkpt>
      <trkpt lat="44.39002" lon="6.66732">
        <ele>1150</ele>
        <time>2021-08-04T14:31:06Z</time>
      </trkpt>
      <trkpt lat="44.38997" lon="6.66778">
        <ele>1149</ele>
        <time>2021-08-04T14:31:12Z</time>
      </trkpt>
      <trkpt lat="44.38998" lon="6.66796">
        <ele>1149</ele>
        <time>2021-08-04T14:31:14Z</time>
      </trkpt>
      <trkpt lat="44.39" lon="6.66807">
        <ele>1149</ele>
        <time>2021-08-04T14:31:16Z</time>
      </trkpt>
      <trkpt lat="44.39004" lon="6.66822">
        <ele>1149</ele>
        <time>2021-08-04T14:31:18Z</time>
      </trkpt>
      <trkpt lat="44.39018" lon="6.66882">
        <ele>1150</ele>
        <time>2021-08-04T14:31:26Z</time>
      </trkpt>
      <trkpt lat="44.3902" lon="6.66891">
        <ele>1150</ele>
        <time>2021-08-04T14:31:27Z</time>
      </trkpt>
      <trkpt lat="44.3903" lon="6.66937">
        <ele>1151</ele>
        <time>2021-08-04T14:31:33Z</time>
      </trkpt>
      <trkpt lat="44.39039" lon="6.66962">
        <ele>1151</ele>
        <time>2021-08-04T14:31:37Z</time>
      </trkpt>
      <trkpt lat="44.39046" lon="6.66976">
        <ele>1151</ele>
        <time>2021-08-04T14:31:39Z</time>
      </trkpt>
      <trkpt lat="44.39063" lon="6.66994">
        <ele>1151</ele>
        <time>2021-08-04T14:31:43Z</time>
      </trkpt>
      <trkpt lat="44.391" lon="6.67025">
        <ele>1152</ele>
        <time>2021-08-04T14:31:50Z</time>
      </trkpt>
      <trkpt lat="44.39115" lon="6.67049">
        <ele>1154</ele>
        <time>2021-08-04T14:31:55Z</time>
      </trkpt>
      <trkpt lat="44.39128" lon="6.67078">
        <ele>1155</ele>
        <time>2021-08-04T14:31:59Z</time>
      </trkpt>
      <trkpt lat="44.39135" lon="6.67112">
        <ele>1156</ele>
        <time>2021-08-04T14:32:03Z</time>
      </trkpt>
      <trkpt lat="44.39136" lon="6.67128">
        <ele>1156</ele>
        <time>2021-08-04T14:32:05Z</time>
      </trkpt>
      <trkpt lat="44.3914" lon="6.67228">
        <ele>1156</ele>
        <time>2021-08-04T14:32:18Z</time>
      </trkpt>
      <trkpt lat="44.3914" lon="6.67242">
        <ele>1156</ele>
        <time>2021-08-04T14:32:20Z</time>
      </trkpt>
      <trkpt lat="44.39141" lon="6.67376">
        <ele>1161</ele>
        <time>2021-08-04T14:32:37Z</time>
      </trkpt>
      <trkpt lat="44.3916" lon="6.68243">
        <ele>1166</ele>
        <time>2021-08-04T14:34:27Z</time>
      </trkpt>
      <trkpt lat="44.39162" lon="6.68288">
        <ele>1166</ele>
        <time>2021-08-04T14:34:33Z</time>
      </trkpt>
      <trkpt lat="44.39169" lon="6.68326">
        <ele>1166</ele>
        <time>2021-08-04T14:34:38Z</time>
      </trkpt>
      <trkpt lat="44.39245" lon="6.68612">
        <ele>1168</ele>
        <time>2021-08-04T14:35:17Z</time>
      </trkpt>
      <trkpt lat="44.39286" lon="6.68694">
        <ele>1168</ele>
        <time>2021-08-04T14:35:30Z</time>
      </trkpt>
      <trkpt lat="44.39427" lon="6.68924">
        <ele>1169</ele>
        <time>2021-08-04T14:36:08Z</time>
      </trkpt>
      <trkpt lat="44.39452" lon="6.68961">
        <ele>1171</ele>
        <time>2021-08-04T14:36:15Z</time>
      </trkpt>
      <trkpt lat="44.39526" lon="6.69049">
        <ele>1176</ele>
        <time>2021-08-04T14:36:32Z</time>
      </trkpt>
      <trkpt lat="44.3956" lon="6.69086">
        <ele>1179</ele>
        <time>2021-08-04T14:36:39Z</time>
      </trkpt>
      <trkpt lat="44.39632" lon="6.69154">
        <ele>1178</ele>
        <time>2021-08-04T14:36:55Z</time>
      </trkpt>
      <trkpt lat="44.39699" lon="6.69211">
        <ele>1178</ele>
        <time>2021-08-04T14:37:09Z</time>
      </trkpt>
      <trkpt lat="44.39709" lon="6.69219">
        <ele>1178</ele>
        <time>2021-08-04T14:37:11Z</time>
      </trkpt>
      <trkpt lat="44.39893" lon="6.69371">
        <ele>1179</ele>
        <time>2021-08-04T14:37:49Z</time>
      </trkpt>
      <trkpt lat="44.39931" lon="6.69405">
        <ele>1178</ele>
        <time>2021-08-04T14:37:57Z</time>
      </trkpt>
      <trkpt lat="44.39946" lon="6.69424">
        <ele>1177</ele>
        <time>2021-08-04T14:38:01Z</time>
      </trkpt>
      <trkpt lat="44.39964" lon="6.69465">
        <ele>1177</ele>
        <time>2021-08-04T14:38:07Z</time>
      </trkpt>
      <trkpt lat="44.3998" lon="6.6951">
        <ele>1176</ele>
        <time>2021-08-04T14:38:13Z</time>
      </trkpt>
      <trkpt lat="44.40173" lon="6.70064">
        <ele>1188</ele>
        <time>2021-08-04T14:39:31Z</time>
      </trkpt>
      <trkpt lat="44.40181" lon="6.70086">
        <ele>1188</ele>
        <time>2021-08-04T14:39:35Z</time>
      </trkpt>
      <trkpt lat="44.40192" lon="6.70105">
        <ele>1187</ele>
        <time>2021-08-04T14:39:38Z</time>
      </trkpt>
      <trkpt lat="44.402" lon="6.70115">
        <ele>1187</ele>
        <time>2021-08-04T14:39:40Z</time>
      </trkpt>
      <trkpt lat="44.40212" lon="6.7013">
        <ele>1188</ele>
        <time>2021-08-04T14:39:42Z</time>
      </trkpt>
      <trkpt lat="44.40227" lon="6.70142">
        <ele>1188</ele>
        <time>2021-08-04T14:39:46Z</time>
      </trkpt>
      <trkpt lat="44.4033" lon="6.70182">
        <ele>1186</ele>
        <time>2021-08-04T14:40:05Z</time>
      </trkpt>
      <trkpt lat="44.40357" lon="6.70195">
        <ele>1186</ele>
        <time>2021-08-04T14:40:10Z</time>
      </trkpt>
      <trkpt lat="44.40384" lon="6.70222">
        <ele>1184</ele>
        <time>2021-08-04T14:40:16Z</time>
      </trkpt>
      <trkpt lat="44.40402" lon="6.70263">
        <ele>1182</ele>
        <time>2021-08-04T14:40:22Z</time>
      </trkpt>
      <trkpt lat="44.40455" lon="6.70464">
        <ele>1181</ele>
        <time>2021-08-04T14:40:49Z</time>
      </trkpt>
      <trkpt lat="44.40479" lon="6.70563">
        <ele>1178</ele>
        <time>2021-08-04T14:41:02Z</time>
      </trkpt>
      <trkpt lat="44.40482" lon="6.70595">
        <ele>1178</ele>
        <time>2021-08-04T14:41:06Z</time>
      </trkpt>
      <trkpt lat="44.40486" lon="6.71138">
        <ele>1191</ele>
        <time>2021-08-04T14:42:15Z</time>
      </trkpt>
      <trkpt lat="44.4049" lon="6.71176">
        <ele>1192</ele>
        <time>2021-08-04T14:42:20Z</time>
      </trkpt>
      <trkpt lat="44.40587" lon="6.71797">
        <ele>1204</ele>
        <time>2021-08-04T14:43:41Z</time>
      </trkpt>
      <trkpt lat="44.40692" lon="6.72148">
        <ele>1212</ele>
        <time>2021-08-04T14:44:29Z</time>
      </trkpt>
      <trkpt lat="44.40719" lon="6.7223">
        <ele>1210</ele>
        <time>2021-08-04T14:44:41Z</time>
      </trkpt>
      <trkpt lat="44.40902" lon="6.72618">
        <ele>1212</ele>
        <time>2021-08-04T14:45:40Z</time>
      </trkpt>
      <trkpt lat="44.40912" lon="6.72634">
        <ele>1212</ele>
        <time>2021-08-04T14:45:43Z</time>
      </trkpt>
      <trkpt lat="44.4093" lon="6.72665">
        <ele>1213</ele>
        <time>2021-08-04T14:45:48Z</time>
      </trkpt>
      <trkpt lat="44.40942" lon="6.72686">
        <ele>1214</ele>
        <time>2021-08-04T14:45:51Z</time>
      </trkpt>
      <trkpt lat="44.40986" lon="6.72747">
        <ele>1215</ele>
        <time>2021-08-04T14:46:02Z</time>
      </trkpt>
      <trkpt lat="44.41009" lon="6.72776">
        <ele>1215</ele>
        <time>2021-08-04T14:46:08Z</time>
      </trkpt>
      <trkpt lat="44.4102" lon="6.72789">
        <ele>1216</ele>
        <time>2021-08-04T14:46:10Z</time>
      </trkpt>
      <trkpt lat="44.41041" lon="6.72809">
        <ele>1216</ele>
        <time>2021-08-04T14:46:15Z</time>
      </trkpt>
      <trkpt lat="44.41085" lon="6.72841">
        <ele>1216</ele>
        <time>2021-08-04T14:46:24Z</time>
      </trkpt>
      <trkpt lat="44.41106" lon="6.72853">
        <ele>1216</ele>
        <time>2021-08-04T14:46:28Z</time>
      </trkpt>
      <trkpt lat="44.41136" lon="6.72864">
        <ele>1216</ele>
        <time>2021-08-04T14:46:33Z</time>
      </trkpt>
      <trkpt lat="44.41215" lon="6.7289">
        <ele>1215</ele>
        <time>2021-08-04T14:46:48Z</time>
      </trkpt>
      <trkpt lat="44.41265" lon="6.72901">
        <ele>1215</ele>
        <time>2021-08-04T14:46:57Z</time>
      </trkpt>
      <trkpt lat="44.41304" lon="6.72902">
        <ele>1215</ele>
        <time>2021-08-04T14:47:03Z</time>
      </trkpt>
      <trkpt lat="44.41346" lon="6.7289">
        <ele>1216</ele>
        <time>2021-08-04T14:47:11Z</time>
      </trkpt>
      <trkpt lat="44.41425" lon="6.72855">
        <ele>1216</ele>
        <time>2021-08-04T14:47:26Z</time>
      </trkpt>
      <trkpt lat="44.41469" lon="6.72836">
        <ele>1216</ele>
        <time>2021-08-04T14:47:34Z</time>
      </trkpt>
      <trkpt lat="44.41504" lon="6.72823">
        <ele>1217</ele>
        <time>2021-08-04T14:47:40Z</time>
      </trkpt>
      <trkpt lat="44.41523" lon="6.7282">
        <ele>1217</ele>
        <time>2021-08-04T14:47:44Z</time>
      </trkpt>
      <trkpt lat="44.41539" lon="6.72822">
        <ele>1217</ele>
        <time>2021-08-04T14:47:47Z</time>
      </trkpt>
      <trkpt lat="44.41603" lon="6.72836">
        <ele>1216</ele>
        <time>2021-08-04T14:47:58Z</time>
      </trkpt>
      <trkpt lat="44.41618" lon="6.72842">
        <ele>1216</ele>
        <time>2021-08-04T14:48:01Z</time>
      </trkpt>
      <trkpt lat="44.41632" lon="6.72848">
        <ele>1216</ele>
        <time>2021-08-04T14:48:04Z</time>
      </trkpt>
      <trkpt lat="44.41656" lon="6.72865">
        <ele>1216</ele>
        <time>2021-08-04T14:48:08Z</time>
      </trkpt>
      <trkpt lat="44.41693" lon="6.72906">
        <ele>1215</ele>
        <time>2021-08-04T14:48:17Z</time>
      </trkpt>
      <trkpt lat="44.4171" lon="6.72932">
        <ele>1214</ele>
        <time>2021-08-04T14:48:21Z</time>
      </trkpt>
      <trkpt lat="44.4172" lon="6.72947">
        <ele>1213</ele>
        <time>2021-08-04T14:48:24Z</time>
      </trkpt>
      <trkpt lat="44.41748" lon="6.72988">
        <ele>1212</ele>
        <time>2021-08-04T14:48:31Z</time>
      </trkpt>
      <trkpt lat="44.41773" lon="6.73026">
        <ele>1214</ele>
        <time>2021-08-04T14:48:38Z</time>
      </trkpt>
      <trkpt lat="44.41784" lon="6.73041">
        <ele>1215</ele>
        <time>2021-08-04T14:48:40Z</time>
      </trkpt>
      <trkpt lat="44.41814" lon="6.73085">
        <ele>1215</ele>
        <time>2021-08-04T14:48:48Z</time>
      </trkpt>
      <trkpt lat="44.41828" lon="6.73114">
        <ele>1214</ele>
        <time>2021-08-04T14:48:53Z</time>
      </trkpt>
      <trkpt lat="44.41835" lon="6.73136">
        <ele>1214</ele>
        <time>2021-08-04T14:48:56Z</time>
      </trkpt>
      <trkpt lat="44.41851" lon="6.73197">
        <ele>1214</ele>
        <time>2021-08-04T14:49:04Z</time>
      </trkpt>
      <trkpt lat="44.41864" lon="6.73258">
        <ele>1216</ele>
        <time>2021-08-04T14:49:12Z</time>
      </trkpt>
      <trkpt lat="44.4187" lon="6.73286">
        <ele>1217</ele>
        <time>2021-08-04T14:49:16Z</time>
      </trkpt>
      <trkpt lat="44.41873" lon="6.73302">
        <ele>1218</ele>
        <time>2021-08-04T14:49:18Z</time>
      </trkpt>
      <trkpt lat="44.41883" lon="6.73318">
        <ele>1218</ele>
        <time>2021-08-04T14:49:21Z</time>
      </trkpt>
      <trkpt lat="44.41889" lon="6.73325">
        <ele>1219</ele>
        <time>2021-08-04T14:49:22Z</time>
      </trkpt>
      <trkpt lat="44.41929" lon="6.73357">
        <ele>1222</ele>
        <time>2021-08-04T14:49:30Z</time>
      </trkpt>
      <trkpt lat="44.41935" lon="6.73364">
        <ele>1223</ele>
        <time>2021-08-04T14:49:32Z</time>
      </trkpt>
      <trkpt lat="44.41944" lon="6.73381">
        <ele>1224</ele>
        <time>2021-08-04T14:49:34Z</time>
      </trkpt>
      <trkpt lat="44.4195" lon="6.73394">
        <ele>1225</ele>
        <time>2021-08-04T14:49:36Z</time>
      </trkpt>
      <trkpt lat="44.41956" lon="6.73405">
        <ele>1226</ele>
        <time>2021-08-04T14:49:38Z</time>
      </trkpt>
      <trkpt lat="44.41961" lon="6.73418">
        <ele>1226</ele>
        <time>2021-08-04T14:49:40Z</time>
      </trkpt>
      <trkpt lat="44.41965" lon="6.73425">
        <ele>1226</ele>
        <time>2021-08-04T14:49:41Z</time>
      </trkpt>
      <trkpt lat="44.41969" lon="6.73434">
        <ele>1225</ele>
        <time>2021-08-04T14:49:42Z</time>
      </trkpt>
      <trkpt lat="44.41977" lon="6.73452">
        <ele>1224</ele>
        <time>2021-08-04T14:49:45Z</time>
      </trkpt>
      <trkpt lat="44.41981" lon="6.7346">
        <ele>1224</ele>
        <time>2021-08-04T14:49:46Z</time>
      </trkpt>
      <trkpt lat="44.41987" lon="6.73476">
        <ele>1222</ele>
        <time>2021-08-04T14:49:49Z</time>
      </trkpt>
      <trkpt lat="44.41993" lon="6.73495">
        <ele>1220</ele>
        <time>2021-08-04T14:49:51Z</time>
      </trkpt>
      <trkpt lat="44.42002" lon="6.73527">
        <ele>1220</ele>
        <time>2021-08-04T14:49:56Z</time>
      </trkpt>
      <trkpt lat="44.4201" lon="6.73554">
        <ele>1220</ele>
        <time>2021-08-04T14:49:59Z</time>
      </trkpt>
      <trkpt lat="44.42011" lon="6.73579">
        <ele>1220</ele>
        <time>2021-08-04T14:50:02Z</time>
      </trkpt>
      <trkpt lat="44.42011" lon="6.73603">
        <ele>1220</ele>
        <time>2021-08-04T14:50:05Z</time>
      </trkpt>
      <trkpt lat="44.42014" lon="6.73615">
        <ele>1220</ele>
        <time>2021-08-04T14:50:07Z</time>
      </trkpt>
      <trkpt lat="44.42019" lon="6.73625">
        <ele>1220</ele>
        <time>2021-08-04T14:50:09Z</time>
      </trkpt>
      <trkpt lat="44.42026" lon="6.73635">
        <ele>1220</ele>
        <time>2021-08-04T14:50:10Z</time>
      </trkpt>
      <trkpt lat="44.42025" lon="6.7364">
        <ele>1220</ele>
        <time>2021-08-04T14:50:11Z</time>
      </trkpt>
      <trkpt lat="44.42026" lon="6.73635">
        <ele>1220</ele>
        <time>2021-08-04T14:50:12Z</time>
      </trkpt>
      <trkpt lat="44.42057" lon="6.73662">
        <ele>1219</ele>
        <time>2021-08-04T14:50:18Z</time>
      </trkpt>
      <trkpt lat="44.42045" lon="6.73691">
        <ele>1219</ele>
        <time>2021-08-04T14:50:23Z</time>
      </trkpt>
      <trkpt lat="44.42037" lon="6.73708">
        <ele>1220</ele>
        <time>2021-08-04T14:50:25Z</time>
      </trkpt>
      <trkpt lat="44.42027" lon="6.73743">
        <ele>1219</ele>
        <time>2021-08-04T14:50:30Z</time>
      </trkpt>
      <trkpt lat="44.42021" lon="6.7377">
        <ele>1219</ele>
        <time>2021-08-04T14:50:33Z</time>
      </trkpt>
      <trkpt lat="44.42014" lon="6.73833">
        <ele>1220</ele>
        <time>2021-08-04T14:50:42Z</time>
      </trkpt>
      <trkpt lat="44.42013" lon="6.7384">
        <ele>1220</ele>
        <time>2021-08-04T14:50:42Z</time>
      </trkpt>
      <trkpt lat="44.42009" lon="6.73872">
        <ele>1221</ele>
        <time>2021-08-04T14:50:47Z</time>
      </trkpt>
      <trkpt lat="44.42" lon="6.73929">
        <ele>1222</ele>
        <time>2021-08-04T14:50:54Z</time>
      </trkpt>
      <trkpt lat="44.41996" lon="6.73942">
        <ele>1223</ele>
        <time>2021-08-04T14:50:56Z</time>
      </trkpt>
      <trkpt lat="44.41983" lon="6.73965">
        <ele>1223</ele>
        <time>2021-08-04T14:51:00Z</time>
      </trkpt>
      <trkpt lat="44.41971" lon="6.73981">
        <ele>1223</ele>
        <time>2021-08-04T14:51:03Z</time>
      </trkpt>
      <trkpt lat="44.41953" lon="6.73999">
        <ele>1223</ele>
        <time>2021-08-04T14:51:06Z</time>
      </trkpt>
      <trkpt lat="44.41869" lon="6.74056">
        <ele>1223</ele>
        <time>2021-08-04T14:51:23Z</time>
      </trkpt>
      <trkpt lat="44.4181" lon="6.74112">
        <ele>1227</ele>
        <time>2021-08-04T14:51:36Z</time>
      </trkpt>
      <trkpt lat="44.41728" lon="6.74172">
        <ele>1234</ele>
        <time>2021-08-04T14:51:52Z</time>
      </trkpt>
      <trkpt lat="44.41713" lon="6.74191">
        <ele>1236</ele>
        <time>2021-08-04T14:51:56Z</time>
      </trkpt>
      <trkpt lat="44.41689" lon="6.74228">
        <ele>1238</ele>
        <time>2021-08-04T14:52:02Z</time>
      </trkpt>
      <trkpt lat="44.41633" lon="6.74297">
        <ele>1239</ele>
        <time>2021-08-04T14:52:15Z</time>
      </trkpt>
      <trkpt lat="44.41611" lon="6.74319">
        <ele>1240</ele>
        <time>2021-08-04T14:52:20Z</time>
      </trkpt>
      <trkpt lat="44.41593" lon="6.74329">
        <ele>1240</ele>
        <time>2021-08-04T14:52:24Z</time>
      </trkpt>
      <trkpt lat="44.41584" lon="6.74338">
        <ele>1240</ele>
        <time>2021-08-04T14:52:26Z</time>
      </trkpt>
      <trkpt lat="44.41545" lon="6.74434">
        <ele>1246</ele>
        <time>2021-08-04T14:52:40Z</time>
      </trkpt>
      <trkpt lat="44.41525" lon="6.7449">
        <ele>1250</ele>
        <time>2021-08-04T14:52:48Z</time>
      </trkpt>
      <trkpt lat="44.41522" lon="6.74514">
        <ele>1252</ele>
        <time>2021-08-04T14:52:51Z</time>
      </trkpt>
      <trkpt lat="44.41523" lon="6.74539">
        <ele>1254</ele>
        <time>2021-08-04T14:52:54Z</time>
      </trkpt>
      <trkpt lat="44.4152" lon="6.74578">
        <ele>1258</ele>
        <time>2021-08-04T14:52:59Z</time>
      </trkpt>
      <trkpt lat="44.41493" lon="6.74669">
        <ele>1257</ele>
        <time>2021-08-04T14:53:11Z</time>
      </trkpt>
      <trkpt lat="44.41479" lon="6.74751">
        <ele>1260</ele>
        <time>2021-08-04T14:53:22Z</time>
      </trkpt>
      <trkpt lat="44.41459" lon="6.74807">
        <ele>1261</ele>
        <time>2021-08-04T14:53:30Z</time>
      </trkpt>
      <trkpt lat="44.41456" lon="6.74821">
        <ele>1262</ele>
        <time>2021-08-04T14:53:32Z</time>
      </trkpt>
      <trkpt lat="44.41456" lon="6.7484">
        <ele>1263</ele>
        <time>2021-08-04T14:53:34Z</time>
      </trkpt>
      <trkpt lat="44.41459" lon="6.74857">
        <ele>1264</ele>
        <time>2021-08-04T14:53:37Z</time>
      </trkpt>
      <trkpt lat="44.41477" lon="6.7491">
        <ele>1268</ele>
        <time>2021-08-04T14:53:44Z</time>
      </trkpt>
      <trkpt lat="44.41522" lon="6.75021">
        <ele>1277</ele>
        <time>2021-08-04T14:54:00Z</time>
      </trkpt>
      <trkpt lat="44.41532" lon="6.75041">
        <ele>1280</ele>
        <time>2021-08-04T14:54:03Z</time>
      </trkpt>
      <trkpt lat="44.41551" lon="6.75067">
        <ele>1287</ele>
        <time>2021-08-04T14:54:08Z</time>
      </trkpt>
      <trkpt lat="44.41553" lon="6.7508">
        <ele>1288</ele>
        <time>2021-08-04T14:54:10Z</time>
      </trkpt>
      <trkpt lat="44.4155" lon="6.75092">
        <ele>1287</ele>
        <time>2021-08-04T14:54:11Z</time>
      </trkpt>
      <trkpt lat="44.41542" lon="6.75104">
        <ele>1286</ele>
        <time>2021-08-04T14:54:14Z</time>
      </trkpt>
      <trkpt lat="44.41519" lon="6.75123">
        <ele>1281</ele>
        <time>2021-08-04T14:54:18Z</time>
      </trkpt>
      <trkpt lat="44.41513" lon="6.75127">
        <ele>1280</ele>
        <time>2021-08-04T14:54:19Z</time>
      </trkpt>
      <trkpt lat="44.41478" lon="6.75137">
        <ele>1279</ele>
        <time>2021-08-04T14:54:26Z</time>
      </trkpt>
      <trkpt lat="44.41466" lon="6.75145">
        <ele>1281</ele>
        <time>2021-08-04T14:54:28Z</time>
      </trkpt>
      <trkpt lat="44.41462" lon="6.75156">
        <ele>1282</ele>
        <time>2021-08-04T14:54:30Z</time>
      </trkpt>
      <trkpt lat="44.41463" lon="6.75173">
        <ele>1284</ele>
        <time>2021-08-04T14:54:32Z</time>
      </trkpt>
      <trkpt lat="44.41473" lon="6.75196">
        <ele>1286</ele>
        <time>2021-08-04T14:54:35Z</time>
      </trkpt>
      <trkpt lat="44.41501" lon="6.75246">
        <ele>1286</ele>
        <time>2021-08-04T14:54:43Z</time>
      </trkpt>
      <trkpt lat="44.41503" lon="6.75261">
        <ele>1288</ele>
        <time>2021-08-04T14:54:45Z</time>
      </trkpt>
      <trkpt lat="44.41501" lon="6.75275">
        <ele>1289</ele>
        <time>2021-08-04T14:54:47Z</time>
      </trkpt>
      <trkpt lat="44.41494" lon="6.75283">
        <ele>1291</ele>
        <time>2021-08-04T14:54:49Z</time>
      </trkpt>
      <trkpt lat="44.41485" lon="6.75285">
        <ele>1293</ele>
        <time>2021-08-04T14:54:50Z</time>
      </trkpt>
      <trkpt lat="44.41475" lon="6.75272">
        <ele>1294</ele>
        <time>2021-08-04T14:54:53Z</time>
      </trkpt>
      <trkpt lat="44.41456" lon="6.75232">
        <ele>1293</ele>
        <time>2021-08-04T14:54:59Z</time>
      </trkpt>
      <trkpt lat="44.41433" lon="6.75197">
        <ele>1292</ele>
        <time>2021-08-04T14:55:05Z</time>
      </trkpt>
      <trkpt lat="44.41387" lon="6.75171">
        <ele>1296</ele>
        <time>2021-08-04T14:55:14Z</time>
      </trkpt>
      <trkpt lat="44.4138" lon="6.75176">
        <ele>1298</ele>
        <time>2021-08-04T14:55:15Z</time>
      </trkpt>
      <trkpt lat="44.41383" lon="6.75193">
        <ele>1300</ele>
        <time>2021-08-04T14:55:17Z</time>
      </trkpt>
      <trkpt lat="44.4142" lon="6.75285">
        <ele>1306</ele>
        <time>2021-08-04T14:55:31Z</time>
      </trkpt>
      <trkpt lat="44.41421" lon="6.753">
        <ele>1307</ele>
        <time>2021-08-04T14:55:33Z</time>
      </trkpt>
      <trkpt lat="44.41366" lon="6.75261">
        <ele>1314</ele>
        <time>2021-08-04T14:55:44Z</time>
      </trkpt>
      <trkpt lat="44.41354" lon="6.75245">
        <ele>1315</ele>
        <time>2021-08-04T14:55:47Z</time>
      </trkpt>
      <trkpt lat="44.4134" lon="6.75239">
        <ele>1316</ele>
        <time>2021-08-04T14:55:49Z</time>
      </trkpt>
      <trkpt lat="44.4136" lon="6.75304">
        <ele>1319</ele>
        <time>2021-08-04T14:55:58Z</time>
      </trkpt>
      <trkpt lat="44.41365" lon="6.75333">
        <ele>1320</ele>
        <time>2021-08-04T14:56:02Z</time>
      </trkpt>
      <trkpt lat="44.41369" lon="6.7538">
        <ele>1325</ele>
        <time>2021-08-04T14:56:08Z</time>
      </trkpt>
      <trkpt lat="44.41367" lon="6.75395">
        <ele>1327</ele>
        <time>2021-08-04T14:56:10Z</time>
      </trkpt>
      <trkpt lat="44.41361" lon="6.75406">
        <ele>1330</ele>
        <time>2021-08-04T14:56:12Z</time>
      </trkpt>
      <trkpt lat="44.41353" lon="6.75408">
        <ele>1332</ele>
        <time>2021-08-04T14:56:13Z</time>
      </trkpt>
      <trkpt lat="44.41342" lon="6.75401">
        <ele>1333</ele>
        <time>2021-08-04T14:56:15Z</time>
      </trkpt>
      <trkpt lat="44.4131" lon="6.75342">
        <ele>1333</ele>
        <time>2021-08-04T14:56:25Z</time>
      </trkpt>
      <trkpt lat="44.41272" lon="6.75285">
        <ele>1336</ele>
        <time>2021-08-04T14:56:35Z</time>
      </trkpt>
      <trkpt lat="44.41259" lon="6.75274">
        <ele>1337</ele>
        <time>2021-08-04T14:56:37Z</time>
      </trkpt>
      <trkpt lat="44.4125" lon="6.75273">
        <ele>1339</ele>
        <time>2021-08-04T14:56:39Z</time>
      </trkpt>
      <trkpt lat="44.41242" lon="6.75281">
        <ele>1343</ele>
        <time>2021-08-04T14:56:41Z</time>
      </trkpt>
      <trkpt lat="44.41241" lon="6.75297">
        <ele>1345</ele>
        <time>2021-08-04T14:56:43Z</time>
      </trkpt>
      <trkpt lat="44.41246" lon="6.75313">
        <ele>1346</ele>
        <time>2021-08-04T14:56:45Z</time>
      </trkpt>
      <trkpt lat="44.4127" lon="6.75362">
        <ele>1347</ele>
        <time>2021-08-04T14:56:53Z</time>
      </trkpt>
      <trkpt lat="44.41302" lon="6.75459">
        <ele>1350</ele>
        <time>2021-08-04T14:57:06Z</time>
      </trkpt>
      <trkpt lat="44.41307" lon="6.75487">
        <ele>1351</ele>
        <time>2021-08-04T14:57:10Z</time>
      </trkpt>
      <trkpt lat="44.41307" lon="6.75513">
        <ele>1352</ele>
        <time>2021-08-04T14:57:13Z</time>
      </trkpt>
      <trkpt lat="44.41301" lon="6.75546">
        <ele>1355</ele>
        <time>2021-08-04T14:57:17Z</time>
      </trkpt>
      <trkpt lat="44.41291" lon="6.75572">
        <ele>1358</ele>
        <time>2021-08-04T14:57:21Z</time>
      </trkpt>
      <trkpt lat="44.41282" lon="6.75586">
        <ele>1361</ele>
        <time>2021-08-04T14:57:24Z</time>
      </trkpt>
      <trkpt lat="44.4127" lon="6.75591">
        <ele>1363</ele>
        <time>2021-08-04T14:57:26Z</time>
      </trkpt>
      <trkpt lat="44.4126" lon="6.75581">
        <ele>1365</ele>
        <time>2021-08-04T14:57:28Z</time>
      </trkpt>
      <trkpt lat="44.41257" lon="6.75559">
        <ele>1365</ele>
        <time>2021-08-04T14:57:31Z</time>
      </trkpt>
      <trkpt lat="44.41266" lon="6.75522">
        <ele>1362</ele>
        <time>2021-08-04T14:57:36Z</time>
      </trkpt>
      <trkpt lat="44.41265" lon="6.75498">
        <ele>1362</ele>
        <time>2021-08-04T14:57:39Z</time>
      </trkpt>
      <trkpt lat="44.41262" lon="6.75478">
        <ele>1362</ele>
        <time>2021-08-04T14:57:41Z</time>
      </trkpt>
      <trkpt lat="44.4125" lon="6.75459">
        <ele>1364</ele>
        <time>2021-08-04T14:57:45Z</time>
      </trkpt>
      <trkpt lat="44.41132" lon="6.75296">
        <ele>1377</ele>
        <time>2021-08-04T14:58:14Z</time>
      </trkpt>
      <trkpt lat="44.4112" lon="6.75263">
        <ele>1379</ele>
        <time>2021-08-04T14:58:19Z</time>
      </trkpt>
      <trkpt lat="44.41118" lon="6.75225">
        <ele>1380</ele>
        <time>2021-08-04T14:58:24Z</time>
      </trkpt>
      <trkpt lat="44.41118" lon="6.75164">
        <ele>1382</ele>
        <time>2021-08-04T14:58:31Z</time>
      </trkpt>
      <trkpt lat="44.41124" lon="6.75114">
        <ele>1382</ele>
        <time>2021-08-04T14:58:38Z</time>
      </trkpt>
      <trkpt lat="44.4112" lon="6.75103">
        <ele>1383</ele>
        <time>2021-08-04T14:58:39Z</time>
      </trkpt>
      <trkpt lat="44.41109" lon="6.75097">
        <ele>1386</ele>
        <time>2021-08-04T14:58:42Z</time>
      </trkpt>
      <trkpt lat="44.411" lon="6.75105">
        <ele>1387</ele>
        <time>2021-08-04T14:58:43Z</time>
      </trkpt>
      <trkpt lat="44.41088" lon="6.75143">
        <ele>1390</ele>
        <time>2021-08-04T14:58:49Z</time>
      </trkpt>
      <trkpt lat="44.41083" lon="6.75225">
        <ele>1390</ele>
        <time>2021-08-04T14:58:59Z</time>
      </trkpt>
      <trkpt lat="44.41076" lon="6.75256">
        <ele>1389</ele>
        <time>2021-08-04T14:59:03Z</time>
      </trkpt>
      <trkpt lat="44.41064" lon="6.75278">
        <ele>1390</ele>
        <time>2021-08-04T14:59:07Z</time>
      </trkpt>
      <trkpt lat="44.41041" lon="6.75305">
        <ele>1394</ele>
        <time>2021-08-04T14:59:12Z</time>
      </trkpt>
      <trkpt lat="44.41017" lon="6.7532">
        <ele>1399</ele>
        <time>2021-08-04T14:59:17Z</time>
      </trkpt>
      <trkpt lat="44.40981" lon="6.75337">
        <ele>1407</ele>
        <time>2021-08-04T14:59:24Z</time>
      </trkpt>
      <trkpt lat="44.40963" lon="6.75342">
        <ele>1410</ele>
        <time>2021-08-04T14:59:27Z</time>
      </trkpt>
      <trkpt lat="44.40904" lon="6.75339">
        <ele>1414</ele>
        <time>2021-08-04T14:59:37Z</time>
      </trkpt>
      <trkpt lat="44.4088" lon="6.75351">
        <ele>1417</ele>
        <time>2021-08-04T14:59:42Z</time>
      </trkpt>
      <trkpt lat="44.40842" lon="6.75394">
        <ele>1423</ele>
        <time>2021-08-04T14:59:51Z</time>
      </trkpt>
      <trkpt lat="44.40814" lon="6.75408">
        <ele>1426</ele>
        <time>2021-08-04T14:59:56Z</time>
      </trkpt>
      <trkpt lat="44.40782" lon="6.7541">
        <ele>1428</ele>
        <time>2021-08-04T15:00:02Z</time>
      </trkpt>
      <trkpt lat="44.40755" lon="6.75422">
        <ele>1430</ele>
        <time>2021-08-04T15:00:07Z</time>
      </trkpt>
      <trkpt lat="44.40744" lon="6.75432">
        <ele>1430</ele>
        <time>2021-08-04T15:00:09Z</time>
      </trkpt>
      <trkpt lat="44.40733" lon="6.75445">
        <ele>1431</ele>
        <time>2021-08-04T15:00:12Z</time>
      </trkpt>
      <trkpt lat="44.40729" lon="6.75458">
        <ele>1432</ele>
        <time>2021-08-04T15:00:13Z</time>
      </trkpt>
      <trkpt lat="44.40715" lon="6.75517">
        <ele>1436</ele>
        <time>2021-08-04T15:00:21Z</time>
      </trkpt>
      <trkpt lat="44.40709" lon="6.75528">
        <ele>1438</ele>
        <time>2021-08-04T15:00:23Z</time>
      </trkpt>
      <trkpt lat="44.40696" lon="6.75539">
        <ele>1441</ele>
        <time>2021-08-04T15:00:26Z</time>
      </trkpt>
      <trkpt lat="44.40697" lon="6.75555">
        <ele>1442</ele>
        <time>2021-08-04T15:00:28Z</time>
      </trkpt>
      <trkpt lat="44.40709" lon="6.75576">
        <ele>1444</ele>
        <time>2021-08-04T15:00:31Z</time>
      </trkpt>
      <trkpt lat="44.40709" lon="6.75585">
        <ele>1445</ele>
        <time>2021-08-04T15:00:32Z</time>
      </trkpt>
      <trkpt lat="44.40703" lon="6.75594">
        <ele>1446</ele>
        <time>2021-08-04T15:00:34Z</time>
      </trkpt>
      <trkpt lat="44.40682" lon="6.75606">
        <ele>1449</ele>
        <time>2021-08-04T15:00:38Z</time>
      </trkpt>
      <trkpt lat="44.40653" lon="6.75611">
        <ele>1451</ele>
        <time>2021-08-04T15:00:43Z</time>
      </trkpt>
      <trkpt lat="44.40646" lon="6.75618">
        <ele>1451</ele>
        <time>2021-08-04T15:00:45Z</time>
      </trkpt>
      <trkpt lat="44.40646" lon="6.75636">
        <ele>1452</ele>
        <time>2021-08-04T15:00:47Z</time>
      </trkpt>
      <trkpt lat="44.40651" lon="6.75651">
        <ele>1453</ele>
        <time>2021-08-04T15:00:49Z</time>
      </trkpt>
      <trkpt lat="44.40646" lon="6.75689">
        <ele>1456</ele>
        <time>2021-08-04T15:00:54Z</time>
      </trkpt>
      <trkpt lat="44.40616" lon="6.75763">
        <ele>1466</ele>
        <time>2021-08-04T15:01:05Z</time>
      </trkpt>
      <trkpt lat="44.40606" lon="6.75783">
        <ele>1469</ele>
        <time>2021-08-04T15:01:08Z</time>
      </trkpt>
      <trkpt lat="44.40585" lon="6.75854">
        <ele>1477</ele>
        <time>2021-08-04T15:01:18Z</time>
      </trkpt>
      <trkpt lat="44.40583" lon="6.75866">
        <ele>1478</ele>
        <time>2021-08-04T15:01:19Z</time>
      </trkpt>
      <trkpt lat="44.40568" lon="6.75912">
        <ele>1480</ele>
        <time>2021-08-04T15:01:26Z</time>
      </trkpt>
      <trkpt lat="44.40559" lon="6.75953">
        <ele>1484</ele>
        <time>2021-08-04T15:01:31Z</time>
      </trkpt>
      <trkpt lat="44.40541" lon="6.75997">
        <ele>1487</ele>
        <time>2021-08-04T15:01:38Z</time>
      </trkpt>
      <trkpt lat="44.40529" lon="6.76033">
        <ele>1493</ele>
        <time>2021-08-04T15:01:43Z</time>
      </trkpt>
      <trkpt lat="44.40512" lon="6.76058">
        <ele>1498</ele>
        <time>2021-08-04T15:01:47Z</time>
      </trkpt>
      <trkpt lat="44.40494" lon="6.76068">
        <ele>1499</ele>
        <time>2021-08-04T15:01:50Z</time>
      </trkpt>
      <trkpt lat="44.40468" lon="6.76091">
        <ele>1500</ele>
        <time>2021-08-04T15:01:56Z</time>
      </trkpt>
      <trkpt lat="44.4045" lon="6.7612">
        <ele>1503</ele>
        <time>2021-08-04T15:02:01Z</time>
      </trkpt>
      <trkpt lat="44.40436" lon="6.7613">
        <ele>1503</ele>
        <time>2021-08-04T15:02:04Z</time>
      </trkpt>
      <trkpt lat="44.40424" lon="6.76147">
        <ele>1506</ele>
        <time>2021-08-04T15:02:07Z</time>
      </trkpt>
      <trkpt lat="44.40418" lon="6.76166">
        <ele>1510</ele>
        <time>2021-08-04T15:02:09Z</time>
      </trkpt>
      <trkpt lat="44.40404" lon="6.76168">
        <ele>1506</ele>
        <time>2021-08-04T15:02:12Z</time>
      </trkpt>
      <trkpt lat="44.40389" lon="6.76173">
        <ele>1501</ele>
        <time>2021-08-04T15:02:15Z</time>
      </trkpt>
      <trkpt lat="44.40371" lon="6.76209">
        <ele>1498</ele>
        <time>2021-08-04T15:02:20Z</time>
      </trkpt>
      <trkpt lat="44.40364" lon="6.7623">
        <ele>1498</ele>
        <time>2021-08-04T15:02:23Z</time>
      </trkpt>
      <trkpt lat="44.4036" lon="6.76252">
        <ele>1499</ele>
        <time>2021-08-04T15:02:26Z</time>
      </trkpt>
      <trkpt lat="44.4033" lon="6.76323">
        <ele>1502</ele>
        <time>2021-08-04T15:02:36Z</time>
      </trkpt>
      <trkpt lat="44.40308" lon="6.76367">
        <ele>1502</ele>
        <time>2021-08-04T15:02:43Z</time>
      </trkpt>
      <trkpt lat="44.40291" lon="6.76377">
        <ele>1498</ele>
        <time>2021-08-04T15:02:47Z</time>
      </trkpt>
      <trkpt lat="44.40273" lon="6.76414">
        <ele>1497</ele>
        <time>2021-08-04T15:02:52Z</time>
      </trkpt>
      <trkpt lat="44.40264" lon="6.76453">
        <ele>1500</ele>
        <time>2021-08-04T15:02:57Z</time>
      </trkpt>
      <trkpt lat="44.40243" lon="6.76556">
        <ele>1511</ele>
        <time>2021-08-04T15:03:11Z</time>
      </trkpt>
      <trkpt lat="44.40236" lon="6.76574">
        <ele>1514</ele>
        <time>2021-08-04T15:03:14Z</time>
      </trkpt>
      <trkpt lat="44.40228" lon="6.76587">
        <ele>1515</ele>
        <time>2021-08-04T15:03:16Z</time>
      </trkpt>
      <trkpt lat="44.40211" lon="6.76596">
        <ele>1515</ele>
        <time>2021-08-04T15:03:19Z</time>
      </trkpt>
      <trkpt lat="44.40203" lon="6.76597">
        <ele>1515</ele>
        <time>2021-08-04T15:03:20Z</time>
      </trkpt>
      <trkpt lat="44.40192" lon="6.76597">
        <ele>1514</ele>
        <time>2021-08-04T15:03:22Z</time>
      </trkpt>
      <trkpt lat="44.4017" lon="6.76592">
        <ele>1511</ele>
        <time>2021-08-04T15:03:26Z</time>
      </trkpt>
      <trkpt lat="44.40147" lon="6.76598">
        <ele>1510</ele>
        <time>2021-08-04T15:03:31Z</time>
      </trkpt>
      <trkpt lat="44.4013" lon="6.7661">
        <ele>1511</ele>
        <time>2021-08-04T15:03:34Z</time>
      </trkpt>
      <trkpt lat="44.40093" lon="6.76666">
        <ele>1518</ele>
        <time>2021-08-04T15:03:44Z</time>
      </trkpt>
      <trkpt lat="44.40082" lon="6.76683">
        <ele>1521</ele>
        <time>2021-08-04T15:03:47Z</time>
      </trkpt>
      <trkpt lat="44.40061" lon="6.76716">
        <ele>1526</ele>
        <time>2021-08-04T15:03:52Z</time>
      </trkpt>
      <trkpt lat="44.40017" lon="6.7677">
        <ele>1532</ele>
        <time>2021-08-04T15:04:03Z</time>
      </trkpt>
      <trkpt lat="44.39997" lon="6.76789">
        <ele>1532</ele>
        <time>2021-08-04T15:04:07Z</time>
      </trkpt>
      <trkpt lat="44.39954" lon="6.7681">
        <ele>1533</ele>
        <time>2021-08-04T15:04:15Z</time>
      </trkpt>
      <trkpt lat="44.39936" lon="6.76823">
        <ele>1534</ele>
        <time>2021-08-04T15:04:19Z</time>
      </trkpt>
      <trkpt lat="44.39893" lon="6.76875">
        <ele>1544</ele>
        <time>2021-08-04T15:04:29Z</time>
      </trkpt>
      <trkpt lat="44.39877" lon="6.76888">
        <ele>1548</ele>
        <time>2021-08-04T15:04:32Z</time>
      </trkpt>
      <trkpt lat="44.39859" lon="6.7689">
        <ele>1550</ele>
        <time>2021-08-04T15:04:35Z</time>
      </trkpt>
      <trkpt lat="44.39834" lon="6.76886">
        <ele>1551</ele>
        <time>2021-08-04T15:04:40Z</time>
      </trkpt>
      <trkpt lat="44.3982" lon="6.76878">
        <ele>1554</ele>
        <time>2021-08-04T15:04:42Z</time>
      </trkpt>
      <trkpt lat="44.39806" lon="6.76863">
        <ele>1556</ele>
        <time>2021-08-04T15:04:46Z</time>
      </trkpt>
      <trkpt lat="44.39754" lon="6.76774">
        <ele>1558</ele>
        <time>2021-08-04T15:05:00Z</time>
      </trkpt>
      <trkpt lat="44.39729" lon="6.76741">
        <ele>1558</ele>
        <time>2021-08-04T15:05:06Z</time>
      </trkpt>
      <trkpt lat="44.39711" lon="6.76735">
        <ele>1561</ele>
        <time>2021-08-04T15:05:10Z</time>
      </trkpt>
      <trkpt lat="44.3966" lon="6.76743">
        <ele>1570</ele>
        <time>2021-08-04T15:05:19Z</time>
      </trkpt>
      <trkpt lat="44.39626" lon="6.76735">
        <ele>1570</ele>
        <time>2021-08-04T15:05:25Z</time>
      </trkpt>
      <trkpt lat="44.396" lon="6.76732">
        <ele>1570</ele>
        <time>2021-08-04T15:05:29Z</time>
      </trkpt>
      <trkpt lat="44.39575" lon="6.76738">
        <ele>1572</ele>
        <time>2021-08-04T15:05:34Z</time>
      </trkpt>
      <trkpt lat="44.39547" lon="6.76762">
        <ele>1575</ele>
        <time>2021-08-04T15:05:40Z</time>
      </trkpt>
      <trkpt lat="44.39502" lon="6.76807">
        <ele>1580</ele>
        <time>2021-08-04T15:05:50Z</time>
      </trkpt>
      <trkpt lat="44.39487" lon="6.76832">
        <ele>1581</ele>
        <time>2021-08-04T15:05:54Z</time>
      </trkpt>
      <trkpt lat="44.39475" lon="6.76856">
        <ele>1582</ele>
        <time>2021-08-04T15:05:58Z</time>
      </trkpt>
      <trkpt lat="44.3947" lon="6.76873">
        <ele>1583</ele>
        <time>2021-08-04T15:06:00Z</time>
      </trkpt>
      <trkpt lat="44.39465" lon="6.76888">
        <ele>1584</ele>
        <time>2021-08-04T15:06:02Z</time>
      </trkpt>
      <trkpt lat="44.3946" lon="6.76916">
        <ele>1586</ele>
        <time>2021-08-04T15:06:06Z</time>
      </trkpt>
      <trkpt lat="44.39454" lon="6.76968">
        <ele>1592</ele>
        <time>2021-08-04T15:06:12Z</time>
      </trkpt>
      <trkpt lat="44.39444" lon="6.77008">
        <ele>1596</ele>
        <time>2021-08-04T15:06:18Z</time>
      </trkpt>
      <trkpt lat="44.3943" lon="6.77043">
        <ele>1600</ele>
        <time>2021-08-04T15:06:23Z</time>
      </trkpt>
      <trkpt lat="44.39414" lon="6.77067">
        <ele>1602</ele>
        <time>2021-08-04T15:06:27Z</time>
      </trkpt>
      <trkpt lat="44.39386" lon="6.77103">
        <ele>1604</ele>
        <time>2021-08-04T15:06:34Z</time>
      </trkpt>
      <trkpt lat="44.39345" lon="6.77153">
        <ele>1606</ele>
        <time>2021-08-04T15:06:43Z</time>
      </trkpt>
      <trkpt lat="44.3931" lon="6.77211">
        <ele>1609</ele>
        <time>2021-08-04T15:06:53Z</time>
      </trkpt>
      <trkpt lat="44.39302" lon="6.7723">
        <ele>1611</ele>
        <time>2021-08-04T15:06:56Z</time>
      </trkpt>
      <trkpt lat="44.39283" lon="6.77313">
        <ele>1621</ele>
        <time>2021-08-04T15:07:07Z</time>
      </trkpt>
      <trkpt lat="44.39276" lon="6.77332">
        <ele>1622</ele>
        <time>2021-08-04T15:07:10Z</time>
      </trkpt>
      <trkpt lat="44.39213" lon="6.77465">
        <ele>1632</ele>
        <time>2021-08-04T15:07:30Z</time>
      </trkpt>
      <trkpt lat="44.39201" lon="6.77483">
        <ele>1633</ele>
        <time>2021-08-04T15:07:33Z</time>
      </trkpt>
      <trkpt lat="44.39181" lon="6.77502">
        <ele>1631</ele>
        <time>2021-08-04T15:07:37Z</time>
      </trkpt>
      <trkpt lat="44.39164" lon="6.77522">
        <ele>1631</ele>
        <time>2021-08-04T15:07:41Z</time>
      </trkpt>
      <trkpt lat="44.39158" lon="6.77535">
        <ele>1632</ele>
        <time>2021-08-04T15:07:43Z</time>
      </trkpt>
      <trkpt lat="44.39154" lon="6.77549">
        <ele>1634</ele>
        <time>2021-08-04T15:07:45Z</time>
      </trkpt>
      <trkpt lat="44.39151" lon="6.77583">
        <ele>1640</ele>
        <time>2021-08-04T15:07:50Z</time>
      </trkpt>
      <trkpt lat="44.39149" lon="6.77599">
        <ele>1642</ele>
        <time>2021-08-04T15:07:52Z</time>
      </trkpt>
      <trkpt lat="44.39133" lon="6.7765">
        <ele>1645</ele>
        <time>2021-08-04T15:07:59Z</time>
      </trkpt>
      <trkpt lat="44.39126" lon="6.77686">
        <ele>1648</ele>
        <time>2021-08-04T15:08:04Z</time>
      </trkpt>
      <trkpt lat="44.39121" lon="6.77701">
        <ele>1649</ele>
        <time>2021-08-04T15:08:06Z</time>
      </trkpt>
      <trkpt lat="44.39108" lon="6.77725">
        <ele>1650</ele>
        <time>2021-08-04T15:08:09Z</time>
      </trkpt>
      <trkpt lat="44.39068" lon="6.77764">
        <ele>1654</ele>
        <time>2021-08-04T15:08:18Z</time>
      </trkpt>
      <trkpt lat="44.39051" lon="6.77772">
        <ele>1654</ele>
        <time>2021-08-04T15:08:21Z</time>
      </trkpt>
      <trkpt lat="44.39035" lon="6.77777">
        <ele>1653</ele>
        <time>2021-08-04T15:08:24Z</time>
      </trkpt>
      <trkpt lat="44.39021" lon="6.77784">
        <ele>1653</ele>
        <time>2021-08-04T15:08:27Z</time>
      </trkpt>
      <trkpt lat="44.39" lon="6.77807">
        <ele>1656</ele>
        <time>2021-08-04T15:08:32Z</time>
      </trkpt>
      <trkpt lat="44.38995" lon="6.77813">
        <ele>1658</ele>
        <time>2021-08-04T15:08:33Z</time>
      </trkpt>
      <trkpt lat="44.38963" lon="6.7782">
        <ele>1664</ele>
        <time>2021-08-04T15:08:39Z</time>
      </trkpt>
      <trkpt lat="44.38947" lon="6.77823">
        <ele>1666</ele>
        <time>2021-08-04T15:08:41Z</time>
      </trkpt>
      <trkpt lat="44.38936" lon="6.77819">
        <ele>1666</ele>
        <time>2021-08-04T15:08:43Z</time>
      </trkpt>
      <trkpt lat="44.38908" lon="6.77798">
        <ele>1661</ele>
        <time>2021-08-04T15:08:49Z</time>
      </trkpt>
      <trkpt lat="44.38887" lon="6.77788">
        <ele>1658</ele>
        <time>2021-08-04T15:08:53Z</time>
      </trkpt>
      <trkpt lat="44.38877" lon="6.77789">
        <ele>1659</ele>
        <time>2021-08-04T15:08:55Z</time>
      </trkpt>
      <trkpt lat="44.38867" lon="6.77796">
        <ele>1661</ele>
        <time>2021-08-04T15:08:57Z</time>
      </trkpt>
      <trkpt lat="44.38852" lon="6.77813">
        <ele>1666</ele>
        <time>2021-08-04T15:09:00Z</time>
      </trkpt>
      <trkpt lat="44.38834" lon="6.77841">
        <ele>1673</ele>
        <time>2021-08-04T15:09:05Z</time>
      </trkpt>
      <trkpt lat="44.38822" lon="6.77849">
        <ele>1675</ele>
        <time>2021-08-04T15:09:07Z</time>
      </trkpt>
      <trkpt lat="44.38812" lon="6.77853">
        <ele>1675</ele>
        <time>2021-08-04T15:09:09Z</time>
      </trkpt>
      <trkpt lat="44.38807" lon="6.77859">
        <ele>1676</ele>
        <time>2021-08-04T15:09:10Z</time>
      </trkpt>
      <trkpt lat="44.38808" lon="6.77866">
        <ele>1679</ele>
        <time>2021-08-04T15:09:11Z</time>
      </trkpt>
      <trkpt lat="44.38813" lon="6.7787">
        <ele>1680</ele>
        <time>2021-08-04T15:09:12Z</time>
      </trkpt>
      <trkpt lat="44.38821" lon="6.77869">
        <ele>1680</ele>
        <time>2021-08-04T15:09:14Z</time>
      </trkpt>
      <trkpt lat="44.38848" lon="6.7785">
        <ele>1676</ele>
        <time>2021-08-04T15:09:19Z</time>
      </trkpt>
      <trkpt lat="44.3886" lon="6.77836">
        <ele>1673</ele>
        <time>2021-08-04T15:09:22Z</time>
      </trkpt>
      <trkpt lat="44.38872" lon="6.77826">
        <ele>1670</ele>
        <time>2021-08-04T15:09:24Z</time>
      </trkpt>
      <trkpt lat="44.38883" lon="6.77823">
        <ele>1669</ele>
        <time>2021-08-04T15:09:26Z</time>
      </trkpt>
      <trkpt lat="44.38894" lon="6.77829">
        <ele>1672</ele>
        <time>2021-08-04T15:09:29Z</time>
      </trkpt>
      <trkpt lat="44.38912" lon="6.77868">
        <ele>1684</ele>
        <time>2021-08-04T15:09:34Z</time>
      </trkpt>
      <trkpt lat="44.38942" lon="6.77925">
        <ele>1696</ele>
        <time>2021-08-04T15:09:43Z</time>
      </trkpt>
      <trkpt lat="44.38945" lon="6.77933">
        <ele>1697</ele>
        <time>2021-08-04T15:09:45Z</time>
      </trkpt>
      <trkpt lat="44.38945" lon="6.77944">
        <ele>1700</ele>
        <time>2021-08-04T15:09:46Z</time>
      </trkpt>
      <trkpt lat="44.3894" lon="6.77947">
        <ele>1701</ele>
        <time>2021-08-04T15:09:47Z</time>
      </trkpt>
      <trkpt lat="44.38934" lon="6.77945">
        <ele>1702</ele>
        <time>2021-08-04T15:09:48Z</time>
      </trkpt>
      <trkpt lat="44.38925" lon="6.77936">
        <ele>1702</ele>
        <time>2021-08-04T15:09:50Z</time>
      </trkpt>
      <trkpt lat="44.38909" lon="6.77909">
        <ele>1696</ele>
        <time>2021-08-04T15:09:54Z</time>
      </trkpt>
      <trkpt lat="44.38895" lon="6.77898">
        <ele>1692</ele>
        <time>2021-08-04T15:09:57Z</time>
      </trkpt>
      <trkpt lat="44.38886" lon="6.77896">
        <ele>1691</ele>
        <time>2021-08-04T15:09:59Z</time>
      </trkpt>
      <trkpt lat="44.38875" lon="6.77899">
        <ele>1692</ele>
        <time>2021-08-04T15:10:01Z</time>
      </trkpt>
      <trkpt lat="44.38866" lon="6.77911">
        <ele>1695</ele>
        <time>2021-08-04T15:10:03Z</time>
      </trkpt>
      <trkpt lat="44.38851" lon="6.77951">
        <ele>1707</ele>
        <time>2021-08-04T15:10:09Z</time>
      </trkpt>
      <trkpt lat="44.3884" lon="6.77966">
        <ele>1711</ele>
        <time>2021-08-04T15:10:12Z</time>
      </trkpt>
      <trkpt lat="44.38829" lon="6.77974">
        <ele>1714</ele>
        <time>2021-08-04T15:10:14Z</time>
      </trkpt>
      <trkpt lat="44.38821" lon="6.77977">
        <ele>1715</ele>
        <time>2021-08-04T15:10:15Z</time>
      </trkpt>
      <trkpt lat="44.38814" lon="6.77977">
        <ele>1715</ele>
        <time>2021-08-04T15:10:17Z</time>
      </trkpt>
      <trkpt lat="44.38803" lon="6.77975">
        <ele>1714</ele>
        <time>2021-08-04T15:10:19Z</time>
      </trkpt>
      <trkpt lat="44.38795" lon="6.77967">
        <ele>1711</ele>
        <time>2021-08-04T15:10:20Z</time>
      </trkpt>
      <trkpt lat="44.38787" lon="6.77967">
        <ele>1710</ele>
        <time>2021-08-04T15:10:22Z</time>
      </trkpt>
      <trkpt lat="44.38754" lon="6.77979">
        <ele>1714</ele>
        <time>2021-08-04T15:10:28Z</time>
      </trkpt>
      <trkpt lat="44.38751" lon="6.77988">
        <ele>1717</ele>
        <time>2021-08-04T15:10:29Z</time>
      </trkpt>
      <trkpt lat="44.38753" lon="6.77995">
        <ele>1719</ele>
        <time>2021-08-04T15:10:30Z</time>
      </trkpt>
      <trkpt lat="44.3876" lon="6.77999">
        <ele>1721</ele>
        <time>2021-08-04T15:10:31Z</time>
      </trkpt>
      <trkpt lat="44.38773" lon="6.77992">
        <ele>1719</ele>
        <time>2021-08-04T15:10:34Z</time>
      </trkpt>
      <trkpt lat="44.38782" lon="6.77991">
        <ele>1719</ele>
        <time>2021-08-04T15:10:35Z</time>
      </trkpt>
      <trkpt lat="44.38803" lon="6.78008">
        <ele>1725</ele>
        <time>2021-08-04T15:10:40Z</time>
      </trkpt>
      <trkpt lat="44.38812" lon="6.78011">
        <ele>1726</ele>
        <time>2021-08-04T15:10:41Z</time>
      </trkpt>
      <trkpt lat="44.38852" lon="6.78013">
        <ele>1726</ele>
        <time>2021-08-04T15:10:49Z</time>
      </trkpt>
      <trkpt lat="44.38881" lon="6.78021">
        <ele>1726</ele>
        <time>2021-08-04T15:10:54Z</time>
      </trkpt>
      <trkpt lat="44.38913" lon="6.78049">
        <ele>1731</ele>
        <time>2021-08-04T15:11:00Z</time>
      </trkpt>
      <trkpt lat="44.38925" lon="6.78062">
        <ele>1732</ele>
        <time>2021-08-04T15:11:03Z</time>
      </trkpt>
      <trkpt lat="44.38928" lon="6.78067">
        <ele>1732</ele>
        <time>2021-08-04T15:11:04Z</time>
      </trkpt>
      <trkpt lat="44.38927" lon="6.78073">
        <ele>1734</ele>
        <time>2021-08-04T15:11:05Z</time>
      </trkpt>
      <trkpt lat="44.38926" lon="6.78077">
        <ele>1735</ele>
        <time>2021-08-04T15:11:05Z</time>
      </trkpt>
      <trkpt lat="44.3892" lon="6.78079">
        <ele>1737</ele>
        <time>2021-08-04T15:11:06Z</time>
      </trkpt>
      <trkpt lat="44.38913" lon="6.78074">
        <ele>1737</ele>
        <time>2021-08-04T15:11:08Z</time>
      </trkpt>
      <trkpt lat="44.38906" lon="6.78063">
        <ele>1735</ele>
        <time>2021-08-04T15:11:10Z</time>
      </trkpt>
      <trkpt lat="44.38891" lon="6.78056">
        <ele>1734</ele>
        <time>2021-08-04T15:11:13Z</time>
      </trkpt>
      <trkpt lat="44.38808" lon="6.7806">
        <ele>1742</ele>
        <time>2021-08-04T15:11:27Z</time>
      </trkpt>
      <trkpt lat="44.3877" lon="6.78077">
        <ele>1749</ele>
        <time>2021-08-04T15:11:34Z</time>
      </trkpt>
      <trkpt lat="44.3875" lon="6.78078">
        <ele>1750</ele>
        <time>2021-08-04T15:11:38Z</time>
      </trkpt>
      <trkpt lat="44.38737" lon="6.7808">
        <ele>1753</ele>
        <time>2021-08-04T15:11:40Z</time>
      </trkpt>
      <trkpt lat="44.38722" lon="6.78088">
        <ele>1760</ele>
        <time>2021-08-04T15:11:43Z</time>
      </trkpt>
      <trkpt lat="44.38709" lon="6.781">
        <ele>1769</ele>
        <time>2021-08-04T15:11:46Z</time>
      </trkpt>
      <trkpt lat="44.38694" lon="6.78102">
        <ele>1773</ele>
        <time>2021-08-04T15:11:49Z</time>
      </trkpt>
      <trkpt lat="44.3868" lon="6.78099">
        <ele>1775</ele>
        <time>2021-08-04T15:11:51Z</time>
      </trkpt>
      <trkpt lat="44.38645" lon="6.78061">
        <ele>1763</ele>
        <time>2021-08-04T15:11:59Z</time>
      </trkpt>
      <trkpt lat="44.38622" lon="6.78052">
        <ele>1766</ele>
        <time>2021-08-04T15:12:03Z</time>
      </trkpt>
      <trkpt lat="44.38603" lon="6.78038">
        <ele>1765</ele>
        <time>2021-08-04T15:12:07Z</time>
      </trkpt>
      <trkpt lat="44.38561" lon="6.78044">
        <ele>1778</ele>
        <time>2021-08-04T15:12:15Z</time>
      </trkpt>
      <trkpt lat="44.38511" lon="6.78039">
        <ele>1786</ele>
        <time>2021-08-04T15:12:23Z</time>
      </trkpt>
      <trkpt lat="44.38501" lon="6.78035">
        <ele>1787</ele>
        <time>2021-08-04T15:12:25Z</time>
      </trkpt>
      <trkpt lat="44.38494" lon="6.78025">
        <ele>1785</ele>
        <time>2021-08-04T15:12:27Z</time>
      </trkpt>
      <trkpt lat="44.38477" lon="6.77994">
        <ele>1779</ele>
        <time>2021-08-04T15:12:32Z</time>
      </trkpt>
      <trkpt lat="44.38467" lon="6.77988">
        <ele>1778</ele>
        <time>2021-08-04T15:12:34Z</time>
      </trkpt>
      <trkpt lat="44.38456" lon="6.7799">
        <ele>1778</ele>
        <time>2021-08-04T15:12:36Z</time>
      </trkpt>
      <trkpt lat="44.38393" lon="6.78027">
        <ele>1788</ele>
        <time>2021-08-04T15:12:48Z</time>
      </trkpt>
      <trkpt lat="44.38377" lon="6.78045">
        <ele>1793</ele>
        <time>2021-08-04T15:12:52Z</time>
      </trkpt>
      <trkpt lat="44.38368" lon="6.78052">
        <ele>1795</ele>
        <time>2021-08-04T15:12:54Z</time>
      </trkpt>
      <trkpt lat="44.38361" lon="6.78052">
        <ele>1795</ele>
        <time>2021-08-04T15:12:55Z</time>
      </trkpt>
      <trkpt lat="44.38354" lon="6.78047">
        <ele>1794</ele>
        <time>2021-08-04T15:12:56Z</time>
      </trkpt>
      <trkpt lat="44.38335" lon="6.7804">
        <ele>1793</ele>
        <time>2021-08-04T15:13:00Z</time>
      </trkpt>
      <trkpt lat="44.38319" lon="6.78042">
        <ele>1794</ele>
        <time>2021-08-04T15:13:03Z</time>
      </trkpt>
      <trkpt lat="44.38298" lon="6.78056">
        <ele>1797</ele>
        <time>2021-08-04T15:13:07Z</time>
      </trkpt>
      <trkpt lat="44.38285" lon="6.7806">
        <ele>1798</ele>
        <time>2021-08-04T15:13:09Z</time>
      </trkpt>
      <trkpt lat="44.38273" lon="6.78052">
        <ele>1797</ele>
        <time>2021-08-04T15:13:12Z</time>
      </trkpt>
      <trkpt lat="44.38261" lon="6.78032">
        <ele>1794</ele>
        <time>2021-08-04T15:13:15Z</time>
      </trkpt>
      <trkpt lat="44.38251" lon="6.78027">
        <ele>1794</ele>
        <time>2021-08-04T15:13:17Z</time>
      </trkpt>
      <trkpt lat="44.38207" lon="6.78029">
        <ele>1796</ele>
        <time>2021-08-04T15:13:25Z</time>
      </trkpt>
      <trkpt lat="44.38188" lon="6.78033">
        <ele>1798</ele>
        <time>2021-08-04T15:13:28Z</time>
      </trkpt>
      <trkpt lat="44.38172" lon="6.78041">
        <ele>1801</ele>
        <time>2021-08-04T15:13:31Z</time>
      </trkpt>
      <trkpt lat="44.38157" lon="6.78045">
        <ele>1803</ele>
        <time>2021-08-04T15:13:34Z</time>
      </trkpt>
      <trkpt lat="44.38148" lon="6.78043">
        <ele>1804</ele>
        <time>2021-08-04T15:13:35Z</time>
      </trkpt>
      <trkpt lat="44.38131" lon="6.78035">
        <ele>1803</ele>
        <time>2021-08-04T15:13:39Z</time>
      </trkpt>
      <trkpt lat="44.38118" lon="6.78035">
        <ele>1804</ele>
        <time>2021-08-04T15:13:41Z</time>
      </trkpt>
      <trkpt lat="44.38087" lon="6.78052">
        <ele>1811</ele>
        <time>2021-08-04T15:13:47Z</time>
      </trkpt>
      <trkpt lat="44.38065" lon="6.78053">
        <ele>1811</ele>
        <time>2021-08-04T15:13:51Z</time>
      </trkpt>
      <trkpt lat="44.38061" lon="6.78059">
        <ele>1812</ele>
        <time>2021-08-04T15:13:52Z</time>
      </trkpt>
      <trkpt lat="44.38059" lon="6.78066">
        <ele>1813</ele>
        <time>2021-08-04T15:13:53Z</time>
      </trkpt>
      <trkpt lat="44.38061" lon="6.78073">
        <ele>1815</ele>
        <time>2021-08-04T15:13:54Z</time>
      </trkpt>
      <trkpt lat="44.38067" lon="6.78077">
        <ele>1816</ele>
        <time>2021-08-04T15:13:55Z</time>
      </trkpt>
      <trkpt lat="44.3808" lon="6.78074">
        <ele>1816</ele>
        <time>2021-08-04T15:13:57Z</time>
      </trkpt>
      <trkpt lat="44.38094" lon="6.78075">
        <ele>1815</ele>
        <time>2021-08-04T15:14:00Z</time>
      </trkpt>
      <trkpt lat="44.38107" lon="6.78081">
        <ele>1816</ele>
        <time>2021-08-04T15:14:02Z</time>
      </trkpt>
      <trkpt lat="44.38124" lon="6.78096">
        <ele>1818</ele>
        <time>2021-08-04T15:14:06Z</time>
      </trkpt>
      <trkpt lat="44.38145" lon="6.7812">
        <ele>1823</ele>
        <time>2021-08-04T15:14:10Z</time>
      </trkpt>
      <trkpt lat="44.38152" lon="6.78124">
        <ele>1824</ele>
        <time>2021-08-04T15:14:12Z</time>
      </trkpt>
      <trkpt lat="44.38181" lon="6.7813">
        <ele>1822</ele>
        <time>2021-08-04T15:14:17Z</time>
      </trkpt>
      <trkpt lat="44.38186" lon="6.78137">
        <ele>1824</ele>
        <time>2021-08-04T15:14:18Z</time>
      </trkpt>
      <trkpt lat="44.38186" lon="6.78144">
        <ele>1825</ele>
        <time>2021-08-04T15:14:19Z</time>
      </trkpt>
      <trkpt lat="44.38183" lon="6.7815">
        <ele>1827</ele>
        <time>2021-08-04T15:14:20Z</time>
      </trkpt>
      <trkpt lat="44.38178" lon="6.78154">
        <ele>1829</ele>
        <time>2021-08-04T15:14:21Z</time>
      </trkpt>
      <trkpt lat="44.38156" lon="6.78158">
        <ele>1832</ele>
        <time>2021-08-04T15:14:25Z</time>
      </trkpt>
      <trkpt lat="44.38096" lon="6.78149">
        <ele>1832</ele>
        <time>2021-08-04T15:14:36Z</time>
      </trkpt>
      <trkpt lat="44.38076" lon="6.78153">
        <ele>1834</ele>
        <time>2021-08-04T15:14:39Z</time>
      </trkpt>
      <trkpt lat="44.38039" lon="6.78173">
        <ele>1838</ele>
        <time>2021-08-04T15:14:46Z</time>
      </trkpt>
      <trkpt lat="44.3799" lon="6.78191">
        <ele>1846</ele>
        <time>2021-08-04T15:14:56Z</time>
      </trkpt>
      <trkpt lat="44.37963" lon="6.78195">
        <ele>1849</ele>
        <time>2021-08-04T15:15:00Z</time>
      </trkpt>
      <trkpt lat="44.37853" lon="6.78185">
        <ele>1856</ele>
        <time>2021-08-04T15:15:20Z</time>
      </trkpt>
      <trkpt lat="44.37821" lon="6.78178">
        <ele>1860</ele>
        <time>2021-08-04T15:15:26Z</time>
      </trkpt>
      <trkpt lat="44.37797" lon="6.78164">
        <ele>1863</ele>
        <time>2021-08-04T15:15:30Z</time>
      </trkpt>
      <trkpt lat="44.37758" lon="6.78122">
        <ele>1855</ele>
        <time>2021-08-04T15:15:39Z</time>
      </trkpt>
      <trkpt lat="44.37739" lon="6.78114">
        <ele>1855</ele>
        <time>2021-08-04T15:15:43Z</time>
      </trkpt>
      <trkpt lat="44.37719" lon="6.78113">
        <ele>1857</ele>
        <time>2021-08-04T15:15:46Z</time>
      </trkpt>
      <trkpt lat="44.37698" lon="6.78118">
        <ele>1861</ele>
        <time>2021-08-04T15:15:50Z</time>
      </trkpt>
      <trkpt lat="44.37674" lon="6.78132">
        <ele>1870</ele>
        <time>2021-08-04T15:15:55Z</time>
      </trkpt>
      <trkpt lat="44.37651" lon="6.78154">
        <ele>1877</ele>
        <time>2021-08-04T15:16:00Z</time>
      </trkpt>
      <trkpt lat="44.37627" lon="6.78185">
        <ele>1884</ele>
        <time>2021-08-04T15:16:05Z</time>
      </trkpt>
      <trkpt lat="44.37609" lon="6.78204">
        <ele>1886</ele>
        <time>2021-08-04T15:16:09Z</time>
      </trkpt>
      <trkpt lat="44.37587" lon="6.78216">
        <ele>1885</ele>
        <time>2021-08-04T15:16:14Z</time>
      </trkpt>
      <trkpt lat="44.37556" lon="6.78223">
        <ele>1884</ele>
        <time>2021-08-04T15:16:19Z</time>
      </trkpt>
      <trkpt lat="44.37535" lon="6.78233">
        <ele>1886</ele>
        <time>2021-08-04T15:16:23Z</time>
      </trkpt>
      <trkpt lat="44.3751" lon="6.78248">
        <ele>1889</ele>
        <time>2021-08-04T15:16:28Z</time>
      </trkpt>
      <trkpt lat="44.37491" lon="6.78254">
        <ele>1891</ele>
        <time>2021-08-04T15:16:31Z</time>
      </trkpt>
      <trkpt lat="44.3739" lon="6.78255">
        <ele>1901</ele>
        <time>2021-08-04T15:16:49Z</time>
      </trkpt>
      <trkpt lat="44.37361" lon="6.78249">
        <ele>1903</ele>
        <time>2021-08-04T15:16:55Z</time>
      </trkpt>
      <trkpt lat="44.3734" lon="6.78237">
        <ele>1902</ele>
        <time>2021-08-04T15:16:59Z</time>
      </trkpt>
      <trkpt lat="44.37302" lon="6.78202">
        <ele>1900</ele>
        <time>2021-08-04T15:17:07Z</time>
      </trkpt>
      <trkpt lat="44.37285" lon="6.78193">
        <ele>1902</ele>
        <time>2021-08-04T15:17:10Z</time>
      </trkpt>
      <trkpt lat="44.37269" lon="6.78191">
        <ele>1906</ele>
        <time>2021-08-04T15:17:13Z</time>
      </trkpt>
      <trkpt lat="44.37228" lon="6.78204">
        <ele>1917</ele>
        <time>2021-08-04T15:17:20Z</time>
      </trkpt>
      <trkpt lat="44.3721" lon="6.78214">
        <ele>1921</ele>
        <time>2021-08-04T15:17:24Z</time>
      </trkpt>
      <trkpt lat="44.37172" lon="6.78217">
        <ele>1923</ele>
        <time>2021-08-04T15:17:31Z</time>
      </trkpt>
      <trkpt lat="44.37153" lon="6.78225">
        <ele>1925</ele>
        <time>2021-08-04T15:17:34Z</time>
      </trkpt>
      <trkpt lat="44.37134" lon="6.78237">
        <ele>1927</ele>
        <time>2021-08-04T15:17:38Z</time>
      </trkpt>
      <trkpt lat="44.37088" lon="6.78271">
        <ele>1931</ele>
        <time>2021-08-04T15:17:47Z</time>
      </trkpt>
      <trkpt lat="44.37057" lon="6.7831">
        <ele>1938</ele>
        <time>2021-08-04T15:17:54Z</time>
      </trkpt>
      <trkpt lat="44.37033" lon="6.78356">
        <ele>1943</ele>
        <time>2021-08-04T15:18:02Z</time>
      </trkpt>
      <trkpt lat="44.37016" lon="6.78396">
        <ele>1948</ele>
        <time>2021-08-04T15:18:08Z</time>
      </trkpt>
      <trkpt lat="44.37002" lon="6.78414">
        <ele>1948</ele>
        <time>2021-08-04T15:18:11Z</time>
      </trkpt>
      <trkpt lat="44.36956" lon="6.78461">
        <ele>1952</ele>
        <time>2021-08-04T15:18:21Z</time>
      </trkpt>
      <trkpt lat="44.3693" lon="6.78485">
        <ele>1953</ele>
        <time>2021-08-04T15:18:27Z</time>
      </trkpt>
      <trkpt lat="44.36924" lon="6.78508">
        <ele>1957</ele>
        <time>2021-08-04T15:18:30Z</time>
      </trkpt>
      <trkpt lat="44.36919" lon="6.78519">
        <ele>1959</ele>
        <time>2021-08-04T15:18:31Z</time>
      </trkpt>
      <trkpt lat="44.36911" lon="6.78529">
        <ele>1960</ele>
        <time>2021-08-04T15:18:33Z</time>
      </trkpt>
      <trkpt lat="44.36901" lon="6.78534">
        <ele>1961</ele>
        <time>2021-08-04T15:18:35Z</time>
      </trkpt>
      <trkpt lat="44.3687" lon="6.78543">
        <ele>1960</ele>
        <time>2021-08-04T15:18:41Z</time>
      </trkpt>
      <trkpt lat="44.36841" lon="6.78567">
        <ele>1964</ele>
        <time>2021-08-04T15:18:47Z</time>
      </trkpt>
      <trkpt lat="44.3682" lon="6.78591">
        <ele>1970</ele>
        <time>2021-08-04T15:18:52Z</time>
      </trkpt>
      <trkpt lat="44.36786" lon="6.786">
        <ele>1972</ele>
        <time>2021-08-04T15:18:58Z</time>
      </trkpt>
      <trkpt lat="44.36742" lon="6.7863">
        <ele>1978</ele>
        <time>2021-08-04T15:19:07Z</time>
      </trkpt>
      <trkpt lat="44.36719" lon="6.78639">
        <ele>1979</ele>
        <time>2021-08-04T15:19:11Z</time>
      </trkpt>
      <trkpt lat="44.36674" lon="6.78648">
        <ele>1980</ele>
        <time>2021-08-04T15:19:19Z</time>
      </trkpt>
      <trkpt lat="44.36656" lon="6.78656">
        <ele>1980</ele>
        <time>2021-08-04T15:19:22Z</time>
      </trkpt>
      <trkpt lat="44.36651" lon="6.7866">
        <ele>1980</ele>
        <time>2021-08-04T15:19:23Z</time>
      </trkpt>
      <trkpt lat="44.36648" lon="6.78666">
        <ele>1981</ele>
        <time>2021-08-04T15:19:24Z</time>
      </trkpt>
      <trkpt lat="44.36649" lon="6.78679">
        <ele>1984</ele>
        <time>2021-08-04T15:19:26Z</time>
      </trkpt>
      <trkpt lat="44.36656" lon="6.78682">
        <ele>1986</ele>
        <time>2021-08-04T15:19:27Z</time>
      </trkpt>
      <trkpt lat="44.36674" lon="6.78673">
        <ele>1985</ele>
        <time>2021-08-04T15:19:31Z</time>
      </trkpt>
      <trkpt lat="44.36689" lon="6.78672">
        <ele>1985</ele>
        <time>2021-08-04T15:19:33Z</time>
      </trkpt>
      <trkpt lat="44.367" lon="6.78675">
        <ele>1986</ele>
        <time>2021-08-04T15:19:35Z</time>
      </trkpt>
      <trkpt lat="44.36724" lon="6.78688">
        <ele>1991</ele>
        <time>2021-08-04T15:19:40Z</time>
      </trkpt>
      <trkpt lat="44.36731" lon="6.78689">
        <ele>1992</ele>
        <time>2021-08-04T15:19:41Z</time>
      </trkpt>
      <trkpt lat="44.3674" lon="6.78688">
        <ele>1992</ele>
        <time>2021-08-04T15:19:43Z</time>
      </trkpt>
      <trkpt lat="44.36757" lon="6.78678">
        <ele>1990</ele>
        <time>2021-08-04T15:19:46Z</time>
      </trkpt>
      <trkpt lat="44.36771" lon="6.78675">
        <ele>1991</ele>
        <time>2021-08-04T15:19:48Z</time>
      </trkpt>
      <trkpt lat="44.36821" lon="6.78681">
        <ele>1998</ele>
        <time>2021-08-04T15:19:57Z</time>
      </trkpt>
      <trkpt lat="44.36873" lon="6.78679">
        <ele>2002</ele>
        <time>2021-08-04T15:20:07Z</time>
      </trkpt>
      <trkpt lat="44.36877" lon="6.78681">
        <ele>2003</ele>
        <time>2021-08-04T15:20:07Z</time>
      </trkpt>
      <trkpt lat="44.36879" lon="6.78689">
        <ele>2005</ele>
        <time>2021-08-04T15:20:09Z</time>
      </trkpt>
      <trkpt lat="44.36875" lon="6.78698">
        <ele>2008</ele>
        <time>2021-08-04T15:20:10Z</time>
      </trkpt>
      <trkpt lat="44.36845" lon="6.78705">
        <ele>2008</ele>
        <time>2021-08-04T15:20:15Z</time>
      </trkpt>
      <trkpt lat="44.36803" lon="6.7872">
        <ele>2009</ele>
        <time>2021-08-04T15:20:23Z</time>
      </trkpt>
      <trkpt lat="44.36788" lon="6.78729">
        <ele>2010</ele>
        <time>2021-08-04T15:20:26Z</time>
      </trkpt>
      <trkpt lat="44.36775" lon="6.78742">
        <ele>2013</ele>
        <time>2021-08-04T15:20:29Z</time>
      </trkpt>
      <trkpt lat="44.36745" lon="6.78757">
        <ele>2014</ele>
        <time>2021-08-04T15:20:34Z</time>
      </trkpt>
      <trkpt lat="44.36735" lon="6.78764">
        <ele>2015</ele>
        <time>2021-08-04T15:20:36Z</time>
      </trkpt>
      <trkpt lat="44.36704" lon="6.78801">
        <ele>2020</ele>
        <time>2021-08-04T15:20:44Z</time>
      </trkpt>
      <trkpt lat="44.36687" lon="6.7883">
        <ele>2026</ele>
        <time>2021-08-04T15:20:48Z</time>
      </trkpt>
      <trkpt lat="44.36677" lon="6.78839">
        <ele>2028</ele>
        <time>2021-08-04T15:20:51Z</time>
      </trkpt>
      <trkpt lat="44.36644" lon="6.7885">
        <ele>2031</ele>
        <time>2021-08-04T15:20:57Z</time>
      </trkpt>
      <trkpt lat="44.36631" lon="6.7886">
        <ele>2035</ele>
        <time>2021-08-04T15:20:59Z</time>
      </trkpt>
      <trkpt lat="44.36619" lon="6.78866">
        <ele>2038</ele>
        <time>2021-08-04T15:21:01Z</time>
      </trkpt>
      <trkpt lat="44.36602" lon="6.78869">
        <ele>2040</ele>
        <time>2021-08-04T15:21:05Z</time>
      </trkpt>
      <trkpt lat="44.36582" lon="6.78862">
        <ele>2037</ele>
        <time>2021-08-04T15:21:08Z</time>
      </trkpt>
      <trkpt lat="44.36546" lon="6.78861">
        <ele>2044</ele>
        <time>2021-08-04T15:21:15Z</time>
      </trkpt>
      <trkpt lat="44.36525" lon="6.78855">
        <ele>2045</ele>
        <time>2021-08-04T15:21:18Z</time>
      </trkpt>
      <trkpt lat="44.36507" lon="6.78845">
        <ele>2045</ele>
        <time>2021-08-04T15:21:22Z</time>
      </trkpt>
      <trkpt lat="44.36496" lon="6.78833">
        <ele>2042</ele>
        <time>2021-08-04T15:21:24Z</time>
      </trkpt>
      <trkpt lat="44.36481" lon="6.7881">
        <ele>2038</ele>
        <time>2021-08-04T15:21:28Z</time>
      </trkpt>
      <trkpt lat="44.36463" lon="6.78796">
        <ele>2037</ele>
        <time>2021-08-04T15:21:32Z</time>
      </trkpt>
      <trkpt lat="44.36454" lon="6.78793">
        <ele>2038</ele>
        <time>2021-08-04T15:21:34Z</time>
      </trkpt>
      <trkpt lat="44.36443" lon="6.78794">
        <ele>2041</ele>
        <time>2021-08-04T15:21:36Z</time>
      </trkpt>
      <trkpt lat="44.36406" lon="6.7881">
        <ele>2054</ele>
        <time>2021-08-04T15:21:42Z</time>
      </trkpt>
      <trkpt lat="44.36398" lon="6.7881">
        <ele>2054</ele>
        <time>2021-08-04T15:21:44Z</time>
      </trkpt>
      <trkpt lat="44.36384" lon="6.78803">
        <ele>2053</ele>
        <time>2021-08-04T15:21:47Z</time>
      </trkpt>
      <trkpt lat="44.36376" lon="6.78801">
        <ele>2052</ele>
        <time>2021-08-04T15:21:48Z</time>
      </trkpt>
      <trkpt lat="44.36334" lon="6.78817">
        <ele>2059</ele>
        <time>2021-08-04T15:21:56Z</time>
      </trkpt>
      <trkpt lat="44.36319" lon="6.78811">
        <ele>2058</ele>
        <time>2021-08-04T15:21:59Z</time>
      </trkpt>
      <trkpt lat="44.36277" lon="6.78784">
        <ele>2054</ele>
        <time>2021-08-04T15:22:07Z</time>
      </trkpt>
      <trkpt lat="44.36265" lon="6.78778">
        <ele>2054</ele>
        <time>2021-08-04T15:22:09Z</time>
      </trkpt>
      <trkpt lat="44.36197" lon="6.78756">
        <ele>2055</ele>
        <time>2021-08-04T15:22:21Z</time>
      </trkpt>
      <trkpt lat="44.36185" lon="6.7875">
        <ele>2054</ele>
        <time>2021-08-04T15:22:24Z</time>
      </trkpt>
      <trkpt lat="44.36163" lon="6.78732">
        <ele>2058</ele>
        <time>2021-08-04T15:22:28Z</time>
      </trkpt>
      <trkpt lat="44.36145" lon="6.78711">
        <ele>2065</ele>
        <time>2021-08-04T15:22:32Z</time>
      </trkpt>
      <trkpt lat="44.36126" lon="6.78683">
        <ele>2070</ele>
        <time>2021-08-04T15:22:37Z</time>
      </trkpt>
      <trkpt lat="44.36117" lon="6.78661">
        <ele>2072</ele>
        <time>2021-08-04T15:22:41Z</time>
      </trkpt>
      <trkpt lat="44.36113" lon="6.78633">
        <ele>2074</ele>
        <time>2021-08-04T15:22:44Z</time>
      </trkpt>
      <trkpt lat="44.3611" lon="6.7862">
        <ele>2074</ele>
        <time>2021-08-04T15:22:46Z</time>
      </trkpt>
      <trkpt lat="44.36103" lon="6.78607">
        <ele>2075</ele>
        <time>2021-08-04T15:22:48Z</time>
      </trkpt>
      <trkpt lat="44.36081" lon="6.78589">
        <ele>2074</ele>
        <time>2021-08-04T15:22:52Z</time>
      </trkpt>
      <trkpt lat="44.36058" lon="6.78563">
        <ele>2078</ele>
        <time>2021-08-04T15:22:58Z</time>
      </trkpt>
      <trkpt lat="44.3603" lon="6.78552">
        <ele>2080</ele>
        <time>2021-08-04T15:23:03Z</time>
      </trkpt>
      <trkpt lat="44.36027" lon="6.78543">
        <ele>2080</ele>
        <time>2021-08-04T15:23:04Z</time>
      </trkpt>
      <trkpt lat="44.36021" lon="6.78509">
        <ele>2079</ele>
        <time>2021-08-04T15:23:09Z</time>
      </trkpt>
      <trkpt lat="44.36018" lon="6.78488">
        <ele>2080</ele>
        <time>2021-08-04T15:23:11Z</time>
      </trkpt>
      <trkpt lat="44.36011" lon="6.78463">
        <ele>2082</ele>
        <time>2021-08-04T15:23:15Z</time>
      </trkpt>
      <trkpt lat="44.36001" lon="6.78444">
        <ele>2082</ele>
        <time>2021-08-04T15:23:18Z</time>
      </trkpt>
      <trkpt lat="44.35953" lon="6.78379">
        <ele>2087</ele>
        <time>2021-08-04T15:23:30Z</time>
      </trkpt>
      <trkpt lat="44.35899" lon="6.78311">
        <ele>2094</ele>
        <time>2021-08-04T15:23:43Z</time>
      </trkpt>
      <trkpt lat="44.35887" lon="6.783">
        <ele>2095</ele>
        <time>2021-08-04T15:23:45Z</time>
      </trkpt>
      <trkpt lat="44.35873" lon="6.78296">
        <ele>2096</ele>
        <time>2021-08-04T15:23:48Z</time>
      </trkpt>
      <trkpt lat="44.35859" lon="6.78306">
        <ele>2094</ele>
        <time>2021-08-04T15:23:50Z</time>
      </trkpt>
      <trkpt lat="44.35828" lon="6.78346">
        <ele>2089</ele>
        <time>2021-08-04T15:23:58Z</time>
      </trkpt>
      <trkpt lat="44.3581" lon="6.78357">
        <ele>2091</ele>
        <time>2021-08-04T15:24:01Z</time>
      </trkpt>
      <trkpt lat="44.35793" lon="6.78361">
        <ele>2093</ele>
        <time>2021-08-04T15:24:05Z</time>
      </trkpt>
      <trkpt lat="44.35705" lon="6.78339">
        <ele>2100</ele>
        <time>2021-08-04T15:24:20Z</time>
      </trkpt>
      <trkpt lat="44.35681" lon="6.78328">
        <ele>2103</ele>
        <time>2021-08-04T15:24:25Z</time>
      </trkpt>
      <trkpt lat="44.35604" lon="6.78269">
        <ele>2117</ele>
        <time>2021-08-04T15:24:41Z</time>
      </trkpt>
      <trkpt lat="44.35569" lon="6.78257">
        <ele>2120</ele>
        <time>2021-08-04T15:24:47Z</time>
      </trkpt>
      <trkpt lat="44.35552" lon="6.78255">
        <ele>2123</ele>
        <time>2021-08-04T15:24:50Z</time>
      </trkpt>
      <trkpt lat="44.35536" lon="6.78256">
        <ele>2124</ele>
        <time>2021-08-04T15:24:53Z</time>
      </trkpt>
      <trkpt lat="44.35512" lon="6.78263">
        <ele>2125</ele>
        <time>2021-08-04T15:24:57Z</time>
      </trkpt>
      <trkpt lat="44.35495" lon="6.78273">
        <ele>2126</ele>
        <time>2021-08-04T15:25:01Z</time>
      </trkpt>
      <trkpt lat="44.35449" lon="6.78326">
        <ele>2125</ele>
        <time>2021-08-04T15:25:11Z</time>
      </trkpt>
      <trkpt lat="44.35431" lon="6.78334">
        <ele>2126</ele>
        <time>2021-08-04T15:25:14Z</time>
      </trkpt>
      <trkpt lat="44.35407" lon="6.78336">
        <ele>2130</ele>
        <time>2021-08-04T15:25:19Z</time>
      </trkpt>
      <trkpt lat="44.35373" lon="6.78353">
        <ele>2133</ele>
        <time>2021-08-04T15:25:25Z</time>
      </trkpt>
      <trkpt lat="44.35347" lon="6.78359">
        <ele>2136</ele>
        <time>2021-08-04T15:25:30Z</time>
      </trkpt>
      <trkpt lat="44.35309" lon="6.78353">
        <ele>2141</ele>
        <time>2021-08-04T15:25:37Z</time>
      </trkpt>
      <trkpt lat="44.3526" lon="6.78317">
        <ele>2147</ele>
        <time>2021-08-04T15:25:47Z</time>
      </trkpt>
      <trkpt lat="44.35218" lon="6.78281">
        <ele>2154</ele>
        <time>2021-08-04T15:25:55Z</time>
      </trkpt>
      <trkpt lat="44.35198" lon="6.78268">
        <ele>2157</ele>
        <time>2021-08-04T15:25:59Z</time>
      </trkpt>
      <trkpt lat="44.35182" lon="6.78264">
        <ele>2159</ele>
        <time>2021-08-04T15:26:02Z</time>
      </trkpt>
      <trkpt lat="44.35169" lon="6.78269">
        <ele>2161</ele>
        <time>2021-08-04T15:26:05Z</time>
      </trkpt>
      <trkpt lat="44.35161" lon="6.78276">
        <ele>2162</ele>
        <time>2021-08-04T15:26:06Z</time>
      </trkpt>
      <trkpt lat="44.35157" lon="6.78285">
        <ele>2162</ele>
        <time>2021-08-04T15:26:08Z</time>
      </trkpt>
      <trkpt lat="44.35153" lon="6.78301">
        <ele>2162</ele>
        <time>2021-08-04T15:26:10Z</time>
      </trkpt>
      <trkpt lat="44.35151" lon="6.78335">
        <ele>2162</ele>
        <time>2021-08-04T15:26:14Z</time>
      </trkpt>
      <trkpt lat="44.35152" lon="6.78399">
        <ele>2167</ele>
        <time>2021-08-04T15:26:22Z</time>
      </trkpt>
      <trkpt lat="44.3514" lon="6.78431">
        <ele>2172</ele>
        <time>2021-08-04T15:26:27Z</time>
      </trkpt>
      <trkpt lat="44.35139" lon="6.78444">
        <ele>2173</ele>
        <time>2021-08-04T15:26:28Z</time>
      </trkpt>
      <trkpt lat="44.35143" lon="6.78457">
        <ele>2173</ele>
        <time>2021-08-04T15:26:30Z</time>
      </trkpt>
      <trkpt lat="44.35167" lon="6.78475">
        <ele>2169</ele>
        <time>2021-08-04T15:26:35Z</time>
      </trkpt>
      <trkpt lat="44.35173" lon="6.78487">
        <ele>2169</ele>
        <time>2021-08-04T15:26:37Z</time>
      </trkpt>
      <trkpt lat="44.35173" lon="6.78495">
        <ele>2170</ele>
        <time>2021-08-04T15:26:38Z</time>
      </trkpt>
      <trkpt lat="44.3517" lon="6.78503">
        <ele>2170</ele>
        <time>2021-08-04T15:26:39Z</time>
      </trkpt>
      <trkpt lat="44.35162" lon="6.78509">
        <ele>2172</ele>
        <time>2021-08-04T15:26:41Z</time>
      </trkpt>
      <trkpt lat="44.35155" lon="6.78511">
        <ele>2174</ele>
        <time>2021-08-04T15:26:42Z</time>
      </trkpt>
      <trkpt lat="44.35112" lon="6.78488">
        <ele>2182</ele>
        <time>2021-08-04T15:26:50Z</time>
      </trkpt>
      <trkpt lat="44.35061" lon="6.78452">
        <ele>2190</ele>
        <time>2021-08-04T15:27:00Z</time>
      </trkpt>
      <trkpt lat="44.35054" lon="6.78441">
        <ele>2191</ele>
        <time>2021-08-04T15:27:02Z</time>
      </trkpt>
      <trkpt lat="44.3505" lon="6.78412">
        <ele>2188</ele>
        <time>2021-08-04T15:27:06Z</time>
      </trkpt>
      <trkpt lat="44.35044" lon="6.7839">
        <ele>2186</ele>
        <time>2021-08-04T15:27:09Z</time>
      </trkpt>
      <trkpt lat="44.35034" lon="6.78369">
        <ele>2186</ele>
        <time>2021-08-04T15:27:12Z</time>
      </trkpt>
      <trkpt lat="44.35023" lon="6.78351">
        <ele>2186</ele>
        <time>2021-08-04T15:27:15Z</time>
      </trkpt>
      <trkpt lat="44.35011" lon="6.78345">
        <ele>2187</ele>
        <time>2021-08-04T15:27:17Z</time>
      </trkpt>
      <trkpt lat="44.34999" lon="6.78344">
        <ele>2190</ele>
        <time>2021-08-04T15:27:20Z</time>
      </trkpt>
      <trkpt lat="44.34959" lon="6.78353">
        <ele>2197</ele>
        <time>2021-08-04T15:27:27Z</time>
      </trkpt>
      <trkpt lat="44.34877" lon="6.78356">
        <ele>2213</ele>
        <time>2021-08-04T15:27:41Z</time>
      </trkpt>
      <trkpt lat="44.34867" lon="6.78361">
        <ele>2216</ele>
        <time>2021-08-04T15:27:43Z</time>
      </trkpt>
      <trkpt lat="44.34865" lon="6.78378">
        <ele>2220</ele>
        <time>2021-08-04T15:27:46Z</time>
      </trkpt>
      <trkpt lat="44.34868" lon="6.78388">
        <ele>2221</ele>
        <time>2021-08-04T15:27:47Z</time>
      </trkpt>
      <trkpt lat="44.34878" lon="6.78404">
        <ele>2221</ele>
        <time>2021-08-04T15:27:50Z</time>
      </trkpt>
      <trkpt lat="44.34915" lon="6.78453">
        <ele>2225</ele>
        <time>2021-08-04T15:27:59Z</time>
      </trkpt>
      <trkpt lat="44.34982" lon="6.78513">
        <ele>2223</ele>
        <time>2021-08-04T15:28:13Z</time>
      </trkpt>
      <trkpt lat="44.34986" lon="6.7852">
        <ele>2223</ele>
        <time>2021-08-04T15:28:14Z</time>
      </trkpt>
      <trkpt lat="44.34986" lon="6.78528">
        <ele>2225</ele>
        <time>2021-08-04T15:28:15Z</time>
      </trkpt>
      <trkpt lat="44.34984" lon="6.78532">
        <ele>2226</ele>
        <time>2021-08-04T15:28:16Z</time>
      </trkpt>
      <trkpt lat="44.34979" lon="6.78533">
        <ele>2228</ele>
        <time>2021-08-04T15:28:16Z</time>
      </trkpt>
      <trkpt lat="44.34924" lon="6.78493">
        <ele>2234</ele>
        <time>2021-08-04T15:28:28Z</time>
      </trkpt>
      <trkpt lat="44.34911" lon="6.7849">
        <ele>2236</ele>
        <time>2021-08-04T15:28:30Z</time>
      </trkpt>
      <trkpt lat="44.34865" lon="6.78489">
        <ele>2243</ele>
        <time>2021-08-04T15:28:38Z</time>
      </trkpt>
      <trkpt lat="44.34847" lon="6.78483">
        <ele>2245</ele>
        <time>2021-08-04T15:28:41Z</time>
      </trkpt>
      <trkpt lat="44.34838" lon="6.78469">
        <ele>2244</ele>
        <time>2021-08-04T15:28:44Z</time>
      </trkpt>
      <trkpt lat="44.34833" lon="6.78453">
        <ele>2242</ele>
        <time>2021-08-04T15:28:46Z</time>
      </trkpt>
      <trkpt lat="44.34826" lon="6.78424">
        <ele>2240</ele>
        <time>2021-08-04T15:28:50Z</time>
      </trkpt>
      <trkpt lat="44.34822" lon="6.78421">
        <ele>2241</ele>
        <time>2021-08-04T15:28:51Z</time>
      </trkpt>
      <trkpt lat="44.34817" lon="6.78421">
        <ele>2243</ele>
        <time>2021-08-04T15:28:52Z</time>
      </trkpt>
      <trkpt lat="44.34813" lon="6.78426">
        <ele>2246</ele>
        <time>2021-08-04T15:28:53Z</time>
      </trkpt>
      <trkpt lat="44.34812" lon="6.78453">
        <ele>2249</ele>
        <time>2021-08-04T15:28:56Z</time>
      </trkpt>
      <trkpt lat="44.34808" lon="6.78468">
        <ele>2252</ele>
        <time>2021-08-04T15:28:58Z</time>
      </trkpt>
      <trkpt lat="44.34773" lon="6.78517">
        <ele>2264</ele>
        <time>2021-08-04T15:29:07Z</time>
      </trkpt>
      <trkpt lat="44.3477" lon="6.78532">
        <ele>2266</ele>
        <time>2021-08-04T15:29:09Z</time>
      </trkpt>
      <trkpt lat="44.34772" lon="6.78548">
        <ele>2266</ele>
        <time>2021-08-04T15:29:11Z</time>
      </trkpt>
      <trkpt lat="44.34778" lon="6.78557">
        <ele>2266</ele>
        <time>2021-08-04T15:29:12Z</time>
      </trkpt>
      <trkpt lat="44.34789" lon="6.78559">
        <ele>2265</ele>
        <time>2021-08-04T15:29:14Z</time>
      </trkpt>
      <trkpt lat="44.34816" lon="6.7855">
        <ele>2261</ele>
        <time>2021-08-04T15:29:19Z</time>
      </trkpt>
      <trkpt lat="44.34827" lon="6.78549">
        <ele>2260</ele>
        <time>2021-08-04T15:29:21Z</time>
      </trkpt>
      <trkpt lat="44.34832" lon="6.78552">
        <ele>2260</ele>
        <time>2021-08-04T15:29:22Z</time>
      </trkpt>
      <trkpt lat="44.34835" lon="6.78559">
        <ele>2261</ele>
        <time>2021-08-04T15:29:23Z</time>
      </trkpt>
      <trkpt lat="44.34836" lon="6.78568">
        <ele>2262</ele>
        <time>2021-08-04T15:29:24Z</time>
      </trkpt>
      <trkpt lat="44.34832" lon="6.78579">
        <ele>2264</ele>
        <time>2021-08-04T15:29:26Z</time>
      </trkpt>
      <trkpt lat="44.3482" lon="6.78594">
        <ele>2267</ele>
        <time>2021-08-04T15:29:29Z</time>
      </trkpt>
      <trkpt lat="44.34816" lon="6.78599">
        <ele>2267</ele>
        <time>2021-08-04T15:29:30Z</time>
      </trkpt>
      <trkpt lat="44.34756" lon="6.78667">
        <ele>2278</ele>
        <time>2021-08-04T15:29:44Z</time>
      </trkpt>
      <trkpt lat="44.34722" lon="6.78702">
        <ele>2279</ele>
        <time>2021-08-04T15:29:51Z</time>
      </trkpt>
      <trkpt lat="44.34708" lon="6.78709">
        <ele>2280</ele>
        <time>2021-08-04T15:29:54Z</time>
      </trkpt>
      <trkpt lat="44.34694" lon="6.78711">
        <ele>2281</ele>
        <time>2021-08-04T15:29:56Z</time>
      </trkpt>
      <trkpt lat="44.34678" lon="6.78707">
        <ele>2283</ele>
        <time>2021-08-04T15:29:59Z</time>
      </trkpt>
      <trkpt lat="44.34606" lon="6.78663">
        <ele>2289</ele>
        <time>2021-08-04T15:30:13Z</time>
      </trkpt>
      <trkpt lat="44.34581" lon="6.78645">
        <ele>2291</ele>
        <time>2021-08-04T15:30:18Z</time>
      </trkpt>
      <trkpt lat="44.34567" lon="6.78632">
        <ele>2292</ele>
        <time>2021-08-04T15:30:21Z</time>
      </trkpt>
      <trkpt lat="44.34526" lon="6.7858">
        <ele>2295</ele>
        <time>2021-08-04T15:30:31Z</time>
      </trkpt>
      <trkpt lat="44.34504" lon="6.78564">
        <ele>2296</ele>
        <time>2021-08-04T15:30:35Z</time>
      </trkpt>
      <trkpt lat="44.34495" lon="6.78554">
        <ele>2298</ele>
        <time>2021-08-04T15:30:37Z</time>
      </trkpt>
      <trkpt lat="44.34491" lon="6.78531">
        <ele>2301</ele>
        <time>2021-08-04T15:30:40Z</time>
      </trkpt>
      <trkpt lat="44.34497" lon="6.78481">
        <ele>2306</ele>
        <time>2021-08-04T15:30:47Z</time>
      </trkpt>
      <trkpt lat="44.34493" lon="6.78464">
        <ele>2308</ele>
        <time>2021-08-04T15:30:49Z</time>
      </trkpt>
      <trkpt lat="44.34488" lon="6.78455">
        <ele>2309</ele>
        <time>2021-08-04T15:30:51Z</time>
      </trkpt>
      <trkpt lat="44.34477" lon="6.78452">
        <ele>2311</ele>
        <time>2021-08-04T15:30:53Z</time>
      </trkpt>
      <trkpt lat="44.34454" lon="6.78451">
        <ele>2313</ele>
        <time>2021-08-04T15:30:57Z</time>
      </trkpt>
      <trkpt lat="44.34418" lon="6.78445">
        <ele>2317</ele>
        <time>2021-08-04T15:31:03Z</time>
      </trkpt>
      <trkpt lat="44.34404" lon="6.78448">
        <ele>2318</ele>
        <time>2021-08-04T15:31:06Z</time>
      </trkpt>
      <trkpt lat="44.34375" lon="6.7846">
        <ele>2318</ele>
        <time>2021-08-04T15:31:11Z</time>
      </trkpt>
      <trkpt lat="44.34359" lon="6.78463">
        <ele>2319</ele>
        <time>2021-08-04T15:31:14Z</time>
      </trkpt>
      <trkpt lat="44.34346" lon="6.78462">
        <ele>2321</ele>
        <time>2021-08-04T15:31:16Z</time>
      </trkpt>
      <trkpt lat="44.3433" lon="6.78452">
        <ele>2323</ele>
        <time>2021-08-04T15:31:19Z</time>
      </trkpt>
      <trkpt lat="44.34317" lon="6.78438">
        <ele>2325</ele>
        <time>2021-08-04T15:31:22Z</time>
      </trkpt>
      <trkpt lat="44.3431" lon="6.78429">
        <ele>2326</ele>
        <time>2021-08-04T15:31:24Z</time>
      </trkpt>
      <trkpt lat="44.34307" lon="6.78418">
        <ele>2327</ele>
        <time>2021-08-04T15:31:25Z</time>
      </trkpt>
      <trkpt lat="44.34309" lon="6.7839">
        <ele>2329</ele>
        <time>2021-08-04T15:31:29Z</time>
      </trkpt>
      <trkpt lat="44.34312" lon="6.78375">
        <ele>2330</ele>
        <time>2021-08-04T15:31:31Z</time>
      </trkpt>
      <trkpt lat="44.34317" lon="6.78346">
        <ele>2333</ele>
        <time>2021-08-04T15:31:35Z</time>
      </trkpt>
      <trkpt lat="44.34319" lon="6.78324">
        <ele>2335</ele>
        <time>2021-08-04T15:31:38Z</time>
      </trkpt>
      <trkpt lat="44.34318" lon="6.78313">
        <ele>2336</ele>
        <time>2021-08-04T15:31:39Z</time>
      </trkpt>
      <trkpt lat="44.34315" lon="6.783">
        <ele>2337</ele>
        <time>2021-08-04T15:31:41Z</time>
      </trkpt>
      <trkpt lat="44.34278" lon="6.78231">
        <ele>2341</ele>
        <time>2021-08-04T15:31:52Z</time>
      </trkpt>
      <trkpt lat="44.3426" lon="6.78221">
        <ele>2340</ele>
        <time>2021-08-04T15:31:55Z</time>
      </trkpt>
      <trkpt lat="44.34202" lon="6.78215">
        <ele>2343</ele>
        <time>2021-08-04T15:32:06Z</time>
      </trkpt>
      <trkpt lat="44.34188" lon="6.78219">
        <ele>2343</ele>
        <time>2021-08-04T15:32:08Z</time>
      </trkpt>
      <trkpt lat="44.34112" lon="6.78255">
        <ele>2342</ele>
        <time>2021-08-04T15:32:22Z</time>
      </trkpt>
      <trkpt lat="44.34027" lon="6.7827">
        <ele>2351</ele>
        <time>2021-08-04T15:32:38Z</time>
      </trkpt>
      <trkpt lat="44.34013" lon="6.78268">
        <ele>2352</ele>
        <time>2021-08-04T15:32:40Z</time>
      </trkpt>
      <trkpt lat="44.3399" lon="6.78255">
        <ele>2356</ele>
        <time>2021-08-04T15:32:45Z</time>
      </trkpt>
      <trkpt lat="44.33973" lon="6.7825">
        <ele>2360</ele>
        <time>2021-08-04T15:32:48Z</time>
      </trkpt>
      <trkpt lat="44.33963" lon="6.7825">
        <ele>2361</ele>
        <time>2021-08-04T15:32:49Z</time>
      </trkpt>
      <trkpt lat="44.33949" lon="6.78258">
        <ele>2363</ele>
        <time>2021-08-04T15:32:52Z</time>
      </trkpt>
      <trkpt lat="44.33912" lon="6.7829">
        <ele>2365</ele>
        <time>2021-08-04T15:33:00Z</time>
      </trkpt>
      <trkpt lat="44.33901" lon="6.78304">
        <ele>2365</ele>
        <time>2021-08-04T15:33:02Z</time>
      </trkpt>
      <trkpt lat="44.33861" lon="6.78395">
        <ele>2367</ele>
        <time>2021-08-04T15:33:16Z</time>
      </trkpt>
      <trkpt lat="44.33852" lon="6.78406">
        <ele>2368</ele>
        <time>2021-08-04T15:33:18Z</time>
      </trkpt>
      <trkpt lat="44.3384" lon="6.78415">
        <ele>2369</ele>
        <time>2021-08-04T15:33:21Z</time>
      </trkpt>
      <trkpt lat="44.33811" lon="6.78426">
        <ele>2373</ele>
        <time>2021-08-04T15:33:26Z</time>
      </trkpt>
      <trkpt lat="44.33803" lon="6.78433">
        <ele>2374</ele>
        <time>2021-08-04T15:33:28Z</time>
      </trkpt>
      <trkpt lat="44.33801" lon="6.78442">
        <ele>2375</ele>
        <time>2021-08-04T15:33:29Z</time>
      </trkpt>
      <trkpt lat="44.33803" lon="6.78456">
        <ele>2375</ele>
        <time>2021-08-04T15:33:31Z</time>
      </trkpt>
      <trkpt lat="44.33806" lon="6.78464">
        <ele>2375</ele>
        <time>2021-08-04T15:33:32Z</time>
      </trkpt>
      <trkpt lat="44.33817" lon="6.78472">
        <ele>2373</ele>
        <time>2021-08-04T15:33:34Z</time>
      </trkpt>
      <trkpt lat="44.33831" lon="6.78477">
        <ele>2371</ele>
        <time>2021-08-04T15:33:37Z</time>
      </trkpt>
      <trkpt lat="44.3384" lon="6.78486">
        <ele>2370</ele>
        <time>2021-08-04T15:33:39Z</time>
      </trkpt>
      <trkpt lat="44.33845" lon="6.78498">
        <ele>2370</ele>
        <time>2021-08-04T15:33:40Z</time>
      </trkpt>
      <trkpt lat="44.33846" lon="6.78511">
        <ele>2370</ele>
        <time>2021-08-04T15:33:42Z</time>
      </trkpt>
      <trkpt lat="44.33839" lon="6.78537">
        <ele>2371</ele>
        <time>2021-08-04T15:33:46Z</time>
      </trkpt>
      <trkpt lat="44.33838" lon="6.78564">
        <ele>2371</ele>
        <time>2021-08-04T15:33:49Z</time>
      </trkpt>
      <trkpt lat="44.33843" lon="6.78588">
        <ele>2371</ele>
        <time>2021-08-04T15:33:52Z</time>
      </trkpt>
      <trkpt lat="44.33842" lon="6.78604">
        <ele>2371</ele>
        <time>2021-08-04T15:33:54Z</time>
      </trkpt>
      <trkpt lat="44.33838" lon="6.78617">
        <ele>2371</ele>
        <time>2021-08-04T15:33:56Z</time>
      </trkpt>
      <trkpt lat="44.33772" lon="6.78711">
        <ele>2386</ele>
        <time>2021-08-04T15:34:13Z</time>
      </trkpt>
      <trkpt lat="44.33761" lon="6.78732">
        <ele>2389</ele>
        <time>2021-08-04T15:34:16Z</time>
      </trkpt>
      <trkpt lat="44.33754" lon="6.78752">
        <ele>2390</ele>
        <time>2021-08-04T15:34:19Z</time>
      </trkpt>
      <trkpt lat="44.33753" lon="6.78767">
        <ele>2391</ele>
        <time>2021-08-04T15:34:21Z</time>
      </trkpt>
      <trkpt lat="44.33757" lon="6.78785">
        <ele>2391</ele>
        <time>2021-08-04T15:34:23Z</time>
      </trkpt>
      <trkpt lat="44.33765" lon="6.78802">
        <ele>2390</ele>
        <time>2021-08-04T15:34:26Z</time>
      </trkpt>
      <trkpt lat="44.33771" lon="6.78819">
        <ele>2390</ele>
        <time>2021-08-04T15:34:28Z</time>
      </trkpt>
      <trkpt lat="44.33772" lon="6.78833">
        <ele>2390</ele>
        <time>2021-08-04T15:34:30Z</time>
      </trkpt>
      <trkpt lat="44.33766" lon="6.78868">
        <ele>2392</ele>
        <time>2021-08-04T15:34:35Z</time>
      </trkpt>
      <trkpt lat="44.33764" lon="6.78893">
        <ele>2393</ele>
        <time>2021-08-04T15:34:38Z</time>
      </trkpt>
      <trkpt lat="44.33768" lon="6.78915">
        <ele>2393</ele>
        <time>2021-08-04T15:34:41Z</time>
      </trkpt>
      <trkpt lat="44.33779" lon="6.78961">
        <ele>2393</ele>
        <time>2021-08-04T15:34:47Z</time>
      </trkpt>
      <trkpt lat="44.33783" lon="6.78999">
        <ele>2394</ele>
        <time>2021-08-04T15:34:52Z</time>
      </trkpt>
      <trkpt lat="44.33784" lon="6.79031">
        <ele>2397</ele>
        <time>2021-08-04T15:34:56Z</time>
      </trkpt>
      <trkpt lat="44.33782" lon="6.79059">
        <ele>2400</ele>
        <time>2021-08-04T15:34:59Z</time>
      </trkpt>
      <trkpt lat="44.33788" lon="6.79105">
        <ele>2403</ele>
        <time>2021-08-04T15:35:05Z</time>
      </trkpt>
      <trkpt lat="44.33792" lon="6.79167">
        <ele>2412</ele>
        <time>2021-08-04T15:35:13Z</time>
      </trkpt>
      <trkpt lat="44.33795" lon="6.79182">
        <ele>2415</ele>
        <time>2021-08-04T15:35:15Z</time>
      </trkpt>
      <trkpt lat="44.33803" lon="6.79192">
        <ele>2415</ele>
        <time>2021-08-04T15:35:17Z</time>
      </trkpt>
      <trkpt lat="44.33813" lon="6.79198">
        <ele>2414</ele>
        <time>2021-08-04T15:35:19Z</time>
      </trkpt>
      <trkpt lat="44.33825" lon="6.792">
        <ele>2411</ele>
        <time>2021-08-04T15:35:21Z</time>
      </trkpt>
      <trkpt lat="44.33832" lon="6.79198">
        <ele>2409</ele>
        <time>2021-08-04T15:35:23Z</time>
      </trkpt>
      <trkpt lat="44.33883" lon="6.79169">
        <ele>2409</ele>
        <time>2021-08-04T15:35:32Z</time>
      </trkpt>
      <trkpt lat="44.33973" lon="6.79152">
        <ele>2425</ele>
        <time>2021-08-04T15:35:48Z</time>
      </trkpt>
      <trkpt lat="44.33982" lon="6.79149">
        <ele>2427</ele>
        <time>2021-08-04T15:35:50Z</time>
      </trkpt>
      <trkpt lat="44.33991" lon="6.7914">
        <ele>2428</ele>
        <time>2021-08-04T15:35:52Z</time>
      </trkpt>
      <trkpt lat="44.34001" lon="6.79125">
        <ele>2428</ele>
        <time>2021-08-04T15:35:55Z</time>
      </trkpt>
      <trkpt lat="44.34026" lon="6.79072">
        <ele>2430</ele>
        <time>2021-08-04T15:36:03Z</time>
      </trkpt>
      <trkpt lat="44.34036" lon="6.79012">
        <ele>2428</ele>
        <time>2021-08-04T15:36:11Z</time>
      </trkpt>
      <trkpt lat="44.34046" lon="6.78987">
        <ele>2429</ele>
        <time>2021-08-04T15:36:14Z</time>
      </trkpt>
      <trkpt lat="44.34068" lon="6.78935">
        <ele>2428</ele>
        <time>2021-08-04T15:36:22Z</time>
      </trkpt>
      <trkpt lat="44.34079" lon="6.78915">
        <ele>2428</ele>
        <time>2021-08-04T15:36:25Z</time>
      </trkpt>
      <trkpt lat="44.34084" lon="6.78912">
        <ele>2429</ele>
        <time>2021-08-04T15:36:26Z</time>
      </trkpt>
      <trkpt lat="44.34089" lon="6.78914">
        <ele>2430</ele>
        <time>2021-08-04T15:36:27Z</time>
      </trkpt>
      <trkpt lat="44.34092" lon="6.78921">
        <ele>2432</ele>
        <time>2021-08-04T15:36:28Z</time>
      </trkpt>
      <trkpt lat="44.34092" lon="6.7893">
        <ele>2433</ele>
        <time>2021-08-04T15:36:29Z</time>
      </trkpt>
      <trkpt lat="44.34075" lon="6.78976">
        <ele>2438</ele>
        <time>2021-08-04T15:36:36Z</time>
      </trkpt>
      <trkpt lat="44.34074" lon="6.78995">
        <ele>2441</ele>
        <time>2021-08-04T15:36:38Z</time>
      </trkpt>
      <trkpt lat="44.34082" lon="6.79043">
        <ele>2447</ele>
        <time>2021-08-04T15:36:45Z</time>
      </trkpt>
      <trkpt lat="44.34081" lon="6.79075">
        <ele>2448</ele>
        <time>2021-08-04T15:36:49Z</time>
      </trkpt>
      <trkpt lat="44.34081" lon="6.7908">
        <ele>2448</ele>
        <time>2021-08-04T15:36:49Z</time>
      </trkpt>
      <trkpt lat="44.34082" lon="6.79134">
        <ele>2452</ele>
        <time>2021-08-04T15:36:56Z</time>
      </trkpt>
      <trkpt lat="44.34075" lon="6.7917">
        <ele>2453</ele>
        <time>2021-08-04T15:37:01Z</time>
      </trkpt>
      <trkpt lat="44.34054" lon="6.79207">
        <ele>2454</ele>
        <time>2021-08-04T15:37:07Z</time>
      </trkpt>
      <trkpt lat="44.34037" lon="6.79242">
        <ele>2456</ele>
        <time>2021-08-04T15:37:12Z</time>
      </trkpt>
      <trkpt lat="44.34003" lon="6.79295">
        <ele>2460</ele>
        <time>2021-08-04T15:37:21Z</time>
      </trkpt>
      <trkpt lat="44.33996" lon="6.79311">
        <ele>2461</ele>
        <time>2021-08-04T15:37:24Z</time>
      </trkpt>
      <trkpt lat="44.33994" lon="6.79325">
        <ele>2463</ele>
        <time>2021-08-04T15:37:26Z</time>
      </trkpt>
      <trkpt lat="44.33995" lon="6.79334">
        <ele>2465</ele>
        <time>2021-08-04T15:37:27Z</time>
      </trkpt>
      <trkpt lat="44.34" lon="6.79342">
        <ele>2467</ele>
        <time>2021-08-04T15:37:28Z</time>
      </trkpt>
      <trkpt lat="44.34007" lon="6.79349">
        <ele>2468</ele>
        <time>2021-08-04T15:37:30Z</time>
      </trkpt>
      <trkpt lat="44.34019" lon="6.79353">
        <ele>2470</ele>
        <time>2021-08-04T15:37:32Z</time>
      </trkpt>
      <trkpt lat="44.34061" lon="6.79354">
        <ele>2474</ele>
        <time>2021-08-04T15:37:39Z</time>
      </trkpt>
      <trkpt lat="44.34074" lon="6.7936">
        <ele>2476</ele>
        <time>2021-08-04T15:37:42Z</time>
      </trkpt>
      <trkpt lat="44.34085" lon="6.79371">
        <ele>2478</ele>
        <time>2021-08-04T15:37:44Z</time>
      </trkpt>
      <trkpt lat="44.34093" lon="6.79389">
        <ele>2480</ele>
        <time>2021-08-04T15:37:47Z</time>
      </trkpt>
      <trkpt lat="44.341" lon="6.79426">
        <ele>2484</ele>
        <time>2021-08-04T15:37:52Z</time>
      </trkpt>
      <trkpt lat="44.34104" lon="6.79436">
        <ele>2485</ele>
        <time>2021-08-04T15:37:53Z</time>
      </trkpt>
      <trkpt lat="44.34129" lon="6.79476">
        <ele>2492</ele>
        <time>2021-08-04T15:38:00Z</time>
      </trkpt>
      <trkpt lat="44.34139" lon="6.79483">
        <ele>2494</ele>
        <time>2021-08-04T15:38:02Z</time>
      </trkpt>
      <trkpt lat="44.34148" lon="6.79483">
        <ele>2495</ele>
        <time>2021-08-04T15:38:03Z</time>
      </trkpt>
      <trkpt lat="44.34177" lon="6.79475">
        <ele>2498</ele>
        <time>2021-08-04T15:38:09Z</time>
      </trkpt>
      <trkpt lat="44.34195" lon="6.79456">
        <ele>2498</ele>
        <time>2021-08-04T15:38:13Z</time>
      </trkpt>
      <trkpt lat="44.342" lon="6.79452">
        <ele>2498</ele>
        <time>2021-08-04T15:38:14Z</time>
      </trkpt>
      <trkpt lat="44.34206" lon="6.79449">
        <ele>2498</ele>
        <time>2021-08-04T15:38:15Z</time>
      </trkpt>
      <trkpt lat="44.34266" lon="6.79432">
        <ele>2503</ele>
        <time>2021-08-04T15:38:26Z</time>
      </trkpt>
      <trkpt lat="44.34309" lon="6.79421">
        <ele>2504</ele>
        <time>2021-08-04T15:38:34Z</time>
      </trkpt>
      <trkpt lat="44.34323" lon="6.79419">
        <ele>2505</ele>
        <time>2021-08-04T15:38:36Z</time>
      </trkpt>
      <trkpt lat="44.34363" lon="6.79438">
        <ele>2512</ele>
        <time>2021-08-04T15:38:44Z</time>
      </trkpt>
      <trkpt lat="44.34386" lon="6.79437">
        <ele>2513</ele>
        <time>2021-08-04T15:38:48Z</time>
      </trkpt>
      <trkpt lat="44.34392" lon="6.79445">
        <ele>2515</ele>
        <time>2021-08-04T15:38:49Z</time>
      </trkpt>
      <trkpt lat="44.34393" lon="6.79455">
        <ele>2518</ele>
        <time>2021-08-04T15:38:50Z</time>
      </trkpt>
      <trkpt lat="44.3439" lon="6.79461">
        <ele>2519</ele>
        <time>2021-08-04T15:38:51Z</time>
      </trkpt>
      <trkpt lat="44.34386" lon="6.79466">
        <ele>2520</ele>
        <time>2021-08-04T15:38:52Z</time>
      </trkpt>
      <trkpt lat="44.34378" lon="6.79468">
        <ele>2521</ele>
        <time>2021-08-04T15:38:54Z</time>
      </trkpt>
      <trkpt lat="44.3434" lon="6.79464">
        <ele>2518</ele>
        <time>2021-08-04T15:39:01Z</time>
      </trkpt>
      <trkpt lat="44.34331" lon="6.79466">
        <ele>2518</ele>
        <time>2021-08-04T15:39:02Z</time>
      </trkpt>
      <trkpt lat="44.34321" lon="6.79475">
        <ele>2519</ele>
        <time>2021-08-04T15:39:04Z</time>
      </trkpt>
      <trkpt lat="44.34287" lon="6.7952">
        <ele>2525</ele>
        <time>2021-08-04T15:39:13Z</time>
      </trkpt>
      <trkpt lat="44.34274" lon="6.79531">
        <ele>2525</ele>
        <time>2021-08-04T15:39:15Z</time>
      </trkpt>
      <trkpt lat="44.34256" lon="6.79538">
        <ele>2523</ele>
        <time>2021-08-04T15:39:19Z</time>
      </trkpt>
      <trkpt lat="44.34249" lon="6.79543">
        <ele>2523</ele>
        <time>2021-08-04T15:39:20Z</time>
      </trkpt>
      <trkpt lat="44.34246" lon="6.7955">
        <ele>2523</ele>
        <time>2021-08-04T15:39:21Z</time>
      </trkpt>
      <trkpt lat="44.34246" lon="6.79557">
        <ele>2525</ele>
        <time>2021-08-04T15:39:22Z</time>
      </trkpt>
      <trkpt lat="44.34247" lon="6.79562">
        <ele>2526</ele>
        <time>2021-08-04T15:39:23Z</time>
      </trkpt>
      <trkpt lat="44.34251" lon="6.79565">
        <ele>2527</ele>
        <time>2021-08-04T15:39:23Z</time>
      </trkpt>
      <trkpt lat="44.34263" lon="6.79565">
        <ele>2529</ele>
        <time>2021-08-04T15:39:26Z</time>
      </trkpt>
      <trkpt lat="44.34274" lon="6.7957">
        <ele>2532</ele>
        <time>2021-08-04T15:39:28Z</time>
      </trkpt>
      <trkpt lat="44.34295" lon="6.79595">
        <ele>2539</ele>
        <time>2021-08-04T15:39:33Z</time>
      </trkpt>
      <trkpt lat="44.34303" lon="6.79609">
        <ele>2541</ele>
        <time>2021-08-04T15:39:35Z</time>
      </trkpt>
      <trkpt lat="44.34317" lon="6.79649">
        <ele>2544</ele>
        <time>2021-08-04T15:39:40Z</time>
      </trkpt>
      <trkpt lat="44.34335" lon="6.7969">
        <ele>2546</ele>
        <time>2021-08-04T15:39:47Z</time>
      </trkpt>
      <trkpt lat="44.34341" lon="6.79714">
        <ele>2548</ele>
        <time>2021-08-04T15:39:50Z</time>
      </trkpt>
      <trkpt lat="44.3437" lon="6.79783">
        <ele>2554</ele>
        <time>2021-08-04T15:40:00Z</time>
      </trkpt>
      <trkpt lat="44.34374" lon="6.79796">
        <ele>2555</ele>
        <time>2021-08-04T15:40:02Z</time>
      </trkpt>
      <trkpt lat="44.34375" lon="6.79813">
        <ele>2555</ele>
        <time>2021-08-04T15:40:04Z</time>
      </trkpt>
      <trkpt lat="44.34376" lon="6.7982">
        <ele>2555</ele>
        <time>2021-08-04T15:40:05Z</time>
      </trkpt>
      <trkpt lat="44.34381" lon="6.79823">
        <ele>2557</ele>
        <time>2021-08-04T15:40:06Z</time>
      </trkpt>
      <trkpt lat="44.34387" lon="6.79821">
        <ele>2558</ele>
        <time>2021-08-04T15:40:07Z</time>
      </trkpt>
      <trkpt lat="44.34406" lon="6.7976">
        <ele>2562</ele>
        <time>2021-08-04T15:40:15Z</time>
      </trkpt>
      <trkpt lat="44.34404" lon="6.79748">
        <ele>2561</ele>
        <time>2021-08-04T15:40:17Z</time>
      </trkpt>
      <trkpt lat="44.34387" lon="6.79714">
        <ele>2557</ele>
        <time>2021-08-04T15:40:22Z</time>
      </trkpt>
      <trkpt lat="44.34384" lon="6.79702">
        <ele>2556</ele>
        <time>2021-08-04T15:40:24Z</time>
      </trkpt>
      <trkpt lat="44.34387" lon="6.79686">
        <ele>2557</ele>
        <time>2021-08-04T15:40:26Z</time>
      </trkpt>
      <trkpt lat="44.3439" lon="6.79682">
        <ele>2557</ele>
        <time>2021-08-04T15:40:27Z</time>
      </trkpt>
      <trkpt lat="44.34393" lon="6.79681">
        <ele>2558</ele>
        <time>2021-08-04T15:40:27Z</time>
      </trkpt>
      <trkpt lat="44.34398" lon="6.79684">
        <ele>2559</ele>
        <time>2021-08-04T15:40:28Z</time>
      </trkpt>
      <trkpt lat="44.34401" lon="6.79688">
        <ele>2559</ele>
        <time>2021-08-04T15:40:29Z</time>
      </trkpt>
      <trkpt lat="44.34408" lon="6.79718">
        <ele>2561</ele>
        <time>2021-08-04T15:40:33Z</time>
      </trkpt>
      <trkpt lat="44.34413" lon="6.79727">
        <ele>2563</ele>
        <time>2021-08-04T15:40:34Z</time>
      </trkpt>
      <trkpt lat="44.34433" lon="6.79746">
        <ele>2565</ele>
        <time>2021-08-04T15:40:39Z</time>
      </trkpt>
      <trkpt lat="44.34454" lon="6.79753">
        <ele>2567</ele>
        <time>2021-08-04T15:40:43Z</time>
      </trkpt>
      <trkpt lat="44.34464" lon="6.79759">
        <ele>2568</ele>
        <time>2021-08-04T15:40:45Z</time>
      </trkpt>
      <trkpt lat="44.34473" lon="6.7978">
        <ele>2571</ele>
        <time>2021-08-04T15:40:48Z</time>
      </trkpt>
      <trkpt lat="44.34482" lon="6.79783">
        <ele>2572</ele>
        <time>2021-08-04T15:40:49Z</time>
      </trkpt>
      <trkpt lat="44.34507" lon="6.79763">
        <ele>2572</ele>
        <time>2021-08-04T15:40:54Z</time>
      </trkpt>
      <trkpt lat="44.34516" lon="6.79763">
        <ele>2572</ele>
        <time>2021-08-04T15:40:56Z</time>
      </trkpt>
      <trkpt lat="44.34523" lon="6.79768">
        <ele>2573</ele>
        <time>2021-08-04T15:40:57Z</time>
      </trkpt>
      <trkpt lat="44.34527" lon="6.79778">
        <ele>2574</ele>
        <time>2021-08-04T15:40:59Z</time>
      </trkpt>
      <trkpt lat="44.34526" lon="6.79791">
        <ele>2576</ele>
        <time>2021-08-04T15:41:01Z</time>
      </trkpt>
      <trkpt lat="44.34521" lon="6.79799">
        <ele>2577</ele>
        <time>2021-08-04T15:41:02Z</time>
      </trkpt>
      <trkpt lat="44.34513" lon="6.79804">
        <ele>2577</ele>
        <time>2021-08-04T15:41:03Z</time>
      </trkpt>
      <trkpt lat="44.34462" lon="6.79828">
        <ele>2573</ele>
        <time>2021-08-04T15:41:13Z</time>
      </trkpt>
      <trkpt lat="44.34427" lon="6.79872">
        <ele>2576</ele>
        <time>2021-08-04T15:41:21Z</time>
      </trkpt>
      <trkpt lat="44.34424" lon="6.79882">
        <ele>2577</ele>
        <time>2021-08-04T15:41:23Z</time>
      </trkpt>
      <trkpt lat="44.34424" lon="6.79893">
        <ele>2579</ele>
        <time>2021-08-04T15:41:24Z</time>
      </trkpt>
      <trkpt lat="44.34433" lon="6.79921">
        <ele>2585</ele>
        <time>2021-08-04T15:41:28Z</time>
      </trkpt>
      <trkpt lat="44.34434" lon="6.79933">
        <ele>2587</ele>
        <time>2021-08-04T15:41:30Z</time>
      </trkpt>
      <trkpt lat="44.34429" lon="6.79964">
        <ele>2589</ele>
        <time>2021-08-04T15:41:34Z</time>
      </trkpt>
      <trkpt lat="44.34428" lon="6.79986">
        <ele>2591</ele>
        <time>2021-08-04T15:41:36Z</time>
      </trkpt>
      <trkpt lat="44.34422" lon="6.80004">
        <ele>2592</ele>
        <time>2021-08-04T15:41:39Z</time>
      </trkpt>
      <trkpt lat="44.34408" lon="6.80022">
        <ele>2592</ele>
        <time>2021-08-04T15:41:42Z</time>
      </trkpt>
      <trkpt lat="44.34396" lon="6.80041">
        <ele>2593</ele>
        <time>2021-08-04T15:41:46Z</time>
      </trkpt>
      <trkpt lat="44.34388" lon="6.80062">
        <ele>2595</ele>
        <time>2021-08-04T15:41:49Z</time>
      </trkpt>
      <trkpt lat="44.34379" lon="6.80096">
        <ele>2600</ele>
        <time>2021-08-04T15:41:53Z</time>
      </trkpt>
      <trkpt lat="44.34372" lon="6.80118">
        <ele>2603</ele>
        <time>2021-08-04T15:41:56Z</time>
      </trkpt>
      <trkpt lat="44.34364" lon="6.80128">
        <ele>2604</ele>
        <time>2021-08-04T15:41:58Z</time>
      </trkpt>
      <trkpt lat="44.34329" lon="6.80152">
        <ele>2601</ele>
        <time>2021-08-04T15:42:05Z</time>
      </trkpt>
      <trkpt lat="44.3432" lon="6.8016">
        <ele>2601</ele>
        <time>2021-08-04T15:42:07Z</time>
      </trkpt>
      <trkpt lat="44.3431" lon="6.80174">
        <ele>2603</ele>
        <time>2021-08-04T15:42:10Z</time>
      </trkpt>
      <trkpt lat="44.34285" lon="6.8019">
        <ele>2604</ele>
        <time>2021-08-04T15:42:14Z</time>
      </trkpt>
      <trkpt lat="44.34248" lon="6.80205">
        <ele>2604</ele>
        <time>2021-08-04T15:42:21Z</time>
      </trkpt>
      <trkpt lat="44.34222" lon="6.80197">
        <ele>2603</ele>
        <time>2021-08-04T15:42:26Z</time>
      </trkpt>
      <trkpt lat="44.34207" lon="6.80195">
        <ele>2604</ele>
        <time>2021-08-04T15:42:29Z</time>
      </trkpt>
      <trkpt lat="44.34174" lon="6.80206">
        <ele>2609</ele>
        <time>2021-08-04T15:42:35Z</time>
      </trkpt>
      <trkpt lat="44.34168" lon="6.80206">
        <ele>2609</ele>
        <time>2021-08-04T15:42:36Z</time>
      </trkpt>
      <trkpt lat="44.34125" lon="6.80193">
        <ele>2611</ele>
        <time>2021-08-04T15:42:44Z</time>
      </trkpt>
      <trkpt lat="44.341" lon="6.80179">
        <ele>2610</ele>
        <time>2021-08-04T15:42:48Z</time>
      </trkpt>
      <trkpt lat="44.34059" lon="6.8017">
        <ele>2613</ele>
        <time>2021-08-04T15:42:56Z</time>
      </trkpt>
      <trkpt lat="44.34013" lon="6.80143">
        <ele>2613</ele>
        <time>2021-08-04T15:43:05Z</time>
      </trkpt>
      <trkpt lat="44.33994" lon="6.80137">
        <ele>2612</ele>
        <time>2021-08-04T15:43:08Z</time>
      </trkpt>
      <trkpt lat="44.33987" lon="6.80139">
        <ele>2612</ele>
        <time>2021-08-04T15:43:09Z</time>
      </trkpt>
      <trkpt lat="44.3398" lon="6.80146">
        <ele>2614</ele>
        <time>2021-08-04T15:43:11Z</time>
      </trkpt>
      <trkpt lat="44.33958" lon="6.80193">
        <ele>2624</ele>
        <time>2021-08-04T15:43:18Z</time>
      </trkpt>
      <trkpt lat="44.33943" lon="6.80209">
        <ele>2627</ele>
        <time>2021-08-04T15:43:22Z</time>
      </trkpt>
      <trkpt lat="44.33919" lon="6.80227">
        <ele>2630</ele>
        <time>2021-08-04T15:43:26Z</time>
      </trkpt>
      <trkpt lat="44.3389" lon="6.80243">
        <ele>2639</ele>
        <time>2021-08-04T15:43:32Z</time>
      </trkpt>
      <trkpt lat="44.33876" lon="6.80247">
        <ele>2642</ele>
        <time>2021-08-04T15:43:34Z</time>
      </trkpt>
      <trkpt lat="44.33866" lon="6.80247">
        <ele>2644</ele>
        <time>2021-08-04T15:43:36Z</time>
      </trkpt>
      <trkpt lat="44.33831" lon="6.80229">
        <ele>2645</ele>
        <time>2021-08-04T15:43:43Z</time>
      </trkpt>
      <trkpt lat="44.3381" lon="6.80211">
        <ele>2645</ele>
        <time>2021-08-04T15:43:47Z</time>
      </trkpt>
      <trkpt lat="44.33791" lon="6.80199">
        <ele>2647</ele>
        <time>2021-08-04T15:43:51Z</time>
      </trkpt>
      <trkpt lat="44.33765" lon="6.80189">
        <ele>2651</ele>
        <time>2021-08-04T15:43:56Z</time>
      </trkpt>
      <trkpt lat="44.3376" lon="6.80185">
        <ele>2651</ele>
        <time>2021-08-04T15:43:57Z</time>
      </trkpt>
      <trkpt lat="44.33751" lon="6.80177">
        <ele>2651</ele>
        <time>2021-08-04T15:43:59Z</time>
      </trkpt>
      <trkpt lat="44.33723" lon="6.80144">
        <ele>2646</ele>
        <time>2021-08-04T15:44:05Z</time>
      </trkpt>
      <trkpt lat="44.33709" lon="6.80132">
        <ele>2644</ele>
        <time>2021-08-04T15:44:08Z</time>
      </trkpt>
      <trkpt lat="44.33696" lon="6.80127">
        <ele>2644</ele>
        <time>2021-08-04T15:44:11Z</time>
      </trkpt>
      <trkpt lat="44.33689" lon="6.80127">
        <ele>2645</ele>
        <time>2021-08-04T15:44:12Z</time>
      </trkpt>
      <trkpt lat="44.33681" lon="6.80128">
        <ele>2646</ele>
        <time>2021-08-04T15:44:13Z</time>
      </trkpt>
      <trkpt lat="44.33674" lon="6.80138">
        <ele>2648</ele>
        <time>2021-08-04T15:44:15Z</time>
      </trkpt>
      <trkpt lat="44.33671" lon="6.80151">
        <ele>2650</ele>
        <time>2021-08-04T15:44:17Z</time>
      </trkpt>
      <trkpt lat="44.33669" lon="6.80174">
        <ele>2654</ele>
        <time>2021-08-04T15:44:20Z</time>
      </trkpt>
      <trkpt lat="44.33672" lon="6.80281">
        <ele>2664</ele>
        <time>2021-08-04T15:44:33Z</time>
      </trkpt>
      <trkpt lat="44.33666" lon="6.80395">
        <ele>2668</ele>
        <time>2021-08-04T15:44:48Z</time>
      </trkpt>
      <trkpt lat="44.33663" lon="6.80416">
        <ele>2668</ele>
        <time>2021-08-04T15:44:51Z</time>
      </trkpt>
      <trkpt lat="44.33653" lon="6.80455">
        <ele>2666</ele>
        <time>2021-08-04T15:44:56Z</time>
      </trkpt>
      <trkpt lat="44.33653" lon="6.80472">
        <ele>2667</ele>
        <time>2021-08-04T15:44:58Z</time>
      </trkpt>
      <trkpt lat="44.33658" lon="6.80521">
        <ele>2672</ele>
        <time>2021-08-04T15:45:04Z</time>
      </trkpt>
      <trkpt lat="44.33643" lon="6.80645">
        <ele>2672</ele>
        <time>2021-08-04T15:45:20Z</time>
      </trkpt>
      <trkpt lat="44.33638" lon="6.80715">
        <ele>2674</ele>
        <time>2021-08-04T15:45:29Z</time>
      </trkpt>
      <trkpt lat="44.33628" lon="6.80777">
        <ele>2674</ele>
        <time>2021-08-04T15:45:37Z</time>
      </trkpt>
      <trkpt lat="44.33615" lon="6.80802">
        <ele>2671</ele>
        <time>2021-08-04T15:45:41Z</time>
      </trkpt>
      <trkpt lat="44.33608" lon="6.80817">
        <ele>2670</ele>
        <time>2021-08-04T15:45:44Z</time>
      </trkpt>
      <trkpt lat="44.33597" lon="6.80846">
        <ele>2669</ele>
        <time>2021-08-04T15:45:48Z</time>
      </trkpt>
      <trkpt lat="44.33564" lon="6.80899">
        <ele>2668</ele>
        <time>2021-08-04T15:45:57Z</time>
      </trkpt>
      <trkpt lat="44.33533" lon="6.80954">
        <ele>2670</ele>
        <time>2021-08-04T15:46:06Z</time>
      </trkpt>
      <trkpt lat="44.33475" lon="6.81006">
        <ele>2673</ele>
        <time>2021-08-04T15:46:18Z</time>
      </trkpt>
      <trkpt lat="44.33458" lon="6.81014">
        <ele>2673</ele>
        <time>2021-08-04T15:46:21Z</time>
      </trkpt>
      <trkpt lat="44.33434" lon="6.81022">
        <ele>2673</ele>
        <time>2021-08-04T15:46:25Z</time>
      </trkpt>
      <trkpt lat="44.33398" lon="6.81047">
        <ele>2680</ele>
        <time>2021-08-04T15:46:33Z</time>
      </trkpt>
      <trkpt lat="44.33373" lon="6.81056">
        <ele>2684</ele>
        <time>2021-08-04T15:46:37Z</time>
      </trkpt>
      <trkpt lat="44.33347" lon="6.81061">
        <ele>2687</ele>
        <time>2021-08-04T15:46:42Z</time>
      </trkpt>
      <trkpt lat="44.33286" lon="6.81062">
        <ele>2688</ele>
        <time>2021-08-04T15:46:53Z</time>
      </trkpt>
      <trkpt lat="44.33269" lon="6.81065">
        <ele>2689</ele>
        <time>2021-08-04T15:46:56Z</time>
      </trkpt>
      <trkpt lat="44.33244" lon="6.81079">
        <ele>2693</ele>
        <time>2021-08-04T15:47:01Z</time>
      </trkpt>
      <trkpt lat="44.33232" lon="6.81079">
        <ele>2694</ele>
        <time>2021-08-04T15:47:03Z</time>
      </trkpt>
      <trkpt lat="44.33215" lon="6.81075">
        <ele>2695</ele>
        <time>2021-08-04T15:47:06Z</time>
      </trkpt>
      <trkpt lat="44.33187" lon="6.81061">
        <ele>2695</ele>
        <time>2021-08-04T15:47:11Z</time>
      </trkpt>
      <trkpt lat="44.33179" lon="6.81054">
        <ele>2694</ele>
        <time>2021-08-04T15:47:13Z</time>
      </trkpt>
      <trkpt lat="44.33111" lon="6.80967">
        <ele>2691</ele>
        <time>2021-08-04T15:47:29Z</time>
      </trkpt>
      <trkpt lat="44.33063" lon="6.80919">
        <ele>2697</ele>
        <time>2021-08-04T15:47:40Z</time>
      </trkpt>
      <trkpt lat="44.33039" lon="6.80885">
        <ele>2697</ele>
        <time>2021-08-04T15:47:46Z</time>
      </trkpt>
      <trkpt lat="44.33018" lon="6.80858">
        <ele>2698</ele>
        <time>2021-08-04T15:47:51Z</time>
      </trkpt>
      <trkpt lat="44.32979" lon="6.80823">
        <ele>2700</ele>
        <time>2021-08-04T15:47:59Z</time>
      </trkpt>
      <trkpt lat="44.32963" lon="6.80811">
        <ele>2698</ele>
        <time>2021-08-04T15:48:02Z</time>
      </trkpt>
      <trkpt lat="44.32903" lon="6.80785">
        <ele>2695</ele>
        <time>2021-08-04T15:48:13Z</time>
      </trkpt>
      <trkpt lat="44.3288" lon="6.80779">
        <ele>2694</ele>
        <time>2021-08-04T15:48:18Z</time>
      </trkpt>
      <trkpt lat="44.32859" lon="6.80776">
        <ele>2694</ele>
        <time>2021-08-04T15:48:21Z</time>
      </trkpt>
      <trkpt lat="44.32834" lon="6.80783">
        <ele>2697</ele>
        <time>2021-08-04T15:48:26Z</time>
      </trkpt>
      <trkpt lat="44.32812" lon="6.80785">
        <ele>2696</ele>
        <time>2021-08-04T15:48:30Z</time>
      </trkpt>
      <trkpt lat="44.3279" lon="6.80793">
        <ele>2696</ele>
        <time>2021-08-04T15:48:34Z</time>
      </trkpt>
      <trkpt lat="44.32774" lon="6.80796">
        <ele>2695</ele>
        <time>2021-08-04T15:48:37Z</time>
      </trkpt>
      <trkpt lat="44.3276" lon="6.80794">
        <ele>2694</ele>
        <time>2021-08-04T15:48:39Z</time>
      </trkpt>
      <trkpt lat="44.32737" lon="6.80784">
        <ele>2691</ele>
        <time>2021-08-04T15:48:43Z</time>
      </trkpt>
      <trkpt lat="44.3271" lon="6.80767">
        <ele>2692</ele>
        <time>2021-08-04T15:48:49Z</time>
      </trkpt>
      <trkpt lat="44.32673" lon="6.80738">
        <ele>2696</ele>
        <time>2021-08-04T15:48:56Z</time>
      </trkpt>
      <trkpt lat="44.32665" lon="6.80744">
        <ele>2699</ele>
        <time>2021-08-04T15:48:58Z</time>
      </trkpt>
      <trkpt lat="44.32663" lon="6.80748">
        <ele>2699</ele>
        <time>2021-08-04T15:48:59Z</time>
      </trkpt>
      <trkpt lat="44.32662" lon="6.80754">
        <ele>2699</ele>
        <time>2021-08-04T15:48:59Z</time>
      </trkpt>
      <trkpt lat="44.32661" lon="6.80758">
        <ele>2697</ele>
        <time>2021-08-04T15:49:00Z</time>
      </trkpt>
      <trkpt lat="44.32682" lon="6.80778">
        <ele>2692</ele>
        <time>2021-08-04T15:49:04Z</time>
      </trkpt>
      <trkpt lat="44.32702" lon="6.80793">
        <ele>2691</ele>
        <time>2021-08-04T15:49:08Z</time>
      </trkpt>
      <trkpt lat="44.32712" lon="6.80803">
        <ele>2691</ele>
        <time>2021-08-04T15:49:11Z</time>
      </trkpt>
      <trkpt lat="44.32774" lon="6.80873">
        <ele>2694</ele>
        <time>2021-08-04T15:49:25Z</time>
      </trkpt>
      <trkpt lat="44.32787" lon="6.80891">
        <ele>2693</ele>
        <time>2021-08-04T15:49:28Z</time>
      </trkpt>
      <trkpt lat="44.32798" lon="6.809">
        <ele>2694</ele>
        <time>2021-08-04T15:49:30Z</time>
      </trkpt>
      <trkpt lat="44.32808" lon="6.80906">
        <ele>2695</ele>
        <time>2021-08-04T15:49:32Z</time>
      </trkpt>
      <trkpt lat="44.32826" lon="6.80916">
        <ele>2698</ele>
        <time>2021-08-04T15:49:36Z</time>
      </trkpt>
      <trkpt lat="44.32838" lon="6.80925">
        <ele>2699</ele>
        <time>2021-08-04T15:49:38Z</time>
      </trkpt>
      <trkpt lat="44.32847" lon="6.80938">
        <ele>2697</ele>
        <time>2021-08-04T15:49:40Z</time>
      </trkpt>
      <trkpt lat="44.32861" lon="6.80968">
        <ele>2692</ele>
        <time>2021-08-04T15:49:45Z</time>
      </trkpt>
      <trkpt lat="44.32894" lon="6.81002">
        <ele>2690</ele>
        <time>2021-08-04T15:49:52Z</time>
      </trkpt>
      <trkpt lat="44.32917" lon="6.81033">
        <ele>2685</ele>
        <time>2021-08-04T15:49:58Z</time>
      </trkpt>
      <trkpt lat="44.3293" lon="6.81046">
        <ele>2682</ele>
        <time>2021-08-04T15:50:01Z</time>
      </trkpt>
      <trkpt lat="44.32944" lon="6.8105">
        <ele>2681</ele>
        <time>2021-08-04T15:50:03Z</time>
      </trkpt>
      <trkpt lat="44.32966" lon="6.81051">
        <ele>2682</ele>
        <time>2021-08-04T15:50:07Z</time>
      </trkpt>
      <trkpt lat="44.32986" lon="6.81058">
        <ele>2681</ele>
        <time>2021-08-04T15:50:11Z</time>
      </trkpt>
      <trkpt lat="44.33028" lon="6.81078">
        <ele>2680</ele>
        <time>2021-08-04T15:50:19Z</time>
      </trkpt>
      <trkpt lat="44.33045" lon="6.81089">
        <ele>2681</ele>
        <time>2021-08-04T15:50:22Z</time>
      </trkpt>
      <trkpt lat="44.33059" lon="6.81109">
        <ele>2680</ele>
        <time>2021-08-04T15:50:26Z</time>
      </trkpt>
      <trkpt lat="44.33075" lon="6.81143">
        <ele>2678</ele>
        <time>2021-08-04T15:50:31Z</time>
      </trkpt>
      <trkpt lat="44.33085" lon="6.81182">
        <ele>2675</ele>
        <time>2021-08-04T15:50:36Z</time>
      </trkpt>
      <trkpt lat="44.33089" lon="6.81209">
        <ele>2675</ele>
        <time>2021-08-04T15:50:40Z</time>
      </trkpt>
      <trkpt lat="44.3309" lon="6.81228">
        <ele>2674</ele>
        <time>2021-08-04T15:50:42Z</time>
      </trkpt>
      <trkpt lat="44.33089" lon="6.81285">
        <ele>2670</ele>
        <time>2021-08-04T15:50:49Z</time>
      </trkpt>
      <trkpt lat="44.33084" lon="6.81313">
        <ele>2667</ele>
        <time>2021-08-04T15:50:53Z</time>
      </trkpt>
      <trkpt lat="44.33066" lon="6.81356">
        <ele>2662</ele>
        <time>2021-08-04T15:50:59Z</time>
      </trkpt>
      <trkpt lat="44.33055" lon="6.81407">
        <ele>2660</ele>
        <time>2021-08-04T15:51:06Z</time>
      </trkpt>
      <trkpt lat="44.33047" lon="6.81478">
        <ele>2660</ele>
        <time>2021-08-04T15:51:15Z</time>
      </trkpt>
      <trkpt lat="44.33044" lon="6.81583">
        <ele>2654</ele>
        <time>2021-08-04T15:51:29Z</time>
      </trkpt>
      <trkpt lat="44.33049" lon="6.81667">
        <ele>2643</ele>
        <time>2021-08-04T15:51:39Z</time>
      </trkpt>
      <trkpt lat="44.33052" lon="6.81677">
        <ele>2642</ele>
        <time>2021-08-04T15:51:41Z</time>
      </trkpt>
      <trkpt lat="44.33076" lon="6.81708">
        <ele>2647</ele>
        <time>2021-08-04T15:51:47Z</time>
      </trkpt>
      <trkpt lat="44.33083" lon="6.81722">
        <ele>2648</ele>
        <time>2021-08-04T15:51:49Z</time>
      </trkpt>
      <trkpt lat="44.33084" lon="6.8174">
        <ele>2645</ele>
        <time>2021-08-04T15:51:51Z</time>
      </trkpt>
      <trkpt lat="44.33076" lon="6.81788">
        <ele>2636</ele>
        <time>2021-08-04T15:51:57Z</time>
      </trkpt>
      <trkpt lat="44.33074" lon="6.81829">
        <ele>2633</ele>
        <time>2021-08-04T15:52:03Z</time>
      </trkpt>
      <trkpt lat="44.33073" lon="6.81841">
        <ele>2632</ele>
        <time>2021-08-04T15:52:04Z</time>
      </trkpt>
      <trkpt lat="44.33065" lon="6.81863">
        <ele>2625</ele>
        <time>2021-08-04T15:52:07Z</time>
      </trkpt>
      <trkpt lat="44.33067" lon="6.81877">
        <ele>2626</ele>
        <time>2021-08-04T15:52:09Z</time>
      </trkpt>
      <trkpt lat="44.33073" lon="6.81892">
        <ele>2629</ele>
        <time>2021-08-04T15:52:11Z</time>
      </trkpt>
      <trkpt lat="44.33077" lon="6.81907">
        <ele>2631</ele>
        <time>2021-08-04T15:52:13Z</time>
      </trkpt>
      <trkpt lat="44.33068" lon="6.81955">
        <ele>2621</ele>
        <time>2021-08-04T15:52:20Z</time>
      </trkpt>
      <trkpt lat="44.33069" lon="6.81995">
        <ele>2619</ele>
        <time>2021-08-04T15:52:25Z</time>
      </trkpt>
      <trkpt lat="44.33063" lon="6.82018">
        <ele>2613</ele>
        <time>2021-08-04T15:52:28Z</time>
      </trkpt>
      <trkpt lat="44.33059" lon="6.8206">
        <ele>2608</ele>
        <time>2021-08-04T15:52:33Z</time>
      </trkpt>
      <trkpt lat="44.33051" lon="6.8209">
        <ele>2602</ele>
        <time>2021-08-04T15:52:37Z</time>
      </trkpt>
      <trkpt lat="44.3305" lon="6.82098">
        <ele>2600</ele>
        <time>2021-08-04T15:52:38Z</time>
      </trkpt>
      <trkpt lat="44.33052" lon="6.82112">
        <ele>2600</ele>
        <time>2021-08-04T15:52:40Z</time>
      </trkpt>
      <trkpt lat="44.33062" lon="6.8213">
        <ele>2603</ele>
        <time>2021-08-04T15:52:43Z</time>
      </trkpt>
      <trkpt lat="44.3308" lon="6.82154">
        <ele>2609</ele>
        <time>2021-08-04T15:52:47Z</time>
      </trkpt>
      <trkpt lat="44.33092" lon="6.82166">
        <ele>2613</ele>
        <time>2021-08-04T15:52:50Z</time>
      </trkpt>
      <trkpt lat="44.33099" lon="6.8218">
        <ele>2614</ele>
        <time>2021-08-04T15:52:52Z</time>
      </trkpt>
      <trkpt lat="44.33101" lon="6.82195">
        <ele>2612</ele>
        <time>2021-08-04T15:52:54Z</time>
      </trkpt>
      <trkpt lat="44.331" lon="6.8221">
        <ele>2609</ele>
        <time>2021-08-04T15:52:56Z</time>
      </trkpt>
      <trkpt lat="44.33095" lon="6.82257">
        <ele>2599</ele>
        <time>2021-08-04T15:53:02Z</time>
      </trkpt>
      <trkpt lat="44.33095" lon="6.82278">
        <ele>2597</ele>
        <time>2021-08-04T15:53:05Z</time>
      </trkpt>
      <trkpt lat="44.33105" lon="6.82335">
        <ele>2598</ele>
        <time>2021-08-04T15:53:12Z</time>
      </trkpt>
      <trkpt lat="44.33106" lon="6.82347">
        <ele>2598</ele>
        <time>2021-08-04T15:53:14Z</time>
      </trkpt>
      <trkpt lat="44.331" lon="6.82407">
        <ele>2593</ele>
        <time>2021-08-04T15:53:22Z</time>
      </trkpt>
      <trkpt lat="44.33101" lon="6.82432">
        <ele>2591</ele>
        <time>2021-08-04T15:53:25Z</time>
      </trkpt>
      <trkpt lat="44.33108" lon="6.82458">
        <ele>2590</ele>
        <time>2021-08-04T15:53:28Z</time>
      </trkpt>
      <trkpt lat="44.33126" lon="6.82518">
        <ele>2585</ele>
        <time>2021-08-04T15:53:37Z</time>
      </trkpt>
      <trkpt lat="44.33132" lon="6.82529">
        <ele>2584</ele>
        <time>2021-08-04T15:53:38Z</time>
      </trkpt>
      <trkpt lat="44.33153" lon="6.82559">
        <ele>2583</ele>
        <time>2021-08-04T15:53:44Z</time>
      </trkpt>
      <trkpt lat="44.33158" lon="6.82571">
        <ele>2581</ele>
        <time>2021-08-04T15:53:45Z</time>
      </trkpt>
      <trkpt lat="44.33167" lon="6.82605">
        <ele>2577</ele>
        <time>2021-08-04T15:53:50Z</time>
      </trkpt>
      <trkpt lat="44.33172" lon="6.82613">
        <ele>2575</ele>
        <time>2021-08-04T15:53:51Z</time>
      </trkpt>
      <trkpt lat="44.33177" lon="6.82619">
        <ele>2574</ele>
        <time>2021-08-04T15:53:53Z</time>
      </trkpt>
      <trkpt lat="44.33182" lon="6.82622">
        <ele>2574</ele>
        <time>2021-08-04T15:53:54Z</time>
      </trkpt>
      <trkpt lat="44.33189" lon="6.82623">
        <ele>2574</ele>
        <time>2021-08-04T15:53:55Z</time>
      </trkpt>
      <trkpt lat="44.33195" lon="6.82623">
        <ele>2574</ele>
        <time>2021-08-04T15:53:56Z</time>
      </trkpt>
      <trkpt lat="44.33208" lon="6.82618">
        <ele>2575</ele>
        <time>2021-08-04T15:53:58Z</time>
      </trkpt>
      <trkpt lat="44.33226" lon="6.82611">
        <ele>2577</ele>
        <time>2021-08-04T15:54:02Z</time>
      </trkpt>
      <trkpt lat="44.33236" lon="6.82612">
        <ele>2577</ele>
        <time>2021-08-04T15:54:03Z</time>
      </trkpt>
      <trkpt lat="44.33254" lon="6.82632">
        <ele>2573</ele>
        <time>2021-08-04T15:54:07Z</time>
      </trkpt>
      <trkpt lat="44.33269" lon="6.82643">
        <ele>2569</ele>
        <time>2021-08-04T15:54:10Z</time>
      </trkpt>
      <trkpt lat="44.33285" lon="6.82645">
        <ele>2567</ele>
        <time>2021-08-04T15:54:13Z</time>
      </trkpt>
      <trkpt lat="44.33299" lon="6.82643">
        <ele>2566</ele>
        <time>2021-08-04T15:54:16Z</time>
      </trkpt>
      <trkpt lat="44.33312" lon="6.82637">
        <ele>2566</ele>
        <time>2021-08-04T15:54:18Z</time>
      </trkpt>
      <trkpt lat="44.33324" lon="6.82628">
        <ele>2568</ele>
        <time>2021-08-04T15:54:21Z</time>
      </trkpt>
      <trkpt lat="44.33335" lon="6.82619">
        <ele>2569</ele>
        <time>2021-08-04T15:54:23Z</time>
      </trkpt>
      <trkpt lat="44.33365" lon="6.82579">
        <ele>2576</ele>
        <time>2021-08-04T15:54:30Z</time>
      </trkpt>
      <trkpt lat="44.33372" lon="6.82578">
        <ele>2576</ele>
        <time>2021-08-04T15:54:32Z</time>
      </trkpt>
      <trkpt lat="44.33404" lon="6.82592">
        <ele>2568</ele>
        <time>2021-08-04T15:54:38Z</time>
      </trkpt>
      <trkpt lat="44.33414" lon="6.82594">
        <ele>2566</ele>
        <time>2021-08-04T15:54:39Z</time>
      </trkpt>
      <trkpt lat="44.33424" lon="6.82593">
        <ele>2567</ele>
        <time>2021-08-04T15:54:41Z</time>
      </trkpt>
      <trkpt lat="44.33437" lon="6.82587">
        <ele>2569</ele>
        <time>2021-08-04T15:54:44Z</time>
      </trkpt>
      <trkpt lat="44.33448" lon="6.82586">
        <ele>2569</ele>
        <time>2021-08-04T15:54:46Z</time>
      </trkpt>
      <trkpt lat="44.33457" lon="6.82593">
        <ele>2568</ele>
        <time>2021-08-04T15:54:47Z</time>
      </trkpt>
      <trkpt lat="44.33472" lon="6.82613">
        <ele>2564</ele>
        <time>2021-08-04T15:54:51Z</time>
      </trkpt>
      <trkpt lat="44.33497" lon="6.8264">
        <ele>2561</ele>
        <time>2021-08-04T15:54:57Z</time>
      </trkpt>
      <trkpt lat="44.33513" lon="6.82663">
        <ele>2558</ele>
        <time>2021-08-04T15:55:01Z</time>
      </trkpt>
      <trkpt lat="44.33532" lon="6.82686">
        <ele>2554</ele>
        <time>2021-08-04T15:55:05Z</time>
      </trkpt>
      <trkpt lat="44.3356" lon="6.82711">
        <ele>2554</ele>
        <time>2021-08-04T15:55:11Z</time>
      </trkpt>
      <trkpt lat="44.33587" lon="6.82731">
        <ele>2557</ele>
        <time>2021-08-04T15:55:17Z</time>
      </trkpt>
      <trkpt lat="44.33606" lon="6.82753">
        <ele>2558</ele>
        <time>2021-08-04T15:55:21Z</time>
      </trkpt>
      <trkpt lat="44.33625" lon="6.82769">
        <ele>2557</ele>
        <time>2021-08-04T15:55:25Z</time>
      </trkpt>
      <trkpt lat="44.33643" lon="6.82797">
        <ele>2555</ele>
        <time>2021-08-04T15:55:30Z</time>
      </trkpt>
      <trkpt lat="44.33649" lon="6.82811">
        <ele>2554</ele>
        <time>2021-08-04T15:55:32Z</time>
      </trkpt>
      <trkpt lat="44.33673" lon="6.82852">
        <ele>2551</ele>
        <time>2021-08-04T15:55:39Z</time>
      </trkpt>
      <trkpt lat="44.33704" lon="6.82916">
        <ele>2540</ele>
        <time>2021-08-04T15:55:48Z</time>
      </trkpt>
      <trkpt lat="44.33732" lon="6.82957">
        <ele>2540</ele>
        <time>2021-08-04T15:55:56Z</time>
      </trkpt>
      <trkpt lat="44.33775" lon="6.83007">
        <ele>2536</ele>
        <time>2021-08-04T15:56:06Z</time>
      </trkpt>
      <trkpt lat="44.33816" lon="6.83058">
        <ele>2520</ele>
        <time>2021-08-04T15:56:15Z</time>
      </trkpt>
      <trkpt lat="44.3386" lon="6.83094">
        <ele>2513</ele>
        <time>2021-08-04T15:56:24Z</time>
      </trkpt>
      <trkpt lat="44.33873" lon="6.83098">
        <ele>2512</ele>
        <time>2021-08-04T15:56:27Z</time>
      </trkpt>
      <trkpt lat="44.33916" lon="6.83106">
        <ele>2511</ele>
        <time>2021-08-04T15:56:34Z</time>
      </trkpt>
      <trkpt lat="44.33932" lon="6.83112">
        <ele>2506</ele>
        <time>2021-08-04T15:56:37Z</time>
      </trkpt>
      <trkpt lat="44.33991" lon="6.83147">
        <ele>2500</ele>
        <time>2021-08-04T15:56:49Z</time>
      </trkpt>
      <trkpt lat="44.3402" lon="6.83165">
        <ele>2498</ele>
        <time>2021-08-04T15:56:54Z</time>
      </trkpt>
      <trkpt lat="44.34039" lon="6.83182">
        <ele>2495</ele>
        <time>2021-08-04T15:56:58Z</time>
      </trkpt>
      <trkpt lat="44.34047" lon="6.83192">
        <ele>2496</ele>
        <time>2021-08-04T15:57:00Z</time>
      </trkpt>
      <trkpt lat="44.34052" lon="6.83203">
        <ele>2498</ele>
        <time>2021-08-04T15:57:02Z</time>
      </trkpt>
      <trkpt lat="44.34054" lon="6.83215">
        <ele>2501</ele>
        <time>2021-08-04T15:57:04Z</time>
      </trkpt>
      <trkpt lat="44.34051" lon="6.83228">
        <ele>2504</ele>
        <time>2021-08-04T15:57:05Z</time>
      </trkpt>
      <trkpt lat="44.34048" lon="6.83235">
        <ele>2505</ele>
        <time>2021-08-04T15:57:06Z</time>
      </trkpt>
      <trkpt lat="44.34029" lon="6.83255">
        <ele>2507</ele>
        <time>2021-08-04T15:57:11Z</time>
      </trkpt>
      <trkpt lat="44.34024" lon="6.83268">
        <ele>2507</ele>
        <time>2021-08-04T15:57:13Z</time>
      </trkpt>
      <trkpt lat="44.34021" lon="6.83321">
        <ele>2511</ele>
        <time>2021-08-04T15:57:19Z</time>
      </trkpt>
      <trkpt lat="44.34011" lon="6.83356">
        <ele>2510</ele>
        <time>2021-08-04T15:57:24Z</time>
      </trkpt>
      <trkpt lat="44.34006" lon="6.83373">
        <ele>2509</ele>
        <time>2021-08-04T15:57:26Z</time>
      </trkpt>
      <trkpt lat="44.34002" lon="6.83402">
        <ele>2508</ele>
        <time>2021-08-04T15:57:30Z</time>
      </trkpt>
      <trkpt lat="44.34011" lon="6.83458">
        <ele>2509</ele>
        <time>2021-08-04T15:57:37Z</time>
      </trkpt>
      <trkpt lat="44.34012" lon="6.83471">
        <ele>2509</ele>
        <time>2021-08-04T15:57:39Z</time>
      </trkpt>
      <trkpt lat="44.3401" lon="6.83528">
        <ele>2503</ele>
        <time>2021-08-04T15:57:46Z</time>
      </trkpt>
      <trkpt lat="44.34016" lon="6.83549">
        <ele>2502</ele>
        <time>2021-08-04T15:57:49Z</time>
      </trkpt>
      <trkpt lat="44.34033" lon="6.83571">
        <ele>2505</ele>
        <time>2021-08-04T15:57:53Z</time>
      </trkpt>
      <trkpt lat="44.34039" lon="6.83586">
        <ele>2506</ele>
        <time>2021-08-04T15:57:56Z</time>
      </trkpt>
      <trkpt lat="44.34045" lon="6.83604">
        <ele>2506</ele>
        <time>2021-08-04T15:57:58Z</time>
      </trkpt>
      <trkpt lat="44.34045" lon="6.83615">
        <ele>2505</ele>
        <time>2021-08-04T15:58:00Z</time>
      </trkpt>
      <trkpt lat="44.3404" lon="6.8366">
        <ele>2498</ele>
        <time>2021-08-04T15:58:05Z</time>
      </trkpt>
      <trkpt lat="44.3404" lon="6.83677">
        <ele>2496</ele>
        <time>2021-08-04T15:58:07Z</time>
      </trkpt>
      <trkpt lat="44.34044" lon="6.83691">
        <ele>2496</ele>
        <time>2021-08-04T15:58:09Z</time>
      </trkpt>
      <trkpt lat="44.34056" lon="6.83719">
        <ele>2497</ele>
        <time>2021-08-04T15:58:14Z</time>
      </trkpt>
      <trkpt lat="44.34072" lon="6.83743">
        <ele>2500</ele>
        <time>2021-08-04T15:58:18Z</time>
      </trkpt>
      <trkpt lat="44.34083" lon="6.83764">
        <ele>2501</ele>
        <time>2021-08-04T15:58:21Z</time>
      </trkpt>
      <trkpt lat="44.34087" lon="6.83777">
        <ele>2502</ele>
        <time>2021-08-04T15:58:23Z</time>
      </trkpt>
      <trkpt lat="44.34087" lon="6.8379">
        <ele>2500</ele>
        <time>2021-08-04T15:58:24Z</time>
      </trkpt>
      <trkpt lat="44.34085" lon="6.83803">
        <ele>2498</ele>
        <time>2021-08-04T15:58:26Z</time>
      </trkpt>
      <trkpt lat="44.34076" lon="6.83814">
        <ele>2494</ele>
        <time>2021-08-04T15:58:28Z</time>
      </trkpt>
      <trkpt lat="44.34066" lon="6.83824">
        <ele>2490</ele>
        <time>2021-08-04T15:58:30Z</time>
      </trkpt>
      <trkpt lat="44.34062" lon="6.83842">
        <ele>2488</ele>
        <time>2021-08-04T15:58:33Z</time>
      </trkpt>
      <trkpt lat="44.34058" lon="6.83906">
        <ele>2486</ele>
        <time>2021-08-04T15:58:41Z</time>
      </trkpt>
      <trkpt lat="44.34059" lon="6.83917">
        <ele>2487</ele>
        <time>2021-08-04T15:58:42Z</time>
      </trkpt>
      <trkpt lat="44.34063" lon="6.83935">
        <ele>2487</ele>
        <time>2021-08-04T15:58:45Z</time>
      </trkpt>
      <trkpt lat="44.34082" lon="6.8399">
        <ele>2489</ele>
        <time>2021-08-04T15:58:53Z</time>
      </trkpt>
      <trkpt lat="44.34089" lon="6.84016">
        <ele>2491</ele>
        <time>2021-08-04T15:58:56Z</time>
      </trkpt>
      <trkpt lat="44.34091" lon="6.84029">
        <ele>2492</ele>
        <time>2021-08-04T15:58:58Z</time>
      </trkpt>
      <trkpt lat="44.3409" lon="6.84043">
        <ele>2491</ele>
        <time>2021-08-04T15:59:00Z</time>
      </trkpt>
      <trkpt lat="44.34084" lon="6.8406">
        <ele>2489</ele>
        <time>2021-08-04T15:59:02Z</time>
      </trkpt>
      <trkpt lat="44.34065" lon="6.84098">
        <ele>2481</ele>
        <time>2021-08-04T15:59:08Z</time>
      </trkpt>
      <trkpt lat="44.34057" lon="6.84125">
        <ele>2476</ele>
        <time>2021-08-04T15:59:12Z</time>
      </trkpt>
      <trkpt lat="44.34055" lon="6.84148">
        <ele>2474</ele>
        <time>2021-08-04T15:59:15Z</time>
      </trkpt>
      <trkpt lat="44.34061" lon="6.84184">
        <ele>2473</ele>
        <time>2021-08-04T15:59:19Z</time>
      </trkpt>
      <trkpt lat="44.34061" lon="6.84197">
        <ele>2472</ele>
        <time>2021-08-04T15:59:21Z</time>
      </trkpt>
      <trkpt lat="44.34053" lon="6.84232">
        <ele>2467</ele>
        <time>2021-08-04T15:59:26Z</time>
      </trkpt>
      <trkpt lat="44.34051" lon="6.84249">
        <ele>2465</ele>
        <time>2021-08-04T15:59:28Z</time>
      </trkpt>
      <trkpt lat="44.34053" lon="6.84264">
        <ele>2464</ele>
        <time>2021-08-04T15:59:30Z</time>
      </trkpt>
      <trkpt lat="44.34065" lon="6.84308">
        <ele>2461</ele>
        <time>2021-08-04T15:59:36Z</time>
      </trkpt>
      <trkpt lat="44.3407" lon="6.8432">
        <ele>2461</ele>
        <time>2021-08-04T15:59:38Z</time>
      </trkpt>
      <trkpt lat="44.34104" lon="6.84359">
        <ele>2462</ele>
        <time>2021-08-04T15:59:45Z</time>
      </trkpt>
      <trkpt lat="44.34167" lon="6.8442">
        <ele>2463</ele>
        <time>2021-08-04T15:59:59Z</time>
      </trkpt>
      <trkpt lat="44.34187" lon="6.84445">
        <ele>2463</ele>
        <time>2021-08-04T16:00:04Z</time>
      </trkpt>
      <trkpt lat="44.34195" lon="6.84463">
        <ele>2460</ele>
        <time>2021-08-04T16:00:06Z</time>
      </trkpt>
      <trkpt lat="44.34203" lon="6.845">
        <ele>2453</ele>
        <time>2021-08-04T16:00:11Z</time>
      </trkpt>
      <trkpt lat="44.34218" lon="6.84533">
        <ele>2453</ele>
        <time>2021-08-04T16:00:16Z</time>
      </trkpt>
      <trkpt lat="44.34232" lon="6.84571">
        <ele>2450</ele>
        <time>2021-08-04T16:00:22Z</time>
      </trkpt>
      <trkpt lat="44.34233" lon="6.8458">
        <ele>2449</ele>
        <time>2021-08-04T16:00:23Z</time>
      </trkpt>
      <trkpt lat="44.34232" lon="6.8459">
        <ele>2448</ele>
        <time>2021-08-04T16:00:24Z</time>
      </trkpt>
      <trkpt lat="44.34228" lon="6.84599">
        <ele>2448</ele>
        <time>2021-08-04T16:00:26Z</time>
      </trkpt>
      <trkpt lat="44.3421" lon="6.84618">
        <ele>2443</ele>
        <time>2021-08-04T16:00:30Z</time>
      </trkpt>
      <trkpt lat="44.34171" lon="6.84673">
        <ele>2435</ele>
        <time>2021-08-04T16:00:39Z</time>
      </trkpt>
      <trkpt lat="44.34169" lon="6.84683">
        <ele>2435</ele>
        <time>2021-08-04T16:00:41Z</time>
      </trkpt>
      <trkpt lat="44.34169" lon="6.84711">
        <ele>2438</ele>
        <time>2021-08-04T16:00:44Z</time>
      </trkpt>
      <trkpt lat="44.34167" lon="6.84719">
        <ele>2438</ele>
        <time>2021-08-04T16:00:45Z</time>
      </trkpt>
      <trkpt lat="44.34158" lon="6.84731">
        <ele>2437</ele>
        <time>2021-08-04T16:00:48Z</time>
      </trkpt>
      <trkpt lat="44.34151" lon="6.84735">
        <ele>2435</ele>
        <time>2021-08-04T16:00:49Z</time>
      </trkpt>
      <trkpt lat="44.34121" lon="6.84736">
        <ele>2428</ele>
        <time>2021-08-04T16:00:54Z</time>
      </trkpt>
      <trkpt lat="44.34105" lon="6.84744">
        <ele>2425</ele>
        <time>2021-08-04T16:00:57Z</time>
      </trkpt>
      <trkpt lat="44.34088" lon="6.84768">
        <ele>2424</ele>
        <time>2021-08-04T16:01:02Z</time>
      </trkpt>
      <trkpt lat="44.3406" lon="6.84794">
        <ele>2419</ele>
        <time>2021-08-04T16:01:08Z</time>
      </trkpt>
      <trkpt lat="44.34048" lon="6.84808">
        <ele>2416</ele>
        <time>2021-08-04T16:01:10Z</time>
      </trkpt>
      <trkpt lat="44.34041" lon="6.84822">
        <ele>2416</ele>
        <time>2021-08-04T16:01:13Z</time>
      </trkpt>
      <trkpt lat="44.34026" lon="6.84877">
        <ele>2417</ele>
        <time>2021-08-04T16:01:20Z</time>
      </trkpt>
      <trkpt lat="44.34025" lon="6.84887">
        <ele>2418</ele>
        <time>2021-08-04T16:01:21Z</time>
      </trkpt>
      <trkpt lat="44.34027" lon="6.84898">
        <ele>2420</ele>
        <time>2021-08-04T16:01:23Z</time>
      </trkpt>
      <trkpt lat="44.34033" lon="6.84912">
        <ele>2424</ele>
        <time>2021-08-04T16:01:25Z</time>
      </trkpt>
      <trkpt lat="44.34034" lon="6.84925">
        <ele>2426</ele>
        <time>2021-08-04T16:01:27Z</time>
      </trkpt>
      <trkpt lat="44.34033" lon="6.84943">
        <ele>2428</ele>
        <time>2021-08-04T16:01:29Z</time>
      </trkpt>
      <trkpt lat="44.3403" lon="6.84952">
        <ele>2429</ele>
        <time>2021-08-04T16:01:30Z</time>
      </trkpt>
      <trkpt lat="44.34015" lon="6.84967">
        <ele>2426</ele>
        <time>2021-08-04T16:01:33Z</time>
      </trkpt>
      <trkpt lat="44.33995" lon="6.84979">
        <ele>2423</ele>
        <time>2021-08-04T16:01:37Z</time>
      </trkpt>
      <trkpt lat="44.33967" lon="6.85005">
        <ele>2423</ele>
        <time>2021-08-04T16:01:43Z</time>
      </trkpt>
      <trkpt lat="44.33958" lon="6.85008">
        <ele>2422</ele>
        <time>2021-08-04T16:01:45Z</time>
      </trkpt>
      <trkpt lat="44.33946" lon="6.85008">
        <ele>2420</ele>
        <time>2021-08-04T16:01:47Z</time>
      </trkpt>
      <trkpt lat="44.33928" lon="6.85003">
        <ele>2416</ele>
        <time>2021-08-04T16:01:50Z</time>
      </trkpt>
      <trkpt lat="44.33915" lon="6.85002">
        <ele>2413</ele>
        <time>2021-08-04T16:01:53Z</time>
      </trkpt>
      <trkpt lat="44.33896" lon="6.85007">
        <ele>2411</ele>
        <time>2021-08-04T16:01:56Z</time>
      </trkpt>
      <trkpt lat="44.33878" lon="6.85014">
        <ele>2410</ele>
        <time>2021-08-04T16:01:59Z</time>
      </trkpt>
      <trkpt lat="44.33816" lon="6.85049">
        <ele>2409</ele>
        <time>2021-08-04T16:02:11Z</time>
      </trkpt>
      <trkpt lat="44.33802" lon="6.85052">
        <ele>2408</ele>
        <time>2021-08-04T16:02:14Z</time>
      </trkpt>
      <trkpt lat="44.33786" lon="6.8505">
        <ele>2406</ele>
        <time>2021-08-04T16:02:17Z</time>
      </trkpt>
      <trkpt lat="44.33754" lon="6.85039">
        <ele>2398</ele>
        <time>2021-08-04T16:02:23Z</time>
      </trkpt>
      <trkpt lat="44.33743" lon="6.85038">
        <ele>2396</ele>
        <time>2021-08-04T16:02:24Z</time>
      </trkpt>
      <trkpt lat="44.3371" lon="6.85043">
        <ele>2395</ele>
        <time>2021-08-04T16:02:30Z</time>
      </trkpt>
      <trkpt lat="44.33698" lon="6.85043">
        <ele>2394</ele>
        <time>2021-08-04T16:02:33Z</time>
      </trkpt>
      <trkpt lat="44.33671" lon="6.8503">
        <ele>2386</ele>
        <time>2021-08-04T16:02:38Z</time>
      </trkpt>
      <trkpt lat="44.3364" lon="6.85009">
        <ele>2370</ele>
        <time>2021-08-04T16:02:44Z</time>
      </trkpt>
      <trkpt lat="44.33632" lon="6.8501">
        <ele>2369</ele>
        <time>2021-08-04T16:02:45Z</time>
      </trkpt>
      <trkpt lat="44.33624" lon="6.85016">
        <ele>2370</ele>
        <time>2021-08-04T16:02:47Z</time>
      </trkpt>
      <trkpt lat="44.33605" lon="6.85048">
        <ele>2379</ele>
        <time>2021-08-04T16:02:52Z</time>
      </trkpt>
      <trkpt lat="44.33595" lon="6.85056">
        <ele>2379</ele>
        <time>2021-08-04T16:02:54Z</time>
      </trkpt>
      <trkpt lat="44.33581" lon="6.85062">
        <ele>2379</ele>
        <time>2021-08-04T16:02:57Z</time>
      </trkpt>
      <trkpt lat="44.33554" lon="6.85066">
        <ele>2379</ele>
        <time>2021-08-04T16:03:02Z</time>
      </trkpt>
      <trkpt lat="44.3354" lon="6.85066">
        <ele>2378</ele>
        <time>2021-08-04T16:03:04Z</time>
      </trkpt>
      <trkpt lat="44.33527" lon="6.85063">
        <ele>2376</ele>
        <time>2021-08-04T16:03:06Z</time>
      </trkpt>
      <trkpt lat="44.33467" lon="6.85039">
        <ele>2361</ele>
        <time>2021-08-04T16:03:18Z</time>
      </trkpt>
      <trkpt lat="44.3343" lon="6.85031">
        <ele>2353</ele>
        <time>2021-08-04T16:03:24Z</time>
      </trkpt>
      <trkpt lat="44.33362" lon="6.85033">
        <ele>2338</ele>
        <time>2021-08-04T16:03:36Z</time>
      </trkpt>
      <trkpt lat="44.3335" lon="6.85035">
        <ele>2336</ele>
        <time>2021-08-04T16:03:38Z</time>
      </trkpt>
      <trkpt lat="44.33329" lon="6.85043">
        <ele>2333</ele>
        <time>2021-08-04T16:03:42Z</time>
      </trkpt>
      <trkpt lat="44.33306" lon="6.85056">
        <ele>2327</ele>
        <time>2021-08-04T16:03:47Z</time>
      </trkpt>
      <trkpt lat="44.33299" lon="6.85064">
        <ele>2327</ele>
        <time>2021-08-04T16:03:48Z</time>
      </trkpt>
      <trkpt lat="44.3329" lon="6.85081">
        <ele>2329</ele>
        <time>2021-08-04T16:03:51Z</time>
      </trkpt>
      <trkpt lat="44.33282" lon="6.85096">
        <ele>2328</ele>
        <time>2021-08-04T16:03:53Z</time>
      </trkpt>
      <trkpt lat="44.33281" lon="6.85099">
        <ele>2328</ele>
        <time>2021-08-04T16:03:54Z</time>
      </trkpt>
      <trkpt lat="44.33276" lon="6.85119">
        <ele>2330</ele>
        <time>2021-08-04T16:03:57Z</time>
      </trkpt>
      <trkpt lat="44.33277" lon="6.85134">
        <ele>2334</ele>
        <time>2021-08-04T16:03:58Z</time>
      </trkpt>
      <trkpt lat="44.33279" lon="6.85189">
        <ele>2344</ele>
        <time>2021-08-04T16:04:05Z</time>
      </trkpt>
      <trkpt lat="44.33279" lon="6.85203">
        <ele>2344</ele>
        <time>2021-08-04T16:04:07Z</time>
      </trkpt>
      <trkpt lat="44.33277" lon="6.85213">
        <ele>2343</ele>
        <time>2021-08-04T16:04:09Z</time>
      </trkpt>
      <trkpt lat="44.33262" lon="6.85251">
        <ele>2331</ele>
        <time>2021-08-04T16:04:14Z</time>
      </trkpt>
      <trkpt lat="44.33245" lon="6.85285">
        <ele>2321</ele>
        <time>2021-08-04T16:04:19Z</time>
      </trkpt>
      <trkpt lat="44.33246" lon="6.85324">
        <ele>2328</ele>
        <time>2021-08-04T16:04:24Z</time>
      </trkpt>
      <trkpt lat="44.33244" lon="6.85341">
        <ele>2329</ele>
        <time>2021-08-04T16:04:26Z</time>
      </trkpt>
      <trkpt lat="44.33236" lon="6.85362">
        <ele>2325</ele>
        <time>2021-08-04T16:04:30Z</time>
      </trkpt>
      <trkpt lat="44.33223" lon="6.85429">
        <ele>2323</ele>
        <time>2021-08-04T16:04:38Z</time>
      </trkpt>
      <trkpt lat="44.33218" lon="6.85449">
        <ele>2319</ele>
        <time>2021-08-04T16:04:41Z</time>
      </trkpt>
      <trkpt lat="44.33211" lon="6.85467">
        <ele>2314</ele>
        <time>2021-08-04T16:04:44Z</time>
      </trkpt>
      <trkpt lat="44.33209" lon="6.85477">
        <ele>2313</ele>
        <time>2021-08-04T16:04:45Z</time>
      </trkpt>
      <trkpt lat="44.33211" lon="6.85493">
        <ele>2315</ele>
        <time>2021-08-04T16:04:47Z</time>
      </trkpt>
      <trkpt lat="44.33232" lon="6.85571">
        <ele>2322</ele>
        <time>2021-08-04T16:04:58Z</time>
      </trkpt>
      <trkpt lat="44.33239" lon="6.85608">
        <ele>2323</ele>
        <time>2021-08-04T16:05:03Z</time>
      </trkpt>
      <trkpt lat="44.33241" lon="6.8568">
        <ele>2318</ele>
        <time>2021-08-04T16:05:12Z</time>
      </trkpt>
      <trkpt lat="44.33235" lon="6.85793">
        <ele>2313</ele>
        <time>2021-08-04T16:05:26Z</time>
      </trkpt>
      <trkpt lat="44.33232" lon="6.85815">
        <ele>2311</ele>
        <time>2021-08-04T16:05:29Z</time>
      </trkpt>
      <trkpt lat="44.33221" lon="6.85852">
        <ele>2305</ele>
        <time>2021-08-04T16:05:34Z</time>
      </trkpt>
      <trkpt lat="44.33221" lon="6.8588">
        <ele>2306</ele>
        <time>2021-08-04T16:05:38Z</time>
      </trkpt>
      <trkpt lat="44.33217" lon="6.85903">
        <ele>2305</ele>
        <time>2021-08-04T16:05:41Z</time>
      </trkpt>
      <trkpt lat="44.33209" lon="6.85922">
        <ele>2301</ele>
        <time>2021-08-04T16:05:43Z</time>
      </trkpt>
      <trkpt lat="44.33206" lon="6.85941">
        <ele>2301</ele>
        <time>2021-08-04T16:05:46Z</time>
      </trkpt>
      <trkpt lat="44.33184" lon="6.86002">
        <ele>2294</ele>
        <time>2021-08-04T16:05:55Z</time>
      </trkpt>
      <trkpt lat="44.33173" lon="6.86022">
        <ele>2287</ele>
        <time>2021-08-04T16:05:58Z</time>
      </trkpt>
      <trkpt lat="44.33164" lon="6.86034">
        <ele>2282</ele>
        <time>2021-08-04T16:06:00Z</time>
      </trkpt>
      <trkpt lat="44.33161" lon="6.86043">
        <ele>2280</ele>
        <time>2021-08-04T16:06:01Z</time>
      </trkpt>
      <trkpt lat="44.33162" lon="6.86053">
        <ele>2280</ele>
        <time>2021-08-04T16:06:03Z</time>
      </trkpt>
      <trkpt lat="44.33177" lon="6.86087">
        <ele>2284</ele>
        <time>2021-08-04T16:06:08Z</time>
      </trkpt>
      <trkpt lat="44.33187" lon="6.86104">
        <ele>2285</ele>
        <time>2021-08-04T16:06:10Z</time>
      </trkpt>
      <trkpt lat="44.33205" lon="6.86119">
        <ele>2288</ele>
        <time>2021-08-04T16:06:14Z</time>
      </trkpt>
      <trkpt lat="44.33217" lon="6.86132">
        <ele>2289</ele>
        <time>2021-08-04T16:06:17Z</time>
      </trkpt>
      <trkpt lat="44.33268" lon="6.86213">
        <ele>2279</ele>
        <time>2021-08-04T16:06:31Z</time>
      </trkpt>
      <trkpt lat="44.3338" lon="6.86328">
        <ele>2277</ele>
        <time>2021-08-04T16:06:55Z</time>
      </trkpt>
      <trkpt lat="44.33387" lon="6.86339">
        <ele>2277</ele>
        <time>2021-08-04T16:06:57Z</time>
      </trkpt>
      <trkpt lat="44.3339" lon="6.86352">
        <ele>2276</ele>
        <time>2021-08-04T16:06:59Z</time>
      </trkpt>
      <trkpt lat="44.3339" lon="6.86368">
        <ele>2274</ele>
        <time>2021-08-04T16:07:01Z</time>
      </trkpt>
      <trkpt lat="44.33388" lon="6.86383">
        <ele>2272</ele>
        <time>2021-08-04T16:07:03Z</time>
      </trkpt>
      <trkpt lat="44.33381" lon="6.86432">
        <ele>2266</ele>
        <time>2021-08-04T16:07:09Z</time>
      </trkpt>
      <trkpt lat="44.33378" lon="6.86445">
        <ele>2266</ele>
        <time>2021-08-04T16:07:11Z</time>
      </trkpt>
      <trkpt lat="44.33374" lon="6.86459">
        <ele>2265</ele>
        <time>2021-08-04T16:07:13Z</time>
      </trkpt>
      <trkpt lat="44.33374" lon="6.86523">
        <ele>2266</ele>
        <time>2021-08-04T16:07:21Z</time>
      </trkpt>
      <trkpt lat="44.33374" lon="6.86575">
        <ele>2267</ele>
        <time>2021-08-04T16:07:28Z</time>
      </trkpt>
      <trkpt lat="44.33373" lon="6.86587">
        <ele>2267</ele>
        <time>2021-08-04T16:07:29Z</time>
      </trkpt>
      <trkpt lat="44.33371" lon="6.86596">
        <ele>2267</ele>
        <time>2021-08-04T16:07:30Z</time>
      </trkpt>
      <trkpt lat="44.33366" lon="6.86611">
        <ele>2266</ele>
        <time>2021-08-04T16:07:33Z</time>
      </trkpt>
      <trkpt lat="44.33355" lon="6.86637">
        <ele>2263</ele>
        <time>2021-08-04T16:07:36Z</time>
      </trkpt>
      <trkpt lat="44.33332" lon="6.86676">
        <ele>2258</ele>
        <time>2021-08-04T16:07:43Z</time>
      </trkpt>
      <trkpt lat="44.33326" lon="6.86696">
        <ele>2256</ele>
        <time>2021-08-04T16:07:46Z</time>
      </trkpt>
      <trkpt lat="44.33325" lon="6.86711">
        <ele>2255</ele>
        <time>2021-08-04T16:07:48Z</time>
      </trkpt>
      <trkpt lat="44.33326" lon="6.86726">
        <ele>2255</ele>
        <time>2021-08-04T16:07:49Z</time>
      </trkpt>
      <trkpt lat="44.33336" lon="6.86785">
        <ele>2255</ele>
        <time>2021-08-04T16:07:57Z</time>
      </trkpt>
      <trkpt lat="44.33338" lon="6.86806">
        <ele>2255</ele>
        <time>2021-08-04T16:08:00Z</time>
      </trkpt>
      <trkpt lat="44.33336" lon="6.86833">
        <ele>2253</ele>
        <time>2021-08-04T16:08:03Z</time>
      </trkpt>
      <trkpt lat="44.33333" lon="6.8684">
        <ele>2253</ele>
        <time>2021-08-04T16:08:04Z</time>
      </trkpt>
      <trkpt lat="44.33327" lon="6.86848">
        <ele>2252</ele>
        <time>2021-08-04T16:08:06Z</time>
      </trkpt>
      <trkpt lat="44.33322" lon="6.86853">
        <ele>2252</ele>
        <time>2021-08-04T16:08:07Z</time>
      </trkpt>
      <trkpt lat="44.33291" lon="6.86863">
        <ele>2247</ele>
        <time>2021-08-04T16:08:13Z</time>
      </trkpt>
      <trkpt lat="44.33285" lon="6.86864">
        <ele>2246</ele>
        <time>2021-08-04T16:08:14Z</time>
      </trkpt>
      <trkpt lat="44.33281" lon="6.86862">
        <ele>2245</ele>
        <time>2021-08-04T16:08:14Z</time>
      </trkpt>
      <trkpt lat="44.33277" lon="6.86858">
        <ele>2244</ele>
        <time>2021-08-04T16:08:15Z</time>
      </trkpt>
      <trkpt lat="44.33274" lon="6.86847">
        <ele>2243</ele>
        <time>2021-08-04T16:08:17Z</time>
      </trkpt>
      <trkpt lat="44.33276" lon="6.86834">
        <ele>2243</ele>
        <time>2021-08-04T16:08:18Z</time>
      </trkpt>
      <trkpt lat="44.33291" lon="6.86807">
        <ele>2245</ele>
        <time>2021-08-04T16:08:23Z</time>
      </trkpt>
      <trkpt lat="44.33293" lon="6.86797">
        <ele>2246</ele>
        <time>2021-08-04T16:08:24Z</time>
      </trkpt>
      <trkpt lat="44.33295" lon="6.86784">
        <ele>2246</ele>
        <time>2021-08-04T16:08:26Z</time>
      </trkpt>
      <trkpt lat="44.33292" lon="6.86763">
        <ele>2246</ele>
        <time>2021-08-04T16:08:29Z</time>
      </trkpt>
      <trkpt lat="44.33289" lon="6.86749">
        <ele>2245</ele>
        <time>2021-08-04T16:08:30Z</time>
      </trkpt>
      <trkpt lat="44.33282" lon="6.86738">
        <ele>2243</ele>
        <time>2021-08-04T16:08:32Z</time>
      </trkpt>
      <trkpt lat="44.33273" lon="6.86733">
        <ele>2241</ele>
        <time>2021-08-04T16:08:34Z</time>
      </trkpt>
      <trkpt lat="44.33261" lon="6.86733">
        <ele>2238</ele>
        <time>2021-08-04T16:08:36Z</time>
      </trkpt>
      <trkpt lat="44.33235" lon="6.86742">
        <ele>2232</ele>
        <time>2021-08-04T16:08:41Z</time>
      </trkpt>
      <trkpt lat="44.3323" lon="6.86742">
        <ele>2231</ele>
        <time>2021-08-04T16:08:42Z</time>
      </trkpt>
      <trkpt lat="44.33223" lon="6.86739">
        <ele>2229</ele>
        <time>2021-08-04T16:08:43Z</time>
      </trkpt>
      <trkpt lat="44.33214" lon="6.86729">
        <ele>2228</ele>
        <time>2021-08-04T16:08:45Z</time>
      </trkpt>
      <trkpt lat="44.33187" lon="6.86685">
        <ele>2226</ele>
        <time>2021-08-04T16:08:53Z</time>
      </trkpt>
      <trkpt lat="44.33179" lon="6.8666">
        <ele>2227</ele>
        <time>2021-08-04T16:08:56Z</time>
      </trkpt>
      <trkpt lat="44.33173" lon="6.86654">
        <ele>2227</ele>
        <time>2021-08-04T16:08:57Z</time>
      </trkpt>
      <trkpt lat="44.33167" lon="6.86653">
        <ele>2226</ele>
        <time>2021-08-04T16:08:58Z</time>
      </trkpt>
      <trkpt lat="44.33161" lon="6.8666">
        <ele>2224</ele>
        <time>2021-08-04T16:09:00Z</time>
      </trkpt>
      <trkpt lat="44.3316" lon="6.8667">
        <ele>2223</ele>
        <time>2021-08-04T16:09:01Z</time>
      </trkpt>
      <trkpt lat="44.33162" lon="6.86682">
        <ele>2222</ele>
        <time>2021-08-04T16:09:03Z</time>
      </trkpt>
      <trkpt lat="44.33171" lon="6.86711">
        <ele>2221</ele>
        <time>2021-08-04T16:09:07Z</time>
      </trkpt>
      <trkpt lat="44.33176" lon="6.86732">
        <ele>2220</ele>
        <time>2021-08-04T16:09:10Z</time>
      </trkpt>
      <trkpt lat="44.33181" lon="6.86759">
        <ele>2219</ele>
        <time>2021-08-04T16:09:13Z</time>
      </trkpt>
      <trkpt lat="44.33181" lon="6.8678">
        <ele>2219</ele>
        <time>2021-08-04T16:09:16Z</time>
      </trkpt>
      <trkpt lat="44.33178" lon="6.86793">
        <ele>2219</ele>
        <time>2021-08-04T16:09:17Z</time>
      </trkpt>
      <trkpt lat="44.33171" lon="6.86808">
        <ele>2217</ele>
        <time>2021-08-04T16:09:20Z</time>
      </trkpt>
      <trkpt lat="44.3315" lon="6.86834">
        <ele>2213</ele>
        <time>2021-08-04T16:09:25Z</time>
      </trkpt>
      <trkpt lat="44.3313" lon="6.86853">
        <ele>2212</ele>
        <time>2021-08-04T16:09:29Z</time>
      </trkpt>
      <trkpt lat="44.33118" lon="6.8686">
        <ele>2211</ele>
        <time>2021-08-04T16:09:31Z</time>
      </trkpt>
      <trkpt lat="44.33111" lon="6.86862">
        <ele>2211</ele>
        <time>2021-08-04T16:09:33Z</time>
      </trkpt>
      <trkpt lat="44.33081" lon="6.8686">
        <ele>2206</ele>
        <time>2021-08-04T16:09:38Z</time>
      </trkpt>
      <trkpt lat="44.33071" lon="6.86863">
        <ele>2205</ele>
        <time>2021-08-04T16:09:40Z</time>
      </trkpt>
      <trkpt lat="44.33042" lon="6.86876">
        <ele>2205</ele>
        <time>2021-08-04T16:09:45Z</time>
      </trkpt>
      <trkpt lat="44.33025" lon="6.86877">
        <ele>2204</ele>
        <time>2021-08-04T16:09:48Z</time>
      </trkpt>
      <trkpt lat="44.33012" lon="6.86875">
        <ele>2202</ele>
        <time>2021-08-04T16:09:51Z</time>
      </trkpt>
      <trkpt lat="44.3295" lon="6.8685">
        <ele>2196</ele>
        <time>2021-08-04T16:10:02Z</time>
      </trkpt>
      <trkpt lat="44.32924" lon="6.86846">
        <ele>2196</ele>
        <time>2021-08-04T16:10:07Z</time>
      </trkpt>
      <trkpt lat="44.32871" lon="6.8682">
        <ele>2193</ele>
        <time>2021-08-04T16:10:17Z</time>
      </trkpt>
      <trkpt lat="44.32867" lon="6.86815">
        <ele>2191</ele>
        <time>2021-08-04T16:10:18Z</time>
      </trkpt>
      <trkpt lat="44.32865" lon="6.86806">
        <ele>2189</ele>
        <time>2021-08-04T16:10:19Z</time>
      </trkpt>
      <trkpt lat="44.32867" lon="6.86801">
        <ele>2187</ele>
        <time>2021-08-04T16:10:20Z</time>
      </trkpt>
      <trkpt lat="44.32874" lon="6.86798">
        <ele>2186</ele>
        <time>2021-08-04T16:10:21Z</time>
      </trkpt>
      <trkpt lat="44.32906" lon="6.86818">
        <ele>2190</ele>
        <time>2021-08-04T16:10:27Z</time>
      </trkpt>
      <trkpt lat="44.32916" lon="6.86819">
        <ele>2189</ele>
        <time>2021-08-04T16:10:29Z</time>
      </trkpt>
      <trkpt lat="44.32937" lon="6.86815">
        <ele>2188</ele>
        <time>2021-08-04T16:10:33Z</time>
      </trkpt>
      <trkpt lat="44.32978" lon="6.86802">
        <ele>2184</ele>
        <time>2021-08-04T16:10:40Z</time>
      </trkpt>
      <trkpt lat="44.33009" lon="6.86783">
        <ele>2184</ele>
        <time>2021-08-04T16:10:46Z</time>
      </trkpt>
      <trkpt lat="44.33014" lon="6.86776">
        <ele>2184</ele>
        <time>2021-08-04T16:10:47Z</time>
      </trkpt>
      <trkpt lat="44.33017" lon="6.86766">
        <ele>2183</ele>
        <time>2021-08-04T16:10:49Z</time>
      </trkpt>
      <trkpt lat="44.33017" lon="6.86756">
        <ele>2182</ele>
        <time>2021-08-04T16:10:50Z</time>
      </trkpt>
      <trkpt lat="44.33001" lon="6.86719">
        <ele>2179</ele>
        <time>2021-08-04T16:10:56Z</time>
      </trkpt>
      <trkpt lat="44.32958" lon="6.86607">
        <ele>2171</ele>
        <time>2021-08-04T16:11:12Z</time>
      </trkpt>
      <trkpt lat="44.32947" lon="6.8657">
        <ele>2169</ele>
        <time>2021-08-04T16:11:17Z</time>
      </trkpt>
      <trkpt lat="44.3294" lon="6.86555">
        <ele>2167</ele>
        <time>2021-08-04T16:11:19Z</time>
      </trkpt>
      <trkpt lat="44.32885" lon="6.86479">
        <ele>2156</ele>
        <time>2021-08-04T16:11:33Z</time>
      </trkpt>
      <trkpt lat="44.32879" lon="6.86468">
        <ele>2154</ele>
        <time>2021-08-04T16:11:35Z</time>
      </trkpt>
      <trkpt lat="44.32877" lon="6.86458">
        <ele>2154</ele>
        <time>2021-08-04T16:11:36Z</time>
      </trkpt>
      <trkpt lat="44.32876" lon="6.86444">
        <ele>2153</ele>
        <time>2021-08-04T16:11:38Z</time>
      </trkpt>
      <trkpt lat="44.32889" lon="6.86404">
        <ele>2154</ele>
        <time>2021-08-04T16:11:43Z</time>
      </trkpt>
      <trkpt lat="44.32893" lon="6.86384">
        <ele>2154</ele>
        <time>2021-08-04T16:11:46Z</time>
      </trkpt>
      <trkpt lat="44.32892" lon="6.86371">
        <ele>2153</ele>
        <time>2021-08-04T16:11:48Z</time>
      </trkpt>
      <trkpt lat="44.32882" lon="6.86333">
        <ele>2148</ele>
        <time>2021-08-04T16:11:53Z</time>
      </trkpt>
      <trkpt lat="44.32882" lon="6.86316">
        <ele>2147</ele>
        <time>2021-08-04T16:11:55Z</time>
      </trkpt>
      <trkpt lat="44.32886" lon="6.86295">
        <ele>2146</ele>
        <time>2021-08-04T16:11:58Z</time>
      </trkpt>
      <trkpt lat="44.32887" lon="6.86285">
        <ele>2145</ele>
        <time>2021-08-04T16:11:59Z</time>
      </trkpt>
      <trkpt lat="44.32884" lon="6.86278">
        <ele>2144</ele>
        <time>2021-08-04T16:12:00Z</time>
      </trkpt>
      <trkpt lat="44.3288" lon="6.86274">
        <ele>2142</ele>
        <time>2021-08-04T16:12:01Z</time>
      </trkpt>
      <trkpt lat="44.32872" lon="6.86275">
        <ele>2140</ele>
        <time>2021-08-04T16:12:02Z</time>
      </trkpt>
      <trkpt lat="44.32846" lon="6.86303">
        <ele>2135</ele>
        <time>2021-08-04T16:12:08Z</time>
      </trkpt>
      <trkpt lat="44.32839" lon="6.86314">
        <ele>2134</ele>
        <time>2021-08-04T16:12:10Z</time>
      </trkpt>
      <trkpt lat="44.32835" lon="6.86327">
        <ele>2135</ele>
        <time>2021-08-04T16:12:12Z</time>
      </trkpt>
      <trkpt lat="44.32831" lon="6.8635">
        <ele>2136</ele>
        <time>2021-08-04T16:12:15Z</time>
      </trkpt>
      <trkpt lat="44.32823" lon="6.86363">
        <ele>2135</ele>
        <time>2021-08-04T16:12:17Z</time>
      </trkpt>
      <trkpt lat="44.32815" lon="6.86367">
        <ele>2133</ele>
        <time>2021-08-04T16:12:19Z</time>
      </trkpt>
      <trkpt lat="44.32787" lon="6.8637">
        <ele>2126</ele>
        <time>2021-08-04T16:12:24Z</time>
      </trkpt>
      <trkpt lat="44.32775" lon="6.86375">
        <ele>2124</ele>
        <time>2021-08-04T16:12:26Z</time>
      </trkpt>
      <trkpt lat="44.32767" lon="6.86384">
        <ele>2123</ele>
        <time>2021-08-04T16:12:28Z</time>
      </trkpt>
      <trkpt lat="44.32746" lon="6.86415">
        <ele>2122</ele>
        <time>2021-08-04T16:12:33Z</time>
      </trkpt>
      <trkpt lat="44.3272" lon="6.86457">
        <ele>2118</ele>
        <time>2021-08-04T16:12:40Z</time>
      </trkpt>
      <trkpt lat="44.32709" lon="6.86492">
        <ele>2119</ele>
        <time>2021-08-04T16:12:45Z</time>
      </trkpt>
      <trkpt lat="44.32704" lon="6.86502">
        <ele>2119</ele>
        <time>2021-08-04T16:12:47Z</time>
      </trkpt>
      <trkpt lat="44.32696" lon="6.86506">
        <ele>2117</ele>
        <time>2021-08-04T16:12:48Z</time>
      </trkpt>
      <trkpt lat="44.32689" lon="6.86506">
        <ele>2116</ele>
        <time>2021-08-04T16:12:49Z</time>
      </trkpt>
      <trkpt lat="44.32684" lon="6.86504">
        <ele>2115</ele>
        <time>2021-08-04T16:12:50Z</time>
      </trkpt>
      <trkpt lat="44.32679" lon="6.86497">
        <ele>2112</ele>
        <time>2021-08-04T16:12:52Z</time>
      </trkpt>
      <trkpt lat="44.32678" lon="6.86494">
        <ele>2112</ele>
        <time>2021-08-04T16:12:52Z</time>
      </trkpt>
      <trkpt lat="44.32678" lon="6.86487">
        <ele>2111</ele>
        <time>2021-08-04T16:12:53Z</time>
      </trkpt>
      <trkpt lat="44.32682" lon="6.86463">
        <ele>2109</ele>
        <time>2021-08-04T16:12:56Z</time>
      </trkpt>
      <trkpt lat="44.32707" lon="6.86404">
        <ele>2109</ele>
        <time>2021-08-04T16:13:05Z</time>
      </trkpt>
      <trkpt lat="44.32711" lon="6.86389">
        <ele>2108</ele>
        <time>2021-08-04T16:13:07Z</time>
      </trkpt>
      <trkpt lat="44.3271" lon="6.86372">
        <ele>2105</ele>
        <time>2021-08-04T16:13:09Z</time>
      </trkpt>
      <trkpt lat="44.32708" lon="6.8634">
        <ele>2099</ele>
        <time>2021-08-04T16:13:13Z</time>
      </trkpt>
      <trkpt lat="44.3271" lon="6.86329">
        <ele>2098</ele>
        <time>2021-08-04T16:13:14Z</time>
      </trkpt>
      <trkpt lat="44.32713" lon="6.86319">
        <ele>2097</ele>
        <time>2021-08-04T16:13:16Z</time>
      </trkpt>
      <trkpt lat="44.32741" lon="6.86301">
        <ele>2103</ele>
        <time>2021-08-04T16:13:21Z</time>
      </trkpt>
      <trkpt lat="44.32765" lon="6.86249">
        <ele>2100</ele>
        <time>2021-08-04T16:13:29Z</time>
      </trkpt>
      <trkpt lat="44.32797" lon="6.86204">
        <ele>2102</ele>
        <time>2021-08-04T16:13:37Z</time>
      </trkpt>
      <trkpt lat="44.32802" lon="6.86192">
        <ele>2101</ele>
        <time>2021-08-04T16:13:39Z</time>
      </trkpt>
      <trkpt lat="44.32803" lon="6.86167">
        <ele>2097</ele>
        <time>2021-08-04T16:13:42Z</time>
      </trkpt>
      <trkpt lat="44.32801" lon="6.86135">
        <ele>2092</ele>
        <time>2021-08-04T16:13:46Z</time>
      </trkpt>
      <trkpt lat="44.32804" lon="6.86092">
        <ele>2088</ele>
        <time>2021-08-04T16:13:52Z</time>
      </trkpt>
      <trkpt lat="44.32814" lon="6.8605">
        <ele>2090</ele>
        <time>2021-08-04T16:13:57Z</time>
      </trkpt>
      <trkpt lat="44.32816" lon="6.86028">
        <ele>2091</ele>
        <time>2021-08-04T16:14:00Z</time>
      </trkpt>
      <trkpt lat="44.32812" lon="6.85996">
        <ele>2088</ele>
        <time>2021-08-04T16:14:04Z</time>
      </trkpt>
      <trkpt lat="44.32806" lon="6.85963">
        <ele>2084</ele>
        <time>2021-08-04T16:14:09Z</time>
      </trkpt>
      <trkpt lat="44.32803" lon="6.85959">
        <ele>2083</ele>
        <time>2021-08-04T16:14:09Z</time>
      </trkpt>
      <trkpt lat="44.32797" lon="6.85958">
        <ele>2080</ele>
        <time>2021-08-04T16:14:11Z</time>
      </trkpt>
      <trkpt lat="44.32792" lon="6.85963">
        <ele>2078</ele>
        <time>2021-08-04T16:14:12Z</time>
      </trkpt>
      <trkpt lat="44.32785" lon="6.86016">
        <ele>2077</ele>
        <time>2021-08-04T16:14:19Z</time>
      </trkpt>
      <trkpt lat="44.32779" lon="6.86052">
        <ele>2075</ele>
        <time>2021-08-04T16:14:23Z</time>
      </trkpt>
      <trkpt lat="44.32768" lon="6.86088">
        <ele>2072</ele>
        <time>2021-08-04T16:14:28Z</time>
      </trkpt>
      <trkpt lat="44.32752" lon="6.86122">
        <ele>2071</ele>
        <time>2021-08-04T16:14:33Z</time>
      </trkpt>
      <trkpt lat="44.32714" lon="6.86183">
        <ele>2068</ele>
        <time>2021-08-04T16:14:44Z</time>
      </trkpt>
      <trkpt lat="44.3269" lon="6.86209">
        <ele>2066</ele>
        <time>2021-08-04T16:14:49Z</time>
      </trkpt>
      <trkpt lat="44.32679" lon="6.86217">
        <ele>2064</ele>
        <time>2021-08-04T16:14:51Z</time>
      </trkpt>
      <trkpt lat="44.32663" lon="6.86219">
        <ele>2060</ele>
        <time>2021-08-04T16:14:54Z</time>
      </trkpt>
      <trkpt lat="44.32639" lon="6.86228">
        <ele>2053</ele>
        <time>2021-08-04T16:14:59Z</time>
      </trkpt>
      <trkpt lat="44.32624" lon="6.86235">
        <ele>2050</ele>
        <time>2021-08-04T16:15:01Z</time>
      </trkpt>
      <trkpt lat="44.32613" lon="6.86248">
        <ele>2048</ele>
        <time>2021-08-04T16:15:04Z</time>
      </trkpt>
      <trkpt lat="44.32608" lon="6.86247">
        <ele>2046</ele>
        <time>2021-08-04T16:15:05Z</time>
      </trkpt>
      <trkpt lat="44.32607" lon="6.86245">
        <ele>2045</ele>
        <time>2021-08-04T16:15:05Z</time>
      </trkpt>
      <trkpt lat="44.32606" lon="6.86238">
        <ele>2044</ele>
        <time>2021-08-04T16:15:06Z</time>
      </trkpt>
      <trkpt lat="44.32608" lon="6.86227">
        <ele>2042</ele>
        <time>2021-08-04T16:15:07Z</time>
      </trkpt>
      <trkpt lat="44.32616" lon="6.86216">
        <ele>2043</ele>
        <time>2021-08-04T16:15:09Z</time>
      </trkpt>
      <trkpt lat="44.32636" lon="6.86205">
        <ele>2047</ele>
        <time>2021-08-04T16:15:13Z</time>
      </trkpt>
      <trkpt lat="44.32657" lon="6.86189">
        <ele>2050</ele>
        <time>2021-08-04T16:15:18Z</time>
      </trkpt>
      <trkpt lat="44.32663" lon="6.86178">
        <ele>2049</ele>
        <time>2021-08-04T16:15:19Z</time>
      </trkpt>
      <trkpt lat="44.32666" lon="6.86169">
        <ele>2047</ele>
        <time>2021-08-04T16:15:21Z</time>
      </trkpt>
      <trkpt lat="44.3267" lon="6.86136">
        <ele>2044</ele>
        <time>2021-08-04T16:15:25Z</time>
      </trkpt>
      <trkpt lat="44.32676" lon="6.86116">
        <ele>2044</ele>
        <time>2021-08-04T16:15:28Z</time>
      </trkpt>
      <trkpt lat="44.32706" lon="6.86062">
        <ele>2047</ele>
        <time>2021-08-04T16:15:36Z</time>
      </trkpt>
      <trkpt lat="44.32711" lon="6.86045">
        <ele>2048</ele>
        <time>2021-08-04T16:15:39Z</time>
      </trkpt>
      <trkpt lat="44.32713" lon="6.8603">
        <ele>2047</ele>
        <time>2021-08-04T16:15:41Z</time>
      </trkpt>
      <trkpt lat="44.32712" lon="6.86013">
        <ele>2046</ele>
        <time>2021-08-04T16:15:43Z</time>
      </trkpt>
      <trkpt lat="44.32706" lon="6.85979">
        <ele>2041</ele>
        <time>2021-08-04T16:15:47Z</time>
      </trkpt>
      <trkpt lat="44.32705" lon="6.85962">
        <ele>2040</ele>
        <time>2021-08-04T16:15:49Z</time>
      </trkpt>
      <trkpt lat="44.32704" lon="6.8593">
        <ele>2038</ele>
        <time>2021-08-04T16:15:53Z</time>
      </trkpt>
      <trkpt lat="44.32709" lon="6.85882">
        <ele>2037</ele>
        <time>2021-08-04T16:16:00Z</time>
      </trkpt>
      <trkpt lat="44.32708" lon="6.85857">
        <ele>2035</ele>
        <time>2021-08-04T16:16:03Z</time>
      </trkpt>
      <trkpt lat="44.32697" lon="6.85792">
        <ele>2027</ele>
        <time>2021-08-04T16:16:11Z</time>
      </trkpt>
      <trkpt lat="44.32696" lon="6.85762">
        <ele>2025</ele>
        <time>2021-08-04T16:16:15Z</time>
      </trkpt>
      <trkpt lat="44.32696" lon="6.85735">
        <ele>2022</ele>
        <time>2021-08-04T16:16:19Z</time>
      </trkpt>
      <trkpt lat="44.327" lon="6.85713">
        <ele>2020</ele>
        <time>2021-08-04T16:16:21Z</time>
      </trkpt>
      <trkpt lat="44.32715" lon="6.85657">
        <ele>2017</ele>
        <time>2021-08-04T16:16:29Z</time>
      </trkpt>
      <trkpt lat="44.32723" lon="6.85638">
        <ele>2017</ele>
        <time>2021-08-04T16:16:32Z</time>
      </trkpt>
      <trkpt lat="44.3274" lon="6.85574">
        <ele>2015</ele>
        <time>2021-08-04T16:16:41Z</time>
      </trkpt>
      <trkpt lat="44.32746" lon="6.85545">
        <ele>2015</ele>
        <time>2021-08-04T16:16:44Z</time>
      </trkpt>
      <trkpt lat="44.32748" lon="6.85523">
        <ele>2014</ele>
        <time>2021-08-04T16:16:47Z</time>
      </trkpt>
      <trkpt lat="44.32747" lon="6.85509">
        <ele>2013</ele>
        <time>2021-08-04T16:16:49Z</time>
      </trkpt>
      <trkpt lat="44.32727" lon="6.85462">
        <ele>2006</ele>
        <time>2021-08-04T16:16:56Z</time>
      </trkpt>
      <trkpt lat="44.32716" lon="6.85416">
        <ele>2003</ele>
        <time>2021-08-04T16:17:02Z</time>
      </trkpt>
      <trkpt lat="44.32706" lon="6.85393">
        <ele>2002</ele>
        <time>2021-08-04T16:17:06Z</time>
      </trkpt>
      <trkpt lat="44.32672" lon="6.85341">
        <ele>1996</ele>
        <time>2021-08-04T16:17:15Z</time>
      </trkpt>
      <trkpt lat="44.32667" lon="6.85326">
        <ele>1995</ele>
        <time>2021-08-04T16:17:17Z</time>
      </trkpt>
      <trkpt lat="44.32666" lon="6.85293">
        <ele>1992</ele>
        <time>2021-08-04T16:17:21Z</time>
      </trkpt>
      <trkpt lat="44.32668" lon="6.85234">
        <ele>1989</ele>
        <time>2021-08-04T16:17:28Z</time>
      </trkpt>
      <trkpt lat="44.32664" lon="6.85226">
        <ele>1987</ele>
        <time>2021-08-04T16:17:30Z</time>
      </trkpt>
      <trkpt lat="44.32661" lon="6.85225">
        <ele>1986</ele>
        <time>2021-08-04T16:17:30Z</time>
      </trkpt>
      <trkpt lat="44.32659" lon="6.85226">
        <ele>1985</ele>
        <time>2021-08-04T16:17:31Z</time>
      </trkpt>
      <trkpt lat="44.32655" lon="6.85232">
        <ele>1984</ele>
        <time>2021-08-04T16:17:32Z</time>
      </trkpt>
      <trkpt lat="44.32651" lon="6.85263">
        <ele>1984</ele>
        <time>2021-08-04T16:17:36Z</time>
      </trkpt>
      <trkpt lat="44.3264" lon="6.85303">
        <ele>1983</ele>
        <time>2021-08-04T16:17:41Z</time>
      </trkpt>
      <trkpt lat="44.32627" lon="6.85326">
        <ele>1980</ele>
        <time>2021-08-04T16:17:45Z</time>
      </trkpt>
      <trkpt lat="44.32619" lon="6.85338">
        <ele>1977</ele>
        <time>2021-08-04T16:17:47Z</time>
      </trkpt>
      <trkpt lat="44.32615" lon="6.8535">
        <ele>1976</ele>
        <time>2021-08-04T16:17:49Z</time>
      </trkpt>
      <trkpt lat="44.32598" lon="6.85436">
        <ele>1971</ele>
        <time>2021-08-04T16:18:00Z</time>
      </trkpt>
      <trkpt lat="44.32597" lon="6.8545">
        <ele>1971</ele>
        <time>2021-08-04T16:18:02Z</time>
      </trkpt>
      <trkpt lat="44.32597" lon="6.85455">
        <ele>1970</ele>
        <time>2021-08-04T16:18:02Z</time>
      </trkpt>
      <trkpt lat="44.32603" lon="6.85488">
        <ele>1972</ele>
        <time>2021-08-04T16:18:07Z</time>
      </trkpt>
      <trkpt lat="44.32602" lon="6.85505">
        <ele>1972</ele>
        <time>2021-08-04T16:18:09Z</time>
      </trkpt>
      <trkpt lat="44.32599" lon="6.85514">
        <ele>1971</ele>
        <time>2021-08-04T16:18:10Z</time>
      </trkpt>
      <trkpt lat="44.32592" lon="6.85523">
        <ele>1970</ele>
        <time>2021-08-04T16:18:12Z</time>
      </trkpt>
      <trkpt lat="44.32548" lon="6.85557">
        <ele>1963</ele>
        <time>2021-08-04T16:18:21Z</time>
      </trkpt>
      <trkpt lat="44.32518" lon="6.85589">
        <ele>1960</ele>
        <time>2021-08-04T16:18:27Z</time>
      </trkpt>
      <trkpt lat="44.32509" lon="6.85604">
        <ele>1959</ele>
        <time>2021-08-04T16:18:30Z</time>
      </trkpt>
      <trkpt lat="44.32497" lon="6.85638">
        <ele>1958</ele>
        <time>2021-08-04T16:18:35Z</time>
      </trkpt>
      <trkpt lat="44.32475" lon="6.85678">
        <ele>1953</ele>
        <time>2021-08-04T16:18:41Z</time>
      </trkpt>
      <trkpt lat="44.32428" lon="6.85809">
        <ele>1941</ele>
        <time>2021-08-04T16:19:00Z</time>
      </trkpt>
      <trkpt lat="44.32426" lon="6.85821">
        <ele>1940</ele>
        <time>2021-08-04T16:19:01Z</time>
      </trkpt>
      <trkpt lat="44.32432" lon="6.85848">
        <ele>1943</ele>
        <time>2021-08-04T16:19:05Z</time>
      </trkpt>
      <trkpt lat="44.32432" lon="6.85874">
        <ele>1944</ele>
        <time>2021-08-04T16:19:08Z</time>
      </trkpt>
      <trkpt lat="44.32429" lon="6.85896">
        <ele>1943</ele>
        <time>2021-08-04T16:19:11Z</time>
      </trkpt>
      <trkpt lat="44.32426" lon="6.85905">
        <ele>1942</ele>
        <time>2021-08-04T16:19:12Z</time>
      </trkpt>
      <trkpt lat="44.32401" lon="6.85934">
        <ele>1935</ele>
        <time>2021-08-04T16:19:18Z</time>
      </trkpt>
      <trkpt lat="44.32374" lon="6.85979">
        <ele>1929</ele>
        <time>2021-08-04T16:19:26Z</time>
      </trkpt>
      <trkpt lat="44.32368" lon="6.85993">
        <ele>1928</ele>
        <time>2021-08-04T16:19:28Z</time>
      </trkpt>
      <trkpt lat="44.32362" lon="6.86034">
        <ele>1928</ele>
        <time>2021-08-04T16:19:33Z</time>
      </trkpt>
      <trkpt lat="44.32361" lon="6.86048">
        <ele>1928</ele>
        <time>2021-08-04T16:19:35Z</time>
      </trkpt>
      <trkpt lat="44.3236" lon="6.86064">
        <ele>1928</ele>
        <time>2021-08-04T16:19:37Z</time>
      </trkpt>
      <trkpt lat="44.3236" lon="6.86065">
        <ele>1928</ele>
        <time>2021-08-04T16:19:37Z</time>
      </trkpt>
      <trkpt lat="44.32359" lon="6.86076">
        <ele>1928</ele>
        <time>2021-08-04T16:19:39Z</time>
      </trkpt>
      <trkpt lat="44.3234" lon="6.86121">
        <ele>1925</ele>
        <time>2021-08-04T16:19:45Z</time>
      </trkpt>
      <trkpt lat="44.32325" lon="6.86144">
        <ele>1923</ele>
        <time>2021-08-04T16:19:49Z</time>
      </trkpt>
      <trkpt lat="44.32316" lon="6.86154">
        <ele>1922</ele>
        <time>2021-08-04T16:19:51Z</time>
      </trkpt>
      <trkpt lat="44.32306" lon="6.86162">
        <ele>1920</ele>
        <time>2021-08-04T16:19:53Z</time>
      </trkpt>
      <trkpt lat="44.32277" lon="6.86177">
        <ele>1914</ele>
        <time>2021-08-04T16:19:59Z</time>
      </trkpt>
      <trkpt lat="44.3227" lon="6.86185">
        <ele>1912</ele>
        <time>2021-08-04T16:20:00Z</time>
      </trkpt>
      <trkpt lat="44.3227" lon="6.86194">
        <ele>1912</ele>
        <time>2021-08-04T16:20:01Z</time>
      </trkpt>
      <trkpt lat="44.32273" lon="6.86203">
        <ele>1912</ele>
        <time>2021-08-04T16:20:03Z</time>
      </trkpt>
      <trkpt lat="44.32295" lon="6.86232">
        <ele>1917</ele>
        <time>2021-08-04T16:20:08Z</time>
      </trkpt>
      <trkpt lat="44.32301" lon="6.86246">
        <ele>1918</ele>
        <time>2021-08-04T16:20:10Z</time>
      </trkpt>
      <trkpt lat="44.32302" lon="6.8626">
        <ele>1919</ele>
        <time>2021-08-04T16:20:12Z</time>
      </trkpt>
      <trkpt lat="44.32299" lon="6.86276">
        <ele>1918</ele>
        <time>2021-08-04T16:20:14Z</time>
      </trkpt>
      <trkpt lat="44.32296" lon="6.86284">
        <ele>1917</ele>
        <time>2021-08-04T16:20:15Z</time>
      </trkpt>
      <trkpt lat="44.3228" lon="6.86314">
        <ele>1911</ele>
        <time>2021-08-04T16:20:20Z</time>
      </trkpt>
      <trkpt lat="44.32272" lon="6.86367">
        <ele>1909</ele>
        <time>2021-08-04T16:20:27Z</time>
      </trkpt>
      <trkpt lat="44.32269" lon="6.86377">
        <ele>1908</ele>
        <time>2021-08-04T16:20:28Z</time>
      </trkpt>
      <trkpt lat="44.32262" lon="6.86391">
        <ele>1904</ele>
        <time>2021-08-04T16:20:30Z</time>
      </trkpt>
      <trkpt lat="44.32256" lon="6.86396">
        <ele>1901</ele>
        <time>2021-08-04T16:20:32Z</time>
      </trkpt>
      <trkpt lat="44.3225" lon="6.86392">
        <ele>1898</ele>
        <time>2021-08-04T16:20:33Z</time>
      </trkpt>
      <trkpt lat="44.32251" lon="6.86345">
        <ele>1898</ele>
        <time>2021-08-04T16:20:39Z</time>
      </trkpt>
      <trkpt lat="44.32249" lon="6.86314">
        <ele>1899</ele>
        <time>2021-08-04T16:20:43Z</time>
      </trkpt>
      <trkpt lat="44.32246" lon="6.86289">
        <ele>1901</ele>
        <time>2021-08-04T16:20:46Z</time>
      </trkpt>
      <trkpt lat="44.32236" lon="6.86273">
        <ele>1899</ele>
        <time>2021-08-04T16:20:49Z</time>
      </trkpt>
      <trkpt lat="44.32214" lon="6.86256">
        <ele>1894</ele>
        <time>2021-08-04T16:20:53Z</time>
      </trkpt>
      <trkpt lat="44.32198" lon="6.8624">
        <ele>1891</ele>
        <time>2021-08-04T16:20:57Z</time>
      </trkpt>
      <trkpt lat="44.32178" lon="6.86204">
        <ele>1888</ele>
        <time>2021-08-04T16:21:03Z</time>
      </trkpt>
      <trkpt lat="44.32157" lon="6.8616">
        <ele>1882</ele>
        <time>2021-08-04T16:21:09Z</time>
      </trkpt>
      <trkpt lat="44.32156" lon="6.86154">
        <ele>1880</ele>
        <time>2021-08-04T16:21:10Z</time>
      </trkpt>
      <trkpt lat="44.32158" lon="6.86143">
        <ele>1879</ele>
        <time>2021-08-04T16:21:12Z</time>
      </trkpt>
      <trkpt lat="44.32161" lon="6.86137">
        <ele>1879</ele>
        <time>2021-08-04T16:21:12Z</time>
      </trkpt>
      <trkpt lat="44.32199" lon="6.86107">
        <ele>1883</ele>
        <time>2021-08-04T16:21:20Z</time>
      </trkpt>
      <trkpt lat="44.32208" lon="6.86094">
        <ele>1883</ele>
        <time>2021-08-04T16:21:23Z</time>
      </trkpt>
      <trkpt lat="44.32212" lon="6.86084">
        <ele>1882</ele>
        <time>2021-08-04T16:21:24Z</time>
      </trkpt>
      <trkpt lat="44.32218" lon="6.86061">
        <ele>1879</ele>
        <time>2021-08-04T16:21:27Z</time>
      </trkpt>
      <trkpt lat="44.32224" lon="6.86019">
        <ele>1874</ele>
        <time>2021-08-04T16:21:33Z</time>
      </trkpt>
      <trkpt lat="44.32228" lon="6.86004">
        <ele>1873</ele>
        <time>2021-08-04T16:21:35Z</time>
      </trkpt>
      <trkpt lat="44.32232" lon="6.85995">
        <ele>1873</ele>
        <time>2021-08-04T16:21:36Z</time>
      </trkpt>
      <trkpt lat="44.32242" lon="6.85985">
        <ele>1874</ele>
        <time>2021-08-04T16:21:38Z</time>
      </trkpt>
      <trkpt lat="44.32245" lon="6.85981">
        <ele>1874</ele>
        <time>2021-08-04T16:21:39Z</time>
      </trkpt>
      <trkpt lat="44.32265" lon="6.85936">
        <ele>1876</ele>
        <time>2021-08-04T16:21:46Z</time>
      </trkpt>
      <trkpt lat="44.32265" lon="6.85928">
        <ele>1876</ele>
        <time>2021-08-04T16:21:47Z</time>
      </trkpt>
      <trkpt lat="44.32263" lon="6.85923">
        <ele>1874</ele>
        <time>2021-08-04T16:21:47Z</time>
      </trkpt>
      <trkpt lat="44.32256" lon="6.85921">
        <ele>1871</ele>
        <time>2021-08-04T16:21:49Z</time>
      </trkpt>
      <trkpt lat="44.32251" lon="6.85925">
        <ele>1869</ele>
        <time>2021-08-04T16:21:50Z</time>
      </trkpt>
      <trkpt lat="44.32202" lon="6.85997">
        <ele>1865</ele>
        <time>2021-08-04T16:22:02Z</time>
      </trkpt>
      <trkpt lat="44.32189" lon="6.86007">
        <ele>1863</ele>
        <time>2021-08-04T16:22:05Z</time>
      </trkpt>
      <trkpt lat="44.32155" lon="6.86027">
        <ele>1858</ele>
        <time>2021-08-04T16:22:11Z</time>
      </trkpt>
      <trkpt lat="44.32147" lon="6.86034">
        <ele>1857</ele>
        <time>2021-08-04T16:22:13Z</time>
      </trkpt>
      <trkpt lat="44.3214" lon="6.8605">
        <ele>1857</ele>
        <time>2021-08-04T16:22:16Z</time>
      </trkpt>
      <trkpt lat="44.32124" lon="6.86107">
        <ele>1858</ele>
        <time>2021-08-04T16:22:23Z</time>
      </trkpt>
      <trkpt lat="44.32117" lon="6.86118">
        <ele>1856</ele>
        <time>2021-08-04T16:22:25Z</time>
      </trkpt>
      <trkpt lat="44.32096" lon="6.86135">
        <ele>1848</ele>
        <time>2021-08-04T16:22:30Z</time>
      </trkpt>
      <trkpt lat="44.32093" lon="6.8614">
        <ele>1847</ele>
        <time>2021-08-04T16:22:30Z</time>
      </trkpt>
      <trkpt lat="44.3209" lon="6.8615">
        <ele>1846</ele>
        <time>2021-08-04T16:22:32Z</time>
      </trkpt>
      <trkpt lat="44.32089" lon="6.8616">
        <ele>1847</ele>
        <time>2021-08-04T16:22:33Z</time>
      </trkpt>
      <trkpt lat="44.32097" lon="6.86216">
        <ele>1844</ele>
        <time>2021-08-04T16:22:40Z</time>
      </trkpt>
      <trkpt lat="44.32099" lon="6.86284">
        <ele>1835</ele>
        <time>2021-08-04T16:22:49Z</time>
      </trkpt>
      <trkpt lat="44.32109" lon="6.86388">
        <ele>1827</ele>
        <time>2021-08-04T16:23:02Z</time>
      </trkpt>
      <trkpt lat="44.32108" lon="6.86433">
        <ele>1825</ele>
        <time>2021-08-04T16:23:08Z</time>
      </trkpt>
      <trkpt lat="44.32096" lon="6.86485">
        <ele>1818</ele>
        <time>2021-08-04T16:23:15Z</time>
      </trkpt>
      <trkpt lat="44.32099" lon="6.86533">
        <ele>1824</ele>
        <time>2021-08-04T16:23:21Z</time>
      </trkpt>
      <trkpt lat="44.32097" lon="6.86541">
        <ele>1824</ele>
        <time>2021-08-04T16:23:22Z</time>
      </trkpt>
      <trkpt lat="44.32096" lon="6.86547">
        <ele>1824</ele>
        <time>2021-08-04T16:23:23Z</time>
      </trkpt>
      <trkpt lat="44.32081" lon="6.86563">
        <ele>1817</ele>
        <time>2021-08-04T16:23:26Z</time>
      </trkpt>
      <trkpt lat="44.32077" lon="6.8657">
        <ele>1816</ele>
        <time>2021-08-04T16:23:28Z</time>
      </trkpt>
      <trkpt lat="44.32048" lon="6.86644">
        <ele>1810</ele>
        <time>2021-08-04T16:23:38Z</time>
      </trkpt>
      <trkpt lat="44.32033" lon="6.86709">
        <ele>1807</ele>
        <time>2021-08-04T16:23:47Z</time>
      </trkpt>
      <trkpt lat="44.32022" lon="6.86782">
        <ele>1804</ele>
        <time>2021-08-04T16:23:56Z</time>
      </trkpt>
      <trkpt lat="44.32019" lon="6.86835">
        <ele>1805</ele>
        <time>2021-08-04T16:24:03Z</time>
      </trkpt>
      <trkpt lat="44.32015" lon="6.86842">
        <ele>1802</ele>
        <time>2021-08-04T16:24:04Z</time>
      </trkpt>
      <trkpt lat="44.32012" lon="6.86843">
        <ele>1800</ele>
        <time>2021-08-04T16:24:05Z</time>
      </trkpt>
      <trkpt lat="44.32009" lon="6.86841">
        <ele>1799</ele>
        <time>2021-08-04T16:24:05Z</time>
      </trkpt>
      <trkpt lat="44.32005" lon="6.86834">
        <ele>1796</ele>
        <time>2021-08-04T16:24:07Z</time>
      </trkpt>
      <trkpt lat="44.32005" lon="6.86827">
        <ele>1796</ele>
        <time>2021-08-04T16:24:08Z</time>
      </trkpt>
      <trkpt lat="44.32008" lon="6.86791">
        <ele>1796</ele>
        <time>2021-08-04T16:24:12Z</time>
      </trkpt>
      <trkpt lat="44.32004" lon="6.86696">
        <ele>1791</ele>
        <time>2021-08-04T16:24:24Z</time>
      </trkpt>
      <trkpt lat="44.32007" lon="6.86636">
        <ele>1790</ele>
        <time>2021-08-04T16:24:32Z</time>
      </trkpt>
      <trkpt lat="44.32006" lon="6.86632">
        <ele>1789</ele>
        <time>2021-08-04T16:24:32Z</time>
      </trkpt>
      <trkpt lat="44.32001" lon="6.8663">
        <ele>1786</ele>
        <time>2021-08-04T16:24:33Z</time>
      </trkpt>
      <trkpt lat="44.31996" lon="6.86634">
        <ele>1787</ele>
        <time>2021-08-04T16:24:34Z</time>
      </trkpt>
      <trkpt lat="44.31993" lon="6.86639">
        <ele>1788</ele>
        <time>2021-08-04T16:24:35Z</time>
      </trkpt>
      <trkpt lat="44.31985" lon="6.86721">
        <ele>1790</ele>
        <time>2021-08-04T16:24:46Z</time>
      </trkpt>
      <trkpt lat="44.31983" lon="6.86763">
        <ele>1789</ele>
        <time>2021-08-04T16:24:51Z</time>
      </trkpt>
      <trkpt lat="44.31968" lon="6.86838">
        <ele>1785</ele>
        <time>2021-08-04T16:25:01Z</time>
      </trkpt>
      <trkpt lat="44.3197" lon="6.86904">
        <ele>1782</ele>
        <time>2021-08-04T16:25:09Z</time>
      </trkpt>
      <trkpt lat="44.31963" lon="6.86958">
        <ele>1777</ele>
        <time>2021-08-04T16:25:16Z</time>
      </trkpt>
      <trkpt lat="44.31959" lon="6.87021">
        <ele>1773</ele>
        <time>2021-08-04T16:25:24Z</time>
      </trkpt>
      <trkpt lat="44.31958" lon="6.87108">
        <ele>1770</ele>
        <time>2021-08-04T16:25:36Z</time>
      </trkpt>
      <trkpt lat="44.31969" lon="6.87182">
        <ele>1772</ele>
        <time>2021-08-04T16:25:45Z</time>
      </trkpt>
      <trkpt lat="44.31969" lon="6.87206">
        <ele>1770</ele>
        <time>2021-08-04T16:25:48Z</time>
      </trkpt>
      <trkpt lat="44.32" lon="6.87405">
        <ele>1752</ele>
        <time>2021-08-04T16:26:14Z</time>
      </trkpt>
      <trkpt lat="44.32003" lon="6.87443">
        <ele>1747</ele>
        <time>2021-08-04T16:26:19Z</time>
      </trkpt>
      <trkpt lat="44.32009" lon="6.87481">
        <ele>1743</ele>
        <time>2021-08-04T16:26:24Z</time>
      </trkpt>
      <trkpt lat="44.32033" lon="6.8753">
        <ele>1747</ele>
        <time>2021-08-04T16:26:32Z</time>
      </trkpt>
      <trkpt lat="44.32051" lon="6.8761">
        <ele>1740</ele>
        <time>2021-08-04T16:26:42Z</time>
      </trkpt>
      <trkpt lat="44.32061" lon="6.87632">
        <ele>1740</ele>
        <time>2021-08-04T16:26:46Z</time>
      </trkpt>
      <trkpt lat="44.32067" lon="6.87651">
        <ele>1739</ele>
        <time>2021-08-04T16:26:48Z</time>
      </trkpt>
      <trkpt lat="44.32071" lon="6.87694">
        <ele>1732</ele>
        <time>2021-08-04T16:26:54Z</time>
      </trkpt>
      <trkpt lat="44.32075" lon="6.87712">
        <ele>1730</ele>
        <time>2021-08-04T16:26:56Z</time>
      </trkpt>
      <trkpt lat="44.32085" lon="6.87731">
        <ele>1728</ele>
        <time>2021-08-04T16:26:59Z</time>
      </trkpt>
      <trkpt lat="44.32095" lon="6.87744">
        <ele>1731</ele>
        <time>2021-08-04T16:27:02Z</time>
      </trkpt>
      <trkpt lat="44.32104" lon="6.87763">
        <ele>1732</ele>
        <time>2021-08-04T16:27:04Z</time>
      </trkpt>
      <trkpt lat="44.32114" lon="6.87797">
        <ele>1730</ele>
        <time>2021-08-04T16:27:09Z</time>
      </trkpt>
      <trkpt lat="44.3212" lon="6.87823">
        <ele>1728</ele>
        <time>2021-08-04T16:27:13Z</time>
      </trkpt>
      <trkpt lat="44.32143" lon="6.87882">
        <ele>1726</ele>
        <time>2021-08-04T16:27:21Z</time>
      </trkpt>
      <trkpt lat="44.3215" lon="6.87906">
        <ele>1723</ele>
        <time>2021-08-04T16:27:24Z</time>
      </trkpt>
      <trkpt lat="44.32155" lon="6.87943">
        <ele>1717</ele>
        <time>2021-08-04T16:27:29Z</time>
      </trkpt>
      <trkpt lat="44.32162" lon="6.87975">
        <ele>1712</ele>
        <time>2021-08-04T16:27:33Z</time>
      </trkpt>
      <trkpt lat="44.32168" lon="6.87994">
        <ele>1710</ele>
        <time>2021-08-04T16:27:36Z</time>
      </trkpt>
      <trkpt lat="44.32181" lon="6.88021">
        <ele>1711</ele>
        <time>2021-08-04T16:27:40Z</time>
      </trkpt>
      <trkpt lat="44.32188" lon="6.88041">
        <ele>1710</ele>
        <time>2021-08-04T16:27:43Z</time>
      </trkpt>
      <trkpt lat="44.32193" lon="6.88077">
        <ele>1702</ele>
        <time>2021-08-04T16:27:48Z</time>
      </trkpt>
      <trkpt lat="44.32201" lon="6.88111">
        <ele>1698</ele>
        <time>2021-08-04T16:27:52Z</time>
      </trkpt>
      <trkpt lat="44.32233" lon="6.88197">
        <ele>1693</ele>
        <time>2021-08-04T16:28:05Z</time>
      </trkpt>
      <trkpt lat="44.32247" lon="6.88228">
        <ele>1690</ele>
        <time>2021-08-04T16:28:09Z</time>
      </trkpt>
      <trkpt lat="44.3226" lon="6.88243">
        <ele>1690</ele>
        <time>2021-08-04T16:28:12Z</time>
      </trkpt>
      <trkpt lat="44.32284" lon="6.88258">
        <ele>1693</ele>
        <time>2021-08-04T16:28:17Z</time>
      </trkpt>
      <trkpt lat="44.32302" lon="6.88278">
        <ele>1692</ele>
        <time>2021-08-04T16:28:21Z</time>
      </trkpt>
      <trkpt lat="44.32327" lon="6.88314">
        <ele>1686</ele>
        <time>2021-08-04T16:28:27Z</time>
      </trkpt>
      <trkpt lat="44.32352" lon="6.88347">
        <ele>1684</ele>
        <time>2021-08-04T16:28:34Z</time>
      </trkpt>
      <trkpt lat="44.32354" lon="6.8835">
        <ele>1684</ele>
        <time>2021-08-04T16:28:34Z</time>
      </trkpt>
      <trkpt lat="44.32355" lon="6.88362">
        <ele>1683</ele>
        <time>2021-08-04T16:28:36Z</time>
      </trkpt>
      <trkpt lat="44.32358" lon="6.88405">
        <ele>1679</ele>
        <time>2021-08-04T16:28:41Z</time>
      </trkpt>
      <trkpt lat="44.32357" lon="6.88422">
        <ele>1678</ele>
        <time>2021-08-04T16:28:43Z</time>
      </trkpt>
      <trkpt lat="44.32349" lon="6.88445">
        <ele>1678</ele>
        <time>2021-08-04T16:28:47Z</time>
      </trkpt>
      <trkpt lat="44.32334" lon="6.88465">
        <ele>1674</ele>
        <time>2021-08-04T16:28:50Z</time>
      </trkpt>
      <trkpt lat="44.32207" lon="6.88653">
        <ele>1661</ele>
        <time>2021-08-04T16:29:23Z</time>
      </trkpt>
      <trkpt lat="44.32184" lon="6.8869">
        <ele>1661</ele>
        <time>2021-08-04T16:29:29Z</time>
      </trkpt>
      <trkpt lat="44.32162" lon="6.88737">
        <ele>1663</ele>
        <time>2021-08-04T16:29:37Z</time>
      </trkpt>
      <trkpt lat="44.32121" lon="6.88847">
        <ele>1662</ele>
        <time>2021-08-04T16:29:52Z</time>
      </trkpt>
      <trkpt lat="44.32066" lon="6.88972">
        <ele>1652</ele>
        <time>2021-08-04T16:30:11Z</time>
      </trkpt>
      <trkpt lat="44.32063" lon="6.88988">
        <ele>1652</ele>
        <time>2021-08-04T16:30:13Z</time>
      </trkpt>
      <trkpt lat="44.32061" lon="6.89051">
        <ele>1651</ele>
        <time>2021-08-04T16:30:21Z</time>
      </trkpt>
      <trkpt lat="44.32033" lon="6.8927">
        <ele>1651</ele>
        <time>2021-08-04T16:30:50Z</time>
      </trkpt>
      <trkpt lat="44.32031" lon="6.8928">
        <ele>1651</ele>
        <time>2021-08-04T16:30:51Z</time>
      </trkpt>
      <trkpt lat="44.32017" lon="6.89315">
        <ele>1647</ele>
        <time>2021-08-04T16:30:56Z</time>
      </trkpt>
      <trkpt lat="44.31994" lon="6.89372">
        <ele>1643</ele>
        <time>2021-08-04T16:31:04Z</time>
      </trkpt>
      <trkpt lat="44.31987" lon="6.89382">
        <ele>1642</ele>
        <time>2021-08-04T16:31:06Z</time>
      </trkpt>
      <trkpt lat="44.31965" lon="6.89402">
        <ele>1633</ele>
        <time>2021-08-04T16:31:11Z</time>
      </trkpt>
      <trkpt lat="44.3196" lon="6.89415">
        <ele>1632</ele>
        <time>2021-08-04T16:31:13Z</time>
      </trkpt>
      <trkpt lat="44.31952" lon="6.89454">
        <ele>1635</ele>
        <time>2021-08-04T16:31:18Z</time>
      </trkpt>
      <trkpt lat="44.31948" lon="6.89466">
        <ele>1634</ele>
        <time>2021-08-04T16:31:19Z</time>
      </trkpt>
      <trkpt lat="44.31942" lon="6.89478">
        <ele>1632</ele>
        <time>2021-08-04T16:31:21Z</time>
      </trkpt>
      <trkpt lat="44.31913" lon="6.89529">
        <ele>1621</ele>
        <time>2021-08-04T16:31:30Z</time>
      </trkpt>
      <trkpt lat="44.31902" lon="6.89553">
        <ele>1621</ele>
        <time>2021-08-04T16:31:33Z</time>
      </trkpt>
      <trkpt lat="44.3189" lon="6.89594">
        <ele>1622</ele>
        <time>2021-08-04T16:31:39Z</time>
      </trkpt>
      <trkpt lat="44.31872" lon="6.8969">
        <ele>1626</ele>
        <time>2021-08-04T16:31:52Z</time>
      </trkpt>
      <trkpt lat="44.31868" lon="6.89704">
        <ele>1626</ele>
        <time>2021-08-04T16:31:53Z</time>
      </trkpt>
      <trkpt lat="44.31856" lon="6.89724">
        <ele>1623</ele>
        <time>2021-08-04T16:31:57Z</time>
      </trkpt>
      <trkpt lat="44.31809" lon="6.89783">
        <ele>1611</ele>
        <time>2021-08-04T16:32:08Z</time>
      </trkpt>
      <trkpt lat="44.31791" lon="6.89817">
        <ele>1609</ele>
        <time>2021-08-04T16:32:13Z</time>
      </trkpt>
      <trkpt lat="44.31764" lon="6.8988">
        <ele>1606</ele>
        <time>2021-08-04T16:32:23Z</time>
      </trkpt>
      <trkpt lat="44.31724" lon="6.89932">
        <ele>1601</ele>
        <time>2021-08-04T16:32:32Z</time>
      </trkpt>
      <trkpt lat="44.31705" lon="6.89955">
        <ele>1601</ele>
        <time>2021-08-04T16:32:37Z</time>
      </trkpt>
      <trkpt lat="44.31641" lon="6.9">
        <ele>1591</ele>
        <time>2021-08-04T16:32:50Z</time>
      </trkpt>
      <trkpt lat="44.31618" lon="6.90023">
        <ele>1594</ele>
        <time>2021-08-04T16:32:55Z</time>
      </trkpt>
      <trkpt lat="44.31596" lon="6.90038">
        <ele>1594</ele>
        <time>2021-08-04T16:32:59Z</time>
      </trkpt>
      <trkpt lat="44.31564" lon="6.9005">
        <ele>1593</ele>
        <time>2021-08-04T16:33:05Z</time>
      </trkpt>
      <trkpt lat="44.31515" lon="6.90059">
        <ele>1589</ele>
        <time>2021-08-04T16:33:14Z</time>
      </trkpt>
      <trkpt lat="44.31475" lon="6.90071">
        <ele>1587</ele>
        <time>2021-08-04T16:33:21Z</time>
      </trkpt>
      <trkpt lat="44.31448" lon="6.90087">
        <ele>1588</ele>
        <time>2021-08-04T16:33:26Z</time>
      </trkpt>
      <trkpt lat="44.31428" lon="6.90093">
        <ele>1588</ele>
        <time>2021-08-04T16:33:30Z</time>
      </trkpt>
      <trkpt lat="44.31401" lon="6.90094">
        <ele>1586</ele>
        <time>2021-08-04T16:33:35Z</time>
      </trkpt>
      <trkpt lat="44.31369" lon="6.90089">
        <ele>1583</ele>
        <time>2021-08-04T16:33:40Z</time>
      </trkpt>
      <trkpt lat="44.31297" lon="6.90064">
        <ele>1575</ele>
        <time>2021-08-04T16:33:54Z</time>
      </trkpt>
      <trkpt lat="44.31227" lon="6.90045">
        <ele>1569</ele>
        <time>2021-08-04T16:34:06Z</time>
      </trkpt>
      <trkpt lat="44.31196" lon="6.90067">
        <ele>1569</ele>
        <time>2021-08-04T16:34:12Z</time>
      </trkpt>
      <trkpt lat="44.31159" lon="6.90071">
        <ele>1564</ele>
        <time>2021-08-04T16:34:19Z</time>
      </trkpt>
      <trkpt lat="44.31128" lon="6.90081">
        <ele>1559</ele>
        <time>2021-08-04T16:34:25Z</time>
      </trkpt>
      <trkpt lat="44.31108" lon="6.90095">
        <ele>1559</ele>
        <time>2021-08-04T16:34:29Z</time>
      </trkpt>
      <trkpt lat="44.31092" lon="6.90098">
        <ele>1557</ele>
        <time>2021-08-04T16:34:32Z</time>
      </trkpt>
      <trkpt lat="44.31076" lon="6.90096">
        <ele>1553</ele>
        <time>2021-08-04T16:34:34Z</time>
      </trkpt>
      <trkpt lat="44.31052" lon="6.90097">
        <ele>1553</ele>
        <time>2021-08-04T16:34:39Z</time>
      </trkpt>
      <trkpt lat="44.3101" lon="6.90112">
        <ele>1554</ele>
        <time>2021-08-04T16:34:46Z</time>
      </trkpt>
      <trkpt lat="44.30979" lon="6.90133">
        <ele>1554</ele>
        <time>2021-08-04T16:34:53Z</time>
      </trkpt>
      <trkpt lat="44.3094" lon="6.90169">
        <ele>1547</ele>
        <time>2021-08-04T16:35:01Z</time>
      </trkpt>
      <trkpt lat="44.30909" lon="6.90193">
        <ele>1549</ele>
        <time>2021-08-04T16:35:07Z</time>
      </trkpt>
      <trkpt lat="44.30884" lon="6.90203">
        <ele>1547</ele>
        <time>2021-08-04T16:35:12Z</time>
      </trkpt>
      <trkpt lat="44.30852" lon="6.90207">
        <ele>1542</ele>
        <time>2021-08-04T16:35:18Z</time>
      </trkpt>
      <trkpt lat="44.30794" lon="6.90236">
        <ele>1531</ele>
        <time>2021-08-04T16:35:28Z</time>
      </trkpt>
      <trkpt lat="44.30764" lon="6.90244">
        <ele>1525</ele>
        <time>2021-08-04T16:35:34Z</time>
      </trkpt>
      <trkpt lat="44.30699" lon="6.90281">
        <ele>1521</ele>
        <time>2021-08-04T16:35:46Z</time>
      </trkpt>
      <trkpt lat="44.30663" lon="6.90292">
        <ele>1516</ele>
        <time>2021-08-04T16:35:53Z</time>
      </trkpt>
      <trkpt lat="44.30641" lon="6.90302">
        <ele>1512</ele>
        <time>2021-08-04T16:35:57Z</time>
      </trkpt>
      <trkpt lat="44.30618" lon="6.90332">
        <ele>1507</ele>
        <time>2021-08-04T16:36:03Z</time>
      </trkpt>
      <trkpt lat="44.3061" lon="6.90353">
        <ele>1507</ele>
        <time>2021-08-04T16:36:06Z</time>
      </trkpt>
      <trkpt lat="44.30571" lon="6.90496">
        <ele>1517</ele>
        <time>2021-08-04T16:36:25Z</time>
      </trkpt>
      <trkpt lat="44.30567" lon="6.90501">
        <ele>1518</ele>
        <time>2021-08-04T16:36:26Z</time>
      </trkpt>
      <trkpt lat="44.3056" lon="6.90501">
        <ele>1517</ele>
        <time>2021-08-04T16:36:27Z</time>
      </trkpt>
      <trkpt lat="44.30559" lon="6.90493">
        <ele>1516</ele>
        <time>2021-08-04T16:36:28Z</time>
      </trkpt>
      <trkpt lat="44.30564" lon="6.9047">
        <ele>1511</ele>
        <time>2021-08-04T16:36:31Z</time>
      </trkpt>
      <trkpt lat="44.30567" lon="6.90435">
        <ele>1505</ele>
        <time>2021-08-04T16:36:36Z</time>
      </trkpt>
      <trkpt lat="44.30567" lon="6.9039">
        <ele>1499</ele>
        <time>2021-08-04T16:36:42Z</time>
      </trkpt>
      <trkpt lat="44.3057" lon="6.90365">
        <ele>1496</ele>
        <time>2021-08-04T16:36:45Z</time>
      </trkpt>
      <trkpt lat="44.30575" lon="6.90342">
        <ele>1495</ele>
        <time>2021-08-04T16:36:48Z</time>
      </trkpt>
      <trkpt lat="44.30575" lon="6.90335">
        <ele>1494</ele>
        <time>2021-08-04T16:36:49Z</time>
      </trkpt>
      <trkpt lat="44.30573" lon="6.90332">
        <ele>1494</ele>
        <time>2021-08-04T16:36:49Z</time>
      </trkpt>
      <trkpt lat="44.30568" lon="6.90331">
        <ele>1493</ele>
        <time>2021-08-04T16:36:50Z</time>
      </trkpt>
      <trkpt lat="44.30557" lon="6.90359">
        <ele>1492</ele>
        <time>2021-08-04T16:36:54Z</time>
      </trkpt>
      <trkpt lat="44.30547" lon="6.90395">
        <ele>1494</ele>
        <time>2021-08-04T16:36:59Z</time>
      </trkpt>
      <trkpt lat="44.30547" lon="6.9043">
        <ele>1500</ele>
        <time>2021-08-04T16:37:04Z</time>
      </trkpt>
      <trkpt lat="44.30544" lon="6.90449">
        <ele>1504</ele>
        <time>2021-08-04T16:37:06Z</time>
      </trkpt>
      <trkpt lat="44.30537" lon="6.9046">
        <ele>1506</ele>
        <time>2021-08-04T16:37:08Z</time>
      </trkpt>
      <trkpt lat="44.30526" lon="6.90464">
        <ele>1505</ele>
        <time>2021-08-04T16:37:10Z</time>
      </trkpt>
      <trkpt lat="44.30508" lon="6.90453">
        <ele>1499</ele>
        <time>2021-08-04T16:37:14Z</time>
      </trkpt>
      <trkpt lat="44.30475" lon="6.90413">
        <ele>1488</ele>
        <time>2021-08-04T16:37:21Z</time>
      </trkpt>
      <trkpt lat="44.30435" lon="6.90375">
        <ele>1482</ele>
        <time>2021-08-04T16:37:30Z</time>
      </trkpt>
      <trkpt lat="44.30401" lon="6.9035">
        <ele>1476</ele>
        <time>2021-08-04T16:37:37Z</time>
      </trkpt>
      <trkpt lat="44.30346" lon="6.90331">
        <ele>1472</ele>
        <time>2021-08-04T16:37:47Z</time>
      </trkpt>
      <trkpt lat="44.30313" lon="6.90325">
        <ele>1471</ele>
        <time>2021-08-04T16:37:53Z</time>
      </trkpt>
      <trkpt lat="44.30219" lon="6.90339">
        <ele>1465</ele>
        <time>2021-08-04T16:38:10Z</time>
      </trkpt>
      <trkpt lat="44.30181" lon="6.90337">
        <ele>1460</ele>
        <time>2021-08-04T16:38:16Z</time>
      </trkpt>
      <trkpt lat="44.30156" lon="6.90328">
        <ele>1458</ele>
        <time>2021-08-04T16:38:21Z</time>
      </trkpt>
      <trkpt lat="44.30143" lon="6.90319">
        <ele>1459</ele>
        <time>2021-08-04T16:38:24Z</time>
      </trkpt>
      <trkpt lat="44.30134" lon="6.903">
        <ele>1458</ele>
        <time>2021-08-04T16:38:27Z</time>
      </trkpt>
      <trkpt lat="44.30125" lon="6.90271">
        <ele>1454</ele>
        <time>2021-08-04T16:38:31Z</time>
      </trkpt>
      <trkpt lat="44.30122" lon="6.9026">
        <ele>1452</ele>
        <time>2021-08-04T16:38:32Z</time>
      </trkpt>
      <trkpt lat="44.30107" lon="6.90244">
        <ele>1452</ele>
        <time>2021-08-04T16:38:35Z</time>
      </trkpt>
      <trkpt lat="44.30077" lon="6.90234">
        <ele>1454</ele>
        <time>2021-08-04T16:38:41Z</time>
      </trkpt>
      <trkpt lat="44.30062" lon="6.90223">
        <ele>1456</ele>
        <time>2021-08-04T16:38:44Z</time>
      </trkpt>
      <trkpt lat="44.3004" lon="6.90214">
        <ele>1455</ele>
        <time>2021-08-04T16:38:48Z</time>
      </trkpt>
      <trkpt lat="44.29991" lon="6.90181">
        <ele>1456</ele>
        <time>2021-08-04T16:38:58Z</time>
      </trkpt>
      <trkpt lat="44.2998" lon="6.90178">
        <ele>1455</ele>
        <time>2021-08-04T16:39:00Z</time>
      </trkpt>
      <trkpt lat="44.29923" lon="6.90194">
        <ele>1445</ele>
        <time>2021-08-04T16:39:10Z</time>
      </trkpt>
      <trkpt lat="44.29912" lon="6.90192">
        <ele>1444</ele>
        <time>2021-08-04T16:39:12Z</time>
      </trkpt>
      <trkpt lat="44.29871" lon="6.90172">
        <ele>1442</ele>
        <time>2021-08-04T16:39:20Z</time>
      </trkpt>
      <trkpt lat="44.29837" lon="6.90166">
        <ele>1438</ele>
        <time>2021-08-04T16:39:26Z</time>
      </trkpt>
      <trkpt lat="44.29781" lon="6.90153">
        <ele>1444</ele>
        <time>2021-08-04T16:39:36Z</time>
      </trkpt>
      <trkpt lat="44.29752" lon="6.90157">
        <ele>1440</ele>
        <time>2021-08-04T16:39:41Z</time>
      </trkpt>
      <trkpt lat="44.29734" lon="6.90153">
        <ele>1442</ele>
        <time>2021-08-04T16:39:44Z</time>
      </trkpt>
      <trkpt lat="44.29696" lon="6.90155">
        <ele>1439</ele>
        <time>2021-08-04T16:39:51Z</time>
      </trkpt>
      <trkpt lat="44.29657" lon="6.90168">
        <ele>1430</ele>
        <time>2021-08-04T16:39:58Z</time>
      </trkpt>
      <trkpt lat="44.29641" lon="6.90162">
        <ele>1436</ele>
        <time>2021-08-04T16:40:01Z</time>
      </trkpt>
      <trkpt lat="44.29623" lon="6.90159">
        <ele>1441</ele>
        <time>2021-08-04T16:40:04Z</time>
      </trkpt>
      <trkpt lat="44.29593" lon="6.90169">
        <ele>1437</ele>
        <time>2021-08-04T16:40:10Z</time>
      </trkpt>
      <trkpt lat="44.29564" lon="6.90162">
        <ele>1445</ele>
        <time>2021-08-04T16:40:15Z</time>
      </trkpt>
      <trkpt lat="44.29547" lon="6.9017">
        <ele>1440</ele>
        <time>2021-08-04T16:40:18Z</time>
      </trkpt>
      <trkpt lat="44.29511" lon="6.90177">
        <ele>1440</ele>
        <time>2021-08-04T16:40:25Z</time>
      </trkpt>
      <trkpt lat="44.29467" lon="6.90169">
        <ele>1437</ele>
        <time>2021-08-04T16:40:33Z</time>
      </trkpt>
      <trkpt lat="44.29399" lon="6.90169">
        <ele>1422</ele>
        <time>2021-08-04T16:40:45Z</time>
      </trkpt>
      <trkpt lat="44.29337" lon="6.90166">
        <ele>1410</ele>
        <time>2021-08-04T16:40:56Z</time>
      </trkpt>
      <trkpt lat="44.29293" lon="6.90151">
        <ele>1409</ele>
        <time>2021-08-04T16:41:04Z</time>
      </trkpt>
      <trkpt lat="44.29257" lon="6.90132">
        <ele>1411</ele>
        <time>2021-08-04T16:41:11Z</time>
      </trkpt>
      <trkpt lat="44.29231" lon="6.90133">
        <ele>1404</ele>
        <time>2021-08-04T16:41:15Z</time>
      </trkpt>
      <trkpt lat="44.29221" lon="6.90111">
        <ele>1412</ele>
        <time>2021-08-04T16:41:19Z</time>
      </trkpt>
      <trkpt lat="44.29213" lon="6.90104">
        <ele>1413</ele>
        <time>2021-08-04T16:41:20Z</time>
      </trkpt>
      <trkpt lat="44.29155" lon="6.90111">
        <ele>1393</ele>
        <time>2021-08-04T16:41:31Z</time>
      </trkpt>
      <trkpt lat="44.29129" lon="6.90108">
        <ele>1387</ele>
        <time>2021-08-04T16:41:35Z</time>
      </trkpt>
      <trkpt lat="44.2911" lon="6.90098">
        <ele>1383</ele>
        <time>2021-08-04T16:41:39Z</time>
      </trkpt>
      <trkpt lat="44.29078" lon="6.90064">
        <ele>1380</ele>
        <time>2021-08-04T16:41:46Z</time>
      </trkpt>
      <trkpt lat="44.29073" lon="6.90046">
        <ele>1384</ele>
        <time>2021-08-04T16:41:49Z</time>
      </trkpt>
      <trkpt lat="44.29072" lon="6.90015">
        <ele>1394</ele>
        <time>2021-08-04T16:41:53Z</time>
      </trkpt>
      <trkpt lat="44.29067" lon="6.89998">
        <ele>1398</ele>
        <time>2021-08-04T16:41:55Z</time>
      </trkpt>
      <trkpt lat="44.29057" lon="6.89985">
        <ele>1401</ele>
        <time>2021-08-04T16:41:57Z</time>
      </trkpt>
      <trkpt lat="44.29046" lon="6.89984">
        <ele>1398</ele>
        <time>2021-08-04T16:41:59Z</time>
      </trkpt>
      <trkpt lat="44.2901" lon="6.89999">
        <ele>1380</ele>
        <time>2021-08-04T16:42:06Z</time>
      </trkpt>
      <trkpt lat="44.28983" lon="6.89998">
        <ele>1373</ele>
        <time>2021-08-04T16:42:11Z</time>
      </trkpt>
      <trkpt lat="44.28968" lon="6.89984">
        <ele>1377</ele>
        <time>2021-08-04T16:42:14Z</time>
      </trkpt>
      <trkpt lat="44.28938" lon="6.89964">
        <ele>1380</ele>
        <time>2021-08-04T16:42:20Z</time>
      </trkpt>
      <trkpt lat="44.28914" lon="6.89952">
        <ele>1381</ele>
        <time>2021-08-04T16:42:24Z</time>
      </trkpt>
      <trkpt lat="44.28895" lon="6.8994">
        <ele>1384</ele>
        <time>2021-08-04T16:42:28Z</time>
      </trkpt>
      <trkpt lat="44.28882" lon="6.8994">
        <ele>1382</ele>
        <time>2021-08-04T16:42:30Z</time>
      </trkpt>
      <trkpt lat="44.28855" lon="6.89955">
        <ele>1372</ele>
        <time>2021-08-04T16:42:36Z</time>
      </trkpt>
      <trkpt lat="44.28836" lon="6.89953">
        <ele>1370</ele>
        <time>2021-08-04T16:42:39Z</time>
      </trkpt>
      <trkpt lat="44.28816" lon="6.89947">
        <ele>1370</ele>
        <time>2021-08-04T16:42:43Z</time>
      </trkpt>
      <trkpt lat="44.28798" lon="6.89929">
        <ele>1373</ele>
        <time>2021-08-04T16:42:47Z</time>
      </trkpt>
      <trkpt lat="44.28782" lon="6.89929">
        <ele>1370</ele>
        <time>2021-08-04T16:42:49Z</time>
      </trkpt>
      <trkpt lat="44.28761" lon="6.89944">
        <ele>1364</ele>
        <time>2021-08-04T16:42:54Z</time>
      </trkpt>
      <trkpt lat="44.28733" lon="6.89946">
        <ele>1359</ele>
        <time>2021-08-04T16:42:59Z</time>
      </trkpt>
      <trkpt lat="44.28721" lon="6.8994">
        <ele>1358</ele>
        <time>2021-08-04T16:43:01Z</time>
      </trkpt>
      <trkpt lat="44.28712" lon="6.8993">
        <ele>1358</ele>
        <time>2021-08-04T16:43:03Z</time>
      </trkpt>
      <trkpt lat="44.28703" lon="6.89925">
        <ele>1357</ele>
        <time>2021-08-04T16:43:05Z</time>
      </trkpt>
      <trkpt lat="44.2869" lon="6.89922">
        <ele>1355</ele>
        <time>2021-08-04T16:43:07Z</time>
      </trkpt>
      <trkpt lat="44.28682" lon="6.89929">
        <ele>1353</ele>
        <time>2021-08-04T16:43:09Z</time>
      </trkpt>
      <trkpt lat="44.28678" lon="6.8995">
        <ele>1348</ele>
        <time>2021-08-04T16:43:11Z</time>
      </trkpt>
      <trkpt lat="44.28668" lon="6.90007">
        <ele>1341</ele>
        <time>2021-08-04T16:43:19Z</time>
      </trkpt>
      <trkpt lat="44.28662" lon="6.90023">
        <ele>1348</ele>
        <time>2021-08-04T16:43:21Z</time>
      </trkpt>
      <trkpt lat="44.28654" lon="6.90036">
        <ele>1353</ele>
        <time>2021-08-04T16:43:23Z</time>
      </trkpt>
      <trkpt lat="44.2864" lon="6.90047">
        <ele>1356</ele>
        <time>2021-08-04T16:43:26Z</time>
      </trkpt>
      <trkpt lat="44.28627" lon="6.90048">
        <ele>1353</ele>
        <time>2021-08-04T16:43:29Z</time>
      </trkpt>
      <trkpt lat="44.28606" lon="6.90042">
        <ele>1347</ele>
        <time>2021-08-04T16:43:32Z</time>
      </trkpt>
      <trkpt lat="44.28569" lon="6.90055">
        <ele>1344</ele>
        <time>2021-08-04T16:43:39Z</time>
      </trkpt>
      <trkpt lat="44.28545" lon="6.90047">
        <ele>1336</ele>
        <time>2021-08-04T16:43:44Z</time>
      </trkpt>
      <trkpt lat="44.28512" lon="6.90065">
        <ele>1332</ele>
        <time>2021-08-04T16:43:50Z</time>
      </trkpt>
      <trkpt lat="44.28482" lon="6.90095">
        <ele>1333</ele>
        <time>2021-08-04T16:43:56Z</time>
      </trkpt>
      <trkpt lat="44.28424" lon="6.90129">
        <ele>1326</ele>
        <time>2021-08-04T16:44:08Z</time>
      </trkpt>
      <trkpt lat="44.28385" lon="6.90159">
        <ele>1325</ele>
        <time>2021-08-04T16:44:16Z</time>
      </trkpt>
      <trkpt lat="44.28354" lon="6.90203">
        <ele>1334</ele>
        <time>2021-08-04T16:44:23Z</time>
      </trkpt>
      <trkpt lat="44.2832" lon="6.90201">
        <ele>1324</ele>
        <time>2021-08-04T16:44:29Z</time>
      </trkpt>
      <trkpt lat="44.28265" lon="6.90226">
        <ele>1317</ele>
        <time>2021-08-04T16:44:40Z</time>
      </trkpt>
      <trkpt lat="44.28238" lon="6.90259">
        <ele>1316</ele>
        <time>2021-08-04T16:44:46Z</time>
      </trkpt>
      <trkpt lat="44.28165" lon="6.90321">
        <ele>1316</ele>
        <time>2021-08-04T16:45:01Z</time>
      </trkpt>
      <trkpt lat="44.2811" lon="6.90351">
        <ele>1306</ele>
        <time>2021-08-04T16:45:12Z</time>
      </trkpt>
      <trkpt lat="44.28067" lon="6.9038">
        <ele>1305</ele>
        <time>2021-08-04T16:45:20Z</time>
      </trkpt>
      <trkpt lat="44.28042" lon="6.90427">
        <ele>1308</ele>
        <time>2021-08-04T16:45:28Z</time>
      </trkpt>
      <trkpt lat="44.28" lon="6.90492">
        <ele>1297</ele>
        <time>2021-08-04T16:45:39Z</time>
      </trkpt>
      <trkpt lat="44.27973" lon="6.90542">
        <ele>1304</ele>
        <time>2021-08-04T16:45:47Z</time>
      </trkpt>
      <trkpt lat="44.27929" lon="6.90661">
        <ele>1293</ele>
        <time>2021-08-04T16:46:04Z</time>
      </trkpt>
      <trkpt lat="44.27898" lon="6.90713">
        <ele>1296</ele>
        <time>2021-08-04T16:46:13Z</time>
      </trkpt>
      <trkpt lat="44.27858" lon="6.90769">
        <ele>1290</ele>
        <time>2021-08-04T16:46:23Z</time>
      </trkpt>
      <trkpt lat="44.2782" lon="6.90807">
        <ele>1282</ele>
        <time>2021-08-04T16:46:31Z</time>
      </trkpt>
      <trkpt lat="44.27798" lon="6.90849">
        <ele>1282</ele>
        <time>2021-08-04T16:46:38Z</time>
      </trkpt>
      <trkpt lat="44.27783" lon="6.90913">
        <ele>1283</ele>
        <time>2021-08-04T16:46:46Z</time>
      </trkpt>
      <trkpt lat="44.27759" lon="6.9097">
        <ele>1281</ele>
        <time>2021-08-04T16:46:55Z</time>
      </trkpt>
      <trkpt lat="44.27737" lon="6.90998">
        <ele>1278</ele>
        <time>2021-08-04T16:47:00Z</time>
      </trkpt>
      <trkpt lat="44.27707" lon="6.91027">
        <ele>1277</ele>
        <time>2021-08-04T16:47:06Z</time>
      </trkpt>
      <trkpt lat="44.27663" lon="6.9105">
        <ele>1268</ele>
        <time>2021-08-04T16:47:15Z</time>
      </trkpt>
      <trkpt lat="44.27643" lon="6.9107">
        <ele>1270</ele>
        <time>2021-08-04T16:47:19Z</time>
      </trkpt>
      <trkpt lat="44.27627" lon="6.91119">
        <ele>1271</ele>
        <time>2021-08-04T16:47:26Z</time>
      </trkpt>
      <trkpt lat="44.27608" lon="6.91192">
        <ele>1269</ele>
        <time>2021-08-04T16:47:36Z</time>
      </trkpt>
      <trkpt lat="44.2759" lon="6.9125">
        <ele>1264</ele>
        <time>2021-08-04T16:47:44Z</time>
      </trkpt>
      <trkpt lat="44.27551" lon="6.91323">
        <ele>1264</ele>
        <time>2021-08-04T16:47:56Z</time>
      </trkpt>
      <trkpt lat="44.27503" lon="6.91402">
        <ele>1254</ele>
        <time>2021-08-04T16:48:09Z</time>
      </trkpt>
      <trkpt lat="44.27442" lon="6.91494">
        <ele>1256</ele>
        <time>2021-08-04T16:48:25Z</time>
      </trkpt>
      <trkpt lat="44.27431" lon="6.91509">
        <ele>1254</ele>
        <time>2021-08-04T16:48:27Z</time>
      </trkpt>
      <trkpt lat="44.27419" lon="6.91531">
        <ele>1253</ele>
        <time>2021-08-04T16:48:31Z</time>
      </trkpt>
      <trkpt lat="44.27399" lon="6.9158">
        <ele>1252</ele>
        <time>2021-08-04T16:48:38Z</time>
      </trkpt>
      <trkpt lat="44.27388" lon="6.91616">
        <ele>1253</ele>
        <time>2021-08-04T16:48:43Z</time>
      </trkpt>
      <trkpt lat="44.27376" lon="6.91647">
        <ele>1251</ele>
        <time>2021-08-04T16:48:48Z</time>
      </trkpt>
      <trkpt lat="44.27358" lon="6.91676">
        <ele>1248</ele>
        <time>2021-08-04T16:48:53Z</time>
      </trkpt>
      <trkpt lat="44.27334" lon="6.91697">
        <ele>1247</ele>
        <time>2021-08-04T16:48:58Z</time>
      </trkpt>
      <trkpt lat="44.2725" lon="6.91734">
        <ele>1246</ele>
        <time>2021-08-04T16:49:13Z</time>
      </trkpt>
      <trkpt lat="44.27221" lon="6.91753">
        <ele>1250</ele>
        <time>2021-08-04T16:49:19Z</time>
      </trkpt>
      <trkpt lat="44.272" lon="6.91771">
        <ele>1253</ele>
        <time>2021-08-04T16:49:23Z</time>
      </trkpt>
      <trkpt lat="44.27182" lon="6.91789">
        <ele>1252</ele>
        <time>2021-08-04T16:49:27Z</time>
      </trkpt>
      <trkpt lat="44.27165" lon="6.91818">
        <ele>1246</ele>
        <time>2021-08-04T16:49:32Z</time>
      </trkpt>
      <trkpt lat="44.27133" lon="6.9191">
        <ele>1246</ele>
        <time>2021-08-04T16:49:45Z</time>
      </trkpt>
      <trkpt lat="44.27102" lon="6.9198">
        <ele>1237</ele>
        <time>2021-08-04T16:49:56Z</time>
      </trkpt>
      <trkpt lat="44.27068" lon="6.92039">
        <ele>1232</ele>
        <time>2021-08-04T16:50:05Z</time>
      </trkpt>
      <trkpt lat="44.27032" lon="6.92082">
        <ele>1229</ele>
        <time>2021-08-04T16:50:14Z</time>
      </trkpt>
      <trkpt lat="44.27011" lon="6.92095">
        <ele>1230</ele>
        <time>2021-08-04T16:50:18Z</time>
      </trkpt>
      <trkpt lat="44.2697" lon="6.92108">
        <ele>1232</ele>
        <time>2021-08-04T16:50:25Z</time>
      </trkpt>
      <trkpt lat="44.26922" lon="6.92118">
        <ele>1234</ele>
        <time>2021-08-04T16:50:34Z</time>
      </trkpt>
      <trkpt lat="44.26846" lon="6.92103">
        <ele>1231</ele>
        <time>2021-08-04T16:50:47Z</time>
      </trkpt>
      <trkpt lat="44.26826" lon="6.92092">
        <ele>1227</ele>
        <time>2021-08-04T16:50:51Z</time>
      </trkpt>
      <trkpt lat="44.26805" lon="6.92084">
        <ele>1223</ele>
        <time>2021-08-04T16:50:55Z</time>
      </trkpt>
      <trkpt lat="44.26785" lon="6.9208">
        <ele>1222</ele>
        <time>2021-08-04T16:50:59Z</time>
      </trkpt>
      <trkpt lat="44.26764" lon="6.92082">
        <ele>1220</ele>
        <time>2021-08-04T16:51:03Z</time>
      </trkpt>
      <trkpt lat="44.26743" lon="6.92089">
        <ele>1219</ele>
        <time>2021-08-04T16:51:06Z</time>
      </trkpt>
      <trkpt lat="44.26707" lon="6.92106">
        <ele>1220</ele>
        <time>2021-08-04T16:51:13Z</time>
      </trkpt>
      <trkpt lat="44.26646" lon="6.9212">
        <ele>1218</ele>
        <time>2021-08-04T16:51:24Z</time>
      </trkpt>
      <trkpt lat="44.26615" lon="6.92137">
        <ele>1219</ele>
        <time>2021-08-04T16:51:30Z</time>
      </trkpt>
      <trkpt lat="44.26586" lon="6.92149">
        <ele>1218</ele>
        <time>2021-08-04T16:51:35Z</time>
      </trkpt>
      <trkpt lat="44.2656" lon="6.92156">
        <ele>1216</ele>
        <time>2021-08-04T16:51:40Z</time>
      </trkpt>
      <trkpt lat="44.26536" lon="6.92158">
        <ele>1213</ele>
        <time>2021-08-04T16:51:44Z</time>
      </trkpt>
      <trkpt lat="44.2646" lon="6.92145">
        <ele>1206</ele>
        <time>2021-08-04T16:51:58Z</time>
      </trkpt>
      <trkpt lat="44.26351" lon="6.9214">
        <ele>1207</ele>
        <time>2021-08-04T16:52:17Z</time>
      </trkpt>
      <trkpt lat="44.26306" lon="6.92159">
        <ele>1204</ele>
        <time>2021-08-04T16:52:26Z</time>
      </trkpt>
      <trkpt lat="44.26285" lon="6.92163">
        <ele>1200</ele>
        <time>2021-08-04T16:52:30Z</time>
      </trkpt>
      <trkpt lat="44.26268" lon="6.92161">
        <ele>1197</ele>
        <time>2021-08-04T16:52:33Z</time>
      </trkpt>
      <trkpt lat="44.26221" lon="6.92144">
        <ele>1190</ele>
        <time>2021-08-04T16:52:41Z</time>
      </trkpt>
      <trkpt lat="44.26195" lon="6.9214">
        <ele>1186</ele>
        <time>2021-08-04T16:52:46Z</time>
      </trkpt>
      <trkpt lat="44.26175" lon="6.9214">
        <ele>1182</ele>
        <time>2021-08-04T16:52:49Z</time>
      </trkpt>
      <trkpt lat="44.26165" lon="6.92146">
        <ele>1181</ele>
        <time>2021-08-04T16:52:51Z</time>
      </trkpt>
      <trkpt lat="44.26152" lon="6.9216">
        <ele>1178</ele>
        <time>2021-08-04T16:52:54Z</time>
      </trkpt>
      <trkpt lat="44.26145" lon="6.92163">
        <ele>1177</ele>
        <time>2021-08-04T16:52:56Z</time>
      </trkpt>
      <trkpt lat="44.26122" lon="6.92163">
        <ele>1175</ele>
        <time>2021-08-04T16:53:00Z</time>
      </trkpt>
      <trkpt lat="44.26106" lon="6.92161">
        <ele>1173</ele>
        <time>2021-08-04T16:53:03Z</time>
      </trkpt>
      <trkpt lat="44.26066" lon="6.92191">
        <ele>1171</ele>
        <time>2021-08-04T16:53:11Z</time>
      </trkpt>
      <trkpt lat="44.26056" lon="6.92197">
        <ele>1170</ele>
        <time>2021-08-04T16:53:13Z</time>
      </trkpt>
      <trkpt lat="44.26044" lon="6.922">
        <ele>1168</ele>
        <time>2021-08-04T16:53:15Z</time>
      </trkpt>
      <trkpt lat="44.26032" lon="6.92209">
        <ele>1167</ele>
        <time>2021-08-04T16:53:17Z</time>
      </trkpt>
      <trkpt lat="44.26015" lon="6.92231">
        <ele>1166</ele>
        <time>2021-08-04T16:53:21Z</time>
      </trkpt>
      <trkpt lat="44.25997" lon="6.92264">
        <ele>1165</ele>
        <time>2021-08-04T16:53:27Z</time>
      </trkpt>
      <trkpt lat="44.25986" lon="6.92291">
        <ele>1163</ele>
        <time>2021-08-04T16:53:31Z</time>
      </trkpt>
      <trkpt lat="44.25962" lon="6.92361">
        <ele>1160</ele>
        <time>2021-08-04T16:53:40Z</time>
      </trkpt>
      <trkpt lat="44.25958" lon="6.92396">
        <ele>1160</ele>
        <time>2021-08-04T16:53:45Z</time>
      </trkpt>
      <trkpt lat="44.25946" lon="6.92428">
        <ele>1158</ele>
        <time>2021-08-04T16:53:50Z</time>
      </trkpt>
      <trkpt lat="44.25942" lon="6.92438">
        <ele>1157</ele>
        <time>2021-08-04T16:53:51Z</time>
      </trkpt>
      <trkpt lat="44.25938" lon="6.9249">
        <ele>1158</ele>
        <time>2021-08-04T16:53:58Z</time>
      </trkpt>
      <trkpt lat="44.25931" lon="6.92513">
        <ele>1157</ele>
        <time>2021-08-04T16:54:01Z</time>
      </trkpt>
      <trkpt lat="44.25892" lon="6.92571">
        <ele>1154</ele>
        <time>2021-08-04T16:54:11Z</time>
      </trkpt>
      <trkpt lat="44.25874" lon="6.92594">
        <ele>1154</ele>
        <time>2021-08-04T16:54:15Z</time>
      </trkpt>
      <trkpt lat="44.25862" lon="6.92606">
        <ele>1153</ele>
        <time>2021-08-04T16:54:18Z</time>
      </trkpt>
      <trkpt lat="44.25856" lon="6.92598">
        <ele>1150</ele>
        <time>2021-08-04T16:54:19Z</time>
      </trkpt>
      <trkpt lat="44.25831" lon="6.92551">
        <ele>1144</ele>
        <time>2021-08-04T16:54:27Z</time>
      </trkpt>
      <trkpt lat="44.2577" lon="6.92446">
        <ele>1147</ele>
        <time>2021-08-04T16:54:44Z</time>
      </trkpt>
      <trkpt lat="44.25727" lon="6.92363">
        <ele>1154</ele>
        <time>2021-08-04T16:54:57Z</time>
      </trkpt>
      <trkpt lat="44.25708" lon="6.92315">
        <ele>1158</ele>
        <time>2021-08-04T16:55:04Z</time>
      </trkpt>
      <trkpt lat="44.25686" lon="6.92252">
        <ele>1160</ele>
        <time>2021-08-04T16:55:13Z</time>
      </trkpt>
      <trkpt lat="44.25682" lon="6.92245">
        <ele>1160</ele>
        <time>2021-08-04T16:55:14Z</time>
      </trkpt>
      <trkpt lat="44.25678" lon="6.92242">
        <ele>1160</ele>
        <time>2021-08-04T16:55:15Z</time>
      </trkpt>
      <trkpt lat="44.25668" lon="6.92244">
        <ele>1160</ele>
        <time>2021-08-04T16:55:17Z</time>
      </trkpt>
      <trkpt lat="44.25655" lon="6.92258">
        <ele>1162</ele>
        <time>2021-08-04T16:55:20Z</time>
      </trkpt>
      <trkpt lat="44.25643" lon="6.92276">
        <ele>1164</ele>
        <time>2021-08-04T16:55:23Z</time>
      </trkpt>
      <trkpt lat="44.25607" lon="6.92338">
        <ele>1164</ele>
        <time>2021-08-04T16:55:33Z</time>
      </trkpt>
      <trkpt lat="44.25591" lon="6.92357">
        <ele>1164</ele>
        <time>2021-08-04T16:55:37Z</time>
      </trkpt>
      <trkpt lat="44.25535" lon="6.92402">
        <ele>1162</ele>
        <time>2021-08-04T16:55:48Z</time>
      </trkpt>
      <trkpt lat="44.25455" lon="6.92456">
        <ele>1163</ele>
        <time>2021-08-04T16:56:04Z</time>
      </trkpt>
      <trkpt lat="44.25401" lon="6.92498">
        <ele>1168</ele>
        <time>2021-08-04T16:56:15Z</time>
      </trkpt>
      <trkpt lat="44.25369" lon="6.92542">
        <ele>1171</ele>
        <time>2021-08-04T16:56:23Z</time>
      </trkpt>
      <trkpt lat="44.253" lon="6.92628">
        <ele>1169</ele>
        <time>2021-08-04T16:56:40Z</time>
      </trkpt>
      <trkpt lat="44.25289" lon="6.92639">
        <ele>1168</ele>
        <time>2021-08-04T16:56:42Z</time>
      </trkpt>
      <trkpt lat="44.2524" lon="6.9267">
        <ele>1166</ele>
        <time>2021-08-04T16:56:52Z</time>
      </trkpt>
      <trkpt lat="44.25213" lon="6.92676">
        <ele>1168</ele>
        <time>2021-08-04T16:56:56Z</time>
      </trkpt>
      <trkpt lat="44.25204" lon="6.9268">
        <ele>1168</ele>
        <time>2021-08-04T16:56:58Z</time>
      </trkpt>
      <trkpt lat="44.25168" lon="6.92705">
        <ele>1167</ele>
        <time>2021-08-04T16:57:05Z</time>
      </trkpt>
      <trkpt lat="44.25133" lon="6.92723">
        <ele>1171</ele>
        <time>2021-08-04T16:57:12Z</time>
      </trkpt>
      <trkpt lat="44.25118" lon="6.92734">
        <ele>1172</ele>
        <time>2021-08-04T16:57:15Z</time>
      </trkpt>
      <trkpt lat="44.2507" lon="6.92782">
        <ele>1172</ele>
        <time>2021-08-04T16:57:25Z</time>
      </trkpt>
      <trkpt lat="44.25039" lon="6.92801">
        <ele>1176</ele>
        <time>2021-08-04T16:57:31Z</time>
      </trkpt>
      <trkpt lat="44.25025" lon="6.92813">
        <ele>1177</ele>
        <time>2021-08-04T16:57:34Z</time>
      </trkpt>
      <trkpt lat="44.25014" lon="6.92823">
        <ele>1177</ele>
        <time>2021-08-04T16:57:37Z</time>
      </trkpt>
      <trkpt lat="44.25004" lon="6.92839">
        <ele>1175</ele>
        <time>2021-08-04T16:57:39Z</time>
      </trkpt>
      <trkpt lat="44.24995" lon="6.92848">
        <ele>1176</ele>
        <time>2021-08-04T16:57:41Z</time>
      </trkpt>
      <trkpt lat="44.24964" lon="6.92868">
        <ele>1183</ele>
        <time>2021-08-04T16:57:47Z</time>
      </trkpt>
      <trkpt lat="44.24934" lon="6.92898">
        <ele>1185</ele>
        <time>2021-08-04T16:57:54Z</time>
      </trkpt>
      <trkpt lat="44.24921" lon="6.92914">
        <ele>1184</ele>
        <time>2021-08-04T16:57:57Z</time>
      </trkpt>
      <trkpt lat="44.24906" lon="6.92927">
        <ele>1186</ele>
        <time>2021-08-04T16:58:00Z</time>
      </trkpt>
      <trkpt lat="44.24878" lon="6.92945">
        <ele>1191</ele>
        <time>2021-08-04T16:58:06Z</time>
      </trkpt>
      <trkpt lat="44.24866" lon="6.92957">
        <ele>1192</ele>
        <time>2021-08-04T16:58:08Z</time>
      </trkpt>
      <trkpt lat="44.24854" lon="6.92976">
        <ele>1191</ele>
        <time>2021-08-04T16:58:12Z</time>
      </trkpt>
      <trkpt lat="44.2481" lon="6.93077">
        <ele>1177</ele>
        <time>2021-08-04T16:58:27Z</time>
      </trkpt>
      <trkpt lat="44.2476" lon="6.93144">
        <ele>1174</ele>
        <time>2021-08-04T16:58:39Z</time>
      </trkpt>
      <trkpt lat="44.24755" lon="6.93154">
        <ele>1174</ele>
        <time>2021-08-04T16:58:41Z</time>
      </trkpt>
      <trkpt lat="44.24737" lon="6.93206">
        <ele>1169</ele>
        <time>2021-08-04T16:58:48Z</time>
      </trkpt>
      <trkpt lat="44.24727" lon="6.93225">
        <ele>1170</ele>
        <time>2021-08-04T16:58:51Z</time>
      </trkpt>
      <trkpt lat="44.24715" lon="6.93241">
        <ele>1172</ele>
        <time>2021-08-04T16:58:54Z</time>
      </trkpt>
      <trkpt lat="44.24687" lon="6.93268">
        <ele>1179</ele>
        <time>2021-08-04T16:59:00Z</time>
      </trkpt>
      <trkpt lat="44.24675" lon="6.93287">
        <ele>1180</ele>
        <time>2021-08-04T16:59:03Z</time>
      </trkpt>
      <trkpt lat="44.24652" lon="6.93344">
        <ele>1177</ele>
        <time>2021-08-04T16:59:11Z</time>
      </trkpt>
      <trkpt lat="44.24612" lon="6.93398">
        <ele>1173</ele>
        <time>2021-08-04T16:59:21Z</time>
      </trkpt>
      <trkpt lat="44.24604" lon="6.93401">
        <ele>1174</ele>
        <time>2021-08-04T16:59:23Z</time>
      </trkpt>
      <trkpt lat="44.24591" lon="6.93404">
        <ele>1176</ele>
        <time>2021-08-04T16:59:25Z</time>
      </trkpt>
      <trkpt lat="44.24572" lon="6.93403">
        <ele>1179</ele>
        <time>2021-08-04T16:59:29Z</time>
      </trkpt>
      <trkpt lat="44.24514" lon="6.9338">
        <ele>1188</ele>
        <time>2021-08-04T16:59:39Z</time>
      </trkpt>
      <trkpt lat="44.24504" lon="6.93378">
        <ele>1189</ele>
        <time>2021-08-04T16:59:41Z</time>
      </trkpt>
      <trkpt lat="44.24494" lon="6.9338">
        <ele>1191</ele>
        <time>2021-08-04T16:59:43Z</time>
      </trkpt>
      <trkpt lat="44.24484" lon="6.93386">
        <ele>1192</ele>
        <time>2021-08-04T16:59:45Z</time>
      </trkpt>
      <trkpt lat="44.24472" lon="6.93405">
        <ele>1193</ele>
        <time>2021-08-04T16:59:48Z</time>
      </trkpt>
      <trkpt lat="44.24469" lon="6.93415">
        <ele>1192</ele>
        <time>2021-08-04T16:59:49Z</time>
      </trkpt>
      <trkpt lat="44.24468" lon="6.93425">
        <ele>1191</ele>
        <time>2021-08-04T16:59:51Z</time>
      </trkpt>
      <trkpt lat="44.24469" lon="6.93473">
        <ele>1186</ele>
        <time>2021-08-04T16:59:57Z</time>
      </trkpt>
      <trkpt lat="44.24468" lon="6.93485">
        <ele>1185</ele>
        <time>2021-08-04T16:59:58Z</time>
      </trkpt>
      <trkpt lat="44.24466" lon="6.93493">
        <ele>1185</ele>
        <time>2021-08-04T16:59:59Z</time>
      </trkpt>
      <trkpt lat="44.24459" lon="6.93509">
        <ele>1185</ele>
        <time>2021-08-04T17:00:02Z</time>
      </trkpt>
      <trkpt lat="44.24443" lon="6.93532">
        <ele>1187</ele>
        <time>2021-08-04T17:00:06Z</time>
      </trkpt>
      <trkpt lat="44.24391" lon="6.93593">
        <ele>1190</ele>
        <time>2021-08-04T17:00:18Z</time>
      </trkpt>
      <trkpt lat="44.2434" lon="6.93663">
        <ele>1197</ele>
        <time>2021-08-04T17:00:31Z</time>
      </trkpt>
      <trkpt lat="44.24322" lon="6.93683">
        <ele>1198</ele>
        <time>2021-08-04T17:00:35Z</time>
      </trkpt>
      <trkpt lat="44.24302" lon="6.93698">
        <ele>1198</ele>
        <time>2021-08-04T17:00:39Z</time>
      </trkpt>
      <trkpt lat="44.24291" lon="6.93697">
        <ele>1200</ele>
        <time>2021-08-04T17:00:41Z</time>
      </trkpt>
      <trkpt lat="44.24283" lon="6.93694">
        <ele>1202</ele>
        <time>2021-08-04T17:00:42Z</time>
      </trkpt>
      <trkpt lat="44.24276" lon="6.93686">
        <ele>1204</ele>
        <time>2021-08-04T17:00:44Z</time>
      </trkpt>
      <trkpt lat="44.24271" lon="6.93685">
        <ele>1205</ele>
        <time>2021-08-04T17:00:45Z</time>
      </trkpt>
      <trkpt lat="44.24262" lon="6.93689">
        <ele>1206</ele>
        <time>2021-08-04T17:00:47Z</time>
      </trkpt>
      <trkpt lat="44.24256" lon="6.937">
        <ele>1206</ele>
        <time>2021-08-04T17:00:48Z</time>
      </trkpt>
      <trkpt lat="44.24256" lon="6.93714">
        <ele>1204</ele>
        <time>2021-08-04T17:00:50Z</time>
      </trkpt>
      <trkpt lat="44.24255" lon="6.93722">
        <ele>1204</ele>
        <time>2021-08-04T17:00:51Z</time>
      </trkpt>
      <trkpt lat="44.24249" lon="6.93737">
        <ele>1203</ele>
        <time>2021-08-04T17:00:53Z</time>
      </trkpt>
      <trkpt lat="44.2424" lon="6.93747">
        <ele>1203</ele>
        <time>2021-08-04T17:00:55Z</time>
      </trkpt>
      <trkpt lat="44.24221" lon="6.93764">
        <ele>1201</ele>
        <time>2021-08-04T17:00:59Z</time>
      </trkpt>
      <trkpt lat="44.24209" lon="6.93772">
        <ele>1201</ele>
        <time>2021-08-04T17:01:02Z</time>
      </trkpt>
      <trkpt lat="44.24192" lon="6.93777">
        <ele>1201</ele>
        <time>2021-08-04T17:01:05Z</time>
      </trkpt>
      <trkpt lat="44.24108" lon="6.93782">
        <ele>1203</ele>
        <time>2021-08-04T17:01:20Z</time>
      </trkpt>
      <trkpt lat="44.24093" lon="6.93785">
        <ele>1203</ele>
        <time>2021-08-04T17:01:22Z</time>
      </trkpt>
      <trkpt lat="44.2407" lon="6.93796">
        <ele>1204</ele>
        <time>2021-08-04T17:01:27Z</time>
      </trkpt>
      <trkpt lat="44.24045" lon="6.93822">
        <ele>1203</ele>
        <time>2021-08-04T17:01:32Z</time>
      </trkpt>
      <trkpt lat="44.23911" lon="6.94019">
        <ele>1185</ele>
        <time>2021-08-04T17:02:07Z</time>
      </trkpt>
      <trkpt lat="44.23888" lon="6.94049">
        <ele>1186</ele>
        <time>2021-08-04T17:02:13Z</time>
      </trkpt>
      <trkpt lat="44.23818" lon="6.9413">
        <ele>1181</ele>
        <time>2021-08-04T17:02:29Z</time>
      </trkpt>
      <trkpt lat="44.23806" lon="6.94147">
        <ele>1180</ele>
        <time>2021-08-04T17:02:32Z</time>
      </trkpt>
      <trkpt lat="44.23801" lon="6.94158">
        <ele>1179</ele>
        <time>2021-08-04T17:02:33Z</time>
      </trkpt>
      <trkpt lat="44.23798" lon="6.94169">
        <ele>1176</ele>
        <time>2021-08-04T17:02:35Z</time>
      </trkpt>
      <trkpt lat="44.23797" lon="6.94181">
        <ele>1174</ele>
        <time>2021-08-04T17:02:37Z</time>
      </trkpt>
      <trkpt lat="44.238" lon="6.94192">
        <ele>1170</ele>
        <time>2021-08-04T17:02:38Z</time>
      </trkpt>
      <trkpt lat="44.23806" lon="6.94204">
        <ele>1165</ele>
        <time>2021-08-04T17:02:40Z</time>
      </trkpt>
      <trkpt lat="44.23814" lon="6.94208">
        <ele>1161</ele>
        <time>2021-08-04T17:02:41Z</time>
      </trkpt>
      <trkpt lat="44.23821" lon="6.94208">
        <ele>1159</ele>
        <time>2021-08-04T17:02:43Z</time>
      </trkpt>
      <trkpt lat="44.23826" lon="6.94206">
        <ele>1157</ele>
        <time>2021-08-04T17:02:44Z</time>
      </trkpt>
      <trkpt lat="44.23837" lon="6.94195">
        <ele>1156</ele>
        <time>2021-08-04T17:02:46Z</time>
      </trkpt>
      <trkpt lat="44.23862" lon="6.9414">
        <ele>1164</ele>
        <time>2021-08-04T17:02:54Z</time>
      </trkpt>
      <trkpt lat="44.23881" lon="6.94112">
        <ele>1167</ele>
        <time>2021-08-04T17:02:59Z</time>
      </trkpt>
      <trkpt lat="44.23893" lon="6.94097">
        <ele>1168</ele>
        <time>2021-08-04T17:03:02Z</time>
      </trkpt>
      <trkpt lat="44.23979" lon="6.94019">
        <ele>1160</ele>
        <time>2021-08-04T17:03:20Z</time>
      </trkpt>
      <trkpt lat="44.2402" lon="6.93961">
        <ele>1164</ele>
        <time>2021-08-04T17:03:31Z</time>
      </trkpt>
      <trkpt lat="44.24029" lon="6.93955">
        <ele>1164</ele>
        <time>2021-08-04T17:03:32Z</time>
      </trkpt>
      <trkpt lat="44.24041" lon="6.93956">
        <ele>1163</ele>
        <time>2021-08-04T17:03:35Z</time>
      </trkpt>
      <trkpt lat="44.24048" lon="6.93962">
        <ele>1161</ele>
        <time>2021-08-04T17:03:36Z</time>
      </trkpt>
      <trkpt lat="44.24052" lon="6.93971">
        <ele>1159</ele>
        <time>2021-08-04T17:03:37Z</time>
      </trkpt>
      <trkpt lat="44.24054" lon="6.93988">
        <ele>1155</ele>
        <time>2021-08-04T17:03:40Z</time>
      </trkpt>
      <trkpt lat="44.2405" lon="6.94">
        <ele>1153</ele>
        <time>2021-08-04T17:03:41Z</time>
      </trkpt>
      <trkpt lat="44.23965" lon="6.94113">
        <ele>1143</ele>
        <time>2021-08-04T17:04:02Z</time>
      </trkpt>
      <trkpt lat="44.23954" lon="6.94131">
        <ele>1141</ele>
        <time>2021-08-04T17:04:05Z</time>
      </trkpt>
      <trkpt lat="44.23941" lon="6.94156">
        <ele>1138</ele>
        <time>2021-08-04T17:04:09Z</time>
      </trkpt>
      <trkpt lat="44.23931" lon="6.94186">
        <ele>1134</ele>
        <time>2021-08-04T17:04:13Z</time>
      </trkpt>
      <trkpt lat="44.23905" lon="6.94278">
        <ele>1124</ele>
        <time>2021-08-04T17:04:26Z</time>
      </trkpt>
      <trkpt lat="44.2389" lon="6.94322">
        <ele>1118</ele>
        <time>2021-08-04T17:04:32Z</time>
      </trkpt>
      <trkpt lat="44.23872" lon="6.94351">
        <ele>1114</ele>
        <time>2021-08-04T17:04:37Z</time>
      </trkpt>
      <trkpt lat="44.23838" lon="6.94384">
        <ele>1110</ele>
        <time>2021-08-04T17:04:44Z</time>
      </trkpt>
      <trkpt lat="44.23816" lon="6.94399">
        <ele>1110</ele>
        <time>2021-08-04T17:04:49Z</time>
      </trkpt>
      <trkpt lat="44.2374" lon="6.94433">
        <ele>1111</ele>
        <time>2021-08-04T17:05:03Z</time>
      </trkpt>
      <trkpt lat="44.2369" lon="6.94473">
        <ele>1110</ele>
        <time>2021-08-04T17:05:13Z</time>
      </trkpt>
      <trkpt lat="44.23658" lon="6.94507">
        <ele>1106</ele>
        <time>2021-08-04T17:05:20Z</time>
      </trkpt>
      <trkpt lat="44.23627" lon="6.94546">
        <ele>1111</ele>
        <time>2021-08-04T17:05:28Z</time>
      </trkpt>
      <trkpt lat="44.23517" lon="6.94732">
        <ele>1099</ele>
        <time>2021-08-04T17:05:59Z</time>
      </trkpt>
      <trkpt lat="44.23428" lon="6.94852">
        <ele>1092</ele>
        <time>2021-08-04T17:06:21Z</time>
      </trkpt>
      <trkpt lat="44.23376" lon="6.9492">
        <ele>1088</ele>
        <time>2021-08-04T17:06:33Z</time>
      </trkpt>
      <trkpt lat="44.23362" lon="6.94943">
        <ele>1088</ele>
        <time>2021-08-04T17:06:37Z</time>
      </trkpt>
      <trkpt lat="44.23348" lon="6.94971">
        <ele>1085</ele>
        <time>2021-08-04T17:06:41Z</time>
      </trkpt>
      <trkpt lat="44.23299" lon="6.9508">
        <ele>1073</ele>
        <time>2021-08-04T17:06:58Z</time>
      </trkpt>
      <trkpt lat="44.23238" lon="6.95226">
        <ele>1070</ele>
        <time>2021-08-04T17:07:19Z</time>
      </trkpt>
      <trkpt lat="44.23188" lon="6.95356">
        <ele>1066</ele>
        <time>2021-08-04T17:07:38Z</time>
      </trkpt>
      <trkpt lat="44.2317" lon="6.95395">
        <ele>1064</ele>
        <time>2021-08-04T17:07:44Z</time>
      </trkpt>
      <trkpt lat="44.22973" lon="6.95713">
        <ele>1060</ele>
        <time>2021-08-04T17:08:38Z</time>
      </trkpt>
      <trkpt lat="44.22927" lon="6.95771">
        <ele>1060</ele>
        <time>2021-08-04T17:08:49Z</time>
      </trkpt>
      <trkpt lat="44.22905" lon="6.9579">
        <ele>1060</ele>
        <time>2021-08-04T17:08:53Z</time>
      </trkpt>
      <trkpt lat="44.22881" lon="6.95804">
        <ele>1060</ele>
        <time>2021-08-04T17:08:58Z</time>
      </trkpt>
      <trkpt lat="44.22821" lon="6.95826">
        <ele>1060</ele>
        <time>2021-08-04T17:09:09Z</time>
      </trkpt>
      <trkpt lat="44.22791" lon="6.95841">
        <ele>1059</ele>
        <time>2021-08-04T17:09:15Z</time>
      </trkpt>
      <trkpt lat="44.22728" lon="6.95893">
        <ele>1058</ele>
        <time>2021-08-04T17:09:28Z</time>
      </trkpt>
      <trkpt lat="44.22699" lon="6.95915">
        <ele>1058</ele>
        <time>2021-08-04T17:09:34Z</time>
      </trkpt>
      <trkpt lat="44.22579" lon="6.95979">
        <ele>1055</ele>
        <time>2021-08-04T17:09:56Z</time>
      </trkpt>
      <trkpt lat="44.22564" lon="6.95992">
        <ele>1055</ele>
        <time>2021-08-04T17:10:00Z</time>
      </trkpt>
      <trkpt lat="44.22556" lon="6.96003">
        <ele>1055</ele>
        <time>2021-08-04T17:10:02Z</time>
      </trkpt>
      <trkpt lat="44.22548" lon="6.96019">
        <ele>1056</ele>
        <time>2021-08-04T17:10:04Z</time>
      </trkpt>
      <trkpt lat="44.22539" lon="6.96044">
        <ele>1056</ele>
        <time>2021-08-04T17:10:08Z</time>
      </trkpt>
      <trkpt lat="44.225" lon="6.96251">
        <ele>1054</ele>
        <time>2021-08-04T17:10:35Z</time>
      </trkpt>
      <trkpt lat="44.22494" lon="6.96273">
        <ele>1056</ele>
        <time>2021-08-04T17:10:38Z</time>
      </trkpt>
      <trkpt lat="44.22486" lon="6.96297">
        <ele>1057</ele>
        <time>2021-08-04T17:10:41Z</time>
      </trkpt>
      <trkpt lat="44.22474" lon="6.96316">
        <ele>1057</ele>
        <time>2021-08-04T17:10:45Z</time>
      </trkpt>
      <trkpt lat="44.22461" lon="6.96331">
        <ele>1056</ele>
        <time>2021-08-04T17:10:48Z</time>
      </trkpt>
      <trkpt lat="44.22444" lon="6.96346">
        <ele>1056</ele>
        <time>2021-08-04T17:10:51Z</time>
      </trkpt>
      <trkpt lat="44.22379" lon="6.9639">
        <ele>1055</ele>
        <time>2021-08-04T17:11:04Z</time>
      </trkpt>
      <trkpt lat="44.22032" lon="6.96643">
        <ele>1050</ele>
        <time>2021-08-04T17:12:14Z</time>
      </trkpt>
      <trkpt lat="44.22011" lon="6.96663">
        <ele>1048</ele>
        <time>2021-08-04T17:12:18Z</time>
      </trkpt>
      <trkpt lat="44.21943" lon="6.9676">
        <ele>1055</ele>
        <time>2021-08-04T17:12:35Z</time>
      </trkpt>
      <trkpt lat="44.21921" lon="6.96784">
        <ele>1056</ele>
        <time>2021-08-04T17:12:40Z</time>
      </trkpt>
      <trkpt lat="44.21875" lon="6.96821">
        <ele>1052</ele>
        <time>2021-08-04T17:12:50Z</time>
      </trkpt>
      <trkpt lat="44.21831" lon="6.96876">
        <ele>1054</ele>
        <time>2021-08-04T17:13:00Z</time>
      </trkpt>
      <trkpt lat="44.21792" lon="6.96913">
        <ele>1056</ele>
        <time>2021-08-04T17:13:09Z</time>
      </trkpt>
      <trkpt lat="44.21756" lon="6.96953">
        <ele>1051</ele>
        <time>2021-08-04T17:13:17Z</time>
      </trkpt>
      <trkpt lat="44.21706" lon="6.97019">
        <ele>1050</ele>
        <time>2021-08-04T17:13:29Z</time>
      </trkpt>
      <trkpt lat="44.21667" lon="6.97061">
        <ele>1044</ele>
        <time>2021-08-04T17:13:38Z</time>
      </trkpt>
      <trkpt lat="44.21646" lon="6.97079">
        <ele>1043</ele>
        <time>2021-08-04T17:13:42Z</time>
      </trkpt>
      <trkpt lat="44.21619" lon="6.97096">
        <ele>1043</ele>
        <time>2021-08-04T17:13:48Z</time>
      </trkpt>
      <trkpt lat="44.21602" lon="6.97103">
        <ele>1041</ele>
        <time>2021-08-04T17:13:51Z</time>
      </trkpt>
      <trkpt lat="44.2156" lon="6.97112">
        <ele>1036</ele>
        <time>2021-08-04T17:13:58Z</time>
      </trkpt>
      <trkpt lat="44.21517" lon="6.97132">
        <ele>1031</ele>
        <time>2021-08-04T17:14:06Z</time>
      </trkpt>
      <trkpt lat="44.21484" lon="6.9716">
        <ele>1027</ele>
        <time>2021-08-04T17:14:13Z</time>
      </trkpt>
      <trkpt lat="44.21404" lon="6.97262">
        <ele>1027</ele>
        <time>2021-08-04T17:14:33Z</time>
      </trkpt>
      <trkpt lat="44.21353" lon="6.97334">
        <ele>1024</ele>
        <time>2021-08-04T17:14:45Z</time>
      </trkpt>
      <trkpt lat="44.21309" lon="6.97384">
        <ele>1030</ele>
        <time>2021-08-04T17:14:56Z</time>
      </trkpt>
      <trkpt lat="44.21265" lon="6.97414">
        <ele>1029</ele>
        <time>2021-08-04T17:15:04Z</time>
      </trkpt>
      <trkpt lat="44.21145" lon="6.97481">
        <ele>1024</ele>
        <time>2021-08-04T17:15:27Z</time>
      </trkpt>
      <trkpt lat="44.21078" lon="6.9753">
        <ele>1017</ele>
        <time>2021-08-04T17:15:41Z</time>
      </trkpt>
      <trkpt lat="44.21055" lon="6.9755">
        <ele>1017</ele>
        <time>2021-08-04T17:15:46Z</time>
      </trkpt>
      <trkpt lat="44.21035" lon="6.97574">
        <ele>1018</ele>
        <time>2021-08-04T17:15:50Z</time>
      </trkpt>
      <trkpt lat="44.21017" lon="6.97602">
        <ele>1018</ele>
        <time>2021-08-04T17:15:55Z</time>
      </trkpt>
      <trkpt lat="44.20984" lon="6.97642">
        <ele>1015</ele>
        <time>2021-08-04T17:16:03Z</time>
      </trkpt>
      <trkpt lat="44.20935" lon="6.97683">
        <ele>1013</ele>
        <time>2021-08-04T17:16:13Z</time>
      </trkpt>
      <trkpt lat="44.20917" lon="6.97703">
        <ele>1011</ele>
        <time>2021-08-04T17:16:17Z</time>
      </trkpt>
      <trkpt lat="44.209" lon="6.97726">
        <ele>1010</ele>
        <time>2021-08-04T17:16:21Z</time>
      </trkpt>
      <trkpt lat="44.2086" lon="6.97788">
        <ele>1009</ele>
        <time>2021-08-04T17:16:32Z</time>
      </trkpt>
      <trkpt lat="44.20807" lon="6.97881">
        <ele>1014</ele>
        <time>2021-08-04T17:16:47Z</time>
      </trkpt>
      <trkpt lat="44.2077" lon="6.97925">
        <ele>1015</ele>
        <time>2021-08-04T17:16:56Z</time>
      </trkpt>
      <trkpt lat="44.20754" lon="6.97936">
        <ele>1016</ele>
        <time>2021-08-04T17:16:59Z</time>
      </trkpt>
      <trkpt lat="44.20729" lon="6.97966">
        <ele>1019</ele>
        <time>2021-08-04T17:17:05Z</time>
      </trkpt>
      <trkpt lat="44.20715" lon="6.97987">
        <ele>1019</ele>
        <time>2021-08-04T17:17:08Z</time>
      </trkpt>
      <trkpt lat="44.20698" lon="6.98026">
        <ele>1018</ele>
        <time>2021-08-04T17:17:14Z</time>
      </trkpt>
      <trkpt lat="44.20688" lon="6.9807">
        <ele>1017</ele>
        <time>2021-08-04T17:17:20Z</time>
      </trkpt>
      <trkpt lat="44.2068" lon="6.98249">
        <ele>1011</ele>
        <time>2021-08-04T17:17:43Z</time>
      </trkpt>
      <trkpt lat="44.20676" lon="6.98287">
        <ele>1013</ele>
        <time>2021-08-04T17:17:48Z</time>
      </trkpt>
      <trkpt lat="44.2067" lon="6.98312">
        <ele>1011</ele>
        <time>2021-08-04T17:17:51Z</time>
      </trkpt>
      <trkpt lat="44.20662" lon="6.98336">
        <ele>1012</ele>
        <time>2021-08-04T17:17:55Z</time>
      </trkpt>
      <trkpt lat="44.20636" lon="6.98377">
        <ele>1018</ele>
        <time>2021-08-04T17:18:02Z</time>
      </trkpt>
      <trkpt lat="44.20593" lon="6.98426">
        <ele>1012</ele>
        <time>2021-08-04T17:18:12Z</time>
      </trkpt>
      <trkpt lat="44.2056" lon="6.98471">
        <ele>1013</ele>
        <time>2021-08-04T17:18:20Z</time>
      </trkpt>
      <trkpt lat="44.20541" lon="6.98491">
        <ele>1011</ele>
        <time>2021-08-04T17:18:24Z</time>
      </trkpt>
      <trkpt lat="44.20509" lon="6.9852">
        <ele>1008</ele>
        <time>2021-08-04T17:18:31Z</time>
      </trkpt>
      <trkpt lat="44.20476" lon="6.98562">
        <ele>1011</ele>
        <time>2021-08-04T17:18:39Z</time>
      </trkpt>
      <trkpt lat="44.20459" lon="6.98591">
        <ele>1010</ele>
        <time>2021-08-04T17:18:44Z</time>
      </trkpt>
      <trkpt lat="44.20412" lon="6.98703">
        <ele>1012</ele>
        <time>2021-08-04T17:19:00Z</time>
      </trkpt>
      <trkpt lat="44.20374" lon="6.98786">
        <ele>1013</ele>
        <time>2021-08-04T17:19:13Z</time>
      </trkpt>
      <trkpt lat="44.20313" lon="6.98891">
        <ele>1004</ele>
        <time>2021-08-04T17:19:30Z</time>
      </trkpt>
      <trkpt lat="44.20291" lon="6.98924">
        <ele>1004</ele>
        <time>2021-08-04T17:19:36Z</time>
      </trkpt>
      <trkpt lat="44.20266" lon="6.98956">
        <ele>1004</ele>
        <time>2021-08-04T17:19:42Z</time>
      </trkpt>
      <trkpt lat="44.20201" lon="6.9902">
        <ele>999</ele>
        <time>2021-08-04T17:19:56Z</time>
      </trkpt>
      <trkpt lat="44.20187" lon="6.99039">
        <ele>998</ele>
        <time>2021-08-04T17:19:59Z</time>
      </trkpt>
      <trkpt lat="44.20174" lon="6.99062">
        <ele>997</ele>
        <time>2021-08-04T17:20:03Z</time>
      </trkpt>
      <trkpt lat="44.20162" lon="6.99087">
        <ele>997</ele>
        <time>2021-08-04T17:20:07Z</time>
      </trkpt>
      <trkpt lat="44.2015" lon="6.99117">
        <ele>999</ele>
        <time>2021-08-04T17:20:11Z</time>
      </trkpt>
      <trkpt lat="44.20141" lon="6.99155">
        <ele>1000</ele>
        <time>2021-08-04T17:20:16Z</time>
      </trkpt>
      <trkpt lat="44.20136" lon="6.99208">
        <ele>997</ele>
        <time>2021-08-04T17:20:23Z</time>
      </trkpt>
      <trkpt lat="44.20131" lon="6.99326">
        <ele>989</ele>
        <time>2021-08-04T17:20:38Z</time>
      </trkpt>
      <trkpt lat="44.20126" lon="6.99401">
        <ele>989</ele>
        <time>2021-08-04T17:20:48Z</time>
      </trkpt>
      <trkpt lat="44.2012" lon="6.99438">
        <ele>991</ele>
        <time>2021-08-04T17:20:53Z</time>
      </trkpt>
      <trkpt lat="44.20112" lon="6.99465">
        <ele>992</ele>
        <time>2021-08-04T17:20:56Z</time>
      </trkpt>
      <trkpt lat="44.20095" lon="6.99504">
        <ele>990</ele>
        <time>2021-08-04T17:21:02Z</time>
      </trkpt>
      <trkpt lat="44.20042" lon="6.99593">
        <ele>992</ele>
        <time>2021-08-04T17:21:17Z</time>
      </trkpt>
      <trkpt lat="44.20029" lon="6.99626">
        <ele>991</ele>
        <time>2021-08-04T17:21:22Z</time>
      </trkpt>
      <trkpt lat="44.20019" lon="6.9966">
        <ele>990</ele>
        <time>2021-08-04T17:21:26Z</time>
      </trkpt>
      <trkpt lat="44.20011" lon="6.99709">
        <ele>988</ele>
        <time>2021-08-04T17:21:33Z</time>
      </trkpt>
      <trkpt lat="44.19995" lon="6.99821">
        <ele>982</ele>
        <time>2021-08-04T17:21:47Z</time>
      </trkpt>
      <trkpt lat="44.19987" lon="6.99857">
        <ele>982</ele>
        <time>2021-08-04T17:21:52Z</time>
      </trkpt>
      <trkpt lat="44.1997" lon="6.99911">
        <ele>982</ele>
        <time>2021-08-04T17:22:00Z</time>
      </trkpt>
      <trkpt lat="44.19956" lon="6.99941">
        <ele>981</ele>
        <time>2021-08-04T17:22:04Z</time>
      </trkpt>
      <trkpt lat="44.19939" lon="6.99972">
        <ele>980</ele>
        <time>2021-08-04T17:22:09Z</time>
      </trkpt>
      <trkpt lat="44.19866" lon="7.00089">
        <ele>976</ele>
        <time>2021-08-04T17:22:29Z</time>
      </trkpt>
      <trkpt lat="44.19843" lon="7.00132">
        <ele>973</ele>
        <time>2021-08-04T17:22:36Z</time>
      </trkpt>
      <trkpt lat="44.19824" lon="7.00188">
        <ele>973</ele>
        <time>2021-08-04T17:22:44Z</time>
      </trkpt>
      <trkpt lat="44.19812" lon="7.00254">
        <ele>974</ele>
        <time>2021-08-04T17:22:53Z</time>
      </trkpt>
      <trkpt lat="44.19797" lon="7.00356">
        <ele>980</ele>
        <time>2021-08-04T17:23:06Z</time>
      </trkpt>
      <trkpt lat="44.19787" lon="7.00402">
        <ele>980</ele>
        <time>2021-08-04T17:23:12Z</time>
      </trkpt>
      <trkpt lat="44.1977" lon="7.00452">
        <ele>974</ele>
        <time>2021-08-04T17:23:19Z</time>
      </trkpt>
      <trkpt lat="44.1975" lon="7.00491">
        <ele>966</ele>
        <time>2021-08-04T17:23:25Z</time>
      </trkpt>
      <trkpt lat="44.19729" lon="7.00522">
        <ele>967</ele>
        <time>2021-08-04T17:23:31Z</time>
      </trkpt>
      <trkpt lat="44.19636" lon="7.00644">
        <ele>965</ele>
        <time>2021-08-04T17:23:53Z</time>
      </trkpt>
      <trkpt lat="44.19602" lon="7.00685">
        <ele>965</ele>
        <time>2021-08-04T17:24:01Z</time>
      </trkpt>
      <trkpt lat="44.19585" lon="7.00702">
        <ele>966</ele>
        <time>2021-08-04T17:24:05Z</time>
      </trkpt>
      <trkpt lat="44.19506" lon="7.00769">
        <ele>964</ele>
        <time>2021-08-04T17:24:21Z</time>
      </trkpt>
      <trkpt lat="44.19488" lon="7.00788">
        <ele>966</ele>
        <time>2021-08-04T17:24:25Z</time>
      </trkpt>
      <trkpt lat="44.19476" lon="7.00803">
        <ele>967</ele>
        <time>2021-08-04T17:24:28Z</time>
      </trkpt>
      <trkpt lat="44.19466" lon="7.0082">
        <ele>968</ele>
        <time>2021-08-04T17:24:31Z</time>
      </trkpt>
      <trkpt lat="44.19457" lon="7.00842">
        <ele>967</ele>
        <time>2021-08-04T17:24:34Z</time>
      </trkpt>
      <trkpt lat="44.19447" lon="7.0088">
        <ele>965</ele>
        <time>2021-08-04T17:24:40Z</time>
      </trkpt>
      <trkpt lat="44.19425" lon="7.00984">
        <ele>959</ele>
        <time>2021-08-04T17:24:53Z</time>
      </trkpt>
      <trkpt lat="44.19416" lon="7.01018">
        <ele>959</ele>
        <time>2021-08-04T17:24:58Z</time>
      </trkpt>
      <trkpt lat="44.19403" lon="7.01048">
        <ele>961</ele>
        <time>2021-08-04T17:25:02Z</time>
      </trkpt>
      <trkpt lat="44.19355" lon="7.0112">
        <ele>957</ele>
        <time>2021-08-04T17:25:15Z</time>
      </trkpt>
      <trkpt lat="44.19318" lon="7.01182">
        <ele>955</ele>
        <time>2021-08-04T17:25:25Z</time>
      </trkpt>
      <trkpt lat="44.19261" lon="7.01284">
        <ele>955</ele>
        <time>2021-08-04T17:25:42Z</time>
      </trkpt>
      <trkpt lat="44.19228" lon="7.01348">
        <ele>955</ele>
        <time>2021-08-04T17:25:52Z</time>
      </trkpt>
      <trkpt lat="44.19147" lon="7.01534">
        <ele>953</ele>
        <time>2021-08-04T17:26:20Z</time>
      </trkpt>
      <trkpt lat="44.19094" lon="7.01669">
        <ele>948</ele>
        <time>2021-08-04T17:26:39Z</time>
      </trkpt>
      <trkpt lat="44.19074" lon="7.01703">
        <ele>947</ele>
        <time>2021-08-04T17:26:45Z</time>
      </trkpt>
      <trkpt lat="44.1902" lon="7.01782">
        <ele>940</ele>
        <time>2021-08-04T17:26:59Z</time>
      </trkpt>
      <trkpt lat="44.19" lon="7.01821">
        <ele>936</ele>
        <time>2021-08-04T17:27:05Z</time>
      </trkpt>
      <trkpt lat="44.18986" lon="7.01863">
        <ele>935</ele>
        <time>2021-08-04T17:27:11Z</time>
      </trkpt>
      <trkpt lat="44.18975" lon="7.0191">
        <ele>933</ele>
        <time>2021-08-04T17:27:17Z</time>
      </trkpt>
      <trkpt lat="44.1897" lon="7.01966">
        <ele>931</ele>
        <time>2021-08-04T17:27:24Z</time>
      </trkpt>
      <trkpt lat="44.18968" lon="7.02034">
        <ele>929</ele>
        <time>2021-08-04T17:27:33Z</time>
      </trkpt>
      <trkpt lat="44.18968" lon="7.02139">
        <ele>927</ele>
        <time>2021-08-04T17:27:46Z</time>
      </trkpt>
      <trkpt lat="44.18963" lon="7.02223">
        <ele>925</ele>
        <time>2021-08-04T17:27:57Z</time>
      </trkpt>
      <trkpt lat="44.18956" lon="7.02281">
        <ele>925</ele>
        <time>2021-08-04T17:28:05Z</time>
      </trkpt>
      <trkpt lat="44.18947" lon="7.02335">
        <ele>923</ele>
        <time>2021-08-04T17:28:12Z</time>
      </trkpt>
      <trkpt lat="44.18929" lon="7.02418">
        <ele>925</ele>
        <time>2021-08-04T17:28:23Z</time>
      </trkpt>
      <trkpt lat="44.18918" lon="7.02485">
        <ele>925</ele>
        <time>2021-08-04T17:28:32Z</time>
      </trkpt>
      <trkpt lat="44.18917" lon="7.02523">
        <ele>923</ele>
        <time>2021-08-04T17:28:36Z</time>
      </trkpt>
      <trkpt lat="44.18924" lon="7.02567">
        <ele>923</ele>
        <time>2021-08-04T17:28:42Z</time>
      </trkpt>
      <trkpt lat="44.1894" lon="7.02619">
        <ele>931</ele>
        <time>2021-08-04T17:28:49Z</time>
      </trkpt>
      <trkpt lat="44.18965" lon="7.0269">
        <ele>940</ele>
        <time>2021-08-04T17:28:59Z</time>
      </trkpt>
      <trkpt lat="44.18997" lon="7.02768">
        <ele>932</ele>
        <time>2021-08-04T17:29:11Z</time>
      </trkpt>
      <trkpt lat="44.19023" lon="7.02847">
        <ele>932</ele>
        <time>2021-08-04T17:29:22Z</time>
      </trkpt>
      <trkpt lat="44.19045" lon="7.02947">
        <ele>928</ele>
        <time>2021-08-04T17:29:35Z</time>
      </trkpt>
      <trkpt lat="44.19053" lon="7.03012">
        <ele>923</ele>
        <time>2021-08-04T17:29:44Z</time>
      </trkpt>
      <trkpt lat="44.19056" lon="7.03076">
        <ele>917</ele>
        <time>2021-08-04T17:29:52Z</time>
      </trkpt>
      <trkpt lat="44.19054" lon="7.03138">
        <ele>914</ele>
        <time>2021-08-04T17:30:00Z</time>
      </trkpt>
      <trkpt lat="44.19045" lon="7.0324">
        <ele>914</ele>
        <time>2021-08-04T17:30:13Z</time>
      </trkpt>
      <trkpt lat="44.19027" lon="7.03342">
        <ele>916</ele>
        <time>2021-08-04T17:30:26Z</time>
      </trkpt>
      <trkpt lat="44.18998" lon="7.03465">
        <ele>905</ele>
        <time>2021-08-04T17:30:43Z</time>
      </trkpt>
      <trkpt lat="44.18991" lon="7.03506">
        <ele>906</ele>
        <time>2021-08-04T17:30:48Z</time>
      </trkpt>
      <trkpt lat="44.18989" lon="7.03534">
        <ele>907</ele>
        <time>2021-08-04T17:30:52Z</time>
      </trkpt>
      <trkpt lat="44.1897" lon="7.03639">
        <ele>910</ele>
        <time>2021-08-04T17:31:06Z</time>
      </trkpt>
      <trkpt lat="44.18933" lon="7.03791">
        <ele>904</ele>
        <time>2021-08-04T17:31:26Z</time>
      </trkpt>
      <trkpt lat="44.18903" lon="7.03925">
        <ele>893</ele>
        <time>2021-08-04T17:31:44Z</time>
      </trkpt>
      <trkpt lat="44.189" lon="7.03959">
        <ele>893</ele>
        <time>2021-08-04T17:31:48Z</time>
      </trkpt>
      <trkpt lat="44.18898" lon="7.04025">
        <ele>895</ele>
        <time>2021-08-04T17:31:57Z</time>
      </trkpt>
      <trkpt lat="44.18894" lon="7.04054">
        <ele>898</ele>
        <time>2021-08-04T17:32:01Z</time>
      </trkpt>
      <trkpt lat="44.18862" lon="7.04188">
        <ele>896</ele>
        <time>2021-08-04T17:32:19Z</time>
      </trkpt>
      <trkpt lat="44.18847" lon="7.04256">
        <ele>894</ele>
        <time>2021-08-04T17:32:28Z</time>
      </trkpt>
      <trkpt lat="44.18835" lon="7.04292">
        <ele>890</ele>
        <time>2021-08-04T17:32:33Z</time>
      </trkpt>
      <trkpt lat="44.18821" lon="7.04327">
        <ele>890</ele>
        <time>2021-08-04T17:32:38Z</time>
      </trkpt>
      <trkpt lat="44.18785" lon="7.04398">
        <ele>890</ele>
        <time>2021-08-04T17:32:49Z</time>
      </trkpt>
      <trkpt lat="44.18758" lon="7.04465">
        <ele>884</ele>
        <time>2021-08-04T17:32:59Z</time>
      </trkpt>
      <trkpt lat="44.18723" lon="7.04591">
        <ele>889</ele>
        <time>2021-08-04T17:33:16Z</time>
      </trkpt>
      <trkpt lat="44.18719" lon="7.04599">
        <ele>889</ele>
        <time>2021-08-04T17:33:17Z</time>
      </trkpt>
      <trkpt lat="44.18713" lon="7.04606">
        <ele>888</ele>
        <time>2021-08-04T17:33:19Z</time>
      </trkpt>
      <trkpt lat="44.18703" lon="7.04613">
        <ele>885</ele>
        <time>2021-08-04T17:33:21Z</time>
      </trkpt>
      <trkpt lat="44.18649" lon="7.04641">
        <ele>873</ele>
        <time>2021-08-04T17:33:31Z</time>
      </trkpt>
      <trkpt lat="44.18639" lon="7.0465">
        <ele>874</ele>
        <time>2021-08-04T17:33:33Z</time>
      </trkpt>
      <trkpt lat="44.18635" lon="7.04658">
        <ele>874</ele>
        <time>2021-08-04T17:33:34Z</time>
      </trkpt>
      <trkpt lat="44.18615" lon="7.04768">
        <ele>872</ele>
        <time>2021-08-04T17:33:49Z</time>
      </trkpt>
      <trkpt lat="44.18578" lon="7.04879">
        <ele>868</ele>
        <time>2021-08-04T17:34:04Z</time>
      </trkpt>
      <trkpt lat="44.18551" lon="7.04942">
        <ele>869</ele>
        <time>2021-08-04T17:34:14Z</time>
      </trkpt>
      <trkpt lat="44.18542" lon="7.04976">
        <ele>868</ele>
        <time>2021-08-04T17:34:18Z</time>
      </trkpt>
      <trkpt lat="44.18538" lon="7.04997">
        <ele>868</ele>
        <time>2021-08-04T17:34:21Z</time>
      </trkpt>
      <trkpt lat="44.18534" lon="7.05039">
        <ele>867</ele>
        <time>2021-08-04T17:34:27Z</time>
      </trkpt>
      <trkpt lat="44.18515" lon="7.05307">
        <ele>863</ele>
        <time>2021-08-04T17:35:01Z</time>
      </trkpt>
      <trkpt lat="44.18511" lon="7.05353">
        <ele>864</ele>
        <time>2021-08-04T17:35:07Z</time>
      </trkpt>
      <trkpt lat="44.18508" lon="7.05378">
        <ele>865</ele>
        <time>2021-08-04T17:35:10Z</time>
      </trkpt>
      <trkpt lat="44.18503" lon="7.05401">
        <ele>866</ele>
        <time>2021-08-04T17:35:13Z</time>
      </trkpt>
      <trkpt lat="44.18494" lon="7.05428">
        <ele>865</ele>
        <time>2021-08-04T17:35:17Z</time>
      </trkpt>
      <trkpt lat="44.18483" lon="7.05454">
        <ele>864</ele>
        <time>2021-08-04T17:35:21Z</time>
      </trkpt>
      <trkpt lat="44.1848" lon="7.05451">
        <ele>864</ele>
        <time>2021-08-04T17:35:21Z</time>
      </trkpt>
      <trkpt lat="44.18472" lon="7.0545">
        <ele>863</ele>
        <time>2021-08-04T17:35:23Z</time>
      </trkpt>
      <trkpt lat="44.18465" lon="7.05456">
        <ele>862</ele>
        <time>2021-08-04T17:35:24Z</time>
      </trkpt>
      <trkpt lat="44.18462" lon="7.05467">
        <ele>862</ele>
        <time>2021-08-04T17:35:26Z</time>
      </trkpt>
      <trkpt lat="44.18464" lon="7.05478">
        <ele>862</ele>
        <time>2021-08-04T17:35:27Z</time>
      </trkpt>
      <trkpt lat="44.18467" lon="7.05482">
        <ele>863</ele>
        <time>2021-08-04T17:35:28Z</time>
      </trkpt>
      <trkpt lat="44.18426" lon="7.05546">
        <ele>858</ele>
        <time>2021-08-04T17:35:39Z</time>
      </trkpt>
      <trkpt lat="44.18315" lon="7.05777">
        <ele>864</ele>
        <time>2021-08-04T17:36:14Z</time>
      </trkpt>
      <trkpt lat="44.18297" lon="7.05802">
        <ele>866</ele>
        <time>2021-08-04T17:36:19Z</time>
      </trkpt>
      <trkpt lat="44.1827" lon="7.05832">
        <ele>864</ele>
        <time>2021-08-04T17:36:25Z</time>
      </trkpt>
      <trkpt lat="44.18191" lon="7.05906">
        <ele>859</ele>
        <time>2021-08-04T17:36:42Z</time>
      </trkpt>
      <trkpt lat="44.18174" lon="7.05929">
        <ele>857</ele>
        <time>2021-08-04T17:36:46Z</time>
      </trkpt>
      <trkpt lat="44.18149" lon="7.05973">
        <ele>860</ele>
        <time>2021-08-04T17:36:53Z</time>
      </trkpt>
      <trkpt lat="44.1811" lon="7.06058">
        <ele>861</ele>
        <time>2021-08-04T17:37:06Z</time>
      </trkpt>
      <trkpt lat="44.18083" lon="7.06106">
        <ele>855</ele>
        <time>2021-08-04T17:37:14Z</time>
      </trkpt>
      <trkpt lat="44.18028" lon="7.06193">
        <ele>861</ele>
        <time>2021-08-04T17:37:29Z</time>
      </trkpt>
      <trkpt lat="44.18002" lon="7.06237">
        <ele>854</ele>
        <time>2021-08-04T17:37:36Z</time>
      </trkpt>
      <trkpt lat="44.1797" lon="7.063">
        <ele>865</ele>
        <time>2021-08-04T17:37:46Z</time>
      </trkpt>
      <trkpt lat="44.17951" lon="7.06349">
        <ele>862</ele>
        <time>2021-08-04T17:37:53Z</time>
      </trkpt>
      <trkpt lat="44.17912" lon="7.0647">
        <ele>852</ele>
        <time>2021-08-04T17:38:10Z</time>
      </trkpt>
      <trkpt lat="44.17895" lon="7.06544">
        <ele>854</ele>
        <time>2021-08-04T17:38:20Z</time>
      </trkpt>
      <trkpt lat="44.17882" lon="7.06583">
        <ele>853</ele>
        <time>2021-08-04T17:38:25Z</time>
      </trkpt>
      <trkpt lat="44.17869" lon="7.0661">
        <ele>854</ele>
        <time>2021-08-04T17:38:30Z</time>
      </trkpt>
      <trkpt lat="44.17852" lon="7.06638">
        <ele>853</ele>
        <time>2021-08-04T17:38:34Z</time>
      </trkpt>
      <trkpt lat="44.17754" lon="7.06773">
        <ele>844</ele>
        <time>2021-08-04T17:38:59Z</time>
      </trkpt>
      <trkpt lat="44.17737" lon="7.06799">
        <ele>846</ele>
        <time>2021-08-04T17:39:03Z</time>
      </trkpt>
      <trkpt lat="44.17667" lon="7.06934">
        <ele>836</ele>
        <time>2021-08-04T17:39:25Z</time>
      </trkpt>
      <trkpt lat="44.17657" lon="7.06961">
        <ele>838</ele>
        <time>2021-08-04T17:39:28Z</time>
      </trkpt>
      <trkpt lat="44.1765" lon="7.06991">
        <ele>838</ele>
        <time>2021-08-04T17:39:32Z</time>
      </trkpt>
      <trkpt lat="44.17623" lon="7.07149">
        <ele>845</ele>
        <time>2021-08-04T17:39:53Z</time>
      </trkpt>
      <trkpt lat="44.17614" lon="7.07223">
        <ele>844</ele>
        <time>2021-08-04T17:40:03Z</time>
      </trkpt>
      <trkpt lat="44.17613" lon="7.07245">
        <ele>843</ele>
        <time>2021-08-04T17:40:06Z</time>
      </trkpt>
      <trkpt lat="44.17623" lon="7.07329">
        <ele>848</ele>
        <time>2021-08-04T17:40:16Z</time>
      </trkpt>
      <trkpt lat="44.17622" lon="7.07371">
        <ele>850</ele>
        <time>2021-08-04T17:40:22Z</time>
      </trkpt>
      <trkpt lat="44.17614" lon="7.07435">
        <ele>852</ele>
        <time>2021-08-04T17:40:30Z</time>
      </trkpt>
      <trkpt lat="44.17572" lon="7.07547">
        <ele>851</ele>
        <time>2021-08-04T17:40:46Z</time>
      </trkpt>
      <trkpt lat="44.17495" lon="7.07786">
        <ele>851</ele>
        <time>2021-08-04T17:41:20Z</time>
      </trkpt>
      <trkpt lat="44.17484" lon="7.07808">
        <ele>852</ele>
        <time>2021-08-04T17:41:23Z</time>
      </trkpt>
      <trkpt lat="44.17396" lon="7.07952">
        <ele>843</ele>
        <time>2021-08-04T17:41:47Z</time>
      </trkpt>
      <trkpt lat="44.17384" lon="7.07966">
        <ele>844</ele>
        <time>2021-08-04T17:41:50Z</time>
      </trkpt>
      <trkpt lat="44.17306" lon="7.08031">
        <ele>852</ele>
        <time>2021-08-04T17:42:06Z</time>
      </trkpt>
      <trkpt lat="44.17297" lon="7.08046">
        <ele>854</ele>
        <time>2021-08-04T17:42:09Z</time>
      </trkpt>
      <trkpt lat="44.17287" lon="7.08097">
        <ele>851</ele>
        <time>2021-08-04T17:42:15Z</time>
      </trkpt>
      <trkpt lat="44.17286" lon="7.08141">
        <ele>850</ele>
        <time>2021-08-04T17:42:21Z</time>
      </trkpt>
      <trkpt lat="44.17288" lon="7.08185">
        <ele>846</ele>
        <time>2021-08-04T17:42:27Z</time>
      </trkpt>
      <trkpt lat="44.17285" lon="7.08217">
        <ele>843</ele>
        <time>2021-08-04T17:42:31Z</time>
      </trkpt>
      <trkpt lat="44.17276" lon="7.08249">
        <ele>839</ele>
        <time>2021-08-04T17:42:35Z</time>
      </trkpt>
      <trkpt lat="44.1721" lon="7.08364">
        <ele>841</ele>
        <time>2021-08-04T17:42:54Z</time>
      </trkpt>
      <trkpt lat="44.17149" lon="7.08451">
        <ele>833</ele>
        <time>2021-08-04T17:43:10Z</time>
      </trkpt>
      <trkpt lat="44.17059" lon="7.08562">
        <ele>826</ele>
        <time>2021-08-04T17:43:31Z</time>
      </trkpt>
      <trkpt lat="44.17039" lon="7.08584">
        <ele>823</ele>
        <time>2021-08-04T17:43:35Z</time>
      </trkpt>
      <trkpt lat="44.16922" lon="7.08678">
        <ele>823</ele>
        <time>2021-08-04T17:43:59Z</time>
      </trkpt>
      <trkpt lat="44.16885" lon="7.08701">
        <ele>825</ele>
        <time>2021-08-04T17:44:07Z</time>
      </trkpt>
      <trkpt lat="44.16863" lon="7.0871">
        <ele>826</ele>
        <time>2021-08-04T17:44:11Z</time>
      </trkpt>
      <trkpt lat="44.16784" lon="7.08768">
        <ele>818</ele>
        <time>2021-08-04T17:44:27Z</time>
      </trkpt>
      <trkpt lat="44.16758" lon="7.08778">
        <ele>822</ele>
        <time>2021-08-04T17:44:31Z</time>
      </trkpt>
      <trkpt lat="44.1671" lon="7.08789">
        <ele>824</ele>
        <time>2021-08-04T17:44:40Z</time>
      </trkpt>
      <trkpt lat="44.16647" lon="7.088">
        <ele>821</ele>
        <time>2021-08-04T17:44:51Z</time>
      </trkpt>
      <trkpt lat="44.16588" lon="7.08805">
        <ele>814</ele>
        <time>2021-08-04T17:45:02Z</time>
      </trkpt>
      <trkpt lat="44.1654" lon="7.08806">
        <ele>813</ele>
        <time>2021-08-04T17:45:10Z</time>
      </trkpt>
      <trkpt lat="44.16506" lon="7.08813">
        <ele>808</ele>
        <time>2021-08-04T17:45:17Z</time>
      </trkpt>
      <trkpt lat="44.16421" lon="7.08853">
        <ele>799</ele>
        <time>2021-08-04T17:45:33Z</time>
      </trkpt>
      <trkpt lat="44.16403" lon="7.08867">
        <ele>802</ele>
        <time>2021-08-04T17:45:36Z</time>
      </trkpt>
      <trkpt lat="44.16355" lon="7.08924">
        <ele>795</ele>
        <time>2021-08-04T17:45:47Z</time>
      </trkpt>
      <trkpt lat="44.16319" lon="7.08958">
        <ele>795</ele>
        <time>2021-08-04T17:45:55Z</time>
      </trkpt>
      <trkpt lat="44.16281" lon="7.08989">
        <ele>791</ele>
        <time>2021-08-04T17:46:03Z</time>
      </trkpt>
      <trkpt lat="44.16248" lon="7.09009">
        <ele>787</ele>
        <time>2021-08-04T17:46:09Z</time>
      </trkpt>
      <trkpt lat="44.16219" lon="7.09017">
        <ele>787</ele>
        <time>2021-08-04T17:46:15Z</time>
      </trkpt>
      <trkpt lat="44.16147" lon="7.09016">
        <ele>790</ele>
        <time>2021-08-04T17:46:27Z</time>
      </trkpt>
      <trkpt lat="44.16098" lon="7.09019">
        <ele>791</ele>
        <time>2021-08-04T17:46:36Z</time>
      </trkpt>
      <trkpt lat="44.16069" lon="7.09026">
        <ele>790</ele>
        <time>2021-08-04T17:46:41Z</time>
      </trkpt>
      <trkpt lat="44.16021" lon="7.09042">
        <ele>786</ele>
        <time>2021-08-04T17:46:50Z</time>
      </trkpt>
      <trkpt lat="44.15916" lon="7.09084">
        <ele>777</ele>
        <time>2021-08-04T17:47:10Z</time>
      </trkpt>
      <trkpt lat="44.15882" lon="7.09088">
        <ele>775</ele>
        <time>2021-08-04T17:47:16Z</time>
      </trkpt>
      <trkpt lat="44.15845" lon="7.09086">
        <ele>772</ele>
        <time>2021-08-04T17:47:22Z</time>
      </trkpt>
      <trkpt lat="44.15819" lon="7.09079">
        <ele>771</ele>
        <time>2021-08-04T17:47:27Z</time>
      </trkpt>
      <trkpt lat="44.15725" lon="7.09038">
        <ele>780</ele>
        <time>2021-08-04T17:47:45Z</time>
      </trkpt>
      <trkpt lat="44.15686" lon="7.09029">
        <ele>776</ele>
        <time>2021-08-04T17:47:52Z</time>
      </trkpt>
      <trkpt lat="44.15641" lon="7.09028">
        <ele>773</ele>
        <time>2021-08-04T17:48:00Z</time>
      </trkpt>
      <trkpt lat="44.1558" lon="7.09051">
        <ele>766</ele>
        <time>2021-08-04T17:48:11Z</time>
      </trkpt>
      <trkpt lat="44.15481" lon="7.09139">
        <ele>759</ele>
        <time>2021-08-04T17:48:32Z</time>
      </trkpt>
      <trkpt lat="44.15459" lon="7.09167">
        <ele>761</ele>
        <time>2021-08-04T17:48:37Z</time>
      </trkpt>
      <trkpt lat="44.1544" lon="7.09202">
        <ele>764</ele>
        <time>2021-08-04T17:48:43Z</time>
      </trkpt>
      <trkpt lat="44.15421" lon="7.09245">
        <ele>758</ele>
        <time>2021-08-04T17:48:49Z</time>
      </trkpt>
      <trkpt lat="44.154" lon="7.09303">
        <ele>759</ele>
        <time>2021-08-04T17:48:57Z</time>
      </trkpt>
      <trkpt lat="44.15387" lon="7.09331">
        <ele>758</ele>
        <time>2021-08-04T17:49:02Z</time>
      </trkpt>
      <trkpt lat="44.15367" lon="7.09361">
        <ele>758</ele>
        <time>2021-08-04T17:49:07Z</time>
      </trkpt>
      <trkpt lat="44.15338" lon="7.09386">
        <ele>755</ele>
        <time>2021-08-04T17:49:13Z</time>
      </trkpt>
      <trkpt lat="44.15301" lon="7.09394">
        <ele>753</ele>
        <time>2021-08-04T17:49:20Z</time>
      </trkpt>
      <trkpt lat="44.15263" lon="7.09392">
        <ele>754</ele>
        <time>2021-08-04T17:49:26Z</time>
      </trkpt>
      <trkpt lat="44.15226" lon="7.09393">
        <ele>756</ele>
        <time>2021-08-04T17:49:33Z</time>
      </trkpt>
      <trkpt lat="44.15193" lon="7.09407">
        <ele>754</ele>
        <time>2021-08-04T17:49:39Z</time>
      </trkpt>
      <trkpt lat="44.1516" lon="7.09437">
        <ele>753</ele>
        <time>2021-08-04T17:49:46Z</time>
      </trkpt>
      <trkpt lat="44.1511" lon="7.09509">
        <ele>755</ele>
        <time>2021-08-04T17:49:59Z</time>
      </trkpt>
      <trkpt lat="44.15063" lon="7.09591">
        <ele>753</ele>
        <time>2021-08-04T17:50:12Z</time>
      </trkpt>
      <trkpt lat="44.1503" lon="7.09625">
        <ele>757</ele>
        <time>2021-08-04T17:50:20Z</time>
      </trkpt>
      <trkpt lat="44.14995" lon="7.0965">
        <ele>751</ele>
        <time>2021-08-04T17:50:27Z</time>
      </trkpt>
      <trkpt lat="44.14961" lon="7.0966">
        <ele>746</ele>
        <time>2021-08-04T17:50:33Z</time>
      </trkpt>
      <trkpt lat="44.14927" lon="7.09659">
        <ele>747</ele>
        <time>2021-08-04T17:50:39Z</time>
      </trkpt>
      <trkpt lat="44.14861" lon="7.09643">
        <ele>744</ele>
        <time>2021-08-04T17:50:51Z</time>
      </trkpt>
      <trkpt lat="44.14786" lon="7.0963">
        <ele>748</ele>
        <time>2021-08-04T17:51:04Z</time>
      </trkpt>
      <trkpt lat="44.14756" lon="7.09633">
        <ele>748</ele>
        <time>2021-08-04T17:51:10Z</time>
      </trkpt>
      <trkpt lat="44.14655" lon="7.09688">
        <ele>748</ele>
        <time>2021-08-04T17:51:29Z</time>
      </trkpt>
      <trkpt lat="44.14631" lon="7.09707">
        <ele>749</ele>
        <time>2021-08-04T17:51:34Z</time>
      </trkpt>
      <trkpt lat="44.14602" lon="7.09748">
        <ele>736</ele>
        <time>2021-08-04T17:51:41Z</time>
      </trkpt>
      <trkpt lat="44.14576" lon="7.09775">
        <ele>734</ele>
        <time>2021-08-04T17:51:47Z</time>
      </trkpt>
      <trkpt lat="44.14537" lon="7.09801">
        <ele>729</ele>
        <time>2021-08-04T17:51:55Z</time>
      </trkpt>
      <trkpt lat="44.14515" lon="7.09808">
        <ele>727</ele>
        <time>2021-08-04T17:51:59Z</time>
      </trkpt>
      <trkpt lat="44.14451" lon="7.09798">
        <ele>732</ele>
        <time>2021-08-04T17:52:10Z</time>
      </trkpt>
      <trkpt lat="44.14385" lon="7.09774">
        <ele>740</ele>
        <time>2021-08-04T17:52:22Z</time>
      </trkpt>
      <trkpt lat="44.14335" lon="7.0976">
        <ele>740</ele>
        <time>2021-08-04T17:52:31Z</time>
      </trkpt>
      <trkpt lat="44.14306" lon="7.09763">
        <ele>739</ele>
        <time>2021-08-04T17:52:36Z</time>
      </trkpt>
      <trkpt lat="44.1428" lon="7.0977">
        <ele>738</ele>
        <time>2021-08-04T17:52:41Z</time>
      </trkpt>
      <trkpt lat="44.1419" lon="7.09829">
        <ele>729</ele>
        <time>2021-08-04T17:52:59Z</time>
      </trkpt>
      <trkpt lat="44.14098" lon="7.0986">
        <ele>731</ele>
        <time>2021-08-04T17:53:16Z</time>
      </trkpt>
      <trkpt lat="44.14041" lon="7.09856">
        <ele>737</ele>
        <time>2021-08-04T17:53:26Z</time>
      </trkpt>
      <trkpt lat="44.14022" lon="7.09861">
        <ele>737</ele>
        <time>2021-08-04T17:53:29Z</time>
      </trkpt>
      <trkpt lat="44.13922" lon="7.09937">
        <ele>730</ele>
        <time>2021-08-04T17:53:49Z</time>
      </trkpt>
      <trkpt lat="44.13861" lon="7.09992">
        <ele>724</ele>
        <time>2021-08-04T17:54:02Z</time>
      </trkpt>
      <trkpt lat="44.13835" lon="7.10012">
        <ele>721</ele>
        <time>2021-08-04T17:54:08Z</time>
      </trkpt>
      <trkpt lat="44.13819" lon="7.10018">
        <ele>721</ele>
        <time>2021-08-04T17:54:11Z</time>
      </trkpt>
      <trkpt lat="44.13806" lon="7.10018">
        <ele>722</ele>
        <time>2021-08-04T17:54:13Z</time>
      </trkpt>
      <trkpt lat="44.13793" lon="7.10021">
        <ele>722</ele>
        <time>2021-08-04T17:54:15Z</time>
      </trkpt>
      <trkpt lat="44.1371" lon="7.10002">
        <ele>726</ele>
        <time>2021-08-04T17:54:30Z</time>
      </trkpt>
      <trkpt lat="44.13685" lon="7.09993">
        <ele>730</ele>
        <time>2021-08-04T17:54:35Z</time>
      </trkpt>
      <trkpt lat="44.13654" lon="7.09991">
        <ele>729</ele>
        <time>2021-08-04T17:54:40Z</time>
      </trkpt>
      <trkpt lat="44.13624" lon="7.09998">
        <ele>723</ele>
        <time>2021-08-04T17:54:46Z</time>
      </trkpt>
      <trkpt lat="44.1359" lon="7.10011">
        <ele>719</ele>
        <time>2021-08-04T17:54:52Z</time>
      </trkpt>
      <trkpt lat="44.13526" lon="7.10048">
        <ele>715</ele>
        <time>2021-08-04T17:55:04Z</time>
      </trkpt>
      <trkpt lat="44.13341" lon="7.10094">
        <ele>705</ele>
        <time>2021-08-04T17:55:38Z</time>
      </trkpt>
      <trkpt lat="44.1331" lon="7.10101">
        <ele>706</ele>
        <time>2021-08-04T17:55:43Z</time>
      </trkpt>
      <trkpt lat="44.13283" lon="7.101">
        <ele>707</ele>
        <time>2021-08-04T17:55:48Z</time>
      </trkpt>
      <trkpt lat="44.13251" lon="7.1009">
        <ele>704</ele>
        <time>2021-08-04T17:55:54Z</time>
      </trkpt>
      <trkpt lat="44.13218" lon="7.10072">
        <ele>700</ele>
        <time>2021-08-04T17:56:00Z</time>
      </trkpt>
      <trkpt lat="44.13186" lon="7.10047">
        <ele>702</ele>
        <time>2021-08-04T17:56:07Z</time>
      </trkpt>
      <trkpt lat="44.13134" lon="7.10026">
        <ele>698</ele>
        <time>2021-08-04T17:56:17Z</time>
      </trkpt>
      <trkpt lat="44.13092" lon="7.10023">
        <ele>690</ele>
        <time>2021-08-04T17:56:24Z</time>
      </trkpt>
      <trkpt lat="44.13049" lon="7.10009">
        <ele>686</ele>
        <time>2021-08-04T17:56:32Z</time>
      </trkpt>
      <trkpt lat="44.13013" lon="7.09987">
        <ele>685</ele>
        <time>2021-08-04T17:56:39Z</time>
      </trkpt>
      <trkpt lat="44.12974" lon="7.0994">
        <ele>686</ele>
        <time>2021-08-04T17:56:48Z</time>
      </trkpt>
      <trkpt lat="44.12892" lon="7.09776">
        <ele>696</ele>
        <time>2021-08-04T17:57:14Z</time>
      </trkpt>
      <trkpt lat="44.12854" lon="7.09723">
        <ele>692</ele>
        <time>2021-08-04T17:57:23Z</time>
      </trkpt>
      <trkpt lat="44.12779" lon="7.09643">
        <ele>689</ele>
        <time>2021-08-04T17:57:40Z</time>
      </trkpt>
      <trkpt lat="44.12767" lon="7.09628">
        <ele>686</ele>
        <time>2021-08-04T17:57:43Z</time>
      </trkpt>
      <trkpt lat="44.12759" lon="7.09612">
        <ele>681</ele>
        <time>2021-08-04T17:57:45Z</time>
      </trkpt>
      <trkpt lat="44.12716" lon="7.09492">
        <ele>680</ele>
        <time>2021-08-04T17:58:02Z</time>
      </trkpt>
      <trkpt lat="44.12703" lon="7.0947">
        <ele>684</ele>
        <time>2021-08-04T17:58:06Z</time>
      </trkpt>
      <trkpt lat="44.12682" lon="7.09441">
        <ele>679</ele>
        <time>2021-08-04T17:58:11Z</time>
      </trkpt>
      <trkpt lat="44.12653" lon="7.09416">
        <ele>670</ele>
        <time>2021-08-04T17:58:17Z</time>
      </trkpt>
      <trkpt lat="44.1257" lon="7.09376">
        <ele>671</ele>
        <time>2021-08-04T17:58:33Z</time>
      </trkpt>
      <trkpt lat="44.12534" lon="7.09355">
        <ele>675</ele>
        <time>2021-08-04T17:58:40Z</time>
      </trkpt>
      <trkpt lat="44.12516" lon="7.09338">
        <ele>671</ele>
        <time>2021-08-04T17:58:44Z</time>
      </trkpt>
      <trkpt lat="44.12452" lon="7.09265">
        <ele>661</ele>
        <time>2021-08-04T17:58:59Z</time>
      </trkpt>
      <trkpt lat="44.12438" lon="7.09253">
        <ele>656</ele>
        <time>2021-08-04T17:59:01Z</time>
      </trkpt>
      <trkpt lat="44.12425" lon="7.09243">
        <ele>655</ele>
        <time>2021-08-04T17:59:04Z</time>
      </trkpt>
      <trkpt lat="44.12398" lon="7.09229">
        <ele>658</ele>
        <time>2021-08-04T17:59:09Z</time>
      </trkpt>
      <trkpt lat="44.12385" lon="7.09225">
        <ele>660</ele>
        <time>2021-08-04T17:59:12Z</time>
      </trkpt>
      <trkpt lat="44.12216" lon="7.09188">
        <ele>667</ele>
        <time>2021-08-04T17:59:42Z</time>
      </trkpt>
      <trkpt lat="44.12001" lon="7.0921">
        <ele>658</ele>
        <time>2021-08-04T18:00:20Z</time>
      </trkpt>
      <trkpt lat="44.11979" lon="7.09214">
        <ele>657</ele>
        <time>2021-08-04T18:00:24Z</time>
      </trkpt>
      <trkpt lat="44.11814" lon="7.09274">
        <ele>661</ele>
        <time>2021-08-04T18:00:55Z</time>
      </trkpt>
      <trkpt lat="44.11786" lon="7.09271">
        <ele>656</ele>
        <time>2021-08-04T18:01:00Z</time>
      </trkpt>
      <trkpt lat="44.11737" lon="7.09251">
        <ele>643</ele>
        <time>2021-08-04T18:01:09Z</time>
      </trkpt>
      <trkpt lat="44.11688" lon="7.09238">
        <ele>640</ele>
        <time>2021-08-04T18:01:18Z</time>
      </trkpt>
      <trkpt lat="44.1166" lon="7.09238">
        <ele>639</ele>
        <time>2021-08-04T18:01:23Z</time>
      </trkpt>
      <trkpt lat="44.11624" lon="7.09262">
        <ele>639</ele>
        <time>2021-08-04T18:01:30Z</time>
      </trkpt>
      <trkpt lat="44.11589" lon="7.09329">
        <ele>646</ele>
        <time>2021-08-04T18:01:40Z</time>
      </trkpt>
      <trkpt lat="44.11509" lon="7.09514">
        <ele>649</ele>
        <time>2021-08-04T18:02:08Z</time>
      </trkpt>
      <trkpt lat="44.11428" lon="7.096">
        <ele>641</ele>
        <time>2021-08-04T18:02:26Z</time>
      </trkpt>
      <trkpt lat="44.11352" lon="7.09642">
        <ele>636</ele>
        <time>2021-08-04T18:02:41Z</time>
      </trkpt>
      <trkpt lat="44.11312" lon="7.09676">
        <ele>636</ele>
        <time>2021-08-04T18:02:49Z</time>
      </trkpt>
      <trkpt lat="44.11267" lon="7.09721">
        <ele>646</ele>
        <time>2021-08-04T18:02:59Z</time>
      </trkpt>
      <trkpt lat="44.11129" lon="7.09765">
        <ele>629</ele>
        <time>2021-08-04T18:03:24Z</time>
      </trkpt>
      <trkpt lat="44.11083" lon="7.09822">
        <ele>626</ele>
        <time>2021-08-04T18:03:35Z</time>
      </trkpt>
      <trkpt lat="44.1104" lon="7.0987">
        <ele>625</ele>
        <time>2021-08-04T18:03:45Z</time>
      </trkpt>
      <trkpt lat="44.10963" lon="7.10011">
        <ele>625</ele>
        <time>2021-08-04T18:04:07Z</time>
      </trkpt>
      <trkpt lat="44.10924" lon="7.10098">
        <ele>622</ele>
        <time>2021-08-04T18:04:20Z</time>
      </trkpt>
      <trkpt lat="44.10886" lon="7.10161">
        <ele>623</ele>
        <time>2021-08-04T18:04:31Z</time>
      </trkpt>
      <trkpt lat="44.10842" lon="7.10193">
        <ele>626</ele>
        <time>2021-08-04T18:04:40Z</time>
      </trkpt>
      <trkpt lat="44.10784" lon="7.10205">
        <ele>623</ele>
        <time>2021-08-04T18:04:50Z</time>
      </trkpt>
      <trkpt lat="44.10669" lon="7.10211">
        <ele>626</ele>
        <time>2021-08-04T18:05:11Z</time>
      </trkpt>
      <trkpt lat="44.10615" lon="7.10192">
        <ele>613</ele>
        <time>2021-08-04T18:05:21Z</time>
      </trkpt>
      <trkpt lat="44.10586" lon="7.10189">
        <ele>611</ele>
        <time>2021-08-04T18:05:26Z</time>
      </trkpt>
      <trkpt lat="44.10495" lon="7.10209">
        <ele>613</ele>
        <time>2021-08-04T18:05:42Z</time>
      </trkpt>
      <trkpt lat="44.10442" lon="7.10224">
        <ele>608</ele>
        <time>2021-08-04T18:05:52Z</time>
      </trkpt>
      <trkpt lat="44.10381" lon="7.1026">
        <ele>611</ele>
        <time>2021-08-04T18:06:04Z</time>
      </trkpt>
      <trkpt lat="44.10241" lon="7.103">
        <ele>610</ele>
        <time>2021-08-04T18:06:29Z</time>
      </trkpt>
      <trkpt lat="44.10082" lon="7.10337">
        <ele>608</ele>
        <time>2021-08-04T18:06:58Z</time>
      </trkpt>
      <trkpt lat="44.10012" lon="7.10347">
        <ele>600</ele>
        <time>2021-08-04T18:07:10Z</time>
      </trkpt>
      <trkpt lat="44.09954" lon="7.10367">
        <ele>603</ele>
        <time>2021-08-04T18:07:21Z</time>
      </trkpt>
      <trkpt lat="44.09856" lon="7.10369">
        <ele>581</ele>
        <time>2021-08-04T18:07:38Z</time>
      </trkpt>
      <trkpt lat="44.09837" lon="7.10377">
        <ele>579</ele>
        <time>2021-08-04T18:07:42Z</time>
      </trkpt>
      <trkpt lat="44.09754" lon="7.10458">
        <ele>592</ele>
        <time>2021-08-04T18:08:00Z</time>
      </trkpt>
      <trkpt lat="44.09653" lon="7.10497">
        <ele>569</ele>
        <time>2021-08-04T18:08:19Z</time>
      </trkpt>
      <trkpt lat="44.09641" lon="7.10509">
        <ele>570</ele>
        <time>2021-08-04T18:08:21Z</time>
      </trkpt>
      <trkpt lat="44.09616" lon="7.10567">
        <ele>583</ele>
        <time>2021-08-04T18:08:30Z</time>
      </trkpt>
      <trkpt lat="44.09607" lon="7.10581">
        <ele>583</ele>
        <time>2021-08-04T18:08:32Z</time>
      </trkpt>
      <trkpt lat="44.09546" lon="7.10624">
        <ele>584</ele>
        <time>2021-08-04T18:08:44Z</time>
      </trkpt>
      <trkpt lat="44.09521" lon="7.10632">
        <ele>583</ele>
        <time>2021-08-04T18:08:49Z</time>
      </trkpt>
      <trkpt lat="44.09483" lon="7.1063">
        <ele>575</ele>
        <time>2021-08-04T18:08:56Z</time>
      </trkpt>
      <trkpt lat="44.09326" lon="7.10665">
        <ele>557</ele>
        <time>2021-08-04T18:09:24Z</time>
      </trkpt>
      <trkpt lat="44.09121" lon="7.10763">
        <ele>548</ele>
        <time>2021-08-04T18:10:03Z</time>
      </trkpt>
      <trkpt lat="44.09105" lon="7.10778">
        <ele>553</ele>
        <time>2021-08-04T18:10:06Z</time>
      </trkpt>
      <trkpt lat="44.09093" lon="7.10784">
        <ele>553</ele>
        <time>2021-08-04T18:10:08Z</time>
      </trkpt>
      <trkpt lat="44.09078" lon="7.10783">
        <ele>552</ele>
        <time>2021-08-04T18:10:11Z</time>
      </trkpt>
      <trkpt lat="44.09033" lon="7.1075">
        <ele>543</ele>
        <time>2021-08-04T18:10:20Z</time>
      </trkpt>
      <trkpt lat="44.09017" lon="7.10732">
        <ele>543</ele>
        <time>2021-08-04T18:10:24Z</time>
      </trkpt>
      <trkpt lat="44.08995" lon="7.1073">
        <ele>545</ele>
        <time>2021-08-04T18:10:28Z</time>
      </trkpt>
      <trkpt lat="44.08911" lon="7.10753">
        <ele>538</ele>
        <time>2021-08-04T18:10:43Z</time>
      </trkpt>
      <trkpt lat="44.08894" lon="7.10758">
        <ele>540</ele>
        <time>2021-08-04T18:10:46Z</time>
      </trkpt>
      <trkpt lat="44.08834" lon="7.10757">
        <ele>537</ele>
        <time>2021-08-04T18:10:57Z</time>
      </trkpt>
      <trkpt lat="44.08788" lon="7.10743">
        <ele>542</ele>
        <time>2021-08-04T18:11:05Z</time>
      </trkpt>
      <trkpt lat="44.08763" lon="7.1072">
        <ele>538</ele>
        <time>2021-08-04T18:11:10Z</time>
      </trkpt>
      <trkpt lat="44.08738" lon="7.10687">
        <ele>532</ele>
        <time>2021-08-04T18:11:16Z</time>
      </trkpt>
      <trkpt lat="44.08723" lon="7.10653">
        <ele>525</ele>
        <time>2021-08-04T18:11:21Z</time>
      </trkpt>
      <trkpt lat="44.08705" lon="7.10621">
        <ele>519</ele>
        <time>2021-08-04T18:11:27Z</time>
      </trkpt>
      <trkpt lat="44.08684" lon="7.10612">
        <ele>519</ele>
        <time>2021-08-04T18:11:31Z</time>
      </trkpt>
      <trkpt lat="44.08665" lon="7.10611">
        <ele>522</ele>
        <time>2021-08-04T18:11:34Z</time>
      </trkpt>
      <trkpt lat="44.08616" lon="7.10615">
        <ele>519</ele>
        <time>2021-08-04T18:11:43Z</time>
      </trkpt>
      <trkpt lat="44.08595" lon="7.10615">
        <ele>516</ele>
        <time>2021-08-04T18:11:46Z</time>
      </trkpt>
      <trkpt lat="44.08562" lon="7.10629">
        <ele>520</ele>
        <time>2021-08-04T18:11:53Z</time>
      </trkpt>
      <trkpt lat="44.08547" lon="7.10632">
        <ele>518</ele>
        <time>2021-08-04T18:11:55Z</time>
      </trkpt>
      <trkpt lat="44.08517" lon="7.10629">
        <ele>512</ele>
        <time>2021-08-04T18:12:01Z</time>
      </trkpt>
      <trkpt lat="44.08477" lon="7.10631">
        <ele>517</ele>
        <time>2021-08-04T18:12:08Z</time>
      </trkpt>
      <trkpt lat="44.08461" lon="7.10628">
        <ele>521</ele>
        <time>2021-08-04T18:12:11Z</time>
      </trkpt>
      <trkpt lat="44.08451" lon="7.10619">
        <ele>520</ele>
        <time>2021-08-04T18:12:13Z</time>
      </trkpt>
      <trkpt lat="44.08442" lon="7.10602">
        <ele>514</ele>
        <time>2021-08-04T18:12:15Z</time>
      </trkpt>
      <trkpt lat="44.08433" lon="7.10562">
        <ele>504</ele>
        <time>2021-08-04T18:12:21Z</time>
      </trkpt>
      <trkpt lat="44.0842" lon="7.10541">
        <ele>501</ele>
        <time>2021-08-04T18:12:24Z</time>
      </trkpt>
      <trkpt lat="44.08413" lon="7.10512">
        <ele>496</ele>
        <time>2021-08-04T18:12:28Z</time>
      </trkpt>
      <trkpt lat="44.08405" lon="7.10494">
        <ele>492</ele>
        <time>2021-08-04T18:12:31Z</time>
      </trkpt>
      <trkpt lat="44.08401" lon="7.1049">
        <ele>492</ele>
        <time>2021-08-04T18:12:32Z</time>
      </trkpt>
      <trkpt lat="44.08393" lon="7.10488">
        <ele>492</ele>
        <time>2021-08-04T18:12:33Z</time>
      </trkpt>
      <trkpt lat="44.08384" lon="7.1049">
        <ele>492</ele>
        <time>2021-08-04T18:12:35Z</time>
      </trkpt>
      <trkpt lat="44.08226" lon="7.10613">
        <ele>497</ele>
        <time>2021-08-04T18:13:07Z</time>
      </trkpt>
      <trkpt lat="44.08217" lon="7.10621">
        <ele>498</ele>
        <time>2021-08-04T18:13:09Z</time>
      </trkpt>
      <trkpt lat="44.08179" lon="7.10647">
        <ele>502</ele>
        <time>2021-08-04T18:13:17Z</time>
      </trkpt>
      <trkpt lat="44.08118" lon="7.10684">
        <ele>512</ele>
        <time>2021-08-04T18:13:28Z</time>
      </trkpt>
      <trkpt lat="44.08102" lon="7.10685">
        <ele>512</ele>
        <time>2021-08-04T18:13:31Z</time>
      </trkpt>
      <trkpt lat="44.08083" lon="7.10678">
        <ele>508</ele>
        <time>2021-08-04T18:13:35Z</time>
      </trkpt>
      <trkpt lat="44.08048" lon="7.10667">
        <ele>522</ele>
        <time>2021-08-04T18:13:41Z</time>
      </trkpt>
      <trkpt lat="44.08025" lon="7.1064">
        <ele>522</ele>
        <time>2021-08-04T18:13:46Z</time>
      </trkpt>
      <trkpt lat="44.07988" lon="7.10553">
        <ele>499</ele>
        <time>2021-08-04T18:13:59Z</time>
      </trkpt>
      <trkpt lat="44.07974" lon="7.10537">
        <ele>499</ele>
        <time>2021-08-04T18:14:03Z</time>
      </trkpt>
      <trkpt lat="44.07959" lon="7.1053">
        <ele>501</ele>
        <time>2021-08-04T18:14:05Z</time>
      </trkpt>
      <trkpt lat="44.07912" lon="7.10513">
        <ele>502</ele>
        <time>2021-08-04T18:14:14Z</time>
      </trkpt>
      <trkpt lat="44.07884" lon="7.10512">
        <ele>501</ele>
        <time>2021-08-04T18:14:19Z</time>
      </trkpt>
      <trkpt lat="44.0785" lon="7.10506">
        <ele>495</ele>
        <time>2021-08-04T18:14:25Z</time>
      </trkpt>
      <trkpt lat="44.07822" lon="7.10492">
        <ele>487</ele>
        <time>2021-08-04T18:14:30Z</time>
      </trkpt>
      <trkpt lat="44.07797" lon="7.10483">
        <ele>483</ele>
        <time>2021-08-04T18:14:35Z</time>
      </trkpt>
      <trkpt lat="44.07784" lon="7.10484">
        <ele>482</ele>
        <time>2021-08-04T18:14:37Z</time>
      </trkpt>
      <trkpt lat="44.07771" lon="7.10492">
        <ele>481</ele>
        <time>2021-08-04T18:14:40Z</time>
      </trkpt>
      <trkpt lat="44.07748" lon="7.10516">
        <ele>485</ele>
        <time>2021-08-04T18:14:45Z</time>
      </trkpt>
      <trkpt lat="44.07731" lon="7.10539">
        <ele>489</ele>
        <time>2021-08-04T18:14:49Z</time>
      </trkpt>
      <trkpt lat="44.077" lon="7.10618">
        <ele>497</ele>
        <time>2021-08-04T18:15:01Z</time>
      </trkpt>
      <trkpt lat="44.07686" lon="7.10647">
        <ele>496</ele>
        <time>2021-08-04T18:15:05Z</time>
      </trkpt>
      <trkpt lat="44.07646" lon="7.10706">
        <ele>495</ele>
        <time>2021-08-04T18:15:16Z</time>
      </trkpt>
      <trkpt lat="44.07596" lon="7.10773">
        <ele>494</ele>
        <time>2021-08-04T18:15:28Z</time>
      </trkpt>
      <trkpt lat="44.07553" lon="7.10811">
        <ele>494</ele>
        <time>2021-08-04T18:15:37Z</time>
      </trkpt>
      <trkpt lat="44.07491" lon="7.1086">
        <ele>488</ele>
        <time>2021-08-04T18:15:50Z</time>
      </trkpt>
      <trkpt lat="44.07459" lon="7.10894">
        <ele>493</ele>
        <time>2021-08-04T18:15:57Z</time>
      </trkpt>
      <trkpt lat="44.07431" lon="7.10912">
        <ele>489</ele>
        <time>2021-08-04T18:16:02Z</time>
      </trkpt>
      <trkpt lat="44.07371" lon="7.10943">
        <ele>483</ele>
        <time>2021-08-04T18:16:14Z</time>
      </trkpt>
      <trkpt lat="44.07346" lon="7.10954">
        <ele>480</ele>
        <time>2021-08-04T18:16:18Z</time>
      </trkpt>
      <trkpt lat="44.07299" lon="7.10965">
        <ele>480</ele>
        <time>2021-08-04T18:16:27Z</time>
      </trkpt>
      <trkpt lat="44.07242" lon="7.10965">
        <ele>482</ele>
        <time>2021-08-04T18:16:37Z</time>
      </trkpt>
      <trkpt lat="44.07151" lon="7.10954">
        <ele>477</ele>
        <time>2021-08-04T18:16:53Z</time>
      </trkpt>
      <trkpt lat="44.07125" lon="7.10957">
        <ele>475</ele>
        <time>2021-08-04T18:16:58Z</time>
      </trkpt>
      <trkpt lat="44.07055" lon="7.11022">
        <ele>490</ele>
        <time>2021-08-04T18:17:13Z</time>
      </trkpt>
      <trkpt lat="44.06977" lon="7.11076">
        <ele>482</ele>
        <time>2021-08-04T18:17:28Z</time>
      </trkpt>
      <trkpt lat="44.06943" lon="7.11126">
        <ele>491</ele>
        <time>2021-08-04T18:17:37Z</time>
      </trkpt>
      <trkpt lat="44.06894" lon="7.11166">
        <ele>483</ele>
        <time>2021-08-04T18:17:47Z</time>
      </trkpt>
      <trkpt lat="44.06876" lon="7.11187">
        <ele>481</ele>
        <time>2021-08-04T18:17:51Z</time>
      </trkpt>
      <trkpt lat="44.06849" lon="7.1131">
        <ele>488</ele>
        <time>2021-08-04T18:18:08Z</time>
      </trkpt>
      <trkpt lat="44.06822" lon="7.11405">
        <ele>494</ele>
        <time>2021-08-04T18:18:21Z</time>
      </trkpt>
      <trkpt lat="44.06807" lon="7.11423">
        <ele>493</ele>
        <time>2021-08-04T18:18:24Z</time>
      </trkpt>
      <trkpt lat="44.06716" lon="7.11477">
        <ele>494</ele>
        <time>2021-08-04T18:18:42Z</time>
      </trkpt>
      <trkpt lat="44.06672" lon="7.11477">
        <ele>489</ele>
        <time>2021-08-04T18:18:50Z</time>
      </trkpt>
      <trkpt lat="44.06645" lon="7.11495">
        <ele>496</ele>
        <time>2021-08-04T18:18:55Z</time>
      </trkpt>
      <trkpt lat="44.0663" lon="7.11491">
        <ele>492</ele>
        <time>2021-08-04T18:18:58Z</time>
      </trkpt>
      <trkpt lat="44.06596" lon="7.11459">
        <ele>474</ele>
        <time>2021-08-04T18:19:05Z</time>
      </trkpt>
      <trkpt lat="44.06552" lon="7.11442">
        <ele>462</ele>
        <time>2021-08-04T18:19:13Z</time>
      </trkpt>
      <trkpt lat="44.06532" lon="7.11448">
        <ele>462</ele>
        <time>2021-08-04T18:19:17Z</time>
      </trkpt>
      <trkpt lat="44.06523" lon="7.11457">
        <ele>463</ele>
        <time>2021-08-04T18:19:19Z</time>
      </trkpt>
      <trkpt lat="44.06513" lon="7.11475">
        <ele>465</ele>
        <time>2021-08-04T18:19:22Z</time>
      </trkpt>
      <trkpt lat="44.06497" lon="7.11534">
        <ele>475</ele>
        <time>2021-08-04T18:19:30Z</time>
      </trkpt>
      <trkpt lat="44.06484" lon="7.11557">
        <ele>475</ele>
        <time>2021-08-04T18:19:34Z</time>
      </trkpt>
      <trkpt lat="44.06472" lon="7.11599">
        <ele>478</ele>
        <time>2021-08-04T18:19:39Z</time>
      </trkpt>
      <trkpt lat="44.06459" lon="7.11632">
        <ele>478</ele>
        <time>2021-08-04T18:19:44Z</time>
      </trkpt>
      <trkpt lat="44.0646" lon="7.11673">
        <ele>486</ele>
        <time>2021-08-04T18:19:50Z</time>
      </trkpt>
      <trkpt lat="44.06458" lon="7.11703">
        <ele>493</ele>
        <time>2021-08-04T18:19:53Z</time>
      </trkpt>
      <trkpt lat="44.06446" lon="7.11718">
        <ele>494</ele>
        <time>2021-08-04T18:19:56Z</time>
      </trkpt>
      <trkpt lat="44.06433" lon="7.11725">
        <ele>492</ele>
        <time>2021-08-04T18:19:59Z</time>
      </trkpt>
      <trkpt lat="44.0637" lon="7.11709">
        <ele>479</ele>
        <time>2021-08-04T18:20:10Z</time>
      </trkpt>
      <trkpt lat="44.0634" lon="7.11717">
        <ele>483</ele>
        <time>2021-08-04T18:20:16Z</time>
      </trkpt>
      <trkpt lat="44.06302" lon="7.11718">
        <ele>478</ele>
        <time>2021-08-04T18:20:22Z</time>
      </trkpt>
      <trkpt lat="44.06275" lon="7.11702">
        <ele>467</ele>
        <time>2021-08-04T18:20:28Z</time>
      </trkpt>
      <trkpt lat="44.06263" lon="7.11703">
        <ele>466</ele>
        <time>2021-08-04T18:20:30Z</time>
      </trkpt>
      <trkpt lat="44.06256" lon="7.11709">
        <ele>467</ele>
        <time>2021-08-04T18:20:31Z</time>
      </trkpt>
      <trkpt lat="44.06241" lon="7.11741">
        <ele>475</ele>
        <time>2021-08-04T18:20:36Z</time>
      </trkpt>
      <trkpt lat="44.06211" lon="7.1179">
        <ele>490</ele>
        <time>2021-08-04T18:20:44Z</time>
      </trkpt>
      <trkpt lat="44.06201" lon="7.11799">
        <ele>492</ele>
        <time>2021-08-04T18:20:46Z</time>
      </trkpt>
      <trkpt lat="44.06192" lon="7.118">
        <ele>489</ele>
        <time>2021-08-04T18:20:48Z</time>
      </trkpt>
      <trkpt lat="44.06167" lon="7.11794">
        <ele>478</ele>
        <time>2021-08-04T18:20:53Z</time>
      </trkpt>
      <trkpt lat="44.06155" lon="7.11794">
        <ele>480</ele>
        <time>2021-08-04T18:20:55Z</time>
      </trkpt>
      <trkpt lat="44.06129" lon="7.11805">
        <ele>492</ele>
        <time>2021-08-04T18:20:59Z</time>
      </trkpt>
      <trkpt lat="44.06117" lon="7.11804">
        <ele>493</ele>
        <time>2021-08-04T18:21:02Z</time>
      </trkpt>
      <trkpt lat="44.06091" lon="7.11776">
        <ele>480</ele>
        <time>2021-08-04T18:21:07Z</time>
      </trkpt>
      <trkpt lat="44.06073" lon="7.11769">
        <ele>475</ele>
        <time>2021-08-04T18:21:11Z</time>
      </trkpt>
      <trkpt lat="44.06037" lon="7.11767">
        <ele>469</ele>
        <time>2021-08-04T18:21:17Z</time>
      </trkpt>
      <trkpt lat="44.05995" lon="7.1177">
        <ele>464</ele>
        <time>2021-08-04T18:21:25Z</time>
      </trkpt>
      <trkpt lat="44.05983" lon="7.11786">
        <ele>471</ele>
        <time>2021-08-04T18:21:28Z</time>
      </trkpt>
      <trkpt lat="44.05971" lon="7.11804">
        <ele>479</ele>
        <time>2021-08-04T18:21:31Z</time>
      </trkpt>
      <trkpt lat="44.05948" lon="7.11827">
        <ele>485</ele>
        <time>2021-08-04T18:21:36Z</time>
      </trkpt>
      <trkpt lat="44.05916" lon="7.11827">
        <ele>475</ele>
        <time>2021-08-04T18:21:42Z</time>
      </trkpt>
      <trkpt lat="44.05882" lon="7.11854">
        <ele>486</ele>
        <time>2021-08-04T18:21:48Z</time>
      </trkpt>
      <trkpt lat="44.05858" lon="7.11869">
        <ele>494</ele>
        <time>2021-08-04T18:21:53Z</time>
      </trkpt>
      <trkpt lat="44.05839" lon="7.11864">
        <ele>487</ele>
        <time>2021-08-04T18:21:57Z</time>
      </trkpt>
      <trkpt lat="44.05798" lon="7.11835">
        <ele>462</ele>
        <time>2021-08-04T18:22:05Z</time>
      </trkpt>
      <trkpt lat="44.05778" lon="7.11843">
        <ele>467</ele>
        <time>2021-08-04T18:22:08Z</time>
      </trkpt>
      <trkpt lat="44.05767" lon="7.11849">
        <ele>471</ele>
        <time>2021-08-04T18:22:11Z</time>
      </trkpt>
      <trkpt lat="44.05754" lon="7.11863">
        <ele>480</ele>
        <time>2021-08-04T18:22:14Z</time>
      </trkpt>
      <trkpt lat="44.05743" lon="7.11887">
        <ele>496</ele>
        <time>2021-08-04T18:22:17Z</time>
      </trkpt>
      <trkpt lat="44.05728" lon="7.11897">
        <ele>499</ele>
        <time>2021-08-04T18:22:20Z</time>
      </trkpt>
      <trkpt lat="44.05712" lon="7.119">
        <ele>497</ele>
        <time>2021-08-04T18:22:23Z</time>
      </trkpt>
      <trkpt lat="44.05685" lon="7.11896">
        <ele>486</ele>
        <time>2021-08-04T18:22:28Z</time>
      </trkpt>
      <trkpt lat="44.05665" lon="7.11884">
        <ele>473</ele>
        <time>2021-08-04T18:22:32Z</time>
      </trkpt>
      <trkpt lat="44.05657" lon="7.11882">
        <ele>470</ele>
        <time>2021-08-04T18:22:33Z</time>
      </trkpt>
      <trkpt lat="44.05644" lon="7.11882">
        <ele>469</ele>
        <time>2021-08-04T18:22:35Z</time>
      </trkpt>
      <trkpt lat="44.05635" lon="7.11888">
        <ele>472</ele>
        <time>2021-08-04T18:22:37Z</time>
      </trkpt>
      <trkpt lat="44.05607" lon="7.11925">
        <ele>488</ele>
        <time>2021-08-04T18:22:44Z</time>
      </trkpt>
      <trkpt lat="44.05586" lon="7.1194">
        <ele>491</ele>
        <time>2021-08-04T18:22:48Z</time>
      </trkpt>
      <trkpt lat="44.05574" lon="7.11942">
        <ele>490</ele>
        <time>2021-08-04T18:22:50Z</time>
      </trkpt>
      <trkpt lat="44.05561" lon="7.11938">
        <ele>487</ele>
        <time>2021-08-04T18:22:53Z</time>
      </trkpt>
      <trkpt lat="44.0554" lon="7.11928">
        <ele>480</ele>
        <time>2021-08-04T18:22:57Z</time>
      </trkpt>
      <trkpt lat="44.05515" lon="7.11906">
        <ele>471</ele>
        <time>2021-08-04T18:23:02Z</time>
      </trkpt>
      <trkpt lat="44.05499" lon="7.11884">
        <ele>462</ele>
        <time>2021-08-04T18:23:06Z</time>
      </trkpt>
      <trkpt lat="44.0549" lon="7.11878">
        <ele>458</ele>
        <time>2021-08-04T18:23:08Z</time>
      </trkpt>
      <trkpt lat="44.05468" lon="7.11875">
        <ele>452</ele>
        <time>2021-08-04T18:23:12Z</time>
      </trkpt>
      <trkpt lat="44.05456" lon="7.11882">
        <ele>452</ele>
        <time>2021-08-04T18:23:14Z</time>
      </trkpt>
      <trkpt lat="44.05451" lon="7.11887">
        <ele>452</ele>
        <time>2021-08-04T18:23:15Z</time>
      </trkpt>
      <trkpt lat="44.05447" lon="7.11895">
        <ele>452</ele>
        <time>2021-08-04T18:23:16Z</time>
      </trkpt>
      <trkpt lat="44.05445" lon="7.11905">
        <ele>454</ele>
        <time>2021-08-04T18:23:18Z</time>
      </trkpt>
      <trkpt lat="44.05447" lon="7.11914">
        <ele>456</ele>
        <time>2021-08-04T18:23:19Z</time>
      </trkpt>
      <trkpt lat="44.05463" lon="7.11944">
        <ele>465</ele>
        <time>2021-08-04T18:23:24Z</time>
      </trkpt>
      <trkpt lat="44.05469" lon="7.11962">
        <ele>470</ele>
        <time>2021-08-04T18:23:26Z</time>
      </trkpt>
      <trkpt lat="44.05469" lon="7.12">
        <ele>474</ele>
        <time>2021-08-04T18:23:31Z</time>
      </trkpt>
      <trkpt lat="44.05475" lon="7.12055">
        <ele>486</ele>
        <time>2021-08-04T18:23:38Z</time>
      </trkpt>
      <trkpt lat="44.05473" lon="7.12074">
        <ele>487</ele>
        <time>2021-08-04T18:23:41Z</time>
      </trkpt>
      <trkpt lat="44.05465" lon="7.12106">
        <ele>486</ele>
        <time>2021-08-04T18:23:45Z</time>
      </trkpt>
      <trkpt lat="44.05463" lon="7.12123">
        <ele>487</ele>
        <time>2021-08-04T18:23:47Z</time>
      </trkpt>
      <trkpt lat="44.05463" lon="7.12141">
        <ele>490</ele>
        <time>2021-08-04T18:23:50Z</time>
      </trkpt>
      <trkpt lat="44.05462" lon="7.12167">
        <ele>494</ele>
        <time>2021-08-04T18:23:53Z</time>
      </trkpt>
      <trkpt lat="44.05456" lon="7.12189">
        <ele>495</ele>
        <time>2021-08-04T18:23:56Z</time>
      </trkpt>
      <trkpt lat="44.05422" lon="7.12231">
        <ele>484</ele>
        <time>2021-08-04T18:24:04Z</time>
      </trkpt>
      <trkpt lat="44.05394" lon="7.12258">
        <ele>475</ele>
        <time>2021-08-04T18:24:10Z</time>
      </trkpt>
      <trkpt lat="44.0535" lon="7.12324">
        <ele>463</ele>
        <time>2021-08-04T18:24:22Z</time>
      </trkpt>
      <trkpt lat="44.05343" lon="7.12341">
        <ele>463</ele>
        <time>2021-08-04T18:24:24Z</time>
      </trkpt>
      <trkpt lat="44.05343" lon="7.1236">
        <ele>469</ele>
        <time>2021-08-04T18:24:26Z</time>
      </trkpt>
      <trkpt lat="44.05347" lon="7.12378">
        <ele>476</ele>
        <time>2021-08-04T18:24:29Z</time>
      </trkpt>
      <trkpt lat="44.05349" lon="7.12401">
        <ele>484</ele>
        <time>2021-08-04T18:24:32Z</time>
      </trkpt>
      <trkpt lat="44.05341" lon="7.12423">
        <ele>487</ele>
        <time>2021-08-04T18:24:35Z</time>
      </trkpt>
      <trkpt lat="44.05324" lon="7.12444">
        <ele>487</ele>
        <time>2021-08-04T18:24:39Z</time>
      </trkpt>
      <trkpt lat="44.05307" lon="7.12449">
        <ele>482</ele>
        <time>2021-08-04T18:24:42Z</time>
      </trkpt>
      <trkpt lat="44.05276" lon="7.1244">
        <ele>467</ele>
        <time>2021-08-04T18:24:48Z</time>
      </trkpt>
      <trkpt lat="44.05256" lon="7.12447">
        <ele>462</ele>
        <time>2021-08-04T18:24:51Z</time>
      </trkpt>
      <trkpt lat="44.05242" lon="7.12464">
        <ele>462</ele>
        <time>2021-08-04T18:24:55Z</time>
      </trkpt>
      <trkpt lat="44.05229" lon="7.12497">
        <ele>466</ele>
        <time>2021-08-04T18:25:00Z</time>
      </trkpt>
      <trkpt lat="44.0522" lon="7.12528">
        <ele>472</ele>
        <time>2021-08-04T18:25:04Z</time>
      </trkpt>
      <trkpt lat="44.05208" lon="7.12553">
        <ele>474</ele>
        <time>2021-08-04T18:25:08Z</time>
      </trkpt>
      <trkpt lat="44.05176" lon="7.12576">
        <ele>466</ele>
        <time>2021-08-04T18:25:14Z</time>
      </trkpt>
      <trkpt lat="44.05125" lon="7.1261">
        <ele>456</ele>
        <time>2021-08-04T18:25:24Z</time>
      </trkpt>
      <trkpt lat="44.05111" lon="7.12628">
        <ele>455</ele>
        <time>2021-08-04T18:25:28Z</time>
      </trkpt>
      <trkpt lat="44.05089" lon="7.12671">
        <ele>457</ele>
        <time>2021-08-04T18:25:34Z</time>
      </trkpt>
      <trkpt lat="44.05072" lon="7.1271">
        <ele>467</ele>
        <time>2021-08-04T18:25:40Z</time>
      </trkpt>
      <trkpt lat="44.04971" lon="7.12822">
        <ele>471</ele>
        <time>2021-08-04T18:26:03Z</time>
      </trkpt>
      <trkpt lat="44.04945" lon="7.12823">
        <ele>455</ele>
        <time>2021-08-04T18:26:08Z</time>
      </trkpt>
      <trkpt lat="44.04926" lon="7.12839">
        <ele>451</ele>
        <time>2021-08-04T18:26:12Z</time>
      </trkpt>
      <trkpt lat="44.04873" lon="7.12894">
        <ele>461</ele>
        <time>2021-08-04T18:26:23Z</time>
      </trkpt>
      <trkpt lat="44.04719" lon="7.1297">
        <ele>449</ele>
        <time>2021-08-04T18:26:52Z</time>
      </trkpt>
      <trkpt lat="44.04689" lon="7.12973">
        <ele>444</ele>
        <time>2021-08-04T18:26:58Z</time>
      </trkpt>
      <trkpt lat="44.0463" lon="7.12956">
        <ele>430</ele>
        <time>2021-08-04T18:27:09Z</time>
      </trkpt>
      <trkpt lat="44.04599" lon="7.12944">
        <ele>423</ele>
        <time>2021-08-04T18:27:14Z</time>
      </trkpt>
      <trkpt lat="44.04569" lon="7.12922">
        <ele>421</ele>
        <time>2021-08-04T18:27:20Z</time>
      </trkpt>
      <trkpt lat="44.045" lon="7.12873">
        <ele>427</ele>
        <time>2021-08-04T18:27:34Z</time>
      </trkpt>
      <trkpt lat="44.04485" lon="7.12867">
        <ele>430</ele>
        <time>2021-08-04T18:27:37Z</time>
      </trkpt>
      <trkpt lat="44.04453" lon="7.12861">
        <ele>438</ele>
        <time>2021-08-04T18:27:43Z</time>
      </trkpt>
      <trkpt lat="44.04389" lon="7.12839">
        <ele>437</ele>
        <time>2021-08-04T18:27:54Z</time>
      </trkpt>
      <trkpt lat="44.04354" lon="7.12819">
        <ele>435</ele>
        <time>2021-08-04T18:28:01Z</time>
      </trkpt>
      <trkpt lat="44.04339" lon="7.12818">
        <ele>435</ele>
        <time>2021-08-04T18:28:04Z</time>
      </trkpt>
      <trkpt lat="44.04324" lon="7.12824">
        <ele>433</ele>
        <time>2021-08-04T18:28:07Z</time>
      </trkpt>
      <trkpt lat="44.04314" lon="7.12834">
        <ele>432</ele>
        <time>2021-08-04T18:28:09Z</time>
      </trkpt>
      <trkpt lat="44.04264" lon="7.1285">
        <ele>427</ele>
        <time>2021-08-04T18:28:18Z</time>
      </trkpt>
      <trkpt lat="44.04258" lon="7.12855">
        <ele>427</ele>
        <time>2021-08-04T18:28:19Z</time>
      </trkpt>
      <trkpt lat="44.04251" lon="7.12865">
        <ele>429</ele>
        <time>2021-08-04T18:28:21Z</time>
      </trkpt>
      <trkpt lat="44.04244" lon="7.12885">
        <ele>436</ele>
        <time>2021-08-04T18:28:24Z</time>
      </trkpt>
      <trkpt lat="44.0424" lon="7.12893">
        <ele>439</ele>
        <time>2021-08-04T18:28:25Z</time>
      </trkpt>
      <trkpt lat="44.04234" lon="7.12898">
        <ele>441</ele>
        <time>2021-08-04T18:28:26Z</time>
      </trkpt>
      <trkpt lat="44.04226" lon="7.12902">
        <ele>442</ele>
        <time>2021-08-04T18:28:28Z</time>
      </trkpt>
      <trkpt lat="44.04217" lon="7.12905">
        <ele>442</ele>
        <time>2021-08-04T18:28:29Z</time>
      </trkpt>
      <trkpt lat="44.04207" lon="7.12904">
        <ele>441</ele>
        <time>2021-08-04T18:28:31Z</time>
      </trkpt>
      <trkpt lat="44.04188" lon="7.12896">
        <ele>437</ele>
        <time>2021-08-04T18:28:35Z</time>
      </trkpt>
      <trkpt lat="44.04173" lon="7.12886">
        <ele>432</ele>
        <time>2021-08-04T18:28:38Z</time>
      </trkpt>
      <trkpt lat="44.04138" lon="7.12887">
        <ele>429</ele>
        <time>2021-08-04T18:28:44Z</time>
      </trkpt>
      <trkpt lat="44.04102" lon="7.12878">
        <ele>423</ele>
        <time>2021-08-04T18:28:50Z</time>
      </trkpt>
      <trkpt lat="44.0406" lon="7.12867">
        <ele>426</ele>
        <time>2021-08-04T18:28:58Z</time>
      </trkpt>
      <trkpt lat="44.04054" lon="7.12865">
        <ele>427</ele>
        <time>2021-08-04T18:28:59Z</time>
      </trkpt>
      <trkpt lat="44.04065" lon="7.12896">
        <ele>433</ele>
        <time>2021-08-04T18:29:04Z</time>
      </trkpt>
      <trkpt lat="44.04069" lon="7.12902">
        <ele>434</ele>
        <time>2021-08-04T18:29:05Z</time>
      </trkpt>
      <trkpt lat="44.04079" lon="7.12909">
        <ele>433</ele>
        <time>2021-08-04T18:29:07Z</time>
      </trkpt>
      <trkpt lat="44.04085" lon="7.12908">
        <ele>431</ele>
        <time>2021-08-04T18:29:08Z</time>
      </trkpt>
      <trkpt lat="44.04092" lon="7.12905">
        <ele>431</ele>
        <time>2021-08-04T18:29:09Z</time>
      </trkpt>
      <trkpt lat="44.04096" lon="7.12899">
        <ele>430</ele>
        <time>2021-08-04T18:29:10Z</time>
      </trkpt>
      <trkpt lat="44.04105" lon="7.12884">
        <ele>425</ele>
        <time>2021-08-04T18:29:12Z</time>
      </trkpt>
      <trkpt lat="44.04106" lon="7.12879">
        <ele>424</ele>
        <time>2021-08-04T18:29:13Z</time>
      </trkpt>
      <trkpt lat="44.04102" lon="7.12878">
        <ele>423</ele>
        <time>2021-08-04T18:29:14Z</time>
      </trkpt>
      <trkpt lat="44.0406" lon="7.12867">
        <ele>426</ele>
        <time>2021-08-04T18:29:21Z</time>
      </trkpt>
      <trkpt lat="44.04048" lon="7.12863">
        <ele>428</ele>
        <time>2021-08-04T18:29:24Z</time>
      </trkpt>
      <trkpt lat="44.04001" lon="7.12832">
        <ele>434</ele>
        <time>2021-08-04T18:29:33Z</time>
      </trkpt>
      <trkpt lat="44.03995" lon="7.12825">
        <ele>434</ele>
        <time>2021-08-04T18:29:34Z</time>
      </trkpt>
      <trkpt lat="44.03982" lon="7.12795">
        <ele>428</ele>
        <time>2021-08-04T18:29:39Z</time>
      </trkpt>
      <trkpt lat="44.03969" lon="7.12779">
        <ele>427</ele>
        <time>2021-08-04T18:29:42Z</time>
      </trkpt>
      <trkpt lat="44.03945" lon="7.12764">
        <ele>431</ele>
        <time>2021-08-04T18:29:47Z</time>
      </trkpt>
      <trkpt lat="44.03926" lon="7.1274">
        <ele>429</ele>
        <time>2021-08-04T18:29:51Z</time>
      </trkpt>
      <trkpt lat="44.03906" lon="7.12727">
        <ele>425</ele>
        <time>2021-08-04T18:29:55Z</time>
      </trkpt>
      <trkpt lat="44.0389" lon="7.12724">
        <ele>422</ele>
        <time>2021-08-04T18:29:58Z</time>
      </trkpt>
      <trkpt lat="44.03882" lon="7.12726">
        <ele>422</ele>
        <time>2021-08-04T18:29:59Z</time>
      </trkpt>
      <trkpt lat="44.03853" lon="7.12742">
        <ele>428</ele>
        <time>2021-08-04T18:30:05Z</time>
      </trkpt>
      <trkpt lat="44.03835" lon="7.12749">
        <ele>430</ele>
        <time>2021-08-04T18:30:08Z</time>
      </trkpt>
      <trkpt lat="44.03789" lon="7.12758">
        <ele>428</ele>
        <time>2021-08-04T18:30:17Z</time>
      </trkpt>
      <trkpt lat="44.03719" lon="7.12776">
        <ele>423</ele>
        <time>2021-08-04T18:30:29Z</time>
      </trkpt>
      <trkpt lat="44.03684" lon="7.12782">
        <ele>413</ele>
        <time>2021-08-04T18:30:35Z</time>
      </trkpt>
      <trkpt lat="44.03658" lon="7.12797">
        <ele>411</ele>
        <time>2021-08-04T18:30:40Z</time>
      </trkpt>
      <trkpt lat="44.03633" lon="7.12815">
        <ele>410</ele>
        <time>2021-08-04T18:30:45Z</time>
      </trkpt>
      <trkpt lat="44.03627" lon="7.12825">
        <ele>410</ele>
        <time>2021-08-04T18:30:47Z</time>
      </trkpt>
      <trkpt lat="44.03623" lon="7.12838">
        <ele>410</ele>
        <time>2021-08-04T18:30:49Z</time>
      </trkpt>
      <trkpt lat="44.03612" lon="7.12928">
        <ele>412</ele>
        <time>2021-08-04T18:31:01Z</time>
      </trkpt>
      <trkpt lat="44.03606" lon="7.12961">
        <ele>412</ele>
        <time>2021-08-04T18:31:05Z</time>
      </trkpt>
      <trkpt lat="44.03582" lon="7.13039">
        <ele>415</ele>
        <time>2021-08-04T18:31:16Z</time>
      </trkpt>
      <trkpt lat="44.03578" lon="7.13048">
        <ele>416</ele>
        <time>2021-08-04T18:31:17Z</time>
      </trkpt>
      <trkpt lat="44.03562" lon="7.13072">
        <ele>416</ele>
        <time>2021-08-04T18:31:21Z</time>
      </trkpt>
      <trkpt lat="44.03557" lon="7.13079">
        <ele>415</ele>
        <time>2021-08-04T18:31:23Z</time>
      </trkpt>
      <trkpt lat="44.03504" lon="7.1315">
        <ele>420</ele>
        <time>2021-08-04T18:31:36Z</time>
      </trkpt>
      <trkpt lat="44.03498" lon="7.13155">
        <ele>419</ele>
        <time>2021-08-04T18:31:37Z</time>
      </trkpt>
      <trkpt lat="44.03423" lon="7.13203">
        <ele>415</ele>
        <time>2021-08-04T18:31:52Z</time>
      </trkpt>
      <trkpt lat="44.03406" lon="7.13207">
        <ele>412</ele>
        <time>2021-08-04T18:31:55Z</time>
      </trkpt>
      <trkpt lat="44.03377" lon="7.13206">
        <ele>405</ele>
        <time>2021-08-04T18:32:00Z</time>
      </trkpt>
      <trkpt lat="44.03319" lon="7.13198">
        <ele>393</ele>
        <time>2021-08-04T18:32:10Z</time>
      </trkpt>
      <trkpt lat="44.03265" lon="7.13197">
        <ele>396</ele>
        <time>2021-08-04T18:32:20Z</time>
      </trkpt>
      <trkpt lat="44.03115" lon="7.13217">
        <ele>392</ele>
        <time>2021-08-04T18:32:47Z</time>
      </trkpt>
      <trkpt lat="44.03079" lon="7.13216">
        <ele>388</ele>
        <time>2021-08-04T18:32:53Z</time>
      </trkpt>
      <trkpt lat="44.0305" lon="7.13211">
        <ele>386</ele>
        <time>2021-08-04T18:32:58Z</time>
      </trkpt>
      <trkpt lat="44.03026" lon="7.13204">
        <ele>383</ele>
        <time>2021-08-04T18:33:03Z</time>
      </trkpt>
      <trkpt lat="44.03002" lon="7.13196">
        <ele>380</ele>
        <time>2021-08-04T18:33:07Z</time>
      </trkpt>
      <trkpt lat="44.02943" lon="7.13168">
        <ele>370</ele>
        <time>2021-08-04T18:33:18Z</time>
      </trkpt>
      <trkpt lat="44.02858" lon="7.13125">
        <ele>375</ele>
        <time>2021-08-04T18:33:34Z</time>
      </trkpt>
      <trkpt lat="44.02833" lon="7.13116">
        <ele>378</ele>
        <time>2021-08-04T18:33:39Z</time>
      </trkpt>
      <trkpt lat="44.02824" lon="7.13113">
        <ele>379</ele>
        <time>2021-08-04T18:33:40Z</time>
      </trkpt>
      <trkpt lat="44.02808" lon="7.13111">
        <ele>381</ele>
        <time>2021-08-04T18:33:43Z</time>
      </trkpt>
      <trkpt lat="44.02791" lon="7.13111">
        <ele>382</ele>
        <time>2021-08-04T18:33:46Z</time>
      </trkpt>
      <trkpt lat="44.0265" lon="7.13126">
        <ele>382</ele>
        <time>2021-08-04T18:34:12Z</time>
      </trkpt>
      <trkpt lat="44.02632" lon="7.13132">
        <ele>381</ele>
        <time>2021-08-04T18:34:15Z</time>
      </trkpt>
      <trkpt lat="44.02559" lon="7.13166">
        <ele>372</ele>
        <time>2021-08-04T18:34:29Z</time>
      </trkpt>
      <trkpt lat="44.0253" lon="7.13172">
        <ele>371</ele>
        <time>2021-08-04T18:34:34Z</time>
      </trkpt>
      <trkpt lat="44.02515" lon="7.13173">
        <ele>371</ele>
        <time>2021-08-04T18:34:36Z</time>
      </trkpt>
      <trkpt lat="44.02503" lon="7.13173">
        <ele>371</ele>
        <time>2021-08-04T18:34:39Z</time>
      </trkpt>
      <trkpt lat="44.02424" lon="7.13158">
        <ele>364</ele>
        <time>2021-08-04T18:34:53Z</time>
      </trkpt>
      <trkpt lat="44.02388" lon="7.13147">
        <ele>364</ele>
        <time>2021-08-04T18:34:59Z</time>
      </trkpt>
      <trkpt lat="44.02246" lon="7.13117">
        <ele>362</ele>
        <time>2021-08-04T18:35:25Z</time>
      </trkpt>
      <trkpt lat="44.022" lon="7.13114">
        <ele>358</ele>
        <time>2021-08-04T18:35:33Z</time>
      </trkpt>
      <trkpt lat="44.02167" lon="7.13116">
        <ele>356</ele>
        <time>2021-08-04T18:35:39Z</time>
      </trkpt>
      <trkpt lat="44.02137" lon="7.1312">
        <ele>357</ele>
        <time>2021-08-04T18:35:44Z</time>
      </trkpt>
      <trkpt lat="44.01951" lon="7.13164">
        <ele>359</ele>
        <time>2021-08-04T18:36:18Z</time>
      </trkpt>
      <trkpt lat="44.01915" lon="7.13166">
        <ele>360</ele>
        <time>2021-08-04T18:36:24Z</time>
      </trkpt>
      <trkpt lat="44.01877" lon="7.13161">
        <ele>359</ele>
        <time>2021-08-04T18:36:31Z</time>
      </trkpt>
      <trkpt lat="44.01582" lon="7.13089">
        <ele>349</ele>
        <time>2021-08-04T18:37:24Z</time>
      </trkpt>
      <trkpt lat="44.01559" lon="7.13086">
        <ele>349</ele>
        <time>2021-08-04T18:37:28Z</time>
      </trkpt>
      <trkpt lat="44.01535" lon="7.13085">
        <ele>348</ele>
        <time>2021-08-04T18:37:33Z</time>
      </trkpt>
      <trkpt lat="44.01501" lon="7.13091">
        <ele>348</ele>
        <time>2021-08-04T18:37:39Z</time>
      </trkpt>
      <trkpt lat="44.01478" lon="7.13098">
        <ele>353</ele>
        <time>2021-08-04T18:37:43Z</time>
      </trkpt>
      <trkpt lat="44.01456" lon="7.13108">
        <ele>356</ele>
        <time>2021-08-04T18:37:47Z</time>
      </trkpt>
      <trkpt lat="44.01402" lon="7.13139">
        <ele>357</ele>
        <time>2021-08-04T18:37:58Z</time>
      </trkpt>
      <trkpt lat="44.0138" lon="7.13147">
        <ele>361</ele>
        <time>2021-08-04T18:38:02Z</time>
      </trkpt>
      <trkpt lat="44.01356" lon="7.13153">
        <ele>366</ele>
        <time>2021-08-04T18:38:06Z</time>
      </trkpt>
      <trkpt lat="44.01319" lon="7.13156">
        <ele>374</ele>
        <time>2021-08-04T18:38:13Z</time>
      </trkpt>
      <trkpt lat="44.01118" lon="7.13166">
        <ele>365</ele>
        <time>2021-08-04T18:38:48Z</time>
      </trkpt>
      <trkpt lat="44.01077" lon="7.13171">
        <ele>358</ele>
        <time>2021-08-04T18:38:56Z</time>
      </trkpt>
      <trkpt lat="44.01047" lon="7.13181">
        <ele>359</ele>
        <time>2021-08-04T18:39:01Z</time>
      </trkpt>
      <trkpt lat="44.01012" lon="7.132">
        <ele>356</ele>
        <time>2021-08-04T18:39:08Z</time>
      </trkpt>
      <trkpt lat="44.00991" lon="7.13214">
        <ele>356</ele>
        <time>2021-08-04T18:39:12Z</time>
      </trkpt>
      <trkpt lat="44.00965" lon="7.13239">
        <ele>357</ele>
        <time>2021-08-04T18:39:18Z</time>
      </trkpt>
      <trkpt lat="44.00886" lon="7.13325">
        <ele>355</ele>
        <time>2021-08-04T18:39:35Z</time>
      </trkpt>
      <trkpt lat="44.0086" lon="7.13352">
        <ele>359</ele>
        <time>2021-08-04T18:39:41Z</time>
      </trkpt>
      <trkpt lat="44.00784" lon="7.1343">
        <ele>357</ele>
        <time>2021-08-04T18:39:58Z</time>
      </trkpt>
      <trkpt lat="44.0077" lon="7.13446">
        <ele>358</ele>
        <time>2021-08-04T18:40:01Z</time>
      </trkpt>
      <trkpt lat="44.0073" lon="7.13493">
        <ele>353</ele>
        <time>2021-08-04T18:40:11Z</time>
      </trkpt>
      <trkpt lat="44.00677" lon="7.13571">
        <ele>364</ele>
        <time>2021-08-04T18:40:24Z</time>
      </trkpt>
      <trkpt lat="44.00656" lon="7.13596">
        <ele>364</ele>
        <time>2021-08-04T18:40:29Z</time>
      </trkpt>
      <trkpt lat="44.0063" lon="7.13623">
        <ele>370</ele>
        <time>2021-08-04T18:40:35Z</time>
      </trkpt>
      <trkpt lat="44.00602" lon="7.13648">
        <ele>360</ele>
        <time>2021-08-04T18:40:41Z</time>
      </trkpt>
      <trkpt lat="44.00516" lon="7.13704">
        <ele>365</ele>
        <time>2021-08-04T18:40:58Z</time>
      </trkpt>
      <trkpt lat="44.00506" lon="7.1371">
        <ele>367</ele>
        <time>2021-08-04T18:41:00Z</time>
      </trkpt>
      <trkpt lat="44.00481" lon="7.13725">
        <ele>367</ele>
        <time>2021-08-04T18:41:05Z</time>
      </trkpt>
      <trkpt lat="44.00405" lon="7.1377">
        <ele>358</ele>
        <time>2021-08-04T18:41:19Z</time>
      </trkpt>
      <trkpt lat="44.00346" lon="7.13805">
        <ele>366</ele>
        <time>2021-08-04T18:41:31Z</time>
      </trkpt>
      <trkpt lat="44.00328" lon="7.13812">
        <ele>364</ele>
        <time>2021-08-04T18:41:34Z</time>
      </trkpt>
      <trkpt lat="44.0032" lon="7.13816">
        <ele>365</ele>
        <time>2021-08-04T18:41:36Z</time>
      </trkpt>
      <trkpt lat="44.00241" lon="7.13831">
        <ele>364</ele>
        <time>2021-08-04T18:41:50Z</time>
      </trkpt>
      <trkpt lat="44.00219" lon="7.13834">
        <ele>369</ele>
        <time>2021-08-04T18:41:54Z</time>
      </trkpt>
      <trkpt lat="44.001" lon="7.13788">
        <ele>360</ele>
        <time>2021-08-04T18:42:16Z</time>
      </trkpt>
      <trkpt lat="44.00039" lon="7.13755">
        <ele>357</ele>
        <time>2021-08-04T18:42:27Z</time>
      </trkpt>
      <trkpt lat="44.00006" lon="7.13732">
        <ele>355</ele>
        <time>2021-08-04T18:42:34Z</time>
      </trkpt>
      <trkpt lat="43.99985" lon="7.13724">
        <ele>353</ele>
        <time>2021-08-04T18:42:38Z</time>
      </trkpt>
      <trkpt lat="43.99954" lon="7.13719">
        <ele>349</ele>
        <time>2021-08-04T18:42:43Z</time>
      </trkpt>
      <trkpt lat="43.99922" lon="7.13703">
        <ele>343</ele>
        <time>2021-08-04T18:42:49Z</time>
      </trkpt>
      <trkpt lat="43.99911" lon="7.137">
        <ele>341</ele>
        <time>2021-08-04T18:42:51Z</time>
      </trkpt>
      <trkpt lat="43.99904" lon="7.13698">
        <ele>340</ele>
        <time>2021-08-04T18:42:53Z</time>
      </trkpt>
      <trkpt lat="43.99885" lon="7.137">
        <ele>340</ele>
        <time>2021-08-04T18:42:56Z</time>
      </trkpt>
      <trkpt lat="43.99868" lon="7.13705">
        <ele>340</ele>
        <time>2021-08-04T18:42:59Z</time>
      </trkpt>
      <trkpt lat="43.99831" lon="7.13734">
        <ele>345</ele>
        <time>2021-08-04T18:43:07Z</time>
      </trkpt>
      <trkpt lat="43.99822" lon="7.13741">
        <ele>346</ele>
        <time>2021-08-04T18:43:08Z</time>
      </trkpt>
      <trkpt lat="43.99806" lon="7.13752">
        <ele>348</ele>
        <time>2021-08-04T18:43:12Z</time>
      </trkpt>
      <trkpt lat="43.99787" lon="7.1376">
        <ele>349</ele>
        <time>2021-08-04T18:43:15Z</time>
      </trkpt>
      <trkpt lat="43.9974" lon="7.13775">
        <ele>355</ele>
        <time>2021-08-04T18:43:24Z</time>
      </trkpt>
      <trkpt lat="43.99684" lon="7.13774">
        <ele>369</ele>
        <time>2021-08-04T18:43:34Z</time>
      </trkpt>
      <trkpt lat="43.99641" lon="7.13768">
        <ele>386</ele>
        <time>2021-08-04T18:43:41Z</time>
      </trkpt>
      <trkpt lat="43.99544" lon="7.13713">
        <ele>369</ele>
        <time>2021-08-04T18:44:00Z</time>
      </trkpt>
      <trkpt lat="43.99487" lon="7.13699">
        <ele>355</ele>
        <time>2021-08-04T18:44:10Z</time>
      </trkpt>
      <trkpt lat="43.9942" lon="7.1368">
        <ele>345</ele>
        <time>2021-08-04T18:44:22Z</time>
      </trkpt>
      <trkpt lat="43.99373" lon="7.13672">
        <ele>340</ele>
        <time>2021-08-04T18:44:31Z</time>
      </trkpt>
      <trkpt lat="43.99345" lon="7.13676">
        <ele>341</ele>
        <time>2021-08-04T18:44:36Z</time>
      </trkpt>
      <trkpt lat="43.99246" lon="7.13706">
        <ele>342</ele>
        <time>2021-08-04T18:44:54Z</time>
      </trkpt>
      <trkpt lat="43.99194" lon="7.13714">
        <ele>351</ele>
        <time>2021-08-04T18:45:03Z</time>
      </trkpt>
      <trkpt lat="43.99145" lon="7.13715">
        <ele>364</ele>
        <time>2021-08-04T18:45:12Z</time>
      </trkpt>
      <trkpt lat="43.99084" lon="7.13695">
        <ele>366</ele>
        <time>2021-08-04T18:45:23Z</time>
      </trkpt>
      <trkpt lat="43.99031" lon="7.13663">
        <ele>346</ele>
        <time>2021-08-04T18:45:33Z</time>
      </trkpt>
      <trkpt lat="43.98997" lon="7.13649">
        <ele>348</ele>
        <time>2021-08-04T18:45:40Z</time>
      </trkpt>
      <trkpt lat="43.98953" lon="7.1364">
        <ele>339</ele>
        <time>2021-08-04T18:45:48Z</time>
      </trkpt>
      <trkpt lat="43.989" lon="7.13637">
        <ele>337</ele>
        <time>2021-08-04T18:45:57Z</time>
      </trkpt>
      <trkpt lat="43.98832" lon="7.13637">
        <ele>344</ele>
        <time>2021-08-04T18:46:09Z</time>
      </trkpt>
      <trkpt lat="43.98735" lon="7.13613">
        <ele>339</ele>
        <time>2021-08-04T18:46:27Z</time>
      </trkpt>
      <trkpt lat="43.98694" lon="7.13615">
        <ele>333</ele>
        <time>2021-08-04T18:46:34Z</time>
      </trkpt>
      <trkpt lat="43.9863" lon="7.13634">
        <ele>332</ele>
        <time>2021-08-04T18:46:46Z</time>
      </trkpt>
      <trkpt lat="43.98569" lon="7.13657">
        <ele>330</ele>
        <time>2021-08-04T18:46:57Z</time>
      </trkpt>
      <trkpt lat="43.98492" lon="7.13702">
        <ele>328</ele>
        <time>2021-08-04T18:47:12Z</time>
      </trkpt>
      <trkpt lat="43.983" lon="7.13858">
        <ele>319</ele>
        <time>2021-08-04T18:47:51Z</time>
      </trkpt>
      <trkpt lat="43.9823" lon="7.1391">
        <ele>316</ele>
        <time>2021-08-04T18:48:05Z</time>
      </trkpt>
      <trkpt lat="43.98186" lon="7.13935">
        <ele>319</ele>
        <time>2021-08-04T18:48:14Z</time>
      </trkpt>
      <trkpt lat="43.97956" lon="7.13981">
        <ele>315</ele>
        <time>2021-08-04T18:48:55Z</time>
      </trkpt>
      <trkpt lat="43.97928" lon="7.13993">
        <ele>314</ele>
        <time>2021-08-04T18:49:00Z</time>
      </trkpt>
      <trkpt lat="43.97774" lon="7.14055">
        <ele>314</ele>
        <time>2021-08-04T18:49:29Z</time>
      </trkpt>
      <trkpt lat="43.97708" lon="7.14045">
        <ele>310</ele>
        <time>2021-08-04T18:49:41Z</time>
      </trkpt>
      <trkpt lat="43.97673" lon="7.14026">
        <ele>306</ele>
        <time>2021-08-04T18:49:47Z</time>
      </trkpt>
      <trkpt lat="43.97654" lon="7.14013">
        <ele>304</ele>
        <time>2021-08-04T18:49:51Z</time>
      </trkpt>
      <trkpt lat="43.97647" lon="7.14005">
        <ele>303</ele>
        <time>2021-08-04T18:49:53Z</time>
      </trkpt>
      <trkpt lat="43.97641" lon="7.13995">
        <ele>303</ele>
        <time>2021-08-04T18:49:55Z</time>
      </trkpt>
      <trkpt lat="43.97617" lon="7.13992">
        <ele>305</ele>
        <time>2021-08-04T18:49:59Z</time>
      </trkpt>
      <trkpt lat="43.97594" lon="7.13975">
        <ele>304</ele>
        <time>2021-08-04T18:50:03Z</time>
      </trkpt>
      <trkpt lat="43.97565" lon="7.13947">
        <ele>298</ele>
        <time>2021-08-04T18:50:10Z</time>
      </trkpt>
      <trkpt lat="43.97549" lon="7.13937">
        <ele>294</ele>
        <time>2021-08-04T18:50:13Z</time>
      </trkpt>
      <trkpt lat="43.97538" lon="7.13936">
        <ele>293</ele>
        <time>2021-08-04T18:50:15Z</time>
      </trkpt>
      <trkpt lat="43.97527" lon="7.13938">
        <ele>293</ele>
        <time>2021-08-04T18:50:17Z</time>
      </trkpt>
      <trkpt lat="43.9751" lon="7.13948">
        <ele>293</ele>
        <time>2021-08-04T18:50:20Z</time>
      </trkpt>
      <trkpt lat="43.97485" lon="7.13979">
        <ele>294</ele>
        <time>2021-08-04T18:50:26Z</time>
      </trkpt>
      <trkpt lat="43.97444" lon="7.14027">
        <ele>294</ele>
        <time>2021-08-04T18:50:36Z</time>
      </trkpt>
      <trkpt lat="43.97392" lon="7.14073">
        <ele>295</ele>
        <time>2021-08-04T18:50:47Z</time>
      </trkpt>
      <trkpt lat="43.97321" lon="7.14116">
        <ele>296</ele>
        <time>2021-08-04T18:51:00Z</time>
      </trkpt>
      <trkpt lat="43.97312" lon="7.14127">
        <ele>296</ele>
        <time>2021-08-04T18:51:02Z</time>
      </trkpt>
      <trkpt lat="43.97303" lon="7.1414">
        <ele>296</ele>
        <time>2021-08-04T18:51:05Z</time>
      </trkpt>
      <trkpt lat="43.97277" lon="7.14227">
        <ele>295</ele>
        <time>2021-08-04T18:51:17Z</time>
      </trkpt>
      <trkpt lat="43.97274" lon="7.14246">
        <ele>294</ele>
        <time>2021-08-04T18:51:19Z</time>
      </trkpt>
      <trkpt lat="43.97274" lon="7.14264">
        <ele>294</ele>
        <time>2021-08-04T18:51:22Z</time>
      </trkpt>
      <trkpt lat="43.97279" lon="7.1431">
        <ele>295</ele>
        <time>2021-08-04T18:51:28Z</time>
      </trkpt>
      <trkpt lat="43.97282" lon="7.14434">
        <ele>294</ele>
        <time>2021-08-04T18:51:43Z</time>
      </trkpt>
      <trkpt lat="43.97279" lon="7.14458">
        <ele>295</ele>
        <time>2021-08-04T18:51:47Z</time>
      </trkpt>
      <trkpt lat="43.97265" lon="7.145">
        <ele>292</ele>
        <time>2021-08-04T18:51:53Z</time>
      </trkpt>
      <trkpt lat="43.97254" lon="7.14549">
        <ele>296</ele>
        <time>2021-08-04T18:51:59Z</time>
      </trkpt>
      <trkpt lat="43.97248" lon="7.14608">
        <ele>309</ele>
        <time>2021-08-04T18:52:07Z</time>
      </trkpt>
      <trkpt lat="43.97245" lon="7.14617">
        <ele>312</ele>
        <time>2021-08-04T18:52:08Z</time>
      </trkpt>
      <trkpt lat="43.97241" lon="7.14626">
        <ele>314</ele>
        <time>2021-08-04T18:52:09Z</time>
      </trkpt>
      <trkpt lat="43.97235" lon="7.14633">
        <ele>315</ele>
        <time>2021-08-04T18:52:11Z</time>
      </trkpt>
      <trkpt lat="43.97181" lon="7.14673">
        <ele>304</ele>
        <time>2021-08-04T18:52:22Z</time>
      </trkpt>
      <trkpt lat="43.97155" lon="7.147">
        <ele>307</ele>
        <time>2021-08-04T18:52:27Z</time>
      </trkpt>
      <trkpt lat="43.9713" lon="7.14719">
        <ele>307</ele>
        <time>2021-08-04T18:52:32Z</time>
      </trkpt>
      <trkpt lat="43.97102" lon="7.14736">
        <ele>302</ele>
        <time>2021-08-04T18:52:38Z</time>
      </trkpt>
      <trkpt lat="43.97054" lon="7.14785">
        <ele>307</ele>
        <time>2021-08-04T18:52:49Z</time>
      </trkpt>
      <trkpt lat="43.97005" lon="7.14826">
        <ele>305</ele>
        <time>2021-08-04T18:52:59Z</time>
      </trkpt>
      <trkpt lat="43.96821" lon="7.15029">
        <ele>297</ele>
        <time>2021-08-04T18:53:40Z</time>
      </trkpt>
      <trkpt lat="43.96808" lon="7.1504">
        <ele>297</ele>
        <time>2021-08-04T18:53:43Z</time>
      </trkpt>
      <trkpt lat="43.96723" lon="7.15088">
        <ele>290</ele>
        <time>2021-08-04T18:54:00Z</time>
      </trkpt>
      <trkpt lat="43.9665" lon="7.15138">
        <ele>295</ele>
        <time>2021-08-04T18:54:14Z</time>
      </trkpt>
      <trkpt lat="43.96621" lon="7.15154">
        <ele>293</ele>
        <time>2021-08-04T18:54:20Z</time>
      </trkpt>
      <trkpt lat="43.9659" lon="7.15168">
        <ele>289</ele>
        <time>2021-08-04T18:54:25Z</time>
      </trkpt>
      <trkpt lat="43.96531" lon="7.15214">
        <ele>292</ele>
        <time>2021-08-04T18:54:37Z</time>
      </trkpt>
      <trkpt lat="43.96441" lon="7.15247">
        <ele>282</ele>
        <time>2021-08-04T18:54:54Z</time>
      </trkpt>
      <trkpt lat="43.96436" lon="7.1525">
        <ele>281</ele>
        <time>2021-08-04T18:54:55Z</time>
      </trkpt>
      <trkpt lat="43.96419" lon="7.15259">
        <ele>280</ele>
        <time>2021-08-04T18:54:58Z</time>
      </trkpt>
      <trkpt lat="43.96402" lon="7.15273">
        <ele>281</ele>
        <time>2021-08-04T18:55:02Z</time>
      </trkpt>
      <trkpt lat="43.96344" lon="7.15361">
        <ele>285</ele>
        <time>2021-08-04T18:55:17Z</time>
      </trkpt>
      <trkpt lat="43.96337" lon="7.15369">
        <ele>285</ele>
        <time>2021-08-04T18:55:19Z</time>
      </trkpt>
      <trkpt lat="43.9633" lon="7.15373">
        <ele>285</ele>
        <time>2021-08-04T18:55:20Z</time>
      </trkpt>
      <trkpt lat="43.96318" lon="7.15373">
        <ele>285</ele>
        <time>2021-08-04T18:55:22Z</time>
      </trkpt>
      <trkpt lat="43.9625" lon="7.15355">
        <ele>283</ele>
        <time>2021-08-04T18:55:34Z</time>
      </trkpt>
      <trkpt lat="43.96238" lon="7.15354">
        <ele>282</ele>
        <time>2021-08-04T18:55:37Z</time>
      </trkpt>
      <trkpt lat="43.96218" lon="7.15359">
        <ele>282</ele>
        <time>2021-08-04T18:55:40Z</time>
      </trkpt>
      <trkpt lat="43.96201" lon="7.15371">
        <ele>282</ele>
        <time>2021-08-04T18:55:44Z</time>
      </trkpt>
      <trkpt lat="43.9611" lon="7.15463">
        <ele>287</ele>
        <time>2021-08-04T18:56:04Z</time>
      </trkpt>
      <trkpt lat="43.96085" lon="7.1548">
        <ele>287</ele>
        <time>2021-08-04T18:56:09Z</time>
      </trkpt>
      <trkpt lat="43.96031" lon="7.15501">
        <ele>278</ele>
        <time>2021-08-04T18:56:18Z</time>
      </trkpt>
      <trkpt lat="43.96019" lon="7.15508">
        <ele>278</ele>
        <time>2021-08-04T18:56:21Z</time>
      </trkpt>
      <trkpt lat="43.95995" lon="7.15531">
        <ele>279</ele>
        <time>2021-08-04T18:56:26Z</time>
      </trkpt>
      <trkpt lat="43.95987" lon="7.15542">
        <ele>280</ele>
        <time>2021-08-04T18:56:28Z</time>
      </trkpt>
      <trkpt lat="43.95964" lon="7.1559">
        <ele>286</ele>
        <time>2021-08-04T18:56:35Z</time>
      </trkpt>
      <trkpt lat="43.95958" lon="7.15602">
        <ele>289</ele>
        <time>2021-08-04T18:56:37Z</time>
      </trkpt>
      <trkpt lat="43.95938" lon="7.1562">
        <ele>289</ele>
        <time>2021-08-04T18:56:41Z</time>
      </trkpt>
      <trkpt lat="43.95925" lon="7.15628">
        <ele>289</ele>
        <time>2021-08-04T18:56:44Z</time>
      </trkpt>
      <trkpt lat="43.95873" lon="7.15634">
        <ele>279</ele>
        <time>2021-08-04T18:56:53Z</time>
      </trkpt>
      <trkpt lat="43.95859" lon="7.15638">
        <ele>277</ele>
        <time>2021-08-04T18:56:56Z</time>
      </trkpt>
      <trkpt lat="43.95847" lon="7.15644">
        <ele>277</ele>
        <time>2021-08-04T18:56:58Z</time>
      </trkpt>
      <trkpt lat="43.95811" lon="7.1567">
        <ele>276</ele>
        <time>2021-08-04T18:57:05Z</time>
      </trkpt>
      <trkpt lat="43.95771" lon="7.15685">
        <ele>272</ele>
        <time>2021-08-04T18:57:13Z</time>
      </trkpt>
      <trkpt lat="43.95761" lon="7.15691">
        <ele>272</ele>
        <time>2021-08-04T18:57:15Z</time>
      </trkpt>
      <trkpt lat="43.95724" lon="7.15732">
        <ele>276</ele>
        <time>2021-08-04T18:57:23Z</time>
      </trkpt>
      <trkpt lat="43.95713" lon="7.1574">
        <ele>275</ele>
        <time>2021-08-04T18:57:25Z</time>
      </trkpt>
      <trkpt lat="43.95677" lon="7.15758">
        <ele>270</ele>
        <time>2021-08-04T18:57:32Z</time>
      </trkpt>
      <trkpt lat="43.95665" lon="7.15767">
        <ele>271</ele>
        <time>2021-08-04T18:57:35Z</time>
      </trkpt>
      <trkpt lat="43.95636" lon="7.15793">
        <ele>277</ele>
        <time>2021-08-04T18:57:41Z</time>
      </trkpt>
      <trkpt lat="43.95626" lon="7.15798">
        <ele>277</ele>
        <time>2021-08-04T18:57:43Z</time>
      </trkpt>
      <trkpt lat="43.95587" lon="7.15807">
        <ele>271</ele>
        <time>2021-08-04T18:57:50Z</time>
      </trkpt>
      <trkpt lat="43.95528" lon="7.15828">
        <ele>266</ele>
        <time>2021-08-04T18:58:00Z</time>
      </trkpt>
      <trkpt lat="43.95464" lon="7.15861">
        <ele>270</ele>
        <time>2021-08-04T18:58:13Z</time>
      </trkpt>
      <trkpt lat="43.95289" lon="7.15924">
        <ele>260</ele>
        <time>2021-08-04T18:58:45Z</time>
      </trkpt>
      <trkpt lat="43.95273" lon="7.15929">
        <ele>260</ele>
        <time>2021-08-04T18:58:48Z</time>
      </trkpt>
      <trkpt lat="43.95229" lon="7.15941">
        <ele>259</ele>
        <time>2021-08-04T18:58:56Z</time>
      </trkpt>
      <trkpt lat="43.95203" lon="7.15952">
        <ele>260</ele>
        <time>2021-08-04T18:59:00Z</time>
      </trkpt>
      <trkpt lat="43.95105" lon="7.16001">
        <ele>256</ele>
        <time>2021-08-04T18:59:19Z</time>
      </trkpt>
      <trkpt lat="43.95049" lon="7.1602">
        <ele>259</ele>
        <time>2021-08-04T18:59:29Z</time>
      </trkpt>
      <trkpt lat="43.95009" lon="7.16036">
        <ele>264</ele>
        <time>2021-08-04T18:59:37Z</time>
      </trkpt>
      <trkpt lat="43.95001" lon="7.16037">
        <ele>264</ele>
        <time>2021-08-04T18:59:38Z</time>
      </trkpt>
      <trkpt lat="43.94957" lon="7.16029">
        <ele>260</ele>
        <time>2021-08-04T18:59:46Z</time>
      </trkpt>
      <trkpt lat="43.94821" lon="7.16013">
        <ele>254</ele>
        <time>2021-08-04T19:00:10Z</time>
      </trkpt>
      <trkpt lat="43.94807" lon="7.16011">
        <ele>253</ele>
        <time>2021-08-04T19:00:13Z</time>
      </trkpt>
      <trkpt lat="43.94784" lon="7.1601">
        <ele>252</ele>
        <time>2021-08-04T19:00:17Z</time>
      </trkpt>
      <trkpt lat="43.94762" lon="7.16016">
        <ele>252</ele>
        <time>2021-08-04T19:00:21Z</time>
      </trkpt>
      <trkpt lat="43.947" lon="7.16054">
        <ele>254</ele>
        <time>2021-08-04T19:00:33Z</time>
      </trkpt>
      <trkpt lat="43.94687" lon="7.16066">
        <ele>253</ele>
        <time>2021-08-04T19:00:36Z</time>
      </trkpt>
      <trkpt lat="43.94553" lon="7.16257">
        <ele>256</ele>
        <time>2021-08-04T19:01:10Z</time>
      </trkpt>
      <trkpt lat="43.94547" lon="7.16266">
        <ele>258</ele>
        <time>2021-08-04T19:01:11Z</time>
      </trkpt>
      <trkpt lat="43.94522" lon="7.16289">
        <ele>261</ele>
        <time>2021-08-04T19:01:17Z</time>
      </trkpt>
      <trkpt lat="43.94493" lon="7.16302">
        <ele>260</ele>
        <time>2021-08-04T19:01:22Z</time>
      </trkpt>
      <trkpt lat="43.94479" lon="7.16304">
        <ele>260</ele>
        <time>2021-08-04T19:01:25Z</time>
      </trkpt>
      <trkpt lat="43.94423" lon="7.16301">
        <ele>258</ele>
        <time>2021-08-04T19:01:35Z</time>
      </trkpt>
      <trkpt lat="43.94398" lon="7.16294">
        <ele>255</ele>
        <time>2021-08-04T19:01:39Z</time>
      </trkpt>
      <trkpt lat="43.94271" lon="7.16251">
        <ele>242</ele>
        <time>2021-08-04T19:02:02Z</time>
      </trkpt>
      <trkpt lat="43.94251" lon="7.1624">
        <ele>242</ele>
        <time>2021-08-04T19:02:06Z</time>
      </trkpt>
      <trkpt lat="43.94239" lon="7.16232">
        <ele>243</ele>
        <time>2021-08-04T19:02:09Z</time>
      </trkpt>
      <trkpt lat="43.94167" lon="7.16162">
        <ele>243</ele>
        <time>2021-08-04T19:02:24Z</time>
      </trkpt>
      <trkpt lat="43.94156" lon="7.16153">
        <ele>245</ele>
        <time>2021-08-04T19:02:27Z</time>
      </trkpt>
      <trkpt lat="43.9414" lon="7.16146">
        <ele>245</ele>
        <time>2021-08-04T19:02:30Z</time>
      </trkpt>
      <trkpt lat="43.94081" lon="7.16137">
        <ele>241</ele>
        <time>2021-08-04T19:02:40Z</time>
      </trkpt>
      <trkpt lat="43.94059" lon="7.16133">
        <ele>244</ele>
        <time>2021-08-04T19:02:44Z</time>
      </trkpt>
      <trkpt lat="43.93963" lon="7.16105">
        <ele>243</ele>
        <time>2021-08-04T19:03:01Z</time>
      </trkpt>
      <trkpt lat="43.93949" lon="7.16104">
        <ele>242</ele>
        <time>2021-08-04T19:03:04Z</time>
      </trkpt>
      <trkpt lat="43.93925" lon="7.16108">
        <ele>242</ele>
        <time>2021-08-04T19:03:08Z</time>
      </trkpt>
      <trkpt lat="43.93913" lon="7.16115">
        <ele>243</ele>
        <time>2021-08-04T19:03:11Z</time>
      </trkpt>
      <trkpt lat="43.93901" lon="7.16125">
        <ele>245</ele>
        <time>2021-08-04T19:03:13Z</time>
      </trkpt>
      <trkpt lat="43.93891" lon="7.16138">
        <ele>245</ele>
        <time>2021-08-04T19:03:16Z</time>
      </trkpt>
      <trkpt lat="43.93858" lon="7.16191">
        <ele>244</ele>
        <time>2021-08-04T19:03:25Z</time>
      </trkpt>
      <trkpt lat="43.93848" lon="7.1621">
        <ele>243</ele>
        <time>2021-08-04T19:03:28Z</time>
      </trkpt>
      <trkpt lat="43.93842" lon="7.16228">
        <ele>242</ele>
        <time>2021-08-04T19:03:30Z</time>
      </trkpt>
      <trkpt lat="43.93837" lon="7.16249">
        <ele>240</ele>
        <time>2021-08-04T19:03:33Z</time>
      </trkpt>
      <trkpt lat="43.93835" lon="7.16266">
        <ele>240</ele>
        <time>2021-08-04T19:03:35Z</time>
      </trkpt>
      <trkpt lat="43.93836" lon="7.16284">
        <ele>240</ele>
        <time>2021-08-04T19:03:37Z</time>
      </trkpt>
      <trkpt lat="43.93856" lon="7.16462">
        <ele>250</ele>
        <time>2021-08-04T19:04:01Z</time>
      </trkpt>
      <trkpt lat="43.93855" lon="7.16478">
        <ele>250</ele>
        <time>2021-08-04T19:04:03Z</time>
      </trkpt>
      <trkpt lat="43.93851" lon="7.16491">
        <ele>250</ele>
        <time>2021-08-04T19:04:04Z</time>
      </trkpt>
      <trkpt lat="43.93846" lon="7.16503">
        <ele>249</ele>
        <time>2021-08-04T19:04:06Z</time>
      </trkpt>
      <trkpt lat="43.93838" lon="7.16514">
        <ele>248</ele>
        <time>2021-08-04T19:04:08Z</time>
      </trkpt>
      <trkpt lat="43.9383" lon="7.1652">
        <ele>250</ele>
        <time>2021-08-04T19:04:10Z</time>
      </trkpt>
      <trkpt lat="43.93816" lon="7.16525">
        <ele>259</ele>
        <time>2021-08-04T19:04:12Z</time>
      </trkpt>
      <trkpt lat="43.93786" lon="7.16533">
        <ele>276</ele>
        <time>2021-08-04T19:04:18Z</time>
      </trkpt>
      <trkpt lat="43.93777" lon="7.16538">
        <ele>281</ele>
        <time>2021-08-04T19:04:20Z</time>
      </trkpt>
      <trkpt lat="43.93771" lon="7.16546">
        <ele>285</ele>
        <time>2021-08-04T19:04:21Z</time>
      </trkpt>
      <trkpt lat="43.93766" lon="7.16559">
        <ele>289</ele>
        <time>2021-08-04T19:04:23Z</time>
      </trkpt>
      <trkpt lat="43.93743" lon="7.16674">
        <ele>288</ele>
        <time>2021-08-04T19:04:38Z</time>
      </trkpt>
      <trkpt lat="43.93738" lon="7.16687">
        <ele>287</ele>
        <time>2021-08-04T19:04:40Z</time>
      </trkpt>
      <trkpt lat="43.93713" lon="7.16732">
        <ele>285</ele>
        <time>2021-08-04T19:04:47Z</time>
      </trkpt>
      <trkpt lat="43.93707" lon="7.16755">
        <ele>282</ele>
        <time>2021-08-04T19:04:50Z</time>
      </trkpt>
      <trkpt lat="43.93703" lon="7.16784">
        <ele>280</ele>
        <time>2021-08-04T19:04:54Z</time>
      </trkpt>
      <trkpt lat="43.93702" lon="7.16804">
        <ele>278</ele>
        <time>2021-08-04T19:04:57Z</time>
      </trkpt>
      <trkpt lat="43.93705" lon="7.16857">
        <ele>275</ele>
        <time>2021-08-04T19:05:04Z</time>
      </trkpt>
      <trkpt lat="43.93714" lon="7.16936">
        <ele>271</ele>
        <time>2021-08-04T19:05:14Z</time>
      </trkpt>
      <trkpt lat="43.93717" lon="7.16957">
        <ele>269</ele>
        <time>2021-08-04T19:05:17Z</time>
      </trkpt>
      <trkpt lat="43.93747" lon="7.17009">
        <ele>241</ele>
        <time>2021-08-04T19:05:25Z</time>
      </trkpt>
      <trkpt lat="43.93762" lon="7.17052">
        <ele>237</ele>
        <time>2021-08-04T19:05:31Z</time>
      </trkpt>
      <trkpt lat="43.93764" lon="7.17067">
        <ele>237</ele>
        <time>2021-08-04T19:05:33Z</time>
      </trkpt>
      <trkpt lat="43.93763" lon="7.17076">
        <ele>236</ele>
        <time>2021-08-04T19:05:34Z</time>
      </trkpt>
      <trkpt lat="43.93753" lon="7.17092">
        <ele>238</ele>
        <time>2021-08-04T19:05:37Z</time>
      </trkpt>
      <trkpt lat="43.93678" lon="7.17151">
        <ele>255</ele>
        <time>2021-08-04T19:05:52Z</time>
      </trkpt>
      <trkpt lat="43.93649" lon="7.17166">
        <ele>246</ele>
        <time>2021-08-04T19:05:58Z</time>
      </trkpt>
      <trkpt lat="43.93624" lon="7.1717">
        <ele>245</ele>
        <time>2021-08-04T19:06:02Z</time>
      </trkpt>
      <trkpt lat="43.93596" lon="7.1717">
        <ele>243</ele>
        <time>2021-08-04T19:06:07Z</time>
      </trkpt>
      <trkpt lat="43.93557" lon="7.1718">
        <ele>239</ele>
        <time>2021-08-04T19:06:14Z</time>
      </trkpt>
      <trkpt lat="43.93545" lon="7.17179">
        <ele>238</ele>
        <time>2021-08-04T19:06:17Z</time>
      </trkpt>
      <trkpt lat="43.93515" lon="7.17175">
        <ele>237</ele>
        <time>2021-08-04T19:06:22Z</time>
      </trkpt>
      <trkpt lat="43.93494" lon="7.17174">
        <ele>237</ele>
        <time>2021-08-04T19:06:26Z</time>
      </trkpt>
      <trkpt lat="43.93451" lon="7.17186">
        <ele>240</ele>
        <time>2021-08-04T19:06:34Z</time>
      </trkpt>
      <trkpt lat="43.93437" lon="7.17193">
        <ele>240</ele>
        <time>2021-08-04T19:06:36Z</time>
      </trkpt>
      <trkpt lat="43.93427" lon="7.17202">
        <ele>238</ele>
        <time>2021-08-04T19:06:38Z</time>
      </trkpt>
      <trkpt lat="43.93401" lon="7.17236">
        <ele>236</ele>
        <time>2021-08-04T19:06:45Z</time>
      </trkpt>
      <trkpt lat="43.93391" lon="7.17254">
        <ele>236</ele>
        <time>2021-08-04T19:06:48Z</time>
      </trkpt>
      <trkpt lat="43.93378" lon="7.17293">
        <ele>233</ele>
        <time>2021-08-04T19:06:53Z</time>
      </trkpt>
      <trkpt lat="43.93372" lon="7.17306">
        <ele>231</ele>
        <time>2021-08-04T19:06:55Z</time>
      </trkpt>
      <trkpt lat="43.93363" lon="7.17318">
        <ele>231</ele>
        <time>2021-08-04T19:06:57Z</time>
      </trkpt>
      <trkpt lat="43.93354" lon="7.17326">
        <ele>231</ele>
        <time>2021-08-04T19:06:59Z</time>
      </trkpt>
      <trkpt lat="43.93322" lon="7.17348">
        <ele>234</ele>
        <time>2021-08-04T19:07:06Z</time>
      </trkpt>
      <trkpt lat="43.93287" lon="7.17375">
        <ele>238</ele>
        <time>2021-08-04T19:07:13Z</time>
      </trkpt>
      <trkpt lat="43.93247" lon="7.17408">
        <ele>237</ele>
        <time>2021-08-04T19:07:21Z</time>
      </trkpt>
      <trkpt lat="43.93235" lon="7.17422">
        <ele>241</ele>
        <time>2021-08-04T19:07:24Z</time>
      </trkpt>
      <trkpt lat="43.93214" lon="7.17463">
        <ele>246</ele>
        <time>2021-08-04T19:07:30Z</time>
      </trkpt>
      <trkpt lat="43.93209" lon="7.17481">
        <ele>244</ele>
        <time>2021-08-04T19:07:33Z</time>
      </trkpt>
      <trkpt lat="43.93201" lon="7.17532">
        <ele>241</ele>
        <time>2021-08-04T19:07:39Z</time>
      </trkpt>
      <trkpt lat="43.93197" lon="7.17547">
        <ele>241</ele>
        <time>2021-08-04T19:07:41Z</time>
      </trkpt>
      <trkpt lat="43.9319" lon="7.17562">
        <ele>241</ele>
        <time>2021-08-04T19:07:44Z</time>
      </trkpt>
      <trkpt lat="43.93169" lon="7.17587">
        <ele>239</ele>
        <time>2021-08-04T19:07:49Z</time>
      </trkpt>
      <trkpt lat="43.93159" lon="7.17604">
        <ele>240</ele>
        <time>2021-08-04T19:07:51Z</time>
      </trkpt>
      <trkpt lat="43.93142" lon="7.1766">
        <ele>239</ele>
        <time>2021-08-04T19:07:59Z</time>
      </trkpt>
      <trkpt lat="43.93138" lon="7.17676">
        <ele>238</ele>
        <time>2021-08-04T19:08:01Z</time>
      </trkpt>
      <trkpt lat="43.93136" lon="7.17702">
        <ele>235</ele>
        <time>2021-08-04T19:08:05Z</time>
      </trkpt>
      <trkpt lat="43.93133" lon="7.17714">
        <ele>234</ele>
        <time>2021-08-04T19:08:06Z</time>
      </trkpt>
      <trkpt lat="43.93073" lon="7.17853">
        <ele>233</ele>
        <time>2021-08-04T19:08:27Z</time>
      </trkpt>
      <trkpt lat="43.93007" lon="7.18029">
        <ele>227</ele>
        <time>2021-08-04T19:08:53Z</time>
      </trkpt>
      <trkpt lat="43.93" lon="7.1804">
        <ele>225</ele>
        <time>2021-08-04T19:08:54Z</time>
      </trkpt>
      <trkpt lat="43.9299" lon="7.1805">
        <ele>225</ele>
        <time>2021-08-04T19:08:57Z</time>
      </trkpt>
      <trkpt lat="43.92965" lon="7.18066">
        <ele>227</ele>
        <time>2021-08-04T19:09:01Z</time>
      </trkpt>
      <trkpt lat="43.92952" lon="7.18071">
        <ele>228</ele>
        <time>2021-08-04T19:09:04Z</time>
      </trkpt>
      <trkpt lat="43.92912" lon="7.18074">
        <ele>235</ele>
        <time>2021-08-04T19:09:11Z</time>
      </trkpt>
      <trkpt lat="43.92893" lon="7.18078">
        <ele>234</ele>
        <time>2021-08-04T19:09:14Z</time>
      </trkpt>
      <trkpt lat="43.92876" lon="7.18084">
        <ele>233</ele>
        <time>2021-08-04T19:09:18Z</time>
      </trkpt>
      <trkpt lat="43.92795" lon="7.18128">
        <ele>230</ele>
        <time>2021-08-04T19:09:33Z</time>
      </trkpt>
      <trkpt lat="43.92724" lon="7.18173">
        <ele>230</ele>
        <time>2021-08-04T19:09:47Z</time>
      </trkpt>
      <trkpt lat="43.92677" lon="7.18223">
        <ele>229</ele>
        <time>2021-08-04T19:09:57Z</time>
      </trkpt>
      <trkpt lat="43.92624" lon="7.18293">
        <ele>225</ele>
        <time>2021-08-04T19:10:10Z</time>
      </trkpt>
      <trkpt lat="43.92615" lon="7.18308">
        <ele>224</ele>
        <time>2021-08-04T19:10:13Z</time>
      </trkpt>
      <trkpt lat="43.92608" lon="7.18331">
        <ele>222</ele>
        <time>2021-08-04T19:10:16Z</time>
      </trkpt>
      <trkpt lat="43.92592" lon="7.18408">
        <ele>219</ele>
        <time>2021-08-04T19:10:26Z</time>
      </trkpt>
      <trkpt lat="43.92586" lon="7.1843">
        <ele>218</ele>
        <time>2021-08-04T19:10:29Z</time>
      </trkpt>
      <trkpt lat="43.92561" lon="7.18483">
        <ele>220</ele>
        <time>2021-08-04T19:10:38Z</time>
      </trkpt>
      <trkpt lat="43.92553" lon="7.1851">
        <ele>219</ele>
        <time>2021-08-04T19:10:41Z</time>
      </trkpt>
      <trkpt lat="43.92545" lon="7.18547">
        <ele>219</ele>
        <time>2021-08-04T19:10:46Z</time>
      </trkpt>
      <trkpt lat="43.92504" lon="7.18611">
        <ele>220</ele>
        <time>2021-08-04T19:10:57Z</time>
      </trkpt>
      <trkpt lat="43.92487" lon="7.18634">
        <ele>219</ele>
        <time>2021-08-04T19:11:01Z</time>
      </trkpt>
      <trkpt lat="43.92477" lon="7.18641">
        <ele>219</ele>
        <time>2021-08-04T19:11:03Z</time>
      </trkpt>
      <trkpt lat="43.92458" lon="7.18646">
        <ele>219</ele>
        <time>2021-08-04T19:11:07Z</time>
      </trkpt>
      <trkpt lat="43.92415" lon="7.18644">
        <ele>221</ele>
        <time>2021-08-04T19:11:15Z</time>
      </trkpt>
      <trkpt lat="43.92353" lon="7.18636">
        <ele>219</ele>
        <time>2021-08-04T19:11:26Z</time>
      </trkpt>
      <trkpt lat="43.92341" lon="7.18632">
        <ele>219</ele>
        <time>2021-08-04T19:11:28Z</time>
      </trkpt>
      <trkpt lat="43.92278" lon="7.18591">
        <ele>228</ele>
        <time>2021-08-04T19:11:40Z</time>
      </trkpt>
      <trkpt lat="43.9227" lon="7.18587">
        <ele>229</ele>
        <time>2021-08-04T19:11:42Z</time>
      </trkpt>
      <trkpt lat="43.9226" lon="7.18587">
        <ele>228</ele>
        <time>2021-08-04T19:11:44Z</time>
      </trkpt>
      <trkpt lat="43.92249" lon="7.1859">
        <ele>227</ele>
        <time>2021-08-04T19:11:45Z</time>
      </trkpt>
      <trkpt lat="43.92195" lon="7.18614">
        <ele>227</ele>
        <time>2021-08-04T19:11:56Z</time>
      </trkpt>
      <trkpt lat="43.92127" lon="7.18656">
        <ele>227</ele>
        <time>2021-08-04T19:12:09Z</time>
      </trkpt>
      <trkpt lat="43.92111" lon="7.18673">
        <ele>227</ele>
        <time>2021-08-04T19:12:12Z</time>
      </trkpt>
      <trkpt lat="43.92082" lon="7.18755">
        <ele>213</ele>
        <time>2021-08-04T19:12:24Z</time>
      </trkpt>
      <trkpt lat="43.92074" lon="7.18769">
        <ele>217</ele>
        <time>2021-08-04T19:12:26Z</time>
      </trkpt>
      <trkpt lat="43.92062" lon="7.18782">
        <ele>220</ele>
        <time>2021-08-04T19:12:29Z</time>
      </trkpt>
      <trkpt lat="43.92047" lon="7.18792">
        <ele>224</ele>
        <time>2021-08-04T19:12:32Z</time>
      </trkpt>
      <trkpt lat="43.92031" lon="7.18798">
        <ele>226</ele>
        <time>2021-08-04T19:12:35Z</time>
      </trkpt>
      <trkpt lat="43.91971" lon="7.18807">
        <ele>245</ele>
        <time>2021-08-04T19:12:46Z</time>
      </trkpt>
      <trkpt lat="43.91956" lon="7.18812">
        <ele>251</ele>
        <time>2021-08-04T19:12:49Z</time>
      </trkpt>
      <trkpt lat="43.91947" lon="7.1882">
        <ele>253</ele>
        <time>2021-08-04T19:12:50Z</time>
      </trkpt>
      <trkpt lat="43.91936" lon="7.18833">
        <ele>254</ele>
        <time>2021-08-04T19:12:53Z</time>
      </trkpt>
      <trkpt lat="43.91905" lon="7.18886">
        <ele>253</ele>
        <time>2021-08-04T19:13:02Z</time>
      </trkpt>
      <trkpt lat="43.91863" lon="7.18948">
        <ele>260</ele>
        <time>2021-08-04T19:13:13Z</time>
      </trkpt>
      <trkpt lat="43.91854" lon="7.18954">
        <ele>261</ele>
        <time>2021-08-04T19:13:14Z</time>
      </trkpt>
      <trkpt lat="43.91779" lon="7.18956">
        <ele>272</ele>
        <time>2021-08-04T19:13:28Z</time>
      </trkpt>
      <trkpt lat="43.91761" lon="7.18955">
        <ele>276</ele>
        <time>2021-08-04T19:13:31Z</time>
      </trkpt>
      <trkpt lat="43.91739" lon="7.18946">
        <ele>277</ele>
        <time>2021-08-04T19:13:35Z</time>
      </trkpt>
      <trkpt lat="43.91671" lon="7.18905">
        <ele>256</ele>
        <time>2021-08-04T19:13:48Z</time>
      </trkpt>
      <trkpt lat="43.91639" lon="7.18875">
        <ele>260</ele>
        <time>2021-08-04T19:13:55Z</time>
      </trkpt>
      <trkpt lat="43.91621" lon="7.18849">
        <ele>251</ele>
        <time>2021-08-04T19:14:00Z</time>
      </trkpt>
      <trkpt lat="43.91568" lon="7.18754">
        <ele>221</ele>
        <time>2021-08-04T19:14:15Z</time>
      </trkpt>
      <trkpt lat="43.9156" lon="7.18744">
        <ele>223</ele>
        <time>2021-08-04T19:14:17Z</time>
      </trkpt>
      <trkpt lat="43.91544" lon="7.18732">
        <ele>226</ele>
        <time>2021-08-04T19:14:20Z</time>
      </trkpt>
      <trkpt lat="43.91534" lon="7.18728">
        <ele>224</ele>
        <time>2021-08-04T19:14:22Z</time>
      </trkpt>
      <trkpt lat="43.91517" lon="7.18726">
        <ele>217</ele>
        <time>2021-08-04T19:14:25Z</time>
      </trkpt>
      <trkpt lat="43.91509" lon="7.18727">
        <ele>214</ele>
        <time>2021-08-04T19:14:27Z</time>
      </trkpt>
      <trkpt lat="43.91499" lon="7.18733">
        <ele>210</ele>
        <time>2021-08-04T19:14:29Z</time>
      </trkpt>
      <trkpt lat="43.91488" lon="7.18742">
        <ele>209</ele>
        <time>2021-08-04T19:14:31Z</time>
      </trkpt>
      <trkpt lat="43.91455" lon="7.18782">
        <ele>238</ele>
        <time>2021-08-04T19:14:39Z</time>
      </trkpt>
      <trkpt lat="43.91436" lon="7.18802">
        <ele>257</ele>
        <time>2021-08-04T19:14:43Z</time>
      </trkpt>
      <trkpt lat="43.91378" lon="7.1883">
        <ele>285</ele>
        <time>2021-08-04T19:14:54Z</time>
      </trkpt>
      <trkpt lat="43.91355" lon="7.1883">
        <ele>285</ele>
        <time>2021-08-04T19:14:58Z</time>
      </trkpt>
      <trkpt lat="43.91345" lon="7.18826">
        <ele>281</ele>
        <time>2021-08-04T19:15:00Z</time>
      </trkpt>
      <trkpt lat="43.91332" lon="7.18812">
        <ele>266</ele>
        <time>2021-08-04T19:15:03Z</time>
      </trkpt>
      <trkpt lat="43.91317" lon="7.18801">
        <ele>254</ele>
        <time>2021-08-04T19:15:06Z</time>
      </trkpt>
      <trkpt lat="43.91308" lon="7.18791">
        <ele>245</ele>
        <time>2021-08-04T19:15:08Z</time>
      </trkpt>
      <trkpt lat="43.91289" lon="7.18756">
        <ele>219</ele>
        <time>2021-08-04T19:15:13Z</time>
      </trkpt>
      <trkpt lat="43.91286" lon="7.18741">
        <ele>214</ele>
        <time>2021-08-04T19:15:15Z</time>
      </trkpt>
      <trkpt lat="43.91282" lon="7.18704">
        <ele>210</ele>
        <time>2021-08-04T19:15:20Z</time>
      </trkpt>
      <trkpt lat="43.91277" lon="7.1869">
        <ele>208</ele>
        <time>2021-08-04T19:15:22Z</time>
      </trkpt>
      <trkpt lat="43.91243" lon="7.18635">
        <ele>203</ele>
        <time>2021-08-04T19:15:31Z</time>
      </trkpt>
      <trkpt lat="43.9123" lon="7.18597">
        <ele>193</ele>
        <time>2021-08-04T19:15:37Z</time>
      </trkpt>
      <trkpt lat="43.91223" lon="7.18588">
        <ele>191</ele>
        <time>2021-08-04T19:15:39Z</time>
      </trkpt>
      <trkpt lat="43.91216" lon="7.18582">
        <ele>190</ele>
        <time>2021-08-04T19:15:40Z</time>
      </trkpt>
      <trkpt lat="43.912" lon="7.1858">
        <ele>191</ele>
        <time>2021-08-04T19:15:43Z</time>
      </trkpt>
      <trkpt lat="43.91142" lon="7.18582">
        <ele>192</ele>
        <time>2021-08-04T19:15:53Z</time>
      </trkpt>
      <trkpt lat="43.9103" lon="7.18595">
        <ele>211</ele>
        <time>2021-08-04T19:16:13Z</time>
      </trkpt>
      <trkpt lat="43.91016" lon="7.18596">
        <ele>217</ele>
        <time>2021-08-04T19:16:16Z</time>
      </trkpt>
      <trkpt lat="43.90725" lon="7.18629">
        <ele>439</ele>
        <time>2021-08-04T19:17:08Z</time>
      </trkpt>
      <trkpt lat="43.90601" lon="7.18647">
        <ele>396</ele>
        <time>2021-08-04T19:17:30Z</time>
      </trkpt>
      <trkpt lat="43.90478" lon="7.18673">
        <ele>313</ele>
        <time>2021-08-04T19:17:52Z</time>
      </trkpt>
      <trkpt lat="43.90356" lon="7.18708">
        <ele>275</ele>
        <time>2021-08-04T19:18:14Z</time>
      </trkpt>
      <trkpt lat="43.90235" lon="7.18752">
        <ele>264</ele>
        <time>2021-08-04T19:18:36Z</time>
      </trkpt>
      <trkpt lat="43.90116" lon="7.18802">
        <ele>204</ele>
        <time>2021-08-04T19:18:58Z</time>
      </trkpt>
      <trkpt lat="43.89921" lon="7.18897">
        <ele>188</ele>
        <time>2021-08-04T19:19:35Z</time>
      </trkpt>
      <trkpt lat="43.89862" lon="7.18921">
        <ele>175</ele>
        <time>2021-08-04T19:19:46Z</time>
      </trkpt>
      <trkpt lat="43.89829" lon="7.18925">
        <ele>173</ele>
        <time>2021-08-04T19:19:52Z</time>
      </trkpt>
      <trkpt lat="43.8979" lon="7.18924">
        <ele>201</ele>
        <time>2021-08-04T19:19:59Z</time>
      </trkpt>
      <trkpt lat="43.89502" lon="7.18886">
        <ele>199</ele>
        <time>2021-08-04T19:20:50Z</time>
      </trkpt>
      <trkpt lat="43.89425" lon="7.18869">
        <ele>171</ele>
        <time>2021-08-04T19:21:04Z</time>
      </trkpt>
      <trkpt lat="43.89317" lon="7.18844">
        <ele>168</ele>
        <time>2021-08-04T19:21:24Z</time>
      </trkpt>
      <trkpt lat="43.89292" lon="7.18844">
        <ele>166</ele>
        <time>2021-08-04T19:21:28Z</time>
      </trkpt>
      <trkpt lat="43.89273" lon="7.1885">
        <ele>168</ele>
        <time>2021-08-04T19:21:32Z</time>
      </trkpt>
      <trkpt lat="43.89253" lon="7.18859">
        <ele>170</ele>
        <time>2021-08-04T19:21:35Z</time>
      </trkpt>
      <trkpt lat="43.89185" lon="7.18902">
        <ele>171</ele>
        <time>2021-08-04T19:21:49Z</time>
      </trkpt>
      <trkpt lat="43.89161" lon="7.18913">
        <ele>170</ele>
        <time>2021-08-04T19:21:53Z</time>
      </trkpt>
      <trkpt lat="43.89145" lon="7.18918">
        <ele>172</ele>
        <time>2021-08-04T19:21:56Z</time>
      </trkpt>
      <trkpt lat="43.89128" lon="7.1892">
        <ele>173</ele>
        <time>2021-08-04T19:21:59Z</time>
      </trkpt>
      <trkpt lat="43.8911" lon="7.18919">
        <ele>173</ele>
        <time>2021-08-04T19:22:02Z</time>
      </trkpt>
      <trkpt lat="43.89094" lon="7.18913">
        <ele>172</ele>
        <time>2021-08-04T19:22:05Z</time>
      </trkpt>
      <trkpt lat="43.8907" lon="7.18901">
        <ele>176</ele>
        <time>2021-08-04T19:22:10Z</time>
      </trkpt>
      <trkpt lat="43.88974" lon="7.18844">
        <ele>177</ele>
        <time>2021-08-04T19:22:29Z</time>
      </trkpt>
      <trkpt lat="43.88927" lon="7.18824">
        <ele>168</ele>
        <time>2021-08-04T19:22:37Z</time>
      </trkpt>
      <trkpt lat="43.88913" lon="7.18821">
        <ele>166</ele>
        <time>2021-08-04T19:22:40Z</time>
      </trkpt>
      <trkpt lat="43.88899" lon="7.18819">
        <ele>165</ele>
        <time>2021-08-04T19:22:42Z</time>
      </trkpt>
      <trkpt lat="43.88876" lon="7.18821">
        <ele>163</ele>
        <time>2021-08-04T19:22:46Z</time>
      </trkpt>
      <trkpt lat="43.8885" lon="7.18829">
        <ele>159</ele>
        <time>2021-08-04T19:22:51Z</time>
      </trkpt>
      <trkpt lat="43.88826" lon="7.18842">
        <ele>159</ele>
        <time>2021-08-04T19:22:56Z</time>
      </trkpt>
      <trkpt lat="43.88742" lon="7.18898">
        <ele>162</ele>
        <time>2021-08-04T19:23:12Z</time>
      </trkpt>
      <trkpt lat="43.88725" lon="7.18925">
        <ele>164</ele>
        <time>2021-08-04T19:23:17Z</time>
      </trkpt>
      <trkpt lat="43.88706" lon="7.1898">
        <ele>192</ele>
        <time>2021-08-04T19:23:25Z</time>
      </trkpt>
      <trkpt lat="43.88699" lon="7.18989">
        <ele>195</ele>
        <time>2021-08-04T19:23:26Z</time>
      </trkpt>
      <trkpt lat="43.88666" lon="7.19006">
        <ele>193</ele>
        <time>2021-08-04T19:23:33Z</time>
      </trkpt>
      <trkpt lat="43.88556" lon="7.19032">
        <ele>193</ele>
        <time>2021-08-04T19:23:53Z</time>
      </trkpt>
      <trkpt lat="43.88501" lon="7.19056">
        <ele>191</ele>
        <time>2021-08-04T19:24:03Z</time>
      </trkpt>
      <trkpt lat="43.88463" lon="7.19078">
        <ele>189</ele>
        <time>2021-08-04T19:24:10Z</time>
      </trkpt>
      <trkpt lat="43.88444" lon="7.19083">
        <ele>183</ele>
        <time>2021-08-04T19:24:14Z</time>
      </trkpt>
      <trkpt lat="43.88431" lon="7.19084">
        <ele>177</ele>
        <time>2021-08-04T19:24:16Z</time>
      </trkpt>
      <trkpt lat="43.8842" lon="7.19082">
        <ele>171</ele>
        <time>2021-08-04T19:24:18Z</time>
      </trkpt>
      <trkpt lat="43.88341" lon="7.19056">
        <ele>169</ele>
        <time>2021-08-04T19:24:32Z</time>
      </trkpt>
      <trkpt lat="43.8832" lon="7.19055">
        <ele>171</ele>
        <time>2021-08-04T19:24:36Z</time>
      </trkpt>
      <trkpt lat="43.88275" lon="7.19058">
        <ele>181</ele>
        <time>2021-08-04T19:24:44Z</time>
      </trkpt>
      <trkpt lat="43.88243" lon="7.19052">
        <ele>185</ele>
        <time>2021-08-04T19:24:50Z</time>
      </trkpt>
      <trkpt lat="43.88168" lon="7.19025">
        <ele>193</ele>
        <time>2021-08-04T19:25:04Z</time>
      </trkpt>
      <trkpt lat="43.88096" lon="7.19009">
        <ele>173</ele>
        <time>2021-08-04T19:25:17Z</time>
      </trkpt>
      <trkpt lat="43.88053" lon="7.18993">
        <ele>159</ele>
        <time>2021-08-04T19:25:24Z</time>
      </trkpt>
      <trkpt lat="43.88032" lon="7.18992">
        <ele>159</ele>
        <time>2021-08-04T19:25:28Z</time>
      </trkpt>
      <trkpt lat="43.88007" lon="7.18995">
        <ele>158</ele>
        <time>2021-08-04T19:25:33Z</time>
      </trkpt>
      <trkpt lat="43.87989" lon="7.18999">
        <ele>158</ele>
        <time>2021-08-04T19:25:36Z</time>
      </trkpt>
      <trkpt lat="43.87963" lon="7.19008">
        <ele>160</ele>
        <time>2021-08-04T19:25:41Z</time>
      </trkpt>
      <trkpt lat="43.8794" lon="7.1902">
        <ele>163</ele>
        <time>2021-08-04T19:25:45Z</time>
      </trkpt>
      <trkpt lat="43.87848" lon="7.191">
        <ele>167</ele>
        <time>2021-08-04T19:26:04Z</time>
      </trkpt>
      <trkpt lat="43.87839" lon="7.19109">
        <ele>167</ele>
        <time>2021-08-04T19:26:06Z</time>
      </trkpt>
      <trkpt lat="43.87824" lon="7.19133">
        <ele>174</ele>
        <time>2021-08-04T19:26:10Z</time>
      </trkpt>
      <trkpt lat="43.87811" lon="7.19158">
        <ele>179</ele>
        <time>2021-08-04T19:26:14Z</time>
      </trkpt>
      <trkpt lat="43.878" lon="7.19177">
        <ele>182</ele>
        <time>2021-08-04T19:26:18Z</time>
      </trkpt>
      <trkpt lat="43.87752" lon="7.19244">
        <ele>188</ele>
        <time>2021-08-04T19:26:30Z</time>
      </trkpt>
      <trkpt lat="43.87725" lon="7.19275">
        <ele>195</ele>
        <time>2021-08-04T19:26:36Z</time>
      </trkpt>
      <trkpt lat="43.87707" lon="7.1929">
        <ele>200</ele>
        <time>2021-08-04T19:26:40Z</time>
      </trkpt>
      <trkpt lat="43.87686" lon="7.19299">
        <ele>200</ele>
        <time>2021-08-04T19:26:44Z</time>
      </trkpt>
      <trkpt lat="43.87633" lon="7.19314">
        <ele>204</ele>
        <time>2021-08-04T19:26:53Z</time>
      </trkpt>
      <trkpt lat="43.87568" lon="7.19317">
        <ele>199</ele>
        <time>2021-08-04T19:27:05Z</time>
      </trkpt>
      <trkpt lat="43.87559" lon="7.19315">
        <ele>196</ele>
        <time>2021-08-04T19:27:06Z</time>
      </trkpt>
      <trkpt lat="43.87522" lon="7.19297">
        <ele>182</ele>
        <time>2021-08-04T19:27:13Z</time>
      </trkpt>
      <trkpt lat="43.87505" lon="7.19295">
        <ele>180</ele>
        <time>2021-08-04T19:27:16Z</time>
      </trkpt>
      <trkpt lat="43.87487" lon="7.19295">
        <ele>175</ele>
        <time>2021-08-04T19:27:20Z</time>
      </trkpt>
      <trkpt lat="43.8747" lon="7.19297">
        <ele>171</ele>
        <time>2021-08-04T19:27:23Z</time>
      </trkpt>
      <trkpt lat="43.87448" lon="7.19306">
        <ele>166</ele>
        <time>2021-08-04T19:27:27Z</time>
      </trkpt>
      <trkpt lat="43.87438" lon="7.19314">
        <ele>165</ele>
        <time>2021-08-04T19:27:29Z</time>
      </trkpt>
      <trkpt lat="43.87425" lon="7.19331">
        <ele>163</ele>
        <time>2021-08-04T19:27:32Z</time>
      </trkpt>
      <trkpt lat="43.87419" lon="7.19345">
        <ele>165</ele>
        <time>2021-08-04T19:27:34Z</time>
      </trkpt>
      <trkpt lat="43.87398" lon="7.19413">
        <ele>177</ele>
        <time>2021-08-04T19:27:43Z</time>
      </trkpt>
      <trkpt lat="43.87393" lon="7.19424">
        <ele>178</ele>
        <time>2021-08-04T19:27:45Z</time>
      </trkpt>
      <trkpt lat="43.87385" lon="7.19441">
        <ele>181</ele>
        <time>2021-08-04T19:27:48Z</time>
      </trkpt>
      <trkpt lat="43.8736" lon="7.19479">
        <ele>182</ele>
        <time>2021-08-04T19:27:54Z</time>
      </trkpt>
      <trkpt lat="43.87344" lon="7.195">
        <ele>180</ele>
        <time>2021-08-04T19:27:58Z</time>
      </trkpt>
      <trkpt lat="43.87335" lon="7.19508">
        <ele>181</ele>
        <time>2021-08-04T19:28:00Z</time>
      </trkpt>
      <trkpt lat="43.8732" lon="7.19519">
        <ele>182</ele>
        <time>2021-08-04T19:28:03Z</time>
      </trkpt>
      <trkpt lat="43.87296" lon="7.19529">
        <ele>177</ele>
        <time>2021-08-04T19:28:08Z</time>
      </trkpt>
      <trkpt lat="43.8728" lon="7.19543">
        <ele>176</ele>
        <time>2021-08-04T19:28:11Z</time>
      </trkpt>
      <trkpt lat="43.87212" lon="7.19613">
        <ele>175</ele>
        <time>2021-08-04T19:28:26Z</time>
      </trkpt>
      <trkpt lat="43.87174" lon="7.19649">
        <ele>170</ele>
        <time>2021-08-04T19:28:34Z</time>
      </trkpt>
      <trkpt lat="43.87163" lon="7.19664">
        <ele>170</ele>
        <time>2021-08-04T19:28:37Z</time>
      </trkpt>
      <trkpt lat="43.87108" lon="7.19772">
        <ele>171</ele>
        <time>2021-08-04T19:28:54Z</time>
      </trkpt>
      <trkpt lat="43.87097" lon="7.19787">
        <ele>170</ele>
        <time>2021-08-04T19:28:57Z</time>
      </trkpt>
      <trkpt lat="43.87084" lon="7.19801">
        <ele>169</ele>
        <time>2021-08-04T19:29:00Z</time>
      </trkpt>
      <trkpt lat="43.87071" lon="7.19807">
        <ele>168</ele>
        <time>2021-08-04T19:29:02Z</time>
      </trkpt>
      <trkpt lat="43.87045" lon="7.19813">
        <ele>166</ele>
        <time>2021-08-04T19:29:07Z</time>
      </trkpt>
      <trkpt lat="43.87027" lon="7.19821">
        <ele>165</ele>
        <time>2021-08-04T19:29:10Z</time>
      </trkpt>
      <trkpt lat="43.86959" lon="7.19859">
        <ele>171</ele>
        <time>2021-08-04T19:29:23Z</time>
      </trkpt>
      <trkpt lat="43.8676" lon="7.199">
        <ele>166</ele>
        <time>2021-08-04T19:29:59Z</time>
      </trkpt>
      <trkpt lat="43.86699" lon="7.19912">
        <ele>167</ele>
        <time>2021-08-04T19:30:10Z</time>
      </trkpt>
      <trkpt lat="43.86679" lon="7.19913">
        <ele>167</ele>
        <time>2021-08-04T19:30:13Z</time>
      </trkpt>
      <trkpt lat="43.86607" lon="7.19909">
        <ele>166</ele>
        <time>2021-08-04T19:30:26Z</time>
      </trkpt>
      <trkpt lat="43.86586" lon="7.19906">
        <ele>165</ele>
        <time>2021-08-04T19:30:30Z</time>
      </trkpt>
      <trkpt lat="43.86547" lon="7.19896">
        <ele>162</ele>
        <time>2021-08-04T19:30:37Z</time>
      </trkpt>
      <trkpt lat="43.86527" lon="7.19893">
        <ele>161</ele>
        <time>2021-08-04T19:30:41Z</time>
      </trkpt>
      <trkpt lat="43.86394" lon="7.199">
        <ele>161</ele>
        <time>2021-08-04T19:31:04Z</time>
      </trkpt>
      <trkpt lat="43.86325" lon="7.19895">
        <ele>156</ele>
        <time>2021-08-04T19:31:17Z</time>
      </trkpt>
      <trkpt lat="43.86262" lon="7.19888">
        <ele>157</ele>
        <time>2021-08-04T19:31:28Z</time>
      </trkpt>
      <trkpt lat="43.86187" lon="7.19873">
        <ele>152</ele>
        <time>2021-08-04T19:31:41Z</time>
      </trkpt>
      <trkpt lat="43.8613" lon="7.19876">
        <ele>148</ele>
        <time>2021-08-04T19:31:52Z</time>
      </trkpt>
      <trkpt lat="43.86083" lon="7.19882">
        <ele>144</ele>
        <time>2021-08-04T19:32:00Z</time>
      </trkpt>
      <trkpt lat="43.86076" lon="7.1988">
        <ele>143</ele>
        <time>2021-08-04T19:32:01Z</time>
      </trkpt>
      <trkpt lat="43.86074" lon="7.19877">
        <ele>143</ele>
        <time>2021-08-04T19:32:02Z</time>
      </trkpt>
      <trkpt lat="43.86068" lon="7.19874">
        <ele>143</ele>
        <time>2021-08-04T19:32:03Z</time>
      </trkpt>
      <trkpt lat="43.86061" lon="7.19877">
        <ele>143</ele>
        <time>2021-08-04T19:32:04Z</time>
      </trkpt>
      <trkpt lat="43.86059" lon="7.1988">
        <ele>143</ele>
        <time>2021-08-04T19:32:05Z</time>
      </trkpt>
      <trkpt lat="43.86051" lon="7.1988">
        <ele>143</ele>
        <time>2021-08-04T19:32:06Z</time>
      </trkpt>
      <trkpt lat="43.86042" lon="7.19876">
        <ele>143</ele>
        <time>2021-08-04T19:32:08Z</time>
      </trkpt>
      <trkpt lat="43.85954" lon="7.19841">
        <ele>151</ele>
        <time>2021-08-04T19:32:24Z</time>
      </trkpt>
      <trkpt lat="43.85948" lon="7.19838">
        <ele>152</ele>
        <time>2021-08-04T19:32:25Z</time>
      </trkpt>
      <trkpt lat="43.85946" lon="7.19837">
        <ele>152</ele>
        <time>2021-08-04T19:32:26Z</time>
      </trkpt>
      <trkpt lat="43.85932" lon="7.19824">
        <ele>153</ele>
        <time>2021-08-04T19:32:29Z</time>
      </trkpt>
      <trkpt lat="43.85921" lon="7.1981">
        <ele>153</ele>
        <time>2021-08-04T19:32:31Z</time>
      </trkpt>
      <trkpt lat="43.85915" lon="7.19802">
        <ele>152</ele>
        <time>2021-08-04T19:32:33Z</time>
      </trkpt>
      <trkpt lat="43.85901" lon="7.19782">
        <ele>152</ele>
        <time>2021-08-04T19:32:36Z</time>
      </trkpt>
      <trkpt lat="43.85881" lon="7.19752">
        <ele>147</ele>
        <time>2021-08-04T19:32:42Z</time>
      </trkpt>
      <trkpt lat="43.85864" lon="7.19734">
        <ele>147</ele>
        <time>2021-08-04T19:32:45Z</time>
      </trkpt>
      <trkpt lat="43.85816" lon="7.19698">
        <ele>145</ele>
        <time>2021-08-04T19:32:55Z</time>
      </trkpt>
      <trkpt lat="43.85799" lon="7.19688">
        <ele>143</ele>
        <time>2021-08-04T19:32:58Z</time>
      </trkpt>
      <trkpt lat="43.85795" lon="7.19686">
        <ele>143</ele>
        <time>2021-08-04T19:32:59Z</time>
      </trkpt>
      <trkpt lat="43.85791" lon="7.19684">
        <ele>143</ele>
        <time>2021-08-04T19:33:00Z</time>
      </trkpt>
      <trkpt lat="43.85777" lon="7.19683">
        <ele>143</ele>
        <time>2021-08-04T19:33:02Z</time>
      </trkpt>
      <trkpt lat="43.85732" lon="7.1969">
        <ele>145</ele>
        <time>2021-08-04T19:33:10Z</time>
      </trkpt>
      <trkpt lat="43.85727" lon="7.19691">
        <ele>145</ele>
        <time>2021-08-04T19:33:11Z</time>
      </trkpt>
      <trkpt lat="43.85723" lon="7.19691">
        <ele>145</ele>
        <time>2021-08-04T19:33:12Z</time>
      </trkpt>
      <trkpt lat="43.85706" lon="7.19693">
        <ele>146</ele>
        <time>2021-08-04T19:33:15Z</time>
      </trkpt>
      <trkpt lat="43.85685" lon="7.19691">
        <ele>146</ele>
        <time>2021-08-04T19:33:19Z</time>
      </trkpt>
      <trkpt lat="43.85663" lon="7.19686">
        <ele>145</ele>
        <time>2021-08-04T19:33:23Z</time>
      </trkpt>
      <trkpt lat="43.85652" lon="7.19684">
        <ele>144</ele>
        <time>2021-08-04T19:33:25Z</time>
      </trkpt>
      <trkpt lat="43.85633" lon="7.1968">
        <ele>142</ele>
        <time>2021-08-04T19:33:28Z</time>
      </trkpt>
      <trkpt lat="43.85622" lon="7.1968">
        <ele>142</ele>
        <time>2021-08-04T19:33:30Z</time>
      </trkpt>
      <trkpt lat="43.85602" lon="7.19687">
        <ele>142</ele>
        <time>2021-08-04T19:33:34Z</time>
      </trkpt>
      <trkpt lat="43.85598" lon="7.19689">
        <ele>143</ele>
        <time>2021-08-04T19:33:35Z</time>
      </trkpt>
      <trkpt lat="43.85594" lon="7.1969">
        <ele>143</ele>
        <time>2021-08-04T19:33:35Z</time>
      </trkpt>
      <trkpt lat="43.85563" lon="7.19707">
        <ele>144</ele>
        <time>2021-08-04T19:33:41Z</time>
      </trkpt>
      <trkpt lat="43.85547" lon="7.19721">
        <ele>144</ele>
        <time>2021-08-04T19:33:45Z</time>
      </trkpt>
      <trkpt lat="43.85536" lon="7.19732">
        <ele>145</ele>
        <time>2021-08-04T19:33:47Z</time>
      </trkpt>
      <trkpt lat="43.85534" lon="7.19734">
        <ele>145</ele>
        <time>2021-08-04T19:33:47Z</time>
      </trkpt>
      <trkpt lat="43.85504" lon="7.19766">
        <ele>152</ele>
        <time>2021-08-04T19:33:54Z</time>
      </trkpt>
      <trkpt lat="43.85489" lon="7.19779">
        <ele>156</ele>
        <time>2021-08-04T19:33:57Z</time>
      </trkpt>
      <trkpt lat="43.85485" lon="7.19781">
        <ele>156</ele>
        <time>2021-08-04T19:33:58Z</time>
      </trkpt>
      <trkpt lat="43.85477" lon="7.19785">
        <ele>156</ele>
        <time>2021-08-04T19:34:00Z</time>
      </trkpt>
      <trkpt lat="43.85366" lon="7.19832">
        <ele>152</ele>
        <time>2021-08-04T19:34:20Z</time>
      </trkpt>
      <trkpt lat="43.8535" lon="7.19835">
        <ele>152</ele>
        <time>2021-08-04T19:34:23Z</time>
      </trkpt>
      <trkpt lat="43.85335" lon="7.19836">
        <ele>151</ele>
        <time>2021-08-04T19:34:26Z</time>
      </trkpt>
      <trkpt lat="43.85294" lon="7.19827">
        <ele>148</ele>
        <time>2021-08-04T19:34:33Z</time>
      </trkpt>
      <trkpt lat="43.85238" lon="7.19826">
        <ele>147</ele>
        <time>2021-08-04T19:34:43Z</time>
      </trkpt>
      <trkpt lat="43.85226" lon="7.19827">
        <ele>148</ele>
        <time>2021-08-04T19:34:45Z</time>
      </trkpt>
      <trkpt lat="43.85188" lon="7.19836">
        <ele>150</ele>
        <time>2021-08-04T19:34:52Z</time>
      </trkpt>
      <trkpt lat="43.85135" lon="7.19832">
        <ele>149</ele>
        <time>2021-08-04T19:35:02Z</time>
      </trkpt>
      <trkpt lat="43.85099" lon="7.19839">
        <ele>153</ele>
        <time>2021-08-04T19:35:08Z</time>
      </trkpt>
      <trkpt lat="43.85089" lon="7.19839">
        <ele>153</ele>
        <time>2021-08-04T19:35:10Z</time>
      </trkpt>
      <trkpt lat="43.85067" lon="7.19835">
        <ele>152</ele>
        <time>2021-08-04T19:35:14Z</time>
      </trkpt>
      <trkpt lat="43.85025" lon="7.19822">
        <ele>150</ele>
        <time>2021-08-04T19:35:21Z</time>
      </trkpt>
      <trkpt lat="43.84998" lon="7.19816">
        <ele>150</ele>
        <time>2021-08-04T19:35:26Z</time>
      </trkpt>
      <trkpt lat="43.84971" lon="7.19815">
        <ele>154</ele>
        <time>2021-08-04T19:35:31Z</time>
      </trkpt>
      <trkpt lat="43.84937" lon="7.19818">
        <ele>160</ele>
        <time>2021-08-04T19:35:37Z</time>
      </trkpt>
      <trkpt lat="43.84926" lon="7.19816">
        <ele>161</ele>
        <time>2021-08-04T19:35:39Z</time>
      </trkpt>
      <trkpt lat="43.84909" lon="7.19809">
        <ele>160</ele>
        <time>2021-08-04T19:35:42Z</time>
      </trkpt>
      <trkpt lat="43.84857" lon="7.1978">
        <ele>152</ele>
        <time>2021-08-04T19:35:52Z</time>
      </trkpt>
      <trkpt lat="43.84841" lon="7.19777">
        <ele>152</ele>
        <time>2021-08-04T19:35:55Z</time>
      </trkpt>
      <trkpt lat="43.84808" lon="7.19779">
        <ele>151</ele>
        <time>2021-08-04T19:36:01Z</time>
      </trkpt>
      <trkpt lat="43.84795" lon="7.19777">
        <ele>148</ele>
        <time>2021-08-04T19:36:03Z</time>
      </trkpt>
      <trkpt lat="43.84681" lon="7.19749">
        <ele>130</ele>
        <time>2021-08-04T19:36:24Z</time>
      </trkpt>
      <trkpt lat="43.84662" lon="7.19743">
        <ele>129</ele>
        <time>2021-08-04T19:36:27Z</time>
      </trkpt>
      <trkpt lat="43.84652" lon="7.19739">
        <ele>129</ele>
        <time>2021-08-04T19:36:29Z</time>
      </trkpt>
      <trkpt lat="43.84618" lon="7.19726">
        <ele>127</ele>
        <time>2021-08-04T19:36:36Z</time>
      </trkpt>
      <trkpt lat="43.84555" lon="7.19703">
        <ele>125</ele>
        <time>2021-08-04T19:36:47Z</time>
      </trkpt>
      <trkpt lat="43.84503" lon="7.19684">
        <ele>125</ele>
        <time>2021-08-04T19:36:57Z</time>
      </trkpt>
      <trkpt lat="43.84334" lon="7.1962">
        <ele>122</ele>
        <time>2021-08-04T19:37:28Z</time>
      </trkpt>
      <trkpt lat="43.84306" lon="7.19611">
        <ele>122</ele>
        <time>2021-08-04T19:37:33Z</time>
      </trkpt>
      <trkpt lat="43.84206" lon="7.19574">
        <ele>123</ele>
        <time>2021-08-04T19:37:51Z</time>
      </trkpt>
      <trkpt lat="43.84189" lon="7.19568">
        <ele>123</ele>
        <time>2021-08-04T19:37:55Z</time>
      </trkpt>
      <trkpt lat="43.84142" lon="7.19551">
        <ele>122</ele>
        <time>2021-08-04T19:38:03Z</time>
      </trkpt>
      <trkpt lat="43.84079" lon="7.19528">
        <ele>121</ele>
        <time>2021-08-04T19:38:15Z</time>
      </trkpt>
      <trkpt lat="43.84072" lon="7.19562">
        <ele>122</ele>
        <time>2021-08-04T19:38:19Z</time>
      </trkpt>
      <trkpt lat="43.84079" lon="7.19528">
        <ele>121</ele>
        <time>2021-08-04T19:38:24Z</time>
      </trkpt>
      <trkpt lat="43.84031" lon="7.19511">
        <ele>121</ele>
        <time>2021-08-04T19:38:33Z</time>
      </trkpt>
      <trkpt lat="43.83986" lon="7.19495">
        <ele>121</ele>
        <time>2021-08-04T19:38:41Z</time>
      </trkpt>
      <trkpt lat="43.83972" lon="7.1949">
        <ele>120</ele>
        <time>2021-08-04T19:38:43Z</time>
      </trkpt>
      <trkpt lat="43.83923" lon="7.19475">
        <ele>120</ele>
        <time>2021-08-04T19:38:52Z</time>
      </trkpt>
      <trkpt lat="43.83921" lon="7.19471">
        <ele>120</ele>
        <time>2021-08-04T19:38:53Z</time>
      </trkpt>
      <trkpt lat="43.83914" lon="7.19466">
        <ele>120</ele>
        <time>2021-08-04T19:38:54Z</time>
      </trkpt>
      <trkpt lat="43.83907" lon="7.19467">
        <ele>120</ele>
        <time>2021-08-04T19:38:56Z</time>
      </trkpt>
      <trkpt lat="43.83903" lon="7.19469">
        <ele>120</ele>
        <time>2021-08-04T19:38:56Z</time>
      </trkpt>
      <trkpt lat="43.83895" lon="7.19465">
        <ele>120</ele>
        <time>2021-08-04T19:38:58Z</time>
      </trkpt>
      <trkpt lat="43.83883" lon="7.19458">
        <ele>119</ele>
        <time>2021-08-04T19:39:00Z</time>
      </trkpt>
      <trkpt lat="43.83866" lon="7.1945">
        <ele>119</ele>
        <time>2021-08-04T19:39:03Z</time>
      </trkpt>
      <trkpt lat="43.83848" lon="7.19444">
        <ele>119</ele>
        <time>2021-08-04T19:39:07Z</time>
      </trkpt>
      <trkpt lat="43.8379" lon="7.19425">
        <ele>118</ele>
        <time>2021-08-04T19:39:17Z</time>
      </trkpt>
      <trkpt lat="43.83784" lon="7.19409">
        <ele>118</ele>
        <time>2021-08-04T19:39:20Z</time>
      </trkpt>
      <trkpt lat="43.83783" lon="7.194">
        <ele>118</ele>
        <time>2021-08-04T19:39:21Z</time>
      </trkpt>
      <trkpt lat="43.83829" lon="7.19153">
        <ele>123</ele>
        <time>2021-08-04T19:39:54Z</time>
      </trkpt>
      <trkpt lat="43.83831" lon="7.19147">
        <ele>123</ele>
        <time>2021-08-04T19:39:54Z</time>
      </trkpt>
      <trkpt lat="43.83832" lon="7.19139">
        <ele>125</ele>
        <time>2021-08-04T19:39:55Z</time>
      </trkpt>
      <trkpt lat="43.83832" lon="7.19131">
        <ele>126</ele>
        <time>2021-08-04T19:39:57Z</time>
      </trkpt>
      <trkpt lat="43.83834" lon="7.19127">
        <ele>126</ele>
        <time>2021-08-04T19:39:57Z</time>
      </trkpt>
      <trkpt lat="43.83836" lon="7.19123">
        <ele>127</ele>
        <time>2021-08-04T19:39:58Z</time>
      </trkpt>
      <trkpt lat="43.83836" lon="7.19119">
        <ele>127</ele>
        <time>2021-08-04T19:39:58Z</time>
      </trkpt>
      <trkpt lat="43.83836" lon="7.19114">
        <ele>128</ele>
        <time>2021-08-04T19:39:59Z</time>
      </trkpt>
      <trkpt lat="43.83832" lon="7.19106">
        <ele>129</ele>
        <time>2021-08-04T19:40:00Z</time>
      </trkpt>
      <trkpt lat="43.8383" lon="7.19103">
        <ele>129</ele>
        <time>2021-08-04T19:40:01Z</time>
      </trkpt>
      <trkpt lat="43.83827" lon="7.19102">
        <ele>129</ele>
        <time>2021-08-04T19:40:01Z</time>
      </trkpt>
      <trkpt lat="43.83821" lon="7.19102">
        <ele>128</ele>
        <time>2021-08-04T19:40:02Z</time>
      </trkpt>
      <trkpt lat="43.83819" lon="7.19104">
        <ele>128</ele>
        <time>2021-08-04T19:40:03Z</time>
      </trkpt>
      <trkpt lat="43.83816" lon="7.19106">
        <ele>127</ele>
        <time>2021-08-04T19:40:03Z</time>
      </trkpt>
      <trkpt lat="43.83804" lon="7.19108">
        <ele>126</ele>
        <time>2021-08-04T19:40:05Z</time>
      </trkpt>
      <trkpt lat="43.83796" lon="7.19109">
        <ele>125</ele>
        <time>2021-08-04T19:40:07Z</time>
      </trkpt>
      <trkpt lat="43.83767" lon="7.19101">
        <ele>123</ele>
        <time>2021-08-04T19:40:12Z</time>
      </trkpt>
      <trkpt lat="43.83737" lon="7.1909">
        <ele>121</ele>
        <time>2021-08-04T19:40:18Z</time>
      </trkpt>
      <trkpt lat="43.83717" lon="7.1908">
        <ele>121</ele>
        <time>2021-08-04T19:40:21Z</time>
      </trkpt>
      <trkpt lat="43.83679" lon="7.19053">
        <ele>122</ele>
        <time>2021-08-04T19:40:29Z</time>
      </trkpt>
      <trkpt lat="43.83542" lon="7.18927">
        <ele>120</ele>
        <time>2021-08-04T19:40:58Z</time>
      </trkpt>
      <trkpt lat="43.83477" lon="7.18867">
        <ele>120</ele>
        <time>2021-08-04T19:41:12Z</time>
      </trkpt>
      <trkpt lat="43.83461" lon="7.1884">
        <ele>121</ele>
        <time>2021-08-04T19:41:17Z</time>
      </trkpt>
      <trkpt lat="43.8346" lon="7.18836">
        <ele>121</ele>
        <time>2021-08-04T19:41:17Z</time>
      </trkpt>
      <trkpt lat="43.83459" lon="7.18831">
        <ele>122</ele>
        <time>2021-08-04T19:41:18Z</time>
      </trkpt>
      <trkpt lat="43.83454" lon="7.18824">
        <ele>123</ele>
        <time>2021-08-04T19:41:19Z</time>
      </trkpt>
      <trkpt lat="43.8345" lon="7.18822">
        <ele>123</ele>
        <time>2021-08-04T19:41:20Z</time>
      </trkpt>
      <trkpt lat="43.83447" lon="7.18821">
        <ele>122</ele>
        <time>2021-08-04T19:41:20Z</time>
      </trkpt>
      <trkpt lat="43.83443" lon="7.18822">
        <ele>122</ele>
        <time>2021-08-04T19:41:21Z</time>
      </trkpt>
      <trkpt lat="43.8344" lon="7.18823">
        <ele>121</ele>
        <time>2021-08-04T19:41:22Z</time>
      </trkpt>
      <trkpt lat="43.83422" lon="7.18814">
        <ele>121</ele>
        <time>2021-08-04T19:41:25Z</time>
      </trkpt>
      <trkpt lat="43.83374" lon="7.18764">
        <ele>120</ele>
        <time>2021-08-04T19:41:36Z</time>
      </trkpt>
      <trkpt lat="43.83305" lon="7.18697">
        <ele>124</ele>
        <time>2021-08-04T19:41:51Z</time>
      </trkpt>
      <trkpt lat="43.83252" lon="7.18651">
        <ele>127</ele>
        <time>2021-08-04T19:42:02Z</time>
      </trkpt>
      <trkpt lat="43.83191" lon="7.18605">
        <ele>126</ele>
        <time>2021-08-04T19:42:14Z</time>
      </trkpt>
      <trkpt lat="43.83083" lon="7.18545">
        <ele>121</ele>
        <time>2021-08-04T19:42:35Z</time>
      </trkpt>
      <trkpt lat="43.82962" lon="7.18497">
        <ele>114</ele>
        <time>2021-08-04T19:42:57Z</time>
      </trkpt>
      <trkpt lat="43.82947" lon="7.18483">
        <ele>115</ele>
        <time>2021-08-04T19:43:01Z</time>
      </trkpt>
      <trkpt lat="43.82941" lon="7.18475">
        <ele>115</ele>
        <time>2021-08-04T19:43:02Z</time>
      </trkpt>
      <trkpt lat="43.82939" lon="7.18471">
        <ele>115</ele>
        <time>2021-08-04T19:43:03Z</time>
      </trkpt>
      <trkpt lat="43.82936" lon="7.18468">
        <ele>115</ele>
        <time>2021-08-04T19:43:03Z</time>
      </trkpt>
      <trkpt lat="43.82929" lon="7.18465">
        <ele>114</ele>
        <time>2021-08-04T19:43:05Z</time>
      </trkpt>
      <trkpt lat="43.82925" lon="7.18466">
        <ele>114</ele>
        <time>2021-08-04T19:43:05Z</time>
      </trkpt>
      <trkpt lat="43.82922" lon="7.18467">
        <ele>113</ele>
        <time>2021-08-04T19:43:06Z</time>
      </trkpt>
      <trkpt lat="43.82913" lon="7.18468">
        <ele>113</ele>
        <time>2021-08-04T19:43:08Z</time>
      </trkpt>
      <trkpt lat="43.82896" lon="7.18466">
        <ele>113</ele>
        <time>2021-08-04T19:43:11Z</time>
      </trkpt>
      <trkpt lat="43.82788" lon="7.18406">
        <ele>111</ele>
        <time>2021-08-04T19:43:31Z</time>
      </trkpt>
      <trkpt lat="43.82729" lon="7.18366">
        <ele>110</ele>
        <time>2021-08-04T19:43:43Z</time>
      </trkpt>
      <trkpt lat="43.82691" lon="7.18327">
        <ele>109</ele>
        <time>2021-08-04T19:43:51Z</time>
      </trkpt>
      <trkpt lat="43.82671" lon="7.18298">
        <ele>108</ele>
        <time>2021-08-04T19:43:57Z</time>
      </trkpt>
      <trkpt lat="43.82668" lon="7.18295">
        <ele>108</ele>
        <time>2021-08-04T19:43:57Z</time>
      </trkpt>
      <trkpt lat="43.82653" lon="7.18297">
        <ele>107</ele>
        <time>2021-08-04T19:44:00Z</time>
      </trkpt>
      <trkpt lat="43.82652" lon="7.18291">
        <ele>107</ele>
        <time>2021-08-04T19:44:01Z</time>
      </trkpt>
      <trkpt lat="43.82647" lon="7.1828">
        <ele>107</ele>
        <time>2021-08-04T19:44:02Z</time>
      </trkpt>
      <trkpt lat="43.82582" lon="7.18166">
        <ele>109</ele>
        <time>2021-08-04T19:44:21Z</time>
      </trkpt>
      <trkpt lat="43.82575" lon="7.18154">
        <ele>109</ele>
        <time>2021-08-04T19:44:23Z</time>
      </trkpt>
      <trkpt lat="43.8257" lon="7.18151">
        <ele>109</ele>
        <time>2021-08-04T19:44:24Z</time>
      </trkpt>
      <trkpt lat="43.82564" lon="7.1815">
        <ele>108</ele>
        <time>2021-08-04T19:44:25Z</time>
      </trkpt>
      <trkpt lat="43.82553" lon="7.18155">
        <ele>108</ele>
        <time>2021-08-04T19:44:27Z</time>
      </trkpt>
      <trkpt lat="43.82545" lon="7.18164">
        <ele>109</ele>
        <time>2021-08-04T19:44:29Z</time>
      </trkpt>
      <trkpt lat="43.82513" lon="7.18218">
        <ele>107</ele>
        <time>2021-08-04T19:44:38Z</time>
      </trkpt>
      <trkpt lat="43.82341" lon="7.18316">
        <ele>104</ele>
        <time>2021-08-04T19:45:11Z</time>
      </trkpt>
      <trkpt lat="43.82232" lon="7.1836">
        <ele>105</ele>
        <time>2021-08-04T19:45:31Z</time>
      </trkpt>
      <trkpt lat="43.82088" lon="7.184">
        <ele>103</ele>
        <time>2021-08-04T19:45:57Z</time>
      </trkpt>
      <trkpt lat="43.81992" lon="7.18416">
        <ele>101</ele>
        <time>2021-08-04T19:46:15Z</time>
      </trkpt>
      <trkpt lat="43.81608" lon="7.18456">
        <ele>99</ele>
        <time>2021-08-04T19:47:23Z</time>
      </trkpt>
      <trkpt lat="43.81506" lon="7.18472">
        <ele>98</ele>
        <time>2021-08-04T19:47:41Z</time>
      </trkpt>
      <trkpt lat="43.81473" lon="7.1848">
        <ele>99</ele>
        <time>2021-08-04T19:47:47Z</time>
      </trkpt>
      <trkpt lat="43.81386" lon="7.18511">
        <ele>100</ele>
        <time>2021-08-04T19:48:03Z</time>
      </trkpt>
      <trkpt lat="43.81249" lon="7.18569">
        <ele>98</ele>
        <time>2021-08-04T19:48:29Z</time>
      </trkpt>
      <trkpt lat="43.81151" lon="7.18626">
        <ele>99</ele>
        <time>2021-08-04T19:48:48Z</time>
      </trkpt>
      <trkpt lat="43.81075" lon="7.18683">
        <ele>98</ele>
        <time>2021-08-04T19:49:03Z</time>
      </trkpt>
      <trkpt lat="43.8098" lon="7.18772">
        <ele>98</ele>
        <time>2021-08-04T19:49:23Z</time>
      </trkpt>
      <trkpt lat="43.80792" lon="7.18984">
        <ele>96</ele>
        <time>2021-08-04T19:50:07Z</time>
      </trkpt>
      <trkpt lat="43.80288" lon="7.19566">
        <ele>90</ele>
        <time>2021-08-04T19:52:03Z</time>
      </trkpt>
      <trkpt lat="43.80268" lon="7.19594">
        <ele>89</ele>
        <time>2021-08-04T19:52:08Z</time>
      </trkpt>
      <trkpt lat="43.8025" lon="7.19613">
        <ele>89</ele>
        <time>2021-08-04T19:52:12Z</time>
      </trkpt>
      <trkpt lat="43.80233" lon="7.19628">
        <ele>89</ele>
        <time>2021-08-04T19:52:16Z</time>
      </trkpt>
      <trkpt lat="43.79999" lon="7.19893">
        <ele>90</ele>
        <time>2021-08-04T19:53:10Z</time>
      </trkpt>
      <trkpt lat="43.79779" lon="7.20136">
        <ele>87</ele>
        <time>2021-08-04T19:54:00Z</time>
      </trkpt>
      <trkpt lat="43.79595" lon="7.20343">
        <ele>86</ele>
        <time>2021-08-04T19:54:42Z</time>
      </trkpt>
      <trkpt lat="43.78978" lon="7.21052">
        <ele>79</ele>
        <time>2021-08-04T19:57:05Z</time>
      </trkpt>
      <trkpt lat="43.78894" lon="7.21132">
        <ele>77</ele>
        <time>2021-08-04T19:57:23Z</time>
      </trkpt>
      <trkpt lat="43.788" lon="7.21207">
        <ele>77</ele>
        <time>2021-08-04T19:57:42Z</time>
      </trkpt>
      <trkpt lat="43.78722" lon="7.2126">
        <ele>77</ele>
        <time>2021-08-04T19:57:58Z</time>
      </trkpt>
      <trkpt lat="43.78631" lon="7.2131">
        <ele>77</ele>
        <time>2021-08-04T19:58:15Z</time>
      </trkpt>
      <trkpt lat="43.7856" lon="7.21345">
        <ele>77</ele>
        <time>2021-08-04T19:58:28Z</time>
      </trkpt>
      <trkpt lat="43.78535" lon="7.21356">
        <ele>77</ele>
        <time>2021-08-04T19:58:33Z</time>
      </trkpt>
      <trkpt lat="43.78447" lon="7.21385">
        <ele>77</ele>
        <time>2021-08-04T19:58:49Z</time>
      </trkpt>
      <trkpt lat="43.78341" lon="7.21411">
        <ele>78</ele>
        <time>2021-08-04T19:59:08Z</time>
      </trkpt>
      <trkpt lat="43.78251" lon="7.21427">
        <ele>76</ele>
        <time>2021-08-04T19:59:24Z</time>
      </trkpt>
      <trkpt lat="43.7819" lon="7.21428">
        <ele>74</ele>
        <time>2021-08-04T19:59:35Z</time>
      </trkpt>
      <trkpt lat="43.78153" lon="7.21431">
        <ele>73</ele>
        <time>2021-08-04T19:59:42Z</time>
      </trkpt>
      <trkpt lat="43.78077" lon="7.21428">
        <ele>74</ele>
        <time>2021-08-04T19:59:55Z</time>
      </trkpt>
      <trkpt lat="43.77958" lon="7.21411">
        <ele>75</ele>
        <time>2021-08-04T20:00:17Z</time>
      </trkpt>
      <trkpt lat="43.77892" lon="7.21396">
        <ele>73</ele>
        <time>2021-08-04T20:00:29Z</time>
      </trkpt>
      <trkpt lat="43.77771" lon="7.21357">
        <ele>73</ele>
        <time>2021-08-04T20:00:51Z</time>
      </trkpt>
      <trkpt lat="43.77693" lon="7.21323">
        <ele>72</ele>
        <time>2021-08-04T20:01:05Z</time>
      </trkpt>
      <trkpt lat="43.7765" lon="7.21299">
        <ele>72</ele>
        <time>2021-08-04T20:01:13Z</time>
      </trkpt>
      <trkpt lat="43.77529" lon="7.21221">
        <ele>71</ele>
        <time>2021-08-04T20:01:37Z</time>
      </trkpt>
      <trkpt lat="43.77436" lon="7.21152">
        <ele>69</ele>
        <time>2021-08-04T20:01:56Z</time>
      </trkpt>
      <trkpt lat="43.77348" lon="7.21072">
        <ele>69</ele>
        <time>2021-08-04T20:02:15Z</time>
      </trkpt>
      <trkpt lat="43.77238" lon="7.20955">
        <ele>69</ele>
        <time>2021-08-04T20:02:39Z</time>
      </trkpt>
      <trkpt lat="43.77147" lon="7.20861">
        <ele>69</ele>
        <time>2021-08-04T20:03:00Z</time>
      </trkpt>
      <trkpt lat="43.77114" lon="7.20831">
        <ele>68</ele>
        <time>2021-08-04T20:03:07Z</time>
      </trkpt>
      <trkpt lat="43.77104" lon="7.20825">
        <ele>68</ele>
        <time>2021-08-04T20:03:09Z</time>
      </trkpt>
      <trkpt lat="43.7709" lon="7.20825">
        <ele>68</ele>
        <time>2021-08-04T20:03:11Z</time>
      </trkpt>
      <trkpt lat="43.77081" lon="7.20821">
        <ele>68</ele>
        <time>2021-08-04T20:03:13Z</time>
      </trkpt>
      <trkpt lat="43.7705" lon="7.20787">
        <ele>68</ele>
        <time>2021-08-04T20:03:20Z</time>
      </trkpt>
      <trkpt lat="43.76986" lon="7.20731">
        <ele>67</ele>
        <time>2021-08-04T20:03:33Z</time>
      </trkpt>
      <trkpt lat="43.76924" lon="7.20666">
        <ele>64</ele>
        <time>2021-08-04T20:03:47Z</time>
      </trkpt>
      <trkpt lat="43.76944" lon="7.2063">
        <ele>66</ele>
        <time>2021-08-04T20:03:53Z</time>
      </trkpt>
      <trkpt lat="43.76896" lon="7.20578">
        <ele>65</ele>
        <time>2021-08-04T20:04:04Z</time>
      </trkpt>
      <trkpt lat="43.76876" lon="7.20557">
        <ele>65</ele>
        <time>2021-08-04T20:04:08Z</time>
      </trkpt>
      <trkpt lat="43.76859" lon="7.20542">
        <ele>65</ele>
        <time>2021-08-04T20:04:12Z</time>
      </trkpt>
      <trkpt lat="43.76709" lon="7.20377">
        <ele>65</ele>
        <time>2021-08-04T20:04:46Z</time>
      </trkpt>
      <trkpt lat="43.76699" lon="7.20361">
        <ele>65</ele>
        <time>2021-08-04T20:04:49Z</time>
      </trkpt>
      <trkpt lat="43.76666" lon="7.2031">
        <ele>64</ele>
        <time>2021-08-04T20:04:57Z</time>
      </trkpt>
      <trkpt lat="43.76643" lon="7.20269">
        <ele>64</ele>
        <time>2021-08-04T20:05:04Z</time>
      </trkpt>
      <trkpt lat="43.76638" lon="7.20263">
        <ele>64</ele>
        <time>2021-08-04T20:05:05Z</time>
      </trkpt>
      <trkpt lat="43.76636" lon="7.20258">
        <ele>64</ele>
        <time>2021-08-04T20:05:06Z</time>
      </trkpt>
      <trkpt lat="43.76629" lon="7.20228">
        <ele>64</ele>
        <time>2021-08-04T20:05:10Z</time>
      </trkpt>
      <trkpt lat="43.76621" lon="7.20211">
        <ele>64</ele>
        <time>2021-08-04T20:05:13Z</time>
      </trkpt>
      <trkpt lat="43.76612" lon="7.20199">
        <ele>64</ele>
        <time>2021-08-04T20:05:15Z</time>
      </trkpt>
      <trkpt lat="43.76608" lon="7.20196">
        <ele>64</ele>
        <time>2021-08-04T20:05:16Z</time>
      </trkpt>
      <trkpt lat="43.76597" lon="7.20196">
        <ele>63</ele>
        <time>2021-08-04T20:05:18Z</time>
      </trkpt>
      <trkpt lat="43.76585" lon="7.20205">
        <ele>63</ele>
        <time>2021-08-04T20:05:20Z</time>
      </trkpt>
      <trkpt lat="43.7658" lon="7.20205">
        <ele>63</ele>
        <time>2021-08-04T20:05:21Z</time>
      </trkpt>
      <trkpt lat="43.76575" lon="7.20204">
        <ele>63</ele>
        <time>2021-08-04T20:05:22Z</time>
      </trkpt>
      <trkpt lat="43.76574" lon="7.20207">
        <ele>63</ele>
        <time>2021-08-04T20:05:22Z</time>
      </trkpt>
      <trkpt lat="43.76419" lon="7.20488">
        <ele>62</ele>
        <time>2021-08-04T20:06:08Z</time>
      </trkpt>
      <trkpt lat="43.76415" lon="7.20496">
        <ele>62</ele>
        <time>2021-08-04T20:06:09Z</time>
      </trkpt>
      <trkpt lat="43.76413" lon="7.20499">
        <ele>62</ele>
        <time>2021-08-04T20:06:09Z</time>
      </trkpt>
      <trkpt lat="43.76412" lon="7.20502">
        <ele>62</ele>
        <time>2021-08-04T20:06:10Z</time>
      </trkpt>
      <trkpt lat="43.76406" lon="7.2051">
        <ele>62</ele>
        <time>2021-08-04T20:06:11Z</time>
      </trkpt>
      <trkpt lat="43.76405" lon="7.2051">
        <ele>63</ele>
        <time>2021-08-04T20:06:12Z</time>
      </trkpt>
      <trkpt lat="43.76403" lon="7.20509">
        <ele>63</ele>
        <time>2021-08-04T20:06:12Z</time>
      </trkpt>
      <trkpt lat="43.764" lon="7.20505">
        <ele>63</ele>
        <time>2021-08-04T20:06:13Z</time>
      </trkpt>
      <trkpt lat="43.76397" lon="7.20501">
        <ele>62</ele>
        <time>2021-08-04T20:06:13Z</time>
      </trkpt>
      <trkpt lat="43.76371" lon="7.20477">
        <ele>62</ele>
        <time>2021-08-04T20:06:19Z</time>
      </trkpt>
      <trkpt lat="43.76351" lon="7.20456">
        <ele>62</ele>
        <time>2021-08-04T20:06:23Z</time>
      </trkpt>
      <trkpt lat="43.76342" lon="7.20447">
        <ele>62</ele>
        <time>2021-08-04T20:06:25Z</time>
      </trkpt>
      <trkpt lat="43.76313" lon="7.20417">
        <ele>61</ele>
        <time>2021-08-04T20:06:32Z</time>
      </trkpt>
      <trkpt lat="43.76292" lon="7.20401">
        <ele>61</ele>
        <time>2021-08-04T20:06:36Z</time>
      </trkpt>
      <trkpt lat="43.76248" lon="7.20355">
        <ele>61</ele>
        <time>2021-08-04T20:06:46Z</time>
      </trkpt>
      <trkpt lat="43.76203" lon="7.20307">
        <ele>61</ele>
        <time>2021-08-04T20:06:56Z</time>
      </trkpt>
      <trkpt lat="43.76" lon="7.20098">
        <ele>62</ele>
        <time>2021-08-04T20:07:41Z</time>
      </trkpt>
      <trkpt lat="43.75924" lon="7.20021">
        <ele>62</ele>
        <time>2021-08-04T20:07:58Z</time>
      </trkpt>
      <trkpt lat="43.75741" lon="7.1984">
        <ele>59</ele>
        <time>2021-08-04T20:08:38Z</time>
      </trkpt>
      <trkpt lat="43.7571" lon="7.19814">
        <ele>57</ele>
        <time>2021-08-04T20:08:44Z</time>
      </trkpt>
      <trkpt lat="43.75664" lon="7.19784">
        <ele>56</ele>
        <time>2021-08-04T20:08:53Z</time>
      </trkpt>
      <trkpt lat="43.75651" lon="7.19765">
        <ele>56</ele>
        <time>2021-08-04T20:08:57Z</time>
      </trkpt>
      <trkpt lat="43.75648" lon="7.1976">
        <ele>56</ele>
        <time>2021-08-04T20:08:58Z</time>
      </trkpt>
      <trkpt lat="43.75641" lon="7.19754">
        <ele>56</ele>
        <time>2021-08-04T20:08:59Z</time>
      </trkpt>
      <trkpt lat="43.75637" lon="7.19754">
        <ele>56</ele>
        <time>2021-08-04T20:09:00Z</time>
      </trkpt>
      <trkpt lat="43.75629" lon="7.1975">
        <ele>56</ele>
        <time>2021-08-04T20:09:01Z</time>
      </trkpt>
      <trkpt lat="43.75618" lon="7.19738">
        <ele>56</ele>
        <time>2021-08-04T20:09:04Z</time>
      </trkpt>
      <trkpt lat="43.75585" lon="7.19694">
        <ele>56</ele>
        <time>2021-08-04T20:09:12Z</time>
      </trkpt>
      <trkpt lat="43.75067" lon="7.19157">
        <ele>52</ele>
        <time>2021-08-04T20:11:07Z</time>
      </trkpt>
      <trkpt lat="43.7494" lon="7.19023">
        <ele>52</ele>
        <time>2021-08-04T20:11:35Z</time>
      </trkpt>
      <trkpt lat="43.74887" lon="7.1897">
        <ele>51</ele>
        <time>2021-08-04T20:11:47Z</time>
      </trkpt>
      <trkpt lat="43.74849" lon="7.18931">
        <ele>51</ele>
        <time>2021-08-04T20:11:55Z</time>
      </trkpt>
      <trkpt lat="43.74811" lon="7.189">
        <ele>51</ele>
        <time>2021-08-04T20:12:03Z</time>
      </trkpt>
      <trkpt lat="43.74793" lon="7.18888">
        <ele>51</ele>
        <time>2021-08-04T20:12:07Z</time>
      </trkpt>
      <trkpt lat="43.74782" lon="7.18877">
        <ele>51</ele>
        <time>2021-08-04T20:12:09Z</time>
      </trkpt>
      <trkpt lat="43.74781" lon="7.18871">
        <ele>50</ele>
        <time>2021-08-04T20:12:10Z</time>
      </trkpt>
      <trkpt lat="43.74776" lon="7.18861">
        <ele>50</ele>
        <time>2021-08-04T20:12:12Z</time>
      </trkpt>
      <trkpt lat="43.74768" lon="7.18857">
        <ele>51</ele>
        <time>2021-08-04T20:12:13Z</time>
      </trkpt>
      <trkpt lat="43.74764" lon="7.18856">
        <ele>51</ele>
        <time>2021-08-04T20:12:14Z</time>
      </trkpt>
      <trkpt lat="43.7475" lon="7.18846">
        <ele>51</ele>
        <time>2021-08-04T20:12:17Z</time>
      </trkpt>
      <trkpt lat="43.74712" lon="7.188">
        <ele>51</ele>
        <time>2021-08-04T20:12:26Z</time>
      </trkpt>
      <trkpt lat="43.74683" lon="7.18772">
        <ele>50</ele>
        <time>2021-08-04T20:12:32Z</time>
      </trkpt>
      <trkpt lat="43.74633" lon="7.18731">
        <ele>49</ele>
        <time>2021-08-04T20:12:42Z</time>
      </trkpt>
      <trkpt lat="43.74597" lon="7.18703">
        <ele>49</ele>
        <time>2021-08-04T20:12:50Z</time>
      </trkpt>
      <trkpt lat="43.74533" lon="7.18658">
        <ele>49</ele>
        <time>2021-08-04T20:13:02Z</time>
      </trkpt>
      <trkpt lat="43.74443" lon="7.186">
        <ele>49</ele>
        <time>2021-08-04T20:13:20Z</time>
      </trkpt>
      <trkpt lat="43.74349" lon="7.18551">
        <ele>49</ele>
        <time>2021-08-04T20:13:38Z</time>
      </trkpt>
      <trkpt lat="43.74326" lon="7.18539">
        <ele>49</ele>
        <time>2021-08-04T20:13:42Z</time>
      </trkpt>
      <trkpt lat="43.74291" lon="7.18522">
        <ele>48</ele>
        <time>2021-08-04T20:13:49Z</time>
      </trkpt>
      <trkpt lat="43.74197" lon="7.18484">
        <ele>46</ele>
        <time>2021-08-04T20:14:06Z</time>
      </trkpt>
      <trkpt lat="43.74138" lon="7.18464">
        <ele>45</ele>
        <time>2021-08-04T20:14:17Z</time>
      </trkpt>
      <trkpt lat="43.74013" lon="7.1843">
        <ele>45</ele>
        <time>2021-08-04T20:14:40Z</time>
      </trkpt>
      <trkpt lat="43.73906" lon="7.18411">
        <ele>46</ele>
        <time>2021-08-04T20:14:59Z</time>
      </trkpt>
      <trkpt lat="43.73859" lon="7.18406">
        <ele>46</ele>
        <time>2021-08-04T20:15:07Z</time>
      </trkpt>
      <trkpt lat="43.7377" lon="7.184">
        <ele>44</ele>
        <time>2021-08-04T20:15:23Z</time>
      </trkpt>
      <trkpt lat="43.73672" lon="7.18402">
        <ele>43</ele>
        <time>2021-08-04T20:15:41Z</time>
      </trkpt>
      <trkpt lat="43.7359" lon="7.18407">
        <ele>41</ele>
        <time>2021-08-04T20:15:55Z</time>
      </trkpt>
      <trkpt lat="43.73317" lon="7.18444">
        <ele>39</ele>
        <time>2021-08-04T20:16:44Z</time>
      </trkpt>
      <trkpt lat="43.73029" lon="7.18487">
        <ele>37</ele>
        <time>2021-08-04T20:17:36Z</time>
      </trkpt>
      <trkpt lat="43.72998" lon="7.18493">
        <ele>36</ele>
        <time>2021-08-04T20:17:41Z</time>
      </trkpt>
      <trkpt lat="43.72942" lon="7.18501">
        <ele>37</ele>
        <time>2021-08-04T20:17:51Z</time>
      </trkpt>
      <trkpt lat="43.72879" lon="7.18509">
        <ele>37</ele>
        <time>2021-08-04T20:18:02Z</time>
      </trkpt>
      <trkpt lat="43.72806" lon="7.18519">
        <ele>36</ele>
        <time>2021-08-04T20:18:16Z</time>
      </trkpt>
      <trkpt lat="43.72713" lon="7.18532">
        <ele>35</ele>
        <time>2021-08-04T20:18:32Z</time>
      </trkpt>
      <trkpt lat="43.72558" lon="7.18551">
        <ele>34</ele>
        <time>2021-08-04T20:19:00Z</time>
      </trkpt>
      <trkpt lat="43.72416" lon="7.18571">
        <ele>35</ele>
        <time>2021-08-04T20:19:25Z</time>
      </trkpt>
      <trkpt lat="43.72291" lon="7.18605">
        <ele>35</ele>
        <time>2021-08-04T20:19:48Z</time>
      </trkpt>
      <trkpt lat="43.72263" lon="7.18607">
        <ele>35</ele>
        <time>2021-08-04T20:19:53Z</time>
      </trkpt>
      <trkpt lat="43.72206" lon="7.1861">
        <ele>34</ele>
        <time>2021-08-04T20:20:03Z</time>
      </trkpt>
      <trkpt lat="43.72062" lon="7.18618">
        <ele>30</ele>
        <time>2021-08-04T20:20:29Z</time>
      </trkpt>
      <trkpt lat="43.72001" lon="7.18623">
        <ele>28</ele>
        <time>2021-08-04T20:20:40Z</time>
      </trkpt>
      <trkpt lat="43.71844" lon="7.18645">
        <ele>31</ele>
        <time>2021-08-04T20:21:08Z</time>
      </trkpt>
      <trkpt lat="43.71829" lon="7.18647">
        <ele>31</ele>
        <time>2021-08-04T20:21:10Z</time>
      </trkpt>
      <trkpt lat="43.7142" lon="7.18704">
        <ele>26</ele>
        <time>2021-08-04T20:22:23Z</time>
      </trkpt>
      <trkpt lat="43.71294" lon="7.1872">
        <ele>27</ele>
        <time>2021-08-04T20:22:46Z</time>
      </trkpt>
      <trkpt lat="43.71268" lon="7.18724">
        <ele>27</ele>
        <time>2021-08-04T20:22:51Z</time>
      </trkpt>
      <trkpt lat="43.7125" lon="7.18727">
        <ele>27</ele>
        <time>2021-08-04T20:22:54Z</time>
      </trkpt>
      <trkpt lat="43.7123" lon="7.18732">
        <ele>27</ele>
        <time>2021-08-04T20:22:57Z</time>
      </trkpt>
      <trkpt lat="43.71215" lon="7.18728">
        <ele>27</ele>
        <time>2021-08-04T20:23:00Z</time>
      </trkpt>
      <trkpt lat="43.71176" lon="7.18733">
        <ele>26</ele>
        <time>2021-08-04T20:23:07Z</time>
      </trkpt>
      <trkpt lat="43.7109" lon="7.18748">
        <ele>27</ele>
        <time>2021-08-04T20:23:23Z</time>
      </trkpt>
      <trkpt lat="43.71036" lon="7.1876">
        <ele>28</ele>
        <time>2021-08-04T20:23:32Z</time>
      </trkpt>
      <trkpt lat="43.71025" lon="7.18768">
        <ele>28</ele>
        <time>2021-08-04T20:23:35Z</time>
      </trkpt>
      <trkpt lat="43.71022" lon="7.18777">
        <ele>28</ele>
        <time>2021-08-04T20:23:36Z</time>
      </trkpt>
      <trkpt lat="43.71023" lon="7.18787">
        <ele>28</ele>
        <time>2021-08-04T20:23:37Z</time>
      </trkpt>
      <trkpt lat="43.71027" lon="7.18793">
        <ele>28</ele>
        <time>2021-08-04T20:23:38Z</time>
      </trkpt>
      <trkpt lat="43.71032" lon="7.18795">
        <ele>28</ele>
        <time>2021-08-04T20:23:39Z</time>
      </trkpt>
      <trkpt lat="43.71038" lon="7.18793">
        <ele>28</ele>
        <time>2021-08-04T20:23:40Z</time>
      </trkpt>
      <trkpt lat="43.71041" lon="7.1879">
        <ele>28</ele>
        <time>2021-08-04T20:23:41Z</time>
      </trkpt>
      <trkpt lat="43.71049" lon="7.18788">
        <ele>28</ele>
        <time>2021-08-04T20:23:42Z</time>
      </trkpt>
      <trkpt lat="43.71091" lon="7.18781">
        <ele>27</ele>
        <time>2021-08-04T20:23:50Z</time>
      </trkpt>
      <trkpt lat="43.71099" lon="7.1878">
        <ele>27</ele>
        <time>2021-08-04T20:23:51Z</time>
      </trkpt>
      <trkpt lat="43.71124" lon="7.18776">
        <ele>27</ele>
        <time>2021-08-04T20:23:56Z</time>
      </trkpt>
      <trkpt lat="43.71136" lon="7.18773">
        <ele>27</ele>
        <time>2021-08-04T20:23:58Z</time>
      </trkpt>
      <trkpt lat="43.71193" lon="7.18759">
        <ele>28</ele>
        <time>2021-08-04T20:24:08Z</time>
      </trkpt>
      <trkpt lat="43.71206" lon="7.1875">
        <ele>28</ele>
        <time>2021-08-04T20:24:11Z</time>
      </trkpt>
      <trkpt lat="43.71227" lon="7.18745">
        <ele>28</ele>
        <time>2021-08-04T20:24:15Z</time>
      </trkpt>
      <trkpt lat="43.71231" lon="7.18744">
        <ele>28</ele>
        <time>2021-08-04T20:24:15Z</time>
      </trkpt>
      <trkpt lat="43.7124" lon="7.18742">
        <ele>28</ele>
        <time>2021-08-04T20:24:17Z</time>
      </trkpt>
      <trkpt lat="43.71252" lon="7.18741">
        <ele>28</ele>
        <time>2021-08-04T20:24:19Z</time>
      </trkpt>
      <trkpt lat="43.71341" lon="7.18728">
        <ele>28</ele>
        <time>2021-08-04T20:24:35Z</time>
      </trkpt>
      <trkpt lat="43.71418" lon="7.18718">
        <ele>27</ele>
        <time>2021-08-04T20:24:49Z</time>
      </trkpt>
      <trkpt lat="43.71503" lon="7.18706">
        <ele>28</ele>
        <time>2021-08-04T20:25:04Z</time>
      </trkpt>
      <trkpt lat="43.71574" lon="7.18696">
        <ele>30</ele>
        <time>2021-08-04T20:25:17Z</time>
      </trkpt>
      <trkpt lat="43.71662" lon="7.18683">
        <ele>31</ele>
        <time>2021-08-04T20:25:32Z</time>
      </trkpt>
      <trkpt lat="43.71713" lon="7.18677">
        <ele>32</ele>
        <time>2021-08-04T20:25:41Z</time>
      </trkpt>
      <trkpt lat="43.71748" lon="7.18672">
        <ele>33</ele>
        <time>2021-08-04T20:25:48Z</time>
      </trkpt>
      <trkpt lat="43.71831" lon="7.1866">
        <ele>32</ele>
        <time>2021-08-04T20:26:03Z</time>
      </trkpt>
      <trkpt lat="43.71845" lon="7.18658">
        <ele>32</ele>
        <time>2021-08-04T20:26:05Z</time>
      </trkpt>
      <trkpt lat="43.72054" lon="7.18628">
        <ele>30</ele>
        <time>2021-08-04T20:26:42Z</time>
      </trkpt>
      <trkpt lat="43.72198" lon="7.18622">
        <ele>34</ele>
        <time>2021-08-04T20:27:08Z</time>
      </trkpt>
      <trkpt lat="43.72235" lon="7.18619">
        <ele>35</ele>
        <time>2021-08-04T20:27:15Z</time>
      </trkpt>
      <trkpt lat="43.72292" lon="7.18616">
        <ele>35</ele>
        <time>2021-08-04T20:27:25Z</time>
      </trkpt>
      <trkpt lat="43.72314" lon="7.1861">
        <ele>35</ele>
        <time>2021-08-04T20:27:29Z</time>
      </trkpt>
      <trkpt lat="43.72326" lon="7.18607">
        <ele>35</ele>
        <time>2021-08-04T20:27:31Z</time>
      </trkpt>
      <trkpt lat="43.72406" lon="7.18586">
        <ele>36</ele>
        <time>2021-08-04T20:27:46Z</time>
      </trkpt>
      <trkpt lat="43.72416" lon="7.18583">
        <ele>36</ele>
        <time>2021-08-04T20:27:47Z</time>
      </trkpt>
      <trkpt lat="43.72546" lon="7.18565">
        <ele>35</ele>
        <time>2021-08-04T20:28:11Z</time>
      </trkpt>
      <trkpt lat="43.72575" lon="7.18561">
        <ele>35</ele>
        <time>2021-08-04T20:28:16Z</time>
      </trkpt>
      <trkpt lat="43.72582" lon="7.18564">
        <ele>36</ele>
        <time>2021-08-04T20:28:17Z</time>
      </trkpt>
      <trkpt lat="43.72632" lon="7.18561">
        <ele>35</ele>
        <time>2021-08-04T20:28:26Z</time>
      </trkpt>
      <trkpt lat="43.72717" lon="7.18563">
        <ele>37</ele>
        <time>2021-08-04T20:28:41Z</time>
      </trkpt>
      <trkpt lat="43.7274" lon="7.18566">
        <ele>38</ele>
        <time>2021-08-04T20:28:45Z</time>
      </trkpt>
      <trkpt lat="43.72757" lon="7.18561">
        <ele>38</ele>
        <time>2021-08-04T20:28:48Z</time>
      </trkpt>
      <trkpt lat="43.72781" lon="7.18559">
        <ele>37</ele>
        <time>2021-08-04T20:28:53Z</time>
      </trkpt>
      <trkpt lat="43.72928" lon="7.18543">
        <ele>37</ele>
        <time>2021-08-04T20:29:19Z</time>
      </trkpt>
      <trkpt lat="43.73046" lon="7.18524">
        <ele>38</ele>
        <time>2021-08-04T20:29:40Z</time>
      </trkpt>
      <trkpt lat="43.7306" lon="7.18524">
        <ele>39</ele>
        <time>2021-08-04T20:29:42Z</time>
      </trkpt>
      <trkpt lat="43.73072" lon="7.18529">
        <ele>39</ele>
        <time>2021-08-04T20:29:45Z</time>
      </trkpt>
      <trkpt lat="43.73097" lon="7.18564">
        <ele>41</ele>
        <time>2021-08-04T20:29:51Z</time>
      </trkpt>
      <trkpt lat="43.73115" lon="7.18786">
        <ele>42</ele>
        <time>2021-08-04T20:30:20Z</time>
      </trkpt>
      <trkpt lat="43.73113" lon="7.18792">
        <ele>42</ele>
        <time>2021-08-04T20:30:21Z</time>
      </trkpt>
      <trkpt lat="43.73106" lon="7.18798">
        <ele>42</ele>
        <time>2021-08-04T20:30:22Z</time>
      </trkpt>
      <trkpt lat="43.731" lon="7.18796">
        <ele>42</ele>
        <time>2021-08-04T20:30:23Z</time>
      </trkpt>
      <trkpt lat="43.73098" lon="7.18783">
        <ele>41</ele>
        <time>2021-08-04T20:30:25Z</time>
      </trkpt>
      <trkpt lat="43.73099" lon="7.18771">
        <ele>41</ele>
        <time>2021-08-04T20:30:26Z</time>
      </trkpt>
      <trkpt lat="43.73091" lon="7.18664">
        <ele>41</ele>
        <time>2021-08-04T20:30:40Z</time>
      </trkpt>
      <trkpt lat="43.73085" lon="7.1859">
        <ele>41</ele>
        <time>2021-08-04T20:30:50Z</time>
      </trkpt>
      <trkpt lat="43.7308" lon="7.18568">
        <ele>40</ele>
        <time>2021-08-04T20:30:53Z</time>
      </trkpt>
      <trkpt lat="43.73073" lon="7.1855">
        <ele>40</ele>
        <time>2021-08-04T20:30:55Z</time>
      </trkpt>
      <trkpt lat="43.73067" lon="7.18537">
        <ele>39</ele>
        <time>2021-08-04T20:30:57Z</time>
      </trkpt>
      <trkpt lat="43.73052" lon="7.18519">
        <ele>39</ele>
        <time>2021-08-04T20:31:01Z</time>
      </trkpt>
      <trkpt lat="43.73041" lon="7.18509">
        <ele>38</ele>
        <time>2021-08-04T20:31:03Z</time>
      </trkpt>
      <trkpt lat="43.73013" lon="7.18491">
        <ele>37</ele>
        <time>2021-08-04T20:31:09Z</time>
      </trkpt>
      <trkpt lat="43.7299" lon="7.18486">
        <ele>36</ele>
        <time>2021-08-04T20:31:13Z</time>
      </trkpt>
      <trkpt lat="43.72938" lon="7.18493">
        <ele>36</ele>
        <time>2021-08-04T20:31:22Z</time>
      </trkpt>
      <trkpt lat="43.72817" lon="7.18511">
        <ele>36</ele>
        <time>2021-08-04T20:31:44Z</time>
      </trkpt>
      <trkpt lat="43.72806" lon="7.18519">
        <ele>36</ele>
        <time>2021-08-04T20:31:46Z</time>
      </trkpt>
      <trkpt lat="43.72713" lon="7.18532">
        <ele>35</ele>
        <time>2021-08-04T20:32:03Z</time>
      </trkpt>
      <trkpt lat="43.72558" lon="7.18551">
        <ele>34</ele>
        <time>2021-08-04T20:32:30Z</time>
      </trkpt>
      <trkpt lat="43.72416" lon="7.18571">
        <ele>35</ele>
        <time>2021-08-04T20:32:56Z</time>
      </trkpt>
      <trkpt lat="43.72291" lon="7.18605">
        <ele>35</ele>
        <time>2021-08-04T20:33:18Z</time>
      </trkpt>
      <trkpt lat="43.72263" lon="7.18607">
        <ele>35</ele>
        <time>2021-08-04T20:33:23Z</time>
      </trkpt>
      <trkpt lat="43.72206" lon="7.1861">
        <ele>34</ele>
        <time>2021-08-04T20:33:34Z</time>
      </trkpt>
      <trkpt lat="43.72062" lon="7.18618">
        <ele>30</ele>
        <time>2021-08-04T20:33:59Z</time>
      </trkpt>
      <trkpt lat="43.72001" lon="7.18623">
        <ele>28</ele>
        <time>2021-08-04T20:34:10Z</time>
      </trkpt>
      <trkpt lat="43.71844" lon="7.18645">
        <ele>31</ele>
        <time>2021-08-04T20:34:38Z</time>
      </trkpt>
      <trkpt lat="43.71829" lon="7.18647">
        <ele>31</ele>
        <time>2021-08-04T20:34:41Z</time>
      </trkpt>
      <trkpt lat="43.7142" lon="7.18704">
        <ele>26</ele>
        <time>2021-08-04T20:35:54Z</time>
      </trkpt>
      <trkpt lat="43.71294" lon="7.1872">
        <ele>27</ele>
        <time>2021-08-04T20:36:17Z</time>
      </trkpt>
      <trkpt lat="43.71268" lon="7.18724">
        <ele>27</ele>
        <time>2021-08-04T20:36:21Z</time>
      </trkpt>
      <trkpt lat="43.7125" lon="7.18727">
        <ele>27</ele>
        <time>2021-08-04T20:36:24Z</time>
      </trkpt>
      <trkpt lat="43.7123" lon="7.18732">
        <ele>27</ele>
        <time>2021-08-04T20:36:28Z</time>
      </trkpt>
      <trkpt lat="43.71215" lon="7.18728">
        <ele>27</ele>
        <time>2021-08-04T20:36:31Z</time>
      </trkpt>
      <trkpt lat="43.71176" lon="7.18733">
        <ele>26</ele>
        <time>2021-08-04T20:36:38Z</time>
      </trkpt>
      <trkpt lat="43.7109" lon="7.18748">
        <ele>27</ele>
        <time>2021-08-04T20:36:53Z</time>
      </trkpt>
      <trkpt lat="43.71036" lon="7.1876">
        <ele>28</ele>
        <time>2021-08-04T20:37:03Z</time>
      </trkpt>
      <trkpt lat="43.71029" lon="7.18765">
        <ele>28</ele>
        <time>2021-08-04T20:37:04Z</time>
      </trkpt>
      <trkpt lat="43.71019" lon="7.18757">
        <ele>28</ele>
        <time>2021-08-04T20:37:06Z</time>
      </trkpt>
      <trkpt lat="43.70848" lon="7.18779">
        <ele>25</ele>
        <time>2021-08-04T20:37:37Z</time>
      </trkpt>
      <trkpt lat="43.70837" lon="7.18793">
        <ele>25</ele>
        <time>2021-08-04T20:37:40Z</time>
      </trkpt>
      <trkpt lat="43.70753" lon="7.18804">
        <ele>26</ele>
        <time>2021-08-04T20:37:55Z</time>
      </trkpt>
      <trkpt lat="43.70684" lon="7.18815">
        <ele>25</ele>
        <time>2021-08-04T20:38:07Z</time>
      </trkpt>
      <trkpt lat="43.70618" lon="7.18832">
        <ele>25</ele>
        <time>2021-08-04T20:38:19Z</time>
      </trkpt>
      <trkpt lat="43.7051" lon="7.18878">
        <ele>26</ele>
        <time>2021-08-04T20:38:39Z</time>
      </trkpt>
      <trkpt lat="43.70465" lon="7.18889">
        <ele>26</ele>
        <time>2021-08-04T20:38:47Z</time>
      </trkpt>
      <trkpt lat="43.70426" lon="7.18892">
        <ele>25</ele>
        <time>2021-08-04T20:38:54Z</time>
      </trkpt>
      <trkpt lat="43.70369" lon="7.18888">
        <ele>25</ele>
        <time>2021-08-04T20:39:04Z</time>
      </trkpt>
      <trkpt lat="43.7036" lon="7.1888">
        <ele>25</ele>
        <time>2021-08-04T20:39:06Z</time>
      </trkpt>
      <trkpt lat="43.70257" lon="7.18866">
        <ele>25</ele>
        <time>2021-08-04T20:39:24Z</time>
      </trkpt>
      <trkpt lat="43.70222" lon="7.18874">
        <ele>24</ele>
        <time>2021-08-04T20:39:31Z</time>
      </trkpt>
      <trkpt lat="43.70202" lon="7.18874">
        <ele>24</ele>
        <time>2021-08-04T20:39:34Z</time>
      </trkpt>
      <trkpt lat="43.70193" lon="7.1888">
        <ele>24</ele>
        <time>2021-08-04T20:39:36Z</time>
      </trkpt>
      <trkpt lat="43.70144" lon="7.18884">
        <ele>23</ele>
        <time>2021-08-04T20:39:45Z</time>
      </trkpt>
      <trkpt lat="43.70054" lon="7.18911">
        <ele>24</ele>
        <time>2021-08-04T20:40:01Z</time>
      </trkpt>
      <trkpt lat="43.69987" lon="7.18935">
        <ele>25</ele>
        <time>2021-08-04T20:40:14Z</time>
      </trkpt>
      <trkpt lat="43.69926" lon="7.18962">
        <ele>24</ele>
        <time>2021-08-04T20:40:25Z</time>
      </trkpt>
      <trkpt lat="43.69734" lon="7.19056">
        <ele>24</ele>
        <time>2021-08-04T20:41:01Z</time>
      </trkpt>
      <trkpt lat="43.69642" lon="7.19129">
        <ele>23</ele>
        <time>2021-08-04T20:41:20Z</time>
      </trkpt>
      <trkpt lat="43.69626" lon="7.19137">
        <ele>23</ele>
        <time>2021-08-04T20:41:23Z</time>
      </trkpt>
      <trkpt lat="43.69622" lon="7.19133">
        <ele>23</ele>
        <time>2021-08-04T20:41:24Z</time>
      </trkpt>
      <trkpt lat="43.69609" lon="7.19129">
        <ele>23</ele>
        <time>2021-08-04T20:41:26Z</time>
      </trkpt>
      <trkpt lat="43.69601" lon="7.19132">
        <ele>23</ele>
        <time>2021-08-04T20:41:28Z</time>
      </trkpt>
      <trkpt lat="43.69593" lon="7.19137">
        <ele>23</ele>
        <time>2021-08-04T20:41:29Z</time>
      </trkpt>
      <trkpt lat="43.69588" lon="7.19146">
        <ele>23</ele>
        <time>2021-08-04T20:41:31Z</time>
      </trkpt>
      <trkpt lat="43.69585" lon="7.19155">
        <ele>23</ele>
        <time>2021-08-04T20:41:32Z</time>
      </trkpt>
      <trkpt lat="43.69583" lon="7.19165">
        <ele>23</ele>
        <time>2021-08-04T20:41:33Z</time>
      </trkpt>
      <trkpt lat="43.69584" lon="7.19175">
        <ele>23</ele>
        <time>2021-08-04T20:41:35Z</time>
      </trkpt>
      <trkpt lat="43.69572" lon="7.19193">
        <ele>23</ele>
        <time>2021-08-04T20:41:38Z</time>
      </trkpt>
      <trkpt lat="43.69448" lon="7.19298">
        <ele>20</ele>
        <time>2021-08-04T20:42:04Z</time>
      </trkpt>
      <trkpt lat="43.69316" lon="7.19405">
        <ele>20</ele>
        <time>2021-08-04T20:42:31Z</time>
      </trkpt>
      <trkpt lat="43.69176" lon="7.19525">
        <ele>20</ele>
        <time>2021-08-04T20:43:00Z</time>
      </trkpt>
      <trkpt lat="43.69145" lon="7.19546">
        <ele>19</ele>
        <time>2021-08-04T20:43:06Z</time>
      </trkpt>
      <trkpt lat="43.69072" lon="7.19582">
        <ele>17</ele>
        <time>2021-08-04T20:43:20Z</time>
      </trkpt>
      <trkpt lat="43.69078" lon="7.19595">
        <ele>17</ele>
        <time>2021-08-04T20:43:22Z</time>
      </trkpt>
      <trkpt lat="43.69128" lon="7.1957">
        <ele>18</ele>
        <time>2021-08-04T20:43:32Z</time>
      </trkpt>
      <trkpt lat="43.69182" lon="7.19535">
        <ele>20</ele>
        <time>2021-08-04T20:43:42Z</time>
      </trkpt>
      <trkpt lat="43.69377" lon="7.19372">
        <ele>20</ele>
        <time>2021-08-04T20:44:23Z</time>
      </trkpt>
      <trkpt lat="43.69383" lon="7.19384">
        <ele>20</ele>
        <time>2021-08-04T20:44:25Z</time>
      </trkpt>
      <trkpt lat="43.69377" lon="7.19372">
        <ele>20</ele>
        <time>2021-08-04T20:44:27Z</time>
      </trkpt>
      <trkpt lat="43.69486" lon="7.1928">
        <ele>20</ele>
        <time>2021-08-04T20:44:49Z</time>
      </trkpt>
      <trkpt lat="43.69559" lon="7.19222">
        <ele>22</ele>
        <time>2021-08-04T20:45:04Z</time>
      </trkpt>
      <trkpt lat="43.69586" lon="7.19202">
        <ele>23</ele>
        <time>2021-08-04T20:45:10Z</time>
      </trkpt>
      <trkpt lat="43.69597" lon="7.19198">
        <ele>23</ele>
        <time>2021-08-04T20:45:12Z</time>
      </trkpt>
      <trkpt lat="43.69605" lon="7.19203">
        <ele>23</ele>
        <time>2021-08-04T20:45:13Z</time>
      </trkpt>
      <trkpt lat="43.69614" lon="7.19203">
        <ele>23</ele>
        <time>2021-08-04T20:45:15Z</time>
      </trkpt>
      <trkpt lat="43.69622" lon="7.19199">
        <ele>23</ele>
        <time>2021-08-04T20:45:16Z</time>
      </trkpt>
      <trkpt lat="43.6963" lon="7.19192">
        <ele>23</ele>
        <time>2021-08-04T20:45:18Z</time>
      </trkpt>
      <trkpt lat="43.69663" lon="7.1921">
        <ele>22</ele>
        <time>2021-08-04T20:45:24Z</time>
      </trkpt>
      <trkpt lat="43.69671" lon="7.19212">
        <ele>22</ele>
        <time>2021-08-04T20:45:26Z</time>
      </trkpt>
      <trkpt lat="43.69676" lon="7.1923">
        <ele>22</ele>
        <time>2021-08-04T20:45:28Z</time>
      </trkpt>
      <trkpt lat="43.69739" lon="7.19644">
        <ele>23</ele>
        <time>2021-08-04T20:46:23Z</time>
      </trkpt>
      <trkpt lat="43.6973" lon="7.19646">
        <ele>23</ele>
        <time>2021-08-04T20:46:24Z</time>
      </trkpt>
      <trkpt lat="43.69727" lon="7.19647">
        <ele>23</ele>
        <time>2021-08-04T20:46:25Z</time>
      </trkpt>
      <trkpt lat="43.69717" lon="7.1965">
        <ele>23</ele>
        <time>2021-08-04T20:46:27Z</time>
      </trkpt>
      <trkpt lat="43.69649" lon="7.19676">
        <ele>22</ele>
        <time>2021-08-04T20:46:39Z</time>
      </trkpt>
      <trkpt lat="43.69648" lon="7.19674">
        <ele>22</ele>
        <time>2021-08-04T20:46:40Z</time>
      </trkpt>
      <trkpt lat="43.69644" lon="7.19676">
        <ele>21</ele>
        <time>2021-08-04T20:46:40Z</time>
      </trkpt>
      <trkpt lat="43.69606" lon="7.19696">
        <ele>19</ele>
        <time>2021-08-04T20:46:48Z</time>
      </trkpt>
      <trkpt lat="43.696" lon="7.19699">
        <ele>18</ele>
        <time>2021-08-04T20:46:49Z</time>
      </trkpt>
      <trkpt lat="43.69584" lon="7.19709">
        <ele>18</ele>
        <time>2021-08-04T20:46:52Z</time>
      </trkpt>
      <trkpt lat="43.69483" lon="7.19777">
        <ele>19</ele>
        <time>2021-08-04T20:47:12Z</time>
      </trkpt>
      <trkpt lat="43.69479" lon="7.1978">
        <ele>19</ele>
        <time>2021-08-04T20:47:13Z</time>
      </trkpt>
      <trkpt lat="43.69471" lon="7.19786">
        <ele>19</ele>
        <time>2021-08-04T20:47:14Z</time>
      </trkpt>
      <trkpt lat="43.69401" lon="7.19834">
        <ele>17</ele>
        <time>2021-08-04T20:47:28Z</time>
      </trkpt>
      <trkpt lat="43.69378" lon="7.19849">
        <ele>18</ele>
        <time>2021-08-04T20:47:33Z</time>
      </trkpt>
      <trkpt lat="43.69363" lon="7.19858">
        <ele>19</ele>
        <time>2021-08-04T20:47:36Z</time>
      </trkpt>
      <trkpt lat="43.69319" lon="7.19884">
        <ele>20</ele>
        <time>2021-08-04T20:47:44Z</time>
      </trkpt>
      <trkpt lat="43.69289" lon="7.199">
        <ele>20</ele>
        <time>2021-08-04T20:47:50Z</time>
      </trkpt>
      <trkpt lat="43.69259" lon="7.19916">
        <ele>20</ele>
        <time>2021-08-04T20:47:56Z</time>
      </trkpt>
      <trkpt lat="43.69256" lon="7.19915">
        <ele>20</ele>
        <time>2021-08-04T20:47:56Z</time>
      </trkpt>
      <trkpt lat="43.69246" lon="7.19921">
        <ele>20</ele>
        <time>2021-08-04T20:47:58Z</time>
      </trkpt>
      <trkpt lat="43.69242" lon="7.19923">
        <ele>20</ele>
        <time>2021-08-04T20:47:59Z</time>
      </trkpt>
      <trkpt lat="43.69238" lon="7.19925">
        <ele>20</ele>
        <time>2021-08-04T20:48:00Z</time>
      </trkpt>
      <trkpt lat="43.69231" lon="7.1993">
        <ele>20</ele>
        <time>2021-08-04T20:48:01Z</time>
      </trkpt>
      <trkpt lat="43.6922" lon="7.19937">
        <ele>20</ele>
        <time>2021-08-04T20:48:03Z</time>
      </trkpt>
      <trkpt lat="43.69219" lon="7.19938">
        <ele>20</ele>
        <time>2021-08-04T20:48:03Z</time>
      </trkpt>
      <trkpt lat="43.69209" lon="7.19943">
        <ele>19</ele>
        <time>2021-08-04T20:48:05Z</time>
      </trkpt>
      <trkpt lat="43.69128" lon="7.19986">
        <ele>18</ele>
        <time>2021-08-04T20:48:21Z</time>
      </trkpt>
      <trkpt lat="43.69109" lon="7.19997">
        <ele>18</ele>
        <time>2021-08-04T20:48:24Z</time>
      </trkpt>
      <trkpt lat="43.69059" lon="7.20024">
        <ele>19</ele>
        <time>2021-08-04T20:48:34Z</time>
      </trkpt>
      <trkpt lat="43.69004" lon="7.20053">
        <ele>19</ele>
        <time>2021-08-04T20:48:44Z</time>
      </trkpt>
      <trkpt lat="43.68983" lon="7.20061">
        <ele>20</ele>
        <time>2021-08-04T20:48:48Z</time>
      </trkpt>
      <trkpt lat="43.68974" lon="7.20065">
        <ele>20</ele>
        <time>2021-08-04T20:48:50Z</time>
      </trkpt>
      <trkpt lat="43.68954" lon="7.20071">
        <ele>20</ele>
        <time>2021-08-04T20:48:54Z</time>
      </trkpt>
      <trkpt lat="43.68933" lon="7.20078">
        <ele>20</ele>
        <time>2021-08-04T20:48:57Z</time>
      </trkpt>
      <trkpt lat="43.6889" lon="7.20092">
        <ele>21</ele>
        <time>2021-08-04T20:49:05Z</time>
      </trkpt>
      <trkpt lat="43.68883" lon="7.20095">
        <ele>21</ele>
        <time>2021-08-04T20:49:07Z</time>
      </trkpt>
      <trkpt lat="43.68874" lon="7.20097">
        <ele>21</ele>
        <time>2021-08-04T20:49:08Z</time>
      </trkpt>
      <trkpt lat="43.68859" lon="7.20102">
        <ele>21</ele>
        <time>2021-08-04T20:49:11Z</time>
      </trkpt>
      <trkpt lat="43.68857" lon="7.20104">
        <ele>21</ele>
        <time>2021-08-04T20:49:11Z</time>
      </trkpt>
      <trkpt lat="43.68846" lon="7.20108">
        <ele>22</ele>
        <time>2021-08-04T20:49:13Z</time>
      </trkpt>
      <trkpt lat="43.68818" lon="7.20117">
        <ele>22</ele>
        <time>2021-08-04T20:49:19Z</time>
      </trkpt>
      <trkpt lat="43.6877" lon="7.20133">
        <ele>21</ele>
        <time>2021-08-04T20:49:27Z</time>
      </trkpt>
      <trkpt lat="43.68768" lon="7.20134">
        <ele>21</ele>
        <time>2021-08-04T20:49:28Z</time>
      </trkpt>
      <trkpt lat="43.6876" lon="7.20135">
        <ele>21</ele>
        <time>2021-08-04T20:49:29Z</time>
      </trkpt>
      <trkpt lat="43.68758" lon="7.20137">
        <ele>21</ele>
        <time>2021-08-04T20:49:30Z</time>
      </trkpt>
      <trkpt lat="43.6872" lon="7.2015">
        <ele>20</ele>
        <time>2021-08-04T20:49:37Z</time>
      </trkpt>
      <trkpt lat="43.68704" lon="7.20156">
        <ele>20</ele>
        <time>2021-08-04T20:49:40Z</time>
      </trkpt>
      <trkpt lat="43.68697" lon="7.20156">
        <ele>20</ele>
        <time>2021-08-04T20:49:41Z</time>
      </trkpt>
      <trkpt lat="43.68692" lon="7.20157">
        <ele>19</ele>
        <time>2021-08-04T20:49:42Z</time>
      </trkpt>
      <trkpt lat="43.68688" lon="7.20161">
        <ele>19</ele>
        <time>2021-08-04T20:49:43Z</time>
      </trkpt>
      <trkpt lat="43.68645" lon="7.20173">
        <ele>20</ele>
        <time>2021-08-04T20:49:50Z</time>
      </trkpt>
      <trkpt lat="43.68604" lon="7.20186">
        <ele>22</ele>
        <time>2021-08-04T20:49:58Z</time>
      </trkpt>
      <trkpt lat="43.68595" lon="7.20189">
        <ele>22</ele>
        <time>2021-08-04T20:49:59Z</time>
      </trkpt>
      <trkpt lat="43.68593" lon="7.20188">
        <ele>22</ele>
        <time>2021-08-04T20:50:00Z</time>
      </trkpt>
      <trkpt lat="43.68589" lon="7.20189">
        <ele>22</ele>
        <time>2021-08-04T20:50:01Z</time>
      </trkpt>
      <trkpt lat="43.68586" lon="7.2019">
        <ele>23</ele>
        <time>2021-08-04T20:50:01Z</time>
      </trkpt>
      <trkpt lat="43.68579" lon="7.20194">
        <ele>23</ele>
        <time>2021-08-04T20:50:02Z</time>
      </trkpt>
      <trkpt lat="43.68495" lon="7.20221">
        <ele>20</ele>
        <time>2021-08-04T20:50:18Z</time>
      </trkpt>
      <trkpt lat="43.68488" lon="7.20223">
        <ele>20</ele>
        <time>2021-08-04T20:50:19Z</time>
      </trkpt>
      <trkpt lat="43.68471" lon="7.20228">
        <ele>20</ele>
        <time>2021-08-04T20:50:22Z</time>
      </trkpt>
      <trkpt lat="43.68456" lon="7.20232">
        <ele>19</ele>
        <time>2021-08-04T20:50:25Z</time>
      </trkpt>
      <trkpt lat="43.6841" lon="7.20247">
        <ele>18</ele>
        <time>2021-08-04T20:50:33Z</time>
      </trkpt>
      <trkpt lat="43.68404" lon="7.20252">
        <ele>18</ele>
        <time>2021-08-04T20:50:35Z</time>
      </trkpt>
      <trkpt lat="43.68391" lon="7.20254">
        <ele>18</ele>
        <time>2021-08-04T20:50:37Z</time>
      </trkpt>
      <trkpt lat="43.68383" lon="7.20255">
        <ele>17</ele>
        <time>2021-08-04T20:50:38Z</time>
      </trkpt>
      <trkpt lat="43.68383" lon="7.20255">
        <ele>17</ele>
        <time>2021-08-04T20:50:38Z</time>
      </trkpt>
      <trkpt lat="43.68313" lon="7.2028">
        <ele>15</ele>
        <time>2021-08-04T20:50:51Z</time>
      </trkpt>
      <trkpt lat="43.683" lon="7.20285">
        <ele>15</ele>
        <time>2021-08-04T20:50:54Z</time>
      </trkpt>
      <trkpt lat="43.68298" lon="7.20286">
        <ele>15</ele>
        <time>2021-08-04T20:50:54Z</time>
      </trkpt>
      <trkpt lat="43.68296" lon="7.20287">
        <ele>15</ele>
        <time>2021-08-04T20:50:54Z</time>
      </trkpt>
      <trkpt lat="43.6826" lon="7.20302">
        <ele>14</ele>
        <time>2021-08-04T20:51:01Z</time>
      </trkpt>
      <trkpt lat="43.68249" lon="7.20307">
        <ele>14</ele>
        <time>2021-08-04T20:51:03Z</time>
      </trkpt>
      <trkpt lat="43.68227" lon="7.20315">
        <ele>13</ele>
        <time>2021-08-04T20:51:07Z</time>
      </trkpt>
      <trkpt lat="43.68162" lon="7.20342">
        <ele>12</ele>
        <time>2021-08-04T20:51:19Z</time>
      </trkpt>
      <trkpt lat="43.68094" lon="7.20368">
        <ele>13</ele>
        <time>2021-08-04T20:51:32Z</time>
      </trkpt>
      <trkpt lat="43.6809" lon="7.2037">
        <ele>13</ele>
        <time>2021-08-04T20:51:33Z</time>
      </trkpt>
      <trkpt lat="43.68084" lon="7.20371">
        <ele>13</ele>
        <time>2021-08-04T20:51:34Z</time>
      </trkpt>
      <trkpt lat="43.68077" lon="7.20374">
        <ele>13</ele>
        <time>2021-08-04T20:51:35Z</time>
      </trkpt>
      <trkpt lat="43.68065" lon="7.20379">
        <ele>13</ele>
        <time>2021-08-04T20:51:37Z</time>
      </trkpt>
      <trkpt lat="43.68052" lon="7.20383">
        <ele>13</ele>
        <time>2021-08-04T20:51:40Z</time>
      </trkpt>
      <trkpt lat="43.68024" lon="7.20395">
        <ele>13</ele>
        <time>2021-08-04T20:51:45Z</time>
      </trkpt>
      <trkpt lat="43.68013" lon="7.20401">
        <ele>14</ele>
        <time>2021-08-04T20:51:47Z</time>
      </trkpt>
      <trkpt lat="43.67989" lon="7.2041">
        <ele>14</ele>
        <time>2021-08-04T20:51:51Z</time>
      </trkpt>
      <trkpt lat="43.67972" lon="7.20418">
        <ele>14</ele>
        <time>2021-08-04T20:51:54Z</time>
      </trkpt>
      <trkpt lat="43.67932" lon="7.20433">
        <ele>15</ele>
        <time>2021-08-04T20:52:02Z</time>
      </trkpt>
      <trkpt lat="43.67899" lon="7.20447">
        <ele>16</ele>
        <time>2021-08-04T20:52:08Z</time>
      </trkpt>
      <trkpt lat="43.67896" lon="7.20446">
        <ele>16</ele>
        <time>2021-08-04T20:52:09Z</time>
      </trkpt>
      <trkpt lat="43.67872" lon="7.20456">
        <ele>16</ele>
        <time>2021-08-04T20:52:13Z</time>
      </trkpt>
      <trkpt lat="43.67861" lon="7.2046">
        <ele>16</ele>
        <time>2021-08-04T20:52:15Z</time>
      </trkpt>
      <trkpt lat="43.67859" lon="7.20461">
        <ele>16</ele>
        <time>2021-08-04T20:52:15Z</time>
      </trkpt>
      <trkpt lat="43.67858" lon="7.20463">
        <ele>16</ele>
        <time>2021-08-04T20:52:16Z</time>
      </trkpt>
      <trkpt lat="43.67799" lon="7.20487">
        <ele>15</ele>
        <time>2021-08-04T20:52:27Z</time>
      </trkpt>
      <trkpt lat="43.67785" lon="7.20492">
        <ele>15</ele>
        <time>2021-08-04T20:52:29Z</time>
      </trkpt>
      <trkpt lat="43.67779" lon="7.20494">
        <ele>14</ele>
        <time>2021-08-04T20:52:30Z</time>
      </trkpt>
      <trkpt lat="43.67778" lon="7.20495">
        <ele>14</ele>
        <time>2021-08-04T20:52:31Z</time>
      </trkpt>
      <trkpt lat="43.67774" lon="7.20496">
        <ele>14</ele>
        <time>2021-08-04T20:52:31Z</time>
      </trkpt>
      <trkpt lat="43.67763" lon="7.205">
        <ele>14</ele>
        <time>2021-08-04T20:52:33Z</time>
      </trkpt>
      <trkpt lat="43.6776" lon="7.20501">
        <ele>14</ele>
        <time>2021-08-04T20:52:34Z</time>
      </trkpt>
      <trkpt lat="43.67749" lon="7.20509">
        <ele>13</ele>
        <time>2021-08-04T20:52:36Z</time>
      </trkpt>
      <trkpt lat="43.67693" lon="7.20553">
        <ele>15</ele>
        <time>2021-08-04T20:52:47Z</time>
      </trkpt>
      <trkpt lat="43.67616" lon="7.20613">
        <ele>15</ele>
        <time>2021-08-04T20:53:03Z</time>
      </trkpt>
      <trkpt lat="43.67604" lon="7.20624">
        <ele>15</ele>
        <time>2021-08-04T20:53:06Z</time>
      </trkpt>
      <trkpt lat="43.67581" lon="7.20643">
        <ele>14</ele>
        <time>2021-08-04T20:53:11Z</time>
      </trkpt>
      <trkpt lat="43.67547" lon="7.2067">
        <ele>14</ele>
        <time>2021-08-04T20:53:18Z</time>
      </trkpt>
      <trkpt lat="43.67537" lon="7.2068">
        <ele>14</ele>
        <time>2021-08-04T20:53:20Z</time>
      </trkpt>
      <trkpt lat="43.67433" lon="7.20763">
        <ele>17</ele>
        <time>2021-08-04T20:53:41Z</time>
      </trkpt>
      <trkpt lat="43.67367" lon="7.20816">
        <ele>15</ele>
        <time>2021-08-04T20:53:55Z</time>
      </trkpt>
      <trkpt lat="43.6727" lon="7.20894">
        <ele>12</ele>
        <time>2021-08-04T20:54:15Z</time>
      </trkpt>
      <trkpt lat="43.67162" lon="7.2098">
        <ele>7</ele>
        <time>2021-08-04T20:54:37Z</time>
      </trkpt>
      <trkpt lat="43.67153" lon="7.20981">
        <ele>8</ele>
        <time>2021-08-04T20:54:38Z</time>
      </trkpt>
      <trkpt lat="43.67153" lon="7.20988">
        <ele>8</ele>
        <time>2021-08-04T20:54:39Z</time>
      </trkpt>
      <trkpt lat="43.67151" lon="7.20997">
        <ele>8</ele>
        <time>2021-08-04T20:54:41Z</time>
      </trkpt>
      <trkpt lat="43.6713" lon="7.21021">
        <ele>9</ele>
        <time>2021-08-04T20:54:45Z</time>
      </trkpt>
      <trkpt lat="43.67081" lon="7.21086">
        <ele>10</ele>
        <time>2021-08-04T20:54:57Z</time>
      </trkpt>
      <trkpt lat="43.67071" lon="7.21084">
        <ele>10</ele>
        <time>2021-08-04T20:54:59Z</time>
      </trkpt>
      <trkpt lat="43.67066" lon="7.21084">
        <ele>10</ele>
        <time>2021-08-04T20:55:00Z</time>
      </trkpt>
      <trkpt lat="43.67057" lon="7.21083">
        <ele>9</ele>
        <time>2021-08-04T20:55:02Z</time>
      </trkpt>
      <trkpt lat="43.67053" lon="7.21094">
        <ele>9</ele>
        <time>2021-08-04T20:55:03Z</time>
      </trkpt>
      <trkpt lat="43.67046" lon="7.21092">
        <ele>9</ele>
        <time>2021-08-04T20:55:05Z</time>
      </trkpt>
      <trkpt lat="43.67029" lon="7.21094">
        <ele>9</ele>
        <time>2021-08-04T20:55:08Z</time>
      </trkpt>
      <trkpt lat="43.66972" lon="7.21098">
        <ele>8</ele>
        <time>2021-08-04T20:55:18Z</time>
      </trkpt>
      <trkpt lat="43.66895" lon="7.21108">
        <ele>8</ele>
        <time>2021-08-04T20:55:32Z</time>
      </trkpt>
      <trkpt lat="43.6686" lon="7.21112">
        <ele>7</ele>
        <time>2021-08-04T20:55:38Z</time>
      </trkpt>
      <trkpt lat="43.66849" lon="7.21114">
        <ele>7</ele>
        <time>2021-08-04T20:55:40Z</time>
      </trkpt>
      <trkpt lat="43.66798" lon="7.20976">
        <ele>9</ele>
        <time>2021-08-04T20:56:00Z</time>
      </trkpt>
      <trkpt lat="43.66794" lon="7.20971">
        <ele>9</ele>
        <time>2021-08-04T20:56:01Z</time>
      </trkpt>
      <trkpt lat="43.6673" lon="7.20799">
        <ele>9</ele>
        <time>2021-08-04T20:56:26Z</time>
      </trkpt>
      <trkpt lat="43.66719" lon="7.20804">
        <ele>9</ele>
        <time>2021-08-04T20:56:28Z</time>
      </trkpt>
      <trkpt lat="43.66693" lon="7.20811">
        <ele>8</ele>
        <time>2021-08-04T20:56:32Z</time>
      </trkpt>
      <trkpt lat="43.66685" lon="7.20803">
        <ele>8</ele>
        <time>2021-08-04T20:56:34Z</time>
      </trkpt>
      <trkpt lat="43.66676" lon="7.20804">
        <ele>7</ele>
        <time>2021-08-04T20:56:36Z</time>
      </trkpt>
      <trkpt lat="43.66672" lon="7.20807">
        <ele>7</ele>
        <time>2021-08-04T20:56:37Z</time>
      </trkpt>
      <trkpt lat="43.66667" lon="7.20816">
        <ele>7</ele>
        <time>2021-08-04T20:56:38Z</time>
      </trkpt>
      <trkpt lat="43.66631" lon="7.2083">
        <ele>7</ele>
        <time>2021-08-04T20:56:45Z</time>
      </trkpt>
      <trkpt lat="43.6662" lon="7.20821">
        <ele>8</ele>
        <time>2021-08-04T20:56:47Z</time>
      </trkpt>
      <trkpt lat="43.66614" lon="7.20803">
        <ele>8</ele>
        <time>2021-08-04T20:56:49Z</time>
      </trkpt>
      <trkpt lat="43.66598" lon="7.20627">
        <ele>8</ele>
        <time>2021-08-04T20:57:12Z</time>
      </trkpt>
      <trkpt lat="43.66597" lon="7.20606">
        <ele>9</ele>
        <time>2021-08-04T20:57:15Z</time>
      </trkpt>
      <trkpt lat="43.66602" lon="7.2059">
        <ele>9</ele>
        <time>2021-08-04T20:57:17Z</time>
      </trkpt>
      <trkpt lat="43.66608" lon="7.20575">
        <ele>9</ele>
        <time>2021-08-04T20:57:19Z</time>
      </trkpt>
      <trkpt lat="43.66619" lon="7.20555">
        <ele>10</ele>
        <time>2021-08-04T20:57:23Z</time>
      </trkpt>
      <trkpt lat="43.66673" lon="7.20522">
        <ele>9</ele>
        <time>2021-08-04T20:57:33Z</time>
      </trkpt>
    </trkseg>
  </trk>
</gpx>